<?xml version="1.0" encoding="UTF-8" standalone="no" ?>
<gpx xmlns="http://www.topografix.com/GPX/1/1" xmlns:xsi="http://www.w3.org/2001/XMLSchema-instance" xsi:schemaLocation="http://www.topografix.com/GPX/1/1 http://www.topografix.com/GPX/1/1/gpx.xsd" version="1.1" creator="VisuGPX - https://www.visugpx.com">
  <metadata>
    <name>VTT: Vercel Passonfontaine Rantechaux 48 kms</name>
    <desc><![CDATA[Promenade en forêt via l'etang Barchet]]></desc>
  </metadata>
  <trk>
    <name><![CDATA[Ghostracer]]></name>
    <trkseg>
      <trkpt lat="47.18404" lon="6.40334">
        <ele>663</ele>
        <time>2019-06-19T14:46:37Z</time>
      </trkpt>
      <trkpt lat="47.1842" lon="6.40339">
        <ele>662</ele>
        <time>2019-06-19T14:46:49Z</time>
      </trkpt>
      <trkpt lat="47.18426" lon="6.40351">
        <ele>663</ele>
        <time>2019-06-19T14:48:18Z</time>
      </trkpt>
      <trkpt lat="47.18437" lon="6.40347">
        <ele>663</ele>
        <time>2019-06-19T14:49:22Z</time>
      </trkpt>
      <trkpt lat="47.18448" lon="6.40336">
        <ele>663</ele>
        <time>2019-06-19T14:49:26Z</time>
      </trkpt>
      <trkpt lat="47.18459" lon="6.40316">
        <ele>661</ele>
        <time>2019-06-19T14:49:30Z</time>
      </trkpt>
      <trkpt lat="47.18472" lon="6.40317">
        <ele>661</ele>
        <time>2019-06-19T14:49:34Z</time>
      </trkpt>
      <trkpt lat="47.18478" lon="6.40327">
        <ele>661</ele>
        <time>2019-06-19T14:49:36Z</time>
      </trkpt>
      <trkpt lat="47.18489" lon="6.40348">
        <ele>663</ele>
        <time>2019-06-19T14:49:40Z</time>
      </trkpt>
      <trkpt lat="47.18498" lon="6.40369">
        <ele>663</ele>
        <time>2019-06-19T14:49:44Z</time>
      </trkpt>
      <trkpt lat="47.18505" lon="6.40392">
        <ele>663</ele>
        <time>2019-06-19T14:49:48Z</time>
      </trkpt>
      <trkpt lat="47.18508" lon="6.40417">
        <ele>664</ele>
        <time>2019-06-19T14:49:52Z</time>
      </trkpt>
      <trkpt lat="47.18506" lon="6.40443">
        <ele>664</ele>
        <time>2019-06-19T14:49:56Z</time>
      </trkpt>
      <trkpt lat="47.18504" lon="6.40457">
        <ele>664</ele>
        <time>2019-06-19T14:49:58Z</time>
      </trkpt>
      <trkpt lat="47.185" lon="6.40472">
        <ele>664</ele>
        <time>2019-06-19T14:50:00Z</time>
      </trkpt>
      <trkpt lat="47.18496" lon="6.40498">
        <ele>665</ele>
        <time>2019-06-19T14:50:04Z</time>
      </trkpt>
      <trkpt lat="47.18496" lon="6.40518">
        <ele>665</ele>
        <time>2019-06-19T14:50:06Z</time>
      </trkpt>
      <trkpt lat="47.18481" lon="6.40531">
        <ele>665</ele>
        <time>2019-06-19T14:50:10Z</time>
      </trkpt>
      <trkpt lat="47.18471" lon="6.40521">
        <ele>665</ele>
        <time>2019-06-19T14:50:12Z</time>
      </trkpt>
      <trkpt lat="47.18461" lon="6.40516">
        <ele>665</ele>
        <time>2019-06-19T14:50:14Z</time>
      </trkpt>
      <trkpt lat="47.18452" lon="6.40513">
        <ele>665</ele>
        <time>2019-06-19T14:50:16Z</time>
      </trkpt>
      <trkpt lat="47.18443" lon="6.40506">
        <ele>666</ele>
        <time>2019-06-19T14:50:18Z</time>
      </trkpt>
      <trkpt lat="47.18427" lon="6.40497">
        <ele>666</ele>
        <time>2019-06-19T14:50:22Z</time>
      </trkpt>
      <trkpt lat="47.18418" lon="6.40492">
        <ele>666</ele>
        <time>2019-06-19T14:50:24Z</time>
      </trkpt>
      <trkpt lat="47.18409" lon="6.40485">
        <ele>666</ele>
        <time>2019-06-19T14:50:26Z</time>
      </trkpt>
      <trkpt lat="47.184" lon="6.40474">
        <ele>666</ele>
        <time>2019-06-19T14:50:28Z</time>
      </trkpt>
      <trkpt lat="47.18393" lon="6.40456">
        <ele>665</ele>
        <time>2019-06-19T14:50:30Z</time>
      </trkpt>
      <trkpt lat="47.18385" lon="6.40438">
        <ele>665</ele>
        <time>2019-06-19T14:50:32Z</time>
      </trkpt>
      <trkpt lat="47.18379" lon="6.4042">
        <ele>665</ele>
        <time>2019-06-19T14:50:34Z</time>
      </trkpt>
      <trkpt lat="47.18372" lon="6.40401">
        <ele>664</ele>
        <time>2019-06-19T14:50:36Z</time>
      </trkpt>
      <trkpt lat="47.18368" lon="6.40384">
        <ele>664</ele>
        <time>2019-06-19T14:50:38Z</time>
      </trkpt>
      <trkpt lat="47.18362" lon="6.40366">
        <ele>664</ele>
        <time>2019-06-19T14:50:40Z</time>
      </trkpt>
      <trkpt lat="47.18352" lon="6.40349">
        <ele>663</ele>
        <time>2019-06-19T14:50:42Z</time>
      </trkpt>
      <trkpt lat="47.18343" lon="6.40331">
        <ele>663</ele>
        <time>2019-06-19T14:50:44Z</time>
      </trkpt>
      <trkpt lat="47.18333" lon="6.40314">
        <ele>662</ele>
        <time>2019-06-19T14:50:46Z</time>
      </trkpt>
      <trkpt lat="47.18324" lon="6.40299">
        <ele>662</ele>
        <time>2019-06-19T14:50:48Z</time>
      </trkpt>
      <trkpt lat="47.18311" lon="6.40284">
        <ele>662</ele>
        <time>2019-06-19T14:50:50Z</time>
      </trkpt>
      <trkpt lat="47.18301" lon="6.40268">
        <ele>662</ele>
        <time>2019-06-19T14:50:52Z</time>
      </trkpt>
      <trkpt lat="47.18286" lon="6.4026">
        <ele>662</ele>
        <time>2019-06-19T14:50:54Z</time>
      </trkpt>
      <trkpt lat="47.18274" lon="6.40246">
        <ele>661</ele>
        <time>2019-06-19T14:50:56Z</time>
      </trkpt>
      <trkpt lat="47.1826" lon="6.40237">
        <ele>661</ele>
        <time>2019-06-19T14:50:58Z</time>
      </trkpt>
      <trkpt lat="47.18248" lon="6.4022">
        <ele>661</ele>
        <time>2019-06-19T14:51:00Z</time>
      </trkpt>
      <trkpt lat="47.18241" lon="6.40205">
        <ele>660</ele>
        <time>2019-06-19T14:51:02Z</time>
      </trkpt>
      <trkpt lat="47.18234" lon="6.40188">
        <ele>660</ele>
        <time>2019-06-19T14:51:04Z</time>
      </trkpt>
      <trkpt lat="47.18235" lon="6.40167">
        <ele>660</ele>
        <time>2019-06-19T14:51:06Z</time>
      </trkpt>
      <trkpt lat="47.18236" lon="6.40149">
        <ele>659</ele>
        <time>2019-06-19T14:51:08Z</time>
      </trkpt>
      <trkpt lat="47.18237" lon="6.4013">
        <ele>659</ele>
        <time>2019-06-19T14:51:10Z</time>
      </trkpt>
      <trkpt lat="47.18224" lon="6.40122">
        <ele>659</ele>
        <time>2019-06-19T14:51:14Z</time>
      </trkpt>
      <trkpt lat="47.18209" lon="6.40138">
        <ele>659</ele>
        <time>2019-06-19T14:51:18Z</time>
      </trkpt>
      <trkpt lat="47.182" lon="6.40151">
        <ele>659</ele>
        <time>2019-06-19T14:51:20Z</time>
      </trkpt>
      <trkpt lat="47.18192" lon="6.40164">
        <ele>659</ele>
        <time>2019-06-19T14:51:22Z</time>
      </trkpt>
      <trkpt lat="47.18184" lon="6.4018">
        <ele>660</ele>
        <time>2019-06-19T14:51:24Z</time>
      </trkpt>
      <trkpt lat="47.18177" lon="6.40191">
        <ele>661</ele>
        <time>2019-06-19T14:51:26Z</time>
      </trkpt>
      <trkpt lat="47.18169" lon="6.40203">
        <ele>661</ele>
        <time>2019-06-19T14:51:28Z</time>
      </trkpt>
      <trkpt lat="47.18167" lon="6.40217">
        <ele>661</ele>
        <time>2019-06-19T14:51:30Z</time>
      </trkpt>
      <trkpt lat="47.18161" lon="6.40229">
        <ele>662</ele>
        <time>2019-06-19T14:51:32Z</time>
      </trkpt>
      <trkpt lat="47.18155" lon="6.40242">
        <ele>662</ele>
        <time>2019-06-19T14:51:34Z</time>
      </trkpt>
      <trkpt lat="47.18145" lon="6.40252">
        <ele>663</ele>
        <time>2019-06-19T14:51:36Z</time>
      </trkpt>
      <trkpt lat="47.18133" lon="6.40272">
        <ele>663</ele>
        <time>2019-06-19T14:51:40Z</time>
      </trkpt>
      <trkpt lat="47.18125" lon="6.4029">
        <ele>663</ele>
        <time>2019-06-19T14:51:42Z</time>
      </trkpt>
      <trkpt lat="47.18118" lon="6.40302">
        <ele>663</ele>
        <time>2019-06-19T14:51:44Z</time>
      </trkpt>
      <trkpt lat="47.1811" lon="6.40313">
        <ele>663</ele>
        <time>2019-06-19T14:51:46Z</time>
      </trkpt>
      <trkpt lat="47.18098" lon="6.4032">
        <ele>663</ele>
        <time>2019-06-19T14:51:48Z</time>
      </trkpt>
      <trkpt lat="47.18086" lon="6.40325">
        <ele>664</ele>
        <time>2019-06-19T14:51:50Z</time>
      </trkpt>
      <trkpt lat="47.18076" lon="6.40332">
        <ele>664</ele>
        <time>2019-06-19T14:51:52Z</time>
      </trkpt>
      <trkpt lat="47.18057" lon="6.4034">
        <ele>664</ele>
        <time>2019-06-19T14:51:56Z</time>
      </trkpt>
      <trkpt lat="47.18048" lon="6.40346">
        <ele>664</ele>
        <time>2019-06-19T14:51:58Z</time>
      </trkpt>
      <trkpt lat="47.18038" lon="6.4035">
        <ele>664</ele>
        <time>2019-06-19T14:52:00Z</time>
      </trkpt>
      <trkpt lat="47.18021" lon="6.4036">
        <ele>664</ele>
        <time>2019-06-19T14:52:04Z</time>
      </trkpt>
      <trkpt lat="47.18008" lon="6.40369">
        <ele>664</ele>
        <time>2019-06-19T14:52:06Z</time>
      </trkpt>
      <trkpt lat="47.17999" lon="6.40374">
        <ele>665</ele>
        <time>2019-06-19T14:52:08Z</time>
      </trkpt>
      <trkpt lat="47.17989" lon="6.4038">
        <ele>665</ele>
        <time>2019-06-19T14:52:10Z</time>
      </trkpt>
      <trkpt lat="47.17977" lon="6.40386">
        <ele>665</ele>
        <time>2019-06-19T14:52:12Z</time>
      </trkpt>
      <trkpt lat="47.17967" lon="6.40395">
        <ele>666</ele>
        <time>2019-06-19T14:52:14Z</time>
      </trkpt>
      <trkpt lat="47.17957" lon="6.40401">
        <ele>666</ele>
        <time>2019-06-19T14:52:16Z</time>
      </trkpt>
      <trkpt lat="47.17939" lon="6.40409">
        <ele>666</ele>
        <time>2019-06-19T14:52:20Z</time>
      </trkpt>
      <trkpt lat="47.1793" lon="6.40414">
        <ele>667</ele>
        <time>2019-06-19T14:52:22Z</time>
      </trkpt>
      <trkpt lat="47.17912" lon="6.40423">
        <ele>669</ele>
        <time>2019-06-19T14:52:26Z</time>
      </trkpt>
      <trkpt lat="47.17902" lon="6.40426">
        <ele>670</ele>
        <time>2019-06-19T14:52:28Z</time>
      </trkpt>
      <trkpt lat="47.17888" lon="6.40433">
        <ele>670</ele>
        <time>2019-06-19T14:52:32Z</time>
      </trkpt>
      <trkpt lat="47.17872" lon="6.40441">
        <ele>671</ele>
        <time>2019-06-19T14:52:36Z</time>
      </trkpt>
      <trkpt lat="47.17862" lon="6.40446">
        <ele>671</ele>
        <time>2019-06-19T14:52:38Z</time>
      </trkpt>
      <trkpt lat="47.17853" lon="6.4045">
        <ele>671</ele>
        <time>2019-06-19T14:52:40Z</time>
      </trkpt>
      <trkpt lat="47.17844" lon="6.40452">
        <ele>672</ele>
        <time>2019-06-19T14:52:42Z</time>
      </trkpt>
      <trkpt lat="47.17835" lon="6.40456">
        <ele>672</ele>
        <time>2019-06-19T14:52:44Z</time>
      </trkpt>
      <trkpt lat="47.17819" lon="6.40466">
        <ele>674</ele>
        <time>2019-06-19T14:52:48Z</time>
      </trkpt>
      <trkpt lat="47.17804" lon="6.40473">
        <ele>675</ele>
        <time>2019-06-19T14:52:52Z</time>
      </trkpt>
      <trkpt lat="47.1779" lon="6.40478">
        <ele>675</ele>
        <time>2019-06-19T14:52:56Z</time>
      </trkpt>
      <trkpt lat="47.17775" lon="6.40483">
        <ele>676</ele>
        <time>2019-06-19T14:53:00Z</time>
      </trkpt>
      <trkpt lat="47.17761" lon="6.40489">
        <ele>677</ele>
        <time>2019-06-19T14:53:04Z</time>
      </trkpt>
      <trkpt lat="47.17747" lon="6.40497">
        <ele>679</ele>
        <time>2019-06-19T14:53:08Z</time>
      </trkpt>
      <trkpt lat="47.17733" lon="6.40504">
        <ele>681</ele>
        <time>2019-06-19T14:53:12Z</time>
      </trkpt>
      <trkpt lat="47.17717" lon="6.40511">
        <ele>682</ele>
        <time>2019-06-19T14:53:16Z</time>
      </trkpt>
      <trkpt lat="47.17704" lon="6.40516">
        <ele>682</ele>
        <time>2019-06-19T14:53:20Z</time>
      </trkpt>
      <trkpt lat="47.1769" lon="6.40522">
        <ele>683</ele>
        <time>2019-06-19T14:53:24Z</time>
      </trkpt>
      <trkpt lat="47.17675" lon="6.40527">
        <ele>683</ele>
        <time>2019-06-19T14:53:28Z</time>
      </trkpt>
      <trkpt lat="47.17659" lon="6.4053">
        <ele>685</ele>
        <time>2019-06-19T14:53:32Z</time>
      </trkpt>
      <trkpt lat="47.17642" lon="6.40533">
        <ele>685</ele>
        <time>2019-06-19T14:53:36Z</time>
      </trkpt>
      <trkpt lat="47.17626" lon="6.40536">
        <ele>686</ele>
        <time>2019-06-19T14:53:40Z</time>
      </trkpt>
      <trkpt lat="47.17611" lon="6.40538">
        <ele>686</ele>
        <time>2019-06-19T14:53:44Z</time>
      </trkpt>
      <trkpt lat="47.17595" lon="6.40541">
        <ele>686</ele>
        <time>2019-06-19T14:53:48Z</time>
      </trkpt>
      <trkpt lat="47.17579" lon="6.40544">
        <ele>688</ele>
        <time>2019-06-19T14:53:52Z</time>
      </trkpt>
      <trkpt lat="47.17564" lon="6.40547">
        <ele>689</ele>
        <time>2019-06-19T14:53:56Z</time>
      </trkpt>
      <trkpt lat="47.17548" lon="6.4055">
        <ele>689</ele>
        <time>2019-06-19T14:54:00Z</time>
      </trkpt>
      <trkpt lat="47.17532" lon="6.40554">
        <ele>689</ele>
        <time>2019-06-19T14:54:04Z</time>
      </trkpt>
      <trkpt lat="47.17518" lon="6.40558">
        <ele>690</ele>
        <time>2019-06-19T14:54:08Z</time>
      </trkpt>
      <trkpt lat="47.17502" lon="6.40561">
        <ele>690</ele>
        <time>2019-06-19T14:54:12Z</time>
      </trkpt>
      <trkpt lat="47.17488" lon="6.40562">
        <ele>693</ele>
        <time>2019-06-19T14:54:16Z</time>
      </trkpt>
      <trkpt lat="47.17472" lon="6.40565">
        <ele>693</ele>
        <time>2019-06-19T14:54:20Z</time>
      </trkpt>
      <trkpt lat="47.17456" lon="6.40566">
        <ele>694</ele>
        <time>2019-06-19T14:54:24Z</time>
      </trkpt>
      <trkpt lat="47.1744" lon="6.40567">
        <ele>695</ele>
        <time>2019-06-19T14:54:28Z</time>
      </trkpt>
      <trkpt lat="47.17426" lon="6.40567">
        <ele>696</ele>
        <time>2019-06-19T14:54:32Z</time>
      </trkpt>
      <trkpt lat="47.17412" lon="6.40566">
        <ele>699</ele>
        <time>2019-06-19T14:54:36Z</time>
      </trkpt>
      <trkpt lat="47.17399" lon="6.40563">
        <ele>700</ele>
        <time>2019-06-19T14:54:40Z</time>
      </trkpt>
      <trkpt lat="47.17384" lon="6.40559">
        <ele>700</ele>
        <time>2019-06-19T14:54:44Z</time>
      </trkpt>
      <trkpt lat="47.1737" lon="6.40554">
        <ele>701</ele>
        <time>2019-06-19T14:54:48Z</time>
      </trkpt>
      <trkpt lat="47.17356" lon="6.40552">
        <ele>702</ele>
        <time>2019-06-19T14:54:52Z</time>
      </trkpt>
      <trkpt lat="47.17342" lon="6.4055">
        <ele>702</ele>
        <time>2019-06-19T14:54:56Z</time>
      </trkpt>
      <trkpt lat="47.17328" lon="6.40548">
        <ele>707</ele>
        <time>2019-06-19T14:55:00Z</time>
      </trkpt>
      <trkpt lat="47.17316" lon="6.40544">
        <ele>707</ele>
        <time>2019-06-19T14:55:04Z</time>
      </trkpt>
      <trkpt lat="47.17301" lon="6.40542">
        <ele>708</ele>
        <time>2019-06-19T14:55:08Z</time>
      </trkpt>
      <trkpt lat="47.17287" lon="6.40541">
        <ele>708</ele>
        <time>2019-06-19T14:55:12Z</time>
      </trkpt>
      <trkpt lat="47.17274" lon="6.40538">
        <ele>709</ele>
        <time>2019-06-19T14:55:16Z</time>
      </trkpt>
      <trkpt lat="47.17262" lon="6.40535">
        <ele>709</ele>
        <time>2019-06-19T14:55:20Z</time>
      </trkpt>
      <trkpt lat="47.17249" lon="6.40534">
        <ele>713</ele>
        <time>2019-06-19T14:55:24Z</time>
      </trkpt>
      <trkpt lat="47.17236" lon="6.40535">
        <ele>713</ele>
        <time>2019-06-19T14:55:28Z</time>
      </trkpt>
      <trkpt lat="47.17222" lon="6.40536">
        <ele>714</ele>
        <time>2019-06-19T14:55:32Z</time>
      </trkpt>
      <trkpt lat="47.17209" lon="6.40537">
        <ele>714</ele>
        <time>2019-06-19T14:55:36Z</time>
      </trkpt>
      <trkpt lat="47.17196" lon="6.4054">
        <ele>715</ele>
        <time>2019-06-19T14:55:40Z</time>
      </trkpt>
      <trkpt lat="47.17181" lon="6.40544">
        <ele>716</ele>
        <time>2019-06-19T14:55:44Z</time>
      </trkpt>
      <trkpt lat="47.17168" lon="6.40545">
        <ele>716</ele>
        <time>2019-06-19T14:55:48Z</time>
      </trkpt>
      <trkpt lat="47.17154" lon="6.40548">
        <ele>720</ele>
        <time>2019-06-19T14:55:52Z</time>
      </trkpt>
      <trkpt lat="47.17138" lon="6.4055">
        <ele>720</ele>
        <time>2019-06-19T14:55:56Z</time>
      </trkpt>
      <trkpt lat="47.17123" lon="6.40553">
        <ele>720</ele>
        <time>2019-06-19T14:56:00Z</time>
      </trkpt>
      <trkpt lat="47.17109" lon="6.40554">
        <ele>720</ele>
        <time>2019-06-19T14:56:04Z</time>
      </trkpt>
      <trkpt lat="47.17095" lon="6.40558">
        <ele>721</ele>
        <time>2019-06-19T14:56:08Z</time>
      </trkpt>
      <trkpt lat="47.1708" lon="6.40562">
        <ele>723</ele>
        <time>2019-06-19T14:56:12Z</time>
      </trkpt>
      <trkpt lat="47.17065" lon="6.40565">
        <ele>723</ele>
        <time>2019-06-19T14:56:16Z</time>
      </trkpt>
      <trkpt lat="47.17051" lon="6.40568">
        <ele>723</ele>
        <time>2019-06-19T14:56:20Z</time>
      </trkpt>
      <trkpt lat="47.17036" lon="6.40569">
        <ele>723</ele>
        <time>2019-06-19T14:56:24Z</time>
      </trkpt>
      <trkpt lat="47.17025" lon="6.40571">
        <ele>724</ele>
        <time>2019-06-19T14:56:28Z</time>
      </trkpt>
      <trkpt lat="47.17009" lon="6.40575">
        <ele>725</ele>
        <time>2019-06-19T14:56:32Z</time>
      </trkpt>
      <trkpt lat="47.16993" lon="6.40573">
        <ele>727</ele>
        <time>2019-06-19T14:56:36Z</time>
      </trkpt>
      <trkpt lat="47.16983" lon="6.40566">
        <ele>727</ele>
        <time>2019-06-19T14:56:38Z</time>
      </trkpt>
      <trkpt lat="47.16974" lon="6.40559">
        <ele>727</ele>
        <time>2019-06-19T14:56:40Z</time>
      </trkpt>
      <trkpt lat="47.16959" lon="6.40546">
        <ele>727</ele>
        <time>2019-06-19T14:56:44Z</time>
      </trkpt>
      <trkpt lat="47.16931" lon="6.40531">
        <ele>728</ele>
        <time>2019-06-19T14:56:48Z</time>
      </trkpt>
      <trkpt lat="47.16924" lon="6.40516">
        <ele>728</ele>
        <time>2019-06-19T14:56:50Z</time>
      </trkpt>
      <trkpt lat="47.16906" lon="6.40499">
        <ele>728</ele>
        <time>2019-06-19T14:56:54Z</time>
      </trkpt>
      <trkpt lat="47.16899" lon="6.40479">
        <ele>729</ele>
        <time>2019-06-19T14:56:56Z</time>
      </trkpt>
      <trkpt lat="47.16889" lon="6.40467">
        <ele>729</ele>
        <time>2019-06-19T14:56:58Z</time>
      </trkpt>
      <trkpt lat="47.16876" lon="6.40458">
        <ele>729</ele>
        <time>2019-06-19T14:57:02Z</time>
      </trkpt>
      <trkpt lat="47.16861" lon="6.40455">
        <ele>729</ele>
        <time>2019-06-19T14:57:04Z</time>
      </trkpt>
      <trkpt lat="47.16847" lon="6.4045">
        <ele>730</ele>
        <time>2019-06-19T14:57:06Z</time>
      </trkpt>
      <trkpt lat="47.16831" lon="6.40446">
        <ele>735</ele>
        <time>2019-06-19T14:57:08Z</time>
      </trkpt>
      <trkpt lat="47.16817" lon="6.40447">
        <ele>735</ele>
        <time>2019-06-19T14:57:10Z</time>
      </trkpt>
      <trkpt lat="47.16793" lon="6.40449">
        <ele>737</ele>
        <time>2019-06-19T14:57:14Z</time>
      </trkpt>
      <trkpt lat="47.16771" lon="6.40439">
        <ele>738</ele>
        <time>2019-06-19T14:57:16Z</time>
      </trkpt>
      <trkpt lat="47.1676" lon="6.40426">
        <ele>738</ele>
        <time>2019-06-19T14:57:18Z</time>
      </trkpt>
      <trkpt lat="47.16752" lon="6.40413">
        <ele>737</ele>
        <time>2019-06-19T14:57:20Z</time>
      </trkpt>
      <trkpt lat="47.16747" lon="6.40401">
        <ele>740</ele>
        <time>2019-06-19T14:57:22Z</time>
      </trkpt>
      <trkpt lat="47.1674" lon="6.40388">
        <ele>740</ele>
        <time>2019-06-19T14:57:24Z</time>
      </trkpt>
      <trkpt lat="47.16734" lon="6.40374">
        <ele>740</ele>
        <time>2019-06-19T14:57:26Z</time>
      </trkpt>
      <trkpt lat="47.16729" lon="6.40361">
        <ele>740</ele>
        <time>2019-06-19T14:57:28Z</time>
      </trkpt>
      <trkpt lat="47.16723" lon="6.40346">
        <ele>739</ele>
        <time>2019-06-19T14:57:30Z</time>
      </trkpt>
      <trkpt lat="47.16717" lon="6.40325">
        <ele>736</ele>
        <time>2019-06-19T14:57:34Z</time>
      </trkpt>
      <trkpt lat="47.16713" lon="6.40312">
        <ele>736</ele>
        <time>2019-06-19T14:57:36Z</time>
      </trkpt>
      <trkpt lat="47.16707" lon="6.403">
        <ele>736</ele>
        <time>2019-06-19T14:57:38Z</time>
      </trkpt>
      <trkpt lat="47.167" lon="6.40288">
        <ele>736</ele>
        <time>2019-06-19T14:57:40Z</time>
      </trkpt>
      <trkpt lat="47.16682" lon="6.40288">
        <ele>738</ele>
        <time>2019-06-19T14:57:42Z</time>
      </trkpt>
      <trkpt lat="47.16672" lon="6.40264">
        <ele>738</ele>
        <time>2019-06-19T14:57:46Z</time>
      </trkpt>
      <trkpt lat="47.1666" lon="6.40242">
        <ele>739</ele>
        <time>2019-06-19T14:57:50Z</time>
      </trkpt>
      <trkpt lat="47.1665" lon="6.4023">
        <ele>739</ele>
        <time>2019-06-19T14:57:52Z</time>
      </trkpt>
      <trkpt lat="47.16641" lon="6.40216">
        <ele>739</ele>
        <time>2019-06-19T14:57:56Z</time>
      </trkpt>
      <trkpt lat="47.16628" lon="6.40199">
        <ele>739</ele>
        <time>2019-06-19T14:58:00Z</time>
      </trkpt>
      <trkpt lat="47.16619" lon="6.40189">
        <ele>740</ele>
        <time>2019-06-19T14:58:02Z</time>
      </trkpt>
      <trkpt lat="47.16605" lon="6.40172">
        <ele>741</ele>
        <time>2019-06-19T14:58:06Z</time>
      </trkpt>
      <trkpt lat="47.16592" lon="6.40158">
        <ele>740</ele>
        <time>2019-06-19T14:58:10Z</time>
      </trkpt>
      <trkpt lat="47.16581" lon="6.40142">
        <ele>743</ele>
        <time>2019-06-19T14:58:14Z</time>
      </trkpt>
      <trkpt lat="47.1657" lon="6.40135">
        <ele>743</ele>
        <time>2019-06-19T14:58:16Z</time>
      </trkpt>
      <trkpt lat="47.16562" lon="6.40127">
        <ele>743</ele>
        <time>2019-06-19T14:58:18Z</time>
      </trkpt>
      <trkpt lat="47.16547" lon="6.40114">
        <ele>743</ele>
        <time>2019-06-19T14:58:22Z</time>
      </trkpt>
      <trkpt lat="47.16537" lon="6.40105">
        <ele>743</ele>
        <time>2019-06-19T14:58:24Z</time>
      </trkpt>
      <trkpt lat="47.16528" lon="6.40096">
        <ele>743</ele>
        <time>2019-06-19T14:58:26Z</time>
      </trkpt>
      <trkpt lat="47.16512" lon="6.40085">
        <ele>744</ele>
        <time>2019-06-19T14:58:30Z</time>
      </trkpt>
      <trkpt lat="47.16502" lon="6.40079">
        <ele>743</ele>
        <time>2019-06-19T14:58:32Z</time>
      </trkpt>
      <trkpt lat="47.16493" lon="6.40074">
        <ele>744</ele>
        <time>2019-06-19T14:58:34Z</time>
      </trkpt>
      <trkpt lat="47.16478" lon="6.40057">
        <ele>744</ele>
        <time>2019-06-19T14:58:38Z</time>
      </trkpt>
      <trkpt lat="47.16467" lon="6.40049">
        <ele>744</ele>
        <time>2019-06-19T14:58:40Z</time>
      </trkpt>
      <trkpt lat="47.16456" lon="6.40039">
        <ele>744</ele>
        <time>2019-06-19T14:58:42Z</time>
      </trkpt>
      <trkpt lat="47.16445" lon="6.4003">
        <ele>745</ele>
        <time>2019-06-19T14:58:44Z</time>
      </trkpt>
      <trkpt lat="47.16431" lon="6.4002">
        <ele>745</ele>
        <time>2019-06-19T14:58:46Z</time>
      </trkpt>
      <trkpt lat="47.16421" lon="6.40011">
        <ele>745</ele>
        <time>2019-06-19T14:58:48Z</time>
      </trkpt>
      <trkpt lat="47.16409" lon="6.40005">
        <ele>748</ele>
        <time>2019-06-19T14:58:50Z</time>
      </trkpt>
      <trkpt lat="47.16399" lon="6.39995">
        <ele>748</ele>
        <time>2019-06-19T14:58:52Z</time>
      </trkpt>
      <trkpt lat="47.16387" lon="6.39978">
        <ele>749</ele>
        <time>2019-06-19T14:58:56Z</time>
      </trkpt>
      <trkpt lat="47.16376" lon="6.39972">
        <ele>750</ele>
        <time>2019-06-19T14:58:58Z</time>
      </trkpt>
      <trkpt lat="47.16362" lon="6.39956">
        <ele>750</ele>
        <time>2019-06-19T14:59:02Z</time>
      </trkpt>
      <trkpt lat="47.16353" lon="6.3995">
        <ele>750</ele>
        <time>2019-06-19T14:59:04Z</time>
      </trkpt>
      <trkpt lat="47.16342" lon="6.39945">
        <ele>751</ele>
        <time>2019-06-19T14:59:06Z</time>
      </trkpt>
      <trkpt lat="47.1633" lon="6.39931">
        <ele>754</ele>
        <time>2019-06-19T14:59:10Z</time>
      </trkpt>
      <trkpt lat="47.16317" lon="6.39923">
        <ele>755</ele>
        <time>2019-06-19T14:59:14Z</time>
      </trkpt>
      <trkpt lat="47.16304" lon="6.39913">
        <ele>753</ele>
        <time>2019-06-19T14:59:18Z</time>
      </trkpt>
      <trkpt lat="47.16292" lon="6.39902">
        <ele>754</ele>
        <time>2019-06-19T14:59:22Z</time>
      </trkpt>
      <trkpt lat="47.16283" lon="6.3989">
        <ele>754</ele>
        <time>2019-06-19T14:59:26Z</time>
      </trkpt>
      <trkpt lat="47.16275" lon="6.39884">
        <ele>755</ele>
        <time>2019-06-19T14:59:30Z</time>
      </trkpt>
      <trkpt lat="47.16262" lon="6.39878">
        <ele>755</ele>
        <time>2019-06-19T14:59:36Z</time>
      </trkpt>
      <trkpt lat="47.16252" lon="6.3987">
        <ele>756</ele>
        <time>2019-06-19T14:59:40Z</time>
      </trkpt>
      <trkpt lat="47.16245" lon="6.39861">
        <ele>758</ele>
        <time>2019-06-19T14:59:46Z</time>
      </trkpt>
      <trkpt lat="47.16235" lon="6.39856">
        <ele>758</ele>
        <time>2019-06-19T14:59:50Z</time>
      </trkpt>
      <trkpt lat="47.16222" lon="6.39851">
        <ele>758</ele>
        <time>2019-06-19T14:59:54Z</time>
      </trkpt>
      <trkpt lat="47.1621" lon="6.39846">
        <ele>757</ele>
        <time>2019-06-19T14:59:58Z</time>
      </trkpt>
      <trkpt lat="47.162" lon="6.39842">
        <ele>757</ele>
        <time>2019-06-19T15:00:02Z</time>
      </trkpt>
      <trkpt lat="47.16185" lon="6.39838">
        <ele>756</ele>
        <time>2019-06-19T15:00:06Z</time>
      </trkpt>
      <trkpt lat="47.16171" lon="6.39829">
        <ele>754</ele>
        <time>2019-06-19T15:00:10Z</time>
      </trkpt>
      <trkpt lat="47.16158" lon="6.39821">
        <ele>755</ele>
        <time>2019-06-19T15:00:14Z</time>
      </trkpt>
      <trkpt lat="47.16136" lon="6.39806">
        <ele>755</ele>
        <time>2019-06-19T15:00:22Z</time>
      </trkpt>
      <trkpt lat="47.16121" lon="6.39791">
        <ele>755</ele>
        <time>2019-06-19T15:00:26Z</time>
      </trkpt>
      <trkpt lat="47.16105" lon="6.39775">
        <ele>755</ele>
        <time>2019-06-19T15:00:34Z</time>
      </trkpt>
      <trkpt lat="47.16098" lon="6.39757">
        <ele>755</ele>
        <time>2019-06-19T15:00:40Z</time>
      </trkpt>
      <trkpt lat="47.16094" lon="6.39739">
        <ele>754</ele>
        <time>2019-06-19T15:00:48Z</time>
      </trkpt>
      <trkpt lat="47.16081" lon="6.39727">
        <ele>754</ele>
        <time>2019-06-19T15:00:52Z</time>
      </trkpt>
      <trkpt lat="47.16069" lon="6.39722">
        <ele>754</ele>
        <time>2019-06-19T15:00:56Z</time>
      </trkpt>
      <trkpt lat="47.16053" lon="6.39711">
        <ele>754</ele>
        <time>2019-06-19T15:01:00Z</time>
      </trkpt>
      <trkpt lat="47.16029" lon="6.39686">
        <ele>753</ele>
        <time>2019-06-19T15:01:04Z</time>
      </trkpt>
      <trkpt lat="47.16013" lon="6.39677">
        <ele>753</ele>
        <time>2019-06-19T15:01:06Z</time>
      </trkpt>
      <trkpt lat="47.15999" lon="6.39663">
        <ele>752</ele>
        <time>2019-06-19T15:01:10Z</time>
      </trkpt>
      <trkpt lat="47.15985" lon="6.39645">
        <ele>755</ele>
        <time>2019-06-19T15:01:14Z</time>
      </trkpt>
      <trkpt lat="47.15971" lon="6.39628">
        <ele>756</ele>
        <time>2019-06-19T15:01:18Z</time>
      </trkpt>
      <trkpt lat="47.15957" lon="6.39614">
        <ele>757</ele>
        <time>2019-06-19T15:01:22Z</time>
      </trkpt>
      <trkpt lat="47.15951" lon="6.39604">
        <ele>758</ele>
        <time>2019-06-19T15:01:24Z</time>
      </trkpt>
      <trkpt lat="47.1594" lon="6.39589">
        <ele>759</ele>
        <time>2019-06-19T15:01:28Z</time>
      </trkpt>
      <trkpt lat="47.15927" lon="6.39574">
        <ele>760</ele>
        <time>2019-06-19T15:01:32Z</time>
      </trkpt>
      <trkpt lat="47.15914" lon="6.3956">
        <ele>765</ele>
        <time>2019-06-19T15:01:36Z</time>
      </trkpt>
      <trkpt lat="47.15901" lon="6.39549">
        <ele>765</ele>
        <time>2019-06-19T15:01:40Z</time>
      </trkpt>
      <trkpt lat="47.15889" lon="6.39539">
        <ele>765</ele>
        <time>2019-06-19T15:01:44Z</time>
      </trkpt>
      <trkpt lat="47.15875" lon="6.39528">
        <ele>766</ele>
        <time>2019-06-19T15:01:48Z</time>
      </trkpt>
      <trkpt lat="47.15864" lon="6.39521">
        <ele>767</ele>
        <time>2019-06-19T15:01:52Z</time>
      </trkpt>
      <trkpt lat="47.15855" lon="6.39515">
        <ele>767</ele>
        <time>2019-06-19T15:01:56Z</time>
      </trkpt>
      <trkpt lat="47.15846" lon="6.39511">
        <ele>768</ele>
        <time>2019-06-19T15:02:00Z</time>
      </trkpt>
      <trkpt lat="47.15831" lon="6.39505">
        <ele>770</ele>
        <time>2019-06-19T15:02:04Z</time>
      </trkpt>
      <trkpt lat="47.15818" lon="6.39498">
        <ele>769</ele>
        <time>2019-06-19T15:02:08Z</time>
      </trkpt>
      <trkpt lat="47.15804" lon="6.39492">
        <ele>770</ele>
        <time>2019-06-19T15:02:12Z</time>
      </trkpt>
      <trkpt lat="47.1579" lon="6.39484">
        <ele>770</ele>
        <time>2019-06-19T15:02:16Z</time>
      </trkpt>
      <trkpt lat="47.15772" lon="6.3947">
        <ele>771</ele>
        <time>2019-06-19T15:02:22Z</time>
      </trkpt>
      <trkpt lat="47.15762" lon="6.39465">
        <ele>771</ele>
        <time>2019-06-19T15:02:24Z</time>
      </trkpt>
      <trkpt lat="47.15751" lon="6.39459">
        <ele>771</ele>
        <time>2019-06-19T15:02:26Z</time>
      </trkpt>
      <trkpt lat="47.1574" lon="6.39455">
        <ele>772</ele>
        <time>2019-06-19T15:02:28Z</time>
      </trkpt>
      <trkpt lat="47.15731" lon="6.3945">
        <ele>772</ele>
        <time>2019-06-19T15:02:30Z</time>
      </trkpt>
      <trkpt lat="47.15717" lon="6.39441">
        <ele>771</ele>
        <time>2019-06-19T15:02:34Z</time>
      </trkpt>
      <trkpt lat="47.15704" lon="6.39431">
        <ele>771</ele>
        <time>2019-06-19T15:02:38Z</time>
      </trkpt>
      <trkpt lat="47.15691" lon="6.39418">
        <ele>771</ele>
        <time>2019-06-19T15:02:42Z</time>
      </trkpt>
      <trkpt lat="47.15679" lon="6.39406">
        <ele>768</ele>
        <time>2019-06-19T15:02:46Z</time>
      </trkpt>
      <trkpt lat="47.15664" lon="6.39395">
        <ele>768</ele>
        <time>2019-06-19T15:02:50Z</time>
      </trkpt>
      <trkpt lat="47.15657" lon="6.39388">
        <ele>768</ele>
        <time>2019-06-19T15:02:52Z</time>
      </trkpt>
      <trkpt lat="47.15645" lon="6.39379">
        <ele>767</ele>
        <time>2019-06-19T15:02:54Z</time>
      </trkpt>
      <trkpt lat="47.15632" lon="6.39371">
        <ele>767</ele>
        <time>2019-06-19T15:02:56Z</time>
      </trkpt>
      <trkpt lat="47.15622" lon="6.39364">
        <ele>767</ele>
        <time>2019-06-19T15:02:58Z</time>
      </trkpt>
      <trkpt lat="47.15614" lon="6.39356">
        <ele>766</ele>
        <time>2019-06-19T15:03:00Z</time>
      </trkpt>
      <trkpt lat="47.15604" lon="6.39349">
        <ele>766</ele>
        <time>2019-06-19T15:03:02Z</time>
      </trkpt>
      <trkpt lat="47.15586" lon="6.39336">
        <ele>764</ele>
        <time>2019-06-19T15:03:06Z</time>
      </trkpt>
      <trkpt lat="47.15577" lon="6.3933">
        <ele>763</ele>
        <time>2019-06-19T15:03:08Z</time>
      </trkpt>
      <trkpt lat="47.15567" lon="6.39324">
        <ele>762</ele>
        <time>2019-06-19T15:03:10Z</time>
      </trkpt>
      <trkpt lat="47.15559" lon="6.39318">
        <ele>762</ele>
        <time>2019-06-19T15:03:12Z</time>
      </trkpt>
      <trkpt lat="47.1555" lon="6.39311">
        <ele>762</ele>
        <time>2019-06-19T15:03:14Z</time>
      </trkpt>
      <trkpt lat="47.1554" lon="6.39304">
        <ele>762</ele>
        <time>2019-06-19T15:03:16Z</time>
      </trkpt>
      <trkpt lat="47.15532" lon="6.39297">
        <ele>762</ele>
        <time>2019-06-19T15:03:18Z</time>
      </trkpt>
      <trkpt lat="47.15522" lon="6.3929">
        <ele>762</ele>
        <time>2019-06-19T15:03:20Z</time>
      </trkpt>
      <trkpt lat="47.15514" lon="6.39282">
        <ele>761</ele>
        <time>2019-06-19T15:03:22Z</time>
      </trkpt>
      <trkpt lat="47.15505" lon="6.39275">
        <ele>761</ele>
        <time>2019-06-19T15:03:24Z</time>
      </trkpt>
      <trkpt lat="47.15496" lon="6.39268">
        <ele>764</ele>
        <time>2019-06-19T15:03:26Z</time>
      </trkpt>
      <trkpt lat="47.15487" lon="6.39261">
        <ele>763</ele>
        <time>2019-06-19T15:03:28Z</time>
      </trkpt>
      <trkpt lat="47.15478" lon="6.39257">
        <ele>765</ele>
        <time>2019-06-19T15:03:30Z</time>
      </trkpt>
      <trkpt lat="47.15469" lon="6.39249">
        <ele>759</ele>
        <time>2019-06-19T15:03:32Z</time>
      </trkpt>
      <trkpt lat="47.15461" lon="6.39241">
        <ele>759</ele>
        <time>2019-06-19T15:03:34Z</time>
      </trkpt>
      <trkpt lat="47.15445" lon="6.39228">
        <ele>760</ele>
        <time>2019-06-19T15:03:38Z</time>
      </trkpt>
      <trkpt lat="47.15435" lon="6.3922">
        <ele>760</ele>
        <time>2019-06-19T15:03:40Z</time>
      </trkpt>
      <trkpt lat="47.15424" lon="6.39208">
        <ele>759</ele>
        <time>2019-06-19T15:03:42Z</time>
      </trkpt>
      <trkpt lat="47.15406" lon="6.39197">
        <ele>762</ele>
        <time>2019-06-19T15:03:46Z</time>
      </trkpt>
      <trkpt lat="47.15394" lon="6.39184">
        <ele>762</ele>
        <time>2019-06-19T15:03:50Z</time>
      </trkpt>
      <trkpt lat="47.15383" lon="6.39177">
        <ele>762</ele>
        <time>2019-06-19T15:03:52Z</time>
      </trkpt>
      <trkpt lat="47.1537" lon="6.39165">
        <ele>757</ele>
        <time>2019-06-19T15:03:54Z</time>
      </trkpt>
      <trkpt lat="47.15362" lon="6.39157">
        <ele>757</ele>
        <time>2019-06-19T15:03:56Z</time>
      </trkpt>
      <trkpt lat="47.15352" lon="6.39149">
        <ele>758</ele>
        <time>2019-06-19T15:03:58Z</time>
      </trkpt>
      <trkpt lat="47.15341" lon="6.39138">
        <ele>757</ele>
        <time>2019-06-19T15:04:00Z</time>
      </trkpt>
      <trkpt lat="47.15333" lon="6.39128">
        <ele>759</ele>
        <time>2019-06-19T15:04:02Z</time>
      </trkpt>
      <trkpt lat="47.15323" lon="6.39114">
        <ele>758</ele>
        <time>2019-06-19T15:04:04Z</time>
      </trkpt>
      <trkpt lat="47.15315" lon="6.39095">
        <ele>757</ele>
        <time>2019-06-19T15:04:06Z</time>
      </trkpt>
      <trkpt lat="47.15305" lon="6.39079">
        <ele>753</ele>
        <time>2019-06-19T15:04:08Z</time>
      </trkpt>
      <trkpt lat="47.15295" lon="6.39063">
        <ele>752</ele>
        <time>2019-06-19T15:04:10Z</time>
      </trkpt>
      <trkpt lat="47.15281" lon="6.39043">
        <ele>752</ele>
        <time>2019-06-19T15:04:12Z</time>
      </trkpt>
      <trkpt lat="47.15269" lon="6.39024">
        <ele>751</ele>
        <time>2019-06-19T15:04:14Z</time>
      </trkpt>
      <trkpt lat="47.15254" lon="6.38993">
        <ele>748</ele>
        <time>2019-06-19T15:04:16Z</time>
      </trkpt>
      <trkpt lat="47.15239" lon="6.38971">
        <ele>750</ele>
        <time>2019-06-19T15:04:18Z</time>
      </trkpt>
      <trkpt lat="47.15226" lon="6.3895">
        <ele>750</ele>
        <time>2019-06-19T15:04:20Z</time>
      </trkpt>
      <trkpt lat="47.15215" lon="6.38928">
        <ele>749</ele>
        <time>2019-06-19T15:04:22Z</time>
      </trkpt>
      <trkpt lat="47.15208" lon="6.38908">
        <ele>744</ele>
        <time>2019-06-19T15:04:24Z</time>
      </trkpt>
      <trkpt lat="47.15197" lon="6.3889">
        <ele>744</ele>
        <time>2019-06-19T15:04:26Z</time>
      </trkpt>
      <trkpt lat="47.15185" lon="6.38871">
        <ele>743</ele>
        <time>2019-06-19T15:04:28Z</time>
      </trkpt>
      <trkpt lat="47.15174" lon="6.38851">
        <ele>742</ele>
        <time>2019-06-19T15:04:30Z</time>
      </trkpt>
      <trkpt lat="47.1516" lon="6.38827">
        <ele>741</ele>
        <time>2019-06-19T15:04:32Z</time>
      </trkpt>
      <trkpt lat="47.15147" lon="6.38809">
        <ele>740</ele>
        <time>2019-06-19T15:04:34Z</time>
      </trkpt>
      <trkpt lat="47.15133" lon="6.38789">
        <ele>740</ele>
        <time>2019-06-19T15:04:36Z</time>
      </trkpt>
      <trkpt lat="47.15115" lon="6.38771">
        <ele>739</ele>
        <time>2019-06-19T15:04:38Z</time>
      </trkpt>
      <trkpt lat="47.151" lon="6.38757">
        <ele>739</ele>
        <time>2019-06-19T15:04:40Z</time>
      </trkpt>
      <trkpt lat="47.15083" lon="6.38756">
        <ele>740</ele>
        <time>2019-06-19T15:04:42Z</time>
      </trkpt>
      <trkpt lat="47.15073" lon="6.38753">
        <ele>741</ele>
        <time>2019-06-19T15:04:44Z</time>
      </trkpt>
      <trkpt lat="47.15057" lon="6.38746">
        <ele>738</ele>
        <time>2019-06-19T15:04:46Z</time>
      </trkpt>
      <trkpt lat="47.15045" lon="6.3874">
        <ele>738</ele>
        <time>2019-06-19T15:04:48Z</time>
      </trkpt>
      <trkpt lat="47.15033" lon="6.38736">
        <ele>739</ele>
        <time>2019-06-19T15:04:50Z</time>
      </trkpt>
      <trkpt lat="47.15019" lon="6.3873">
        <ele>740</ele>
        <time>2019-06-19T15:04:52Z</time>
      </trkpt>
      <trkpt lat="47.15006" lon="6.38727">
        <ele>740</ele>
        <time>2019-06-19T15:04:54Z</time>
      </trkpt>
      <trkpt lat="47.14994" lon="6.38724">
        <ele>743</ele>
        <time>2019-06-19T15:04:56Z</time>
      </trkpt>
      <trkpt lat="47.14982" lon="6.38718">
        <ele>743</ele>
        <time>2019-06-19T15:04:58Z</time>
      </trkpt>
      <trkpt lat="47.14971" lon="6.38717">
        <ele>743</ele>
        <time>2019-06-19T15:05:00Z</time>
      </trkpt>
      <trkpt lat="47.14961" lon="6.38715">
        <ele>743</ele>
        <time>2019-06-19T15:05:02Z</time>
      </trkpt>
      <trkpt lat="47.14951" lon="6.38716">
        <ele>743</ele>
        <time>2019-06-19T15:05:04Z</time>
      </trkpt>
      <trkpt lat="47.14939" lon="6.38711">
        <ele>743</ele>
        <time>2019-06-19T15:05:06Z</time>
      </trkpt>
      <trkpt lat="47.14928" lon="6.38709">
        <ele>744</ele>
        <time>2019-06-19T15:05:08Z</time>
      </trkpt>
      <trkpt lat="47.14908" lon="6.38708">
        <ele>745</ele>
        <time>2019-06-19T15:05:12Z</time>
      </trkpt>
      <trkpt lat="47.14896" lon="6.38706">
        <ele>745</ele>
        <time>2019-06-19T15:05:14Z</time>
      </trkpt>
      <trkpt lat="47.14886" lon="6.38702">
        <ele>745</ele>
        <time>2019-06-19T15:05:16Z</time>
      </trkpt>
      <trkpt lat="47.14875" lon="6.38702">
        <ele>745</ele>
        <time>2019-06-19T15:05:18Z</time>
      </trkpt>
      <trkpt lat="47.14866" lon="6.38703">
        <ele>745</ele>
        <time>2019-06-19T15:05:20Z</time>
      </trkpt>
      <trkpt lat="47.14856" lon="6.38703">
        <ele>745</ele>
        <time>2019-06-19T15:05:22Z</time>
      </trkpt>
      <trkpt lat="47.14842" lon="6.38703">
        <ele>745</ele>
        <time>2019-06-19T15:05:26Z</time>
      </trkpt>
      <trkpt lat="47.14826" lon="6.38702">
        <ele>745</ele>
        <time>2019-06-19T15:05:28Z</time>
      </trkpt>
      <trkpt lat="47.14809" lon="6.387">
        <ele>745</ele>
        <time>2019-06-19T15:05:32Z</time>
      </trkpt>
      <trkpt lat="47.148" lon="6.38699">
        <ele>745</ele>
        <time>2019-06-19T15:05:34Z</time>
      </trkpt>
      <trkpt lat="47.14777" lon="6.38698">
        <ele>744</ele>
        <time>2019-06-19T15:05:36Z</time>
      </trkpt>
      <trkpt lat="47.14758" lon="6.38692">
        <ele>743</ele>
        <time>2019-06-19T15:05:38Z</time>
      </trkpt>
      <trkpt lat="47.14732" lon="6.38686">
        <ele>743</ele>
        <time>2019-06-19T15:05:40Z</time>
      </trkpt>
      <trkpt lat="47.14712" lon="6.38677">
        <ele>743</ele>
        <time>2019-06-19T15:05:42Z</time>
      </trkpt>
      <trkpt lat="47.14695" lon="6.38674">
        <ele>743</ele>
        <time>2019-06-19T15:05:44Z</time>
      </trkpt>
      <trkpt lat="47.14681" lon="6.38673">
        <ele>742</ele>
        <time>2019-06-19T15:05:46Z</time>
      </trkpt>
      <trkpt lat="47.14665" lon="6.38669">
        <ele>740</ele>
        <time>2019-06-19T15:05:48Z</time>
      </trkpt>
      <trkpt lat="47.1465" lon="6.38664">
        <ele>737</ele>
        <time>2019-06-19T15:05:50Z</time>
      </trkpt>
      <trkpt lat="47.14635" lon="6.38662">
        <ele>736</ele>
        <time>2019-06-19T15:05:52Z</time>
      </trkpt>
      <trkpt lat="47.14619" lon="6.38656">
        <ele>736</ele>
        <time>2019-06-19T15:05:54Z</time>
      </trkpt>
      <trkpt lat="47.14605" lon="6.3865">
        <ele>736</ele>
        <time>2019-06-19T15:05:56Z</time>
      </trkpt>
      <trkpt lat="47.14591" lon="6.38641">
        <ele>736</ele>
        <time>2019-06-19T15:05:58Z</time>
      </trkpt>
      <trkpt lat="47.14575" lon="6.38632">
        <ele>738</ele>
        <time>2019-06-19T15:06:00Z</time>
      </trkpt>
      <trkpt lat="47.14561" lon="6.38625">
        <ele>737</ele>
        <time>2019-06-19T15:06:02Z</time>
      </trkpt>
      <trkpt lat="47.14549" lon="6.3862">
        <ele>737</ele>
        <time>2019-06-19T15:06:04Z</time>
      </trkpt>
      <trkpt lat="47.14536" lon="6.38613">
        <ele>738</ele>
        <time>2019-06-19T15:06:06Z</time>
      </trkpt>
      <trkpt lat="47.14523" lon="6.38608">
        <ele>738</ele>
        <time>2019-06-19T15:06:08Z</time>
      </trkpt>
      <trkpt lat="47.14512" lon="6.386">
        <ele>738</ele>
        <time>2019-06-19T15:06:10Z</time>
      </trkpt>
      <trkpt lat="47.14502" lon="6.38595">
        <ele>737</ele>
        <time>2019-06-19T15:06:12Z</time>
      </trkpt>
      <trkpt lat="47.14492" lon="6.38592">
        <ele>739</ele>
        <time>2019-06-19T15:06:14Z</time>
      </trkpt>
      <trkpt lat="47.14483" lon="6.38589">
        <ele>740</ele>
        <time>2019-06-19T15:06:16Z</time>
      </trkpt>
      <trkpt lat="47.14473" lon="6.38586">
        <ele>741</ele>
        <time>2019-06-19T15:06:18Z</time>
      </trkpt>
      <trkpt lat="47.14463" lon="6.38583">
        <ele>737</ele>
        <time>2019-06-19T15:06:20Z</time>
      </trkpt>
      <trkpt lat="47.14452" lon="6.38586">
        <ele>742</ele>
        <time>2019-06-19T15:06:24Z</time>
      </trkpt>
      <trkpt lat="47.14434" lon="6.38586">
        <ele>742</ele>
        <time>2019-06-19T15:06:28Z</time>
      </trkpt>
      <trkpt lat="47.14424" lon="6.3859">
        <ele>742</ele>
        <time>2019-06-19T15:06:30Z</time>
      </trkpt>
      <trkpt lat="47.14404" lon="6.386">
        <ele>742</ele>
        <time>2019-06-19T15:06:34Z</time>
      </trkpt>
      <trkpt lat="47.14388" lon="6.38614">
        <ele>743</ele>
        <time>2019-06-19T15:06:38Z</time>
      </trkpt>
      <trkpt lat="47.14397" lon="6.38629">
        <ele>744</ele>
        <time>2019-06-19T15:06:44Z</time>
      </trkpt>
      <trkpt lat="47.14408" lon="6.38639">
        <ele>745</ele>
        <time>2019-06-19T15:06:50Z</time>
      </trkpt>
      <trkpt lat="47.14418" lon="6.38648">
        <ele>746</ele>
        <time>2019-06-19T15:06:56Z</time>
      </trkpt>
      <trkpt lat="47.1443" lon="6.38656">
        <ele>746</ele>
        <time>2019-06-19T15:07:02Z</time>
      </trkpt>
      <trkpt lat="47.14441" lon="6.38661">
        <ele>745</ele>
        <time>2019-06-19T15:07:06Z</time>
      </trkpt>
      <trkpt lat="47.14449" lon="6.38667">
        <ele>749</ele>
        <time>2019-06-19T15:07:10Z</time>
      </trkpt>
      <trkpt lat="47.14462" lon="6.38677">
        <ele>749</ele>
        <time>2019-06-19T15:07:16Z</time>
      </trkpt>
      <trkpt lat="47.14472" lon="6.38684">
        <ele>749</ele>
        <time>2019-06-19T15:07:20Z</time>
      </trkpt>
      <trkpt lat="47.14482" lon="6.3869">
        <ele>749</ele>
        <time>2019-06-19T15:07:24Z</time>
      </trkpt>
      <trkpt lat="47.14493" lon="6.38698">
        <ele>749</ele>
        <time>2019-06-19T15:07:28Z</time>
      </trkpt>
      <trkpt lat="47.14505" lon="6.38708">
        <ele>749</ele>
        <time>2019-06-19T15:07:32Z</time>
      </trkpt>
      <trkpt lat="47.14518" lon="6.38722">
        <ele>750</ele>
        <time>2019-06-19T15:07:36Z</time>
      </trkpt>
      <trkpt lat="47.14532" lon="6.38735">
        <ele>750</ele>
        <time>2019-06-19T15:07:40Z</time>
      </trkpt>
      <trkpt lat="47.14547" lon="6.38747">
        <ele>751</ele>
        <time>2019-06-19T15:07:44Z</time>
      </trkpt>
      <trkpt lat="47.14557" lon="6.38755">
        <ele>757</ele>
        <time>2019-06-19T15:07:46Z</time>
      </trkpt>
      <trkpt lat="47.1457" lon="6.38766">
        <ele>757</ele>
        <time>2019-06-19T15:07:50Z</time>
      </trkpt>
      <trkpt lat="47.1458" lon="6.3877">
        <ele>757</ele>
        <time>2019-06-19T15:07:52Z</time>
      </trkpt>
      <trkpt lat="47.14595" lon="6.38775">
        <ele>758</ele>
        <time>2019-06-19T15:07:56Z</time>
      </trkpt>
      <trkpt lat="47.14605" lon="6.38782">
        <ele>759</ele>
        <time>2019-06-19T15:08:00Z</time>
      </trkpt>
      <trkpt lat="47.14617" lon="6.3879">
        <ele>759</ele>
        <time>2019-06-19T15:08:04Z</time>
      </trkpt>
      <trkpt lat="47.14628" lon="6.38799">
        <ele>760</ele>
        <time>2019-06-19T15:08:08Z</time>
      </trkpt>
      <trkpt lat="47.14637" lon="6.38809">
        <ele>761</ele>
        <time>2019-06-19T15:08:12Z</time>
      </trkpt>
      <trkpt lat="47.14647" lon="6.38819">
        <ele>761</ele>
        <time>2019-06-19T15:08:16Z</time>
      </trkpt>
      <trkpt lat="47.14657" lon="6.38826">
        <ele>762</ele>
        <time>2019-06-19T15:08:20Z</time>
      </trkpt>
      <trkpt lat="47.14667" lon="6.38834">
        <ele>764</ele>
        <time>2019-06-19T15:08:24Z</time>
      </trkpt>
      <trkpt lat="47.14679" lon="6.38844">
        <ele>766</ele>
        <time>2019-06-19T15:08:28Z</time>
      </trkpt>
      <trkpt lat="47.14692" lon="6.38852">
        <ele>768</ele>
        <time>2019-06-19T15:08:32Z</time>
      </trkpt>
      <trkpt lat="47.14706" lon="6.38859">
        <ele>768</ele>
        <time>2019-06-19T15:08:36Z</time>
      </trkpt>
      <trkpt lat="47.14717" lon="6.38868">
        <ele>769</ele>
        <time>2019-06-19T15:08:40Z</time>
      </trkpt>
      <trkpt lat="47.14726" lon="6.38878">
        <ele>769</ele>
        <time>2019-06-19T15:08:44Z</time>
      </trkpt>
      <trkpt lat="47.14738" lon="6.38885">
        <ele>770</ele>
        <time>2019-06-19T15:08:48Z</time>
      </trkpt>
      <trkpt lat="47.14747" lon="6.38889">
        <ele>771</ele>
        <time>2019-06-19T15:08:52Z</time>
      </trkpt>
      <trkpt lat="47.14757" lon="6.38897">
        <ele>771</ele>
        <time>2019-06-19T15:08:56Z</time>
      </trkpt>
      <trkpt lat="47.14768" lon="6.38902">
        <ele>771</ele>
        <time>2019-06-19T15:09:00Z</time>
      </trkpt>
      <trkpt lat="47.14778" lon="6.38908">
        <ele>771</ele>
        <time>2019-06-19T15:09:04Z</time>
      </trkpt>
      <trkpt lat="47.14788" lon="6.38916">
        <ele>771</ele>
        <time>2019-06-19T15:09:08Z</time>
      </trkpt>
      <trkpt lat="47.14798" lon="6.38924">
        <ele>776</ele>
        <time>2019-06-19T15:09:12Z</time>
      </trkpt>
      <trkpt lat="47.1481" lon="6.38932">
        <ele>776</ele>
        <time>2019-06-19T15:09:18Z</time>
      </trkpt>
      <trkpt lat="47.1482" lon="6.38939">
        <ele>776</ele>
        <time>2019-06-19T15:09:22Z</time>
      </trkpt>
      <trkpt lat="47.1483" lon="6.38944">
        <ele>776</ele>
        <time>2019-06-19T15:09:26Z</time>
      </trkpt>
      <trkpt lat="47.14839" lon="6.38952">
        <ele>776</ele>
        <time>2019-06-19T15:09:30Z</time>
      </trkpt>
      <trkpt lat="47.14847" lon="6.38958">
        <ele>776</ele>
        <time>2019-06-19T15:09:34Z</time>
      </trkpt>
      <trkpt lat="47.14856" lon="6.38966">
        <ele>776</ele>
        <time>2019-06-19T15:09:38Z</time>
      </trkpt>
      <trkpt lat="47.1487" lon="6.38977">
        <ele>777</ele>
        <time>2019-06-19T15:09:42Z</time>
      </trkpt>
      <trkpt lat="47.14882" lon="6.38984">
        <ele>777</ele>
        <time>2019-06-19T15:09:46Z</time>
      </trkpt>
      <trkpt lat="47.14894" lon="6.38993">
        <ele>777</ele>
        <time>2019-06-19T15:09:50Z</time>
      </trkpt>
      <trkpt lat="47.14906" lon="6.39003">
        <ele>779</ele>
        <time>2019-06-19T15:09:54Z</time>
      </trkpt>
      <trkpt lat="47.14918" lon="6.39015">
        <ele>779</ele>
        <time>2019-06-19T15:09:58Z</time>
      </trkpt>
      <trkpt lat="47.14933" lon="6.3902">
        <ele>780</ele>
        <time>2019-06-19T15:10:02Z</time>
      </trkpt>
      <trkpt lat="47.14943" lon="6.39022">
        <ele>780</ele>
        <time>2019-06-19T15:10:06Z</time>
      </trkpt>
      <trkpt lat="47.14954" lon="6.39031">
        <ele>780</ele>
        <time>2019-06-19T15:10:10Z</time>
      </trkpt>
      <trkpt lat="47.14965" lon="6.39039">
        <ele>780</ele>
        <time>2019-06-19T15:10:14Z</time>
      </trkpt>
      <trkpt lat="47.14975" lon="6.39045">
        <ele>780</ele>
        <time>2019-06-19T15:10:20Z</time>
      </trkpt>
      <trkpt lat="47.14984" lon="6.39052">
        <ele>780</ele>
        <time>2019-06-19T15:10:34Z</time>
      </trkpt>
      <trkpt lat="47.14995" lon="6.39065">
        <ele>781</ele>
        <time>2019-06-19T15:10:40Z</time>
      </trkpt>
      <trkpt lat="47.15009" lon="6.39076">
        <ele>780</ele>
        <time>2019-06-19T15:10:44Z</time>
      </trkpt>
      <trkpt lat="47.15022" lon="6.39084">
        <ele>782</ele>
        <time>2019-06-19T15:10:48Z</time>
      </trkpt>
      <trkpt lat="47.15037" lon="6.39095">
        <ele>782</ele>
        <time>2019-06-19T15:10:52Z</time>
      </trkpt>
      <trkpt lat="47.15051" lon="6.39106">
        <ele>782</ele>
        <time>2019-06-19T15:10:56Z</time>
      </trkpt>
      <trkpt lat="47.15061" lon="6.39116">
        <ele>782</ele>
        <time>2019-06-19T15:11:00Z</time>
      </trkpt>
      <trkpt lat="47.15072" lon="6.39125">
        <ele>782</ele>
        <time>2019-06-19T15:11:04Z</time>
      </trkpt>
      <trkpt lat="47.15083" lon="6.39134">
        <ele>783</ele>
        <time>2019-06-19T15:11:08Z</time>
      </trkpt>
      <trkpt lat="47.15089" lon="6.3915">
        <ele>779</ele>
        <time>2019-06-19T15:11:12Z</time>
      </trkpt>
      <trkpt lat="47.15083" lon="6.39166">
        <ele>784</ele>
        <time>2019-06-19T15:11:16Z</time>
      </trkpt>
      <trkpt lat="47.15079" lon="6.39184">
        <ele>786</ele>
        <time>2019-06-19T15:11:20Z</time>
      </trkpt>
      <trkpt lat="47.15073" lon="6.39202">
        <ele>788</ele>
        <time>2019-06-19T15:11:24Z</time>
      </trkpt>
      <trkpt lat="47.15066" lon="6.39219">
        <ele>788</ele>
        <time>2019-06-19T15:11:28Z</time>
      </trkpt>
      <trkpt lat="47.1506" lon="6.39237">
        <ele>789</ele>
        <time>2019-06-19T15:11:32Z</time>
      </trkpt>
      <trkpt lat="47.15057" lon="6.39254">
        <ele>792</ele>
        <time>2019-06-19T15:11:36Z</time>
      </trkpt>
      <trkpt lat="47.15054" lon="6.39271">
        <ele>792</ele>
        <time>2019-06-19T15:11:40Z</time>
      </trkpt>
      <trkpt lat="47.15049" lon="6.39294">
        <ele>793</ele>
        <time>2019-06-19T15:11:44Z</time>
      </trkpt>
      <trkpt lat="47.15044" lon="6.39314">
        <ele>793</ele>
        <time>2019-06-19T15:11:48Z</time>
      </trkpt>
      <trkpt lat="47.15041" lon="6.39335">
        <ele>795</ele>
        <time>2019-06-19T15:11:52Z</time>
      </trkpt>
      <trkpt lat="47.15038" lon="6.39356">
        <ele>795</ele>
        <time>2019-06-19T15:11:56Z</time>
      </trkpt>
      <trkpt lat="47.15034" lon="6.39376">
        <ele>795</ele>
        <time>2019-06-19T15:12:00Z</time>
      </trkpt>
      <trkpt lat="47.15031" lon="6.39397">
        <ele>795</ele>
        <time>2019-06-19T15:12:04Z</time>
      </trkpt>
      <trkpt lat="47.15028" lon="6.39417">
        <ele>797</ele>
        <time>2019-06-19T15:12:08Z</time>
      </trkpt>
      <trkpt lat="47.1503" lon="6.3944">
        <ele>797</ele>
        <time>2019-06-19T15:12:12Z</time>
      </trkpt>
      <trkpt lat="47.15028" lon="6.39464">
        <ele>798</ele>
        <time>2019-06-19T15:12:16Z</time>
      </trkpt>
      <trkpt lat="47.15028" lon="6.39487">
        <ele>799</ele>
        <time>2019-06-19T15:12:20Z</time>
      </trkpt>
      <trkpt lat="47.15028" lon="6.39509">
        <ele>801</ele>
        <time>2019-06-19T15:12:24Z</time>
      </trkpt>
      <trkpt lat="47.1503" lon="6.39527">
        <ele>802</ele>
        <time>2019-06-19T15:12:28Z</time>
      </trkpt>
      <trkpt lat="47.15029" lon="6.39546">
        <ele>802</ele>
        <time>2019-06-19T15:12:32Z</time>
      </trkpt>
      <trkpt lat="47.1503" lon="6.39563">
        <ele>803</ele>
        <time>2019-06-19T15:12:36Z</time>
      </trkpt>
      <trkpt lat="47.1503" lon="6.39582">
        <ele>803</ele>
        <time>2019-06-19T15:12:40Z</time>
      </trkpt>
      <trkpt lat="47.1503" lon="6.39604">
        <ele>806</ele>
        <time>2019-06-19T15:12:44Z</time>
      </trkpt>
      <trkpt lat="47.15031" lon="6.39624">
        <ele>806</ele>
        <time>2019-06-19T15:12:48Z</time>
      </trkpt>
      <trkpt lat="47.15039" lon="6.39638">
        <ele>806</ele>
        <time>2019-06-19T15:12:56Z</time>
      </trkpt>
      <trkpt lat="47.15048" lon="6.39644">
        <ele>806</ele>
        <time>2019-06-19T15:13:00Z</time>
      </trkpt>
      <trkpt lat="47.15059" lon="6.39657">
        <ele>806</ele>
        <time>2019-06-19T15:13:06Z</time>
      </trkpt>
      <trkpt lat="47.15067" lon="6.39665">
        <ele>806</ele>
        <time>2019-06-19T15:13:10Z</time>
      </trkpt>
      <trkpt lat="47.15074" lon="6.39676">
        <ele>808</ele>
        <time>2019-06-19T15:13:14Z</time>
      </trkpt>
      <trkpt lat="47.15083" lon="6.39687">
        <ele>808</ele>
        <time>2019-06-19T15:13:18Z</time>
      </trkpt>
      <trkpt lat="47.15093" lon="6.39694">
        <ele>807</ele>
        <time>2019-06-19T15:13:22Z</time>
      </trkpt>
      <trkpt lat="47.151" lon="6.39704">
        <ele>808</ele>
        <time>2019-06-19T15:13:26Z</time>
      </trkpt>
      <trkpt lat="47.15106" lon="6.39714">
        <ele>808</ele>
        <time>2019-06-19T15:13:30Z</time>
      </trkpt>
      <trkpt lat="47.15115" lon="6.39729">
        <ele>808</ele>
        <time>2019-06-19T15:13:34Z</time>
      </trkpt>
      <trkpt lat="47.15124" lon="6.39742">
        <ele>808</ele>
        <time>2019-06-19T15:13:38Z</time>
      </trkpt>
      <trkpt lat="47.15132" lon="6.39753">
        <ele>811</ele>
        <time>2019-06-19T15:13:42Z</time>
      </trkpt>
      <trkpt lat="47.15142" lon="6.39754">
        <ele>811</ele>
        <time>2019-06-19T15:13:50Z</time>
      </trkpt>
      <trkpt lat="47.1514" lon="6.39768">
        <ele>811</ele>
        <time>2019-06-19T15:13:56Z</time>
      </trkpt>
      <trkpt lat="47.15132" lon="6.39785">
        <ele>812</ele>
        <time>2019-06-19T15:14:00Z</time>
      </trkpt>
      <trkpt lat="47.15124" lon="6.39802">
        <ele>812</ele>
        <time>2019-06-19T15:14:04Z</time>
      </trkpt>
      <trkpt lat="47.15117" lon="6.39818">
        <ele>813</ele>
        <time>2019-06-19T15:14:08Z</time>
      </trkpt>
      <trkpt lat="47.15111" lon="6.39835">
        <ele>814</ele>
        <time>2019-06-19T15:14:12Z</time>
      </trkpt>
      <trkpt lat="47.15107" lon="6.3985">
        <ele>814</ele>
        <time>2019-06-19T15:14:16Z</time>
      </trkpt>
      <trkpt lat="47.15101" lon="6.39863">
        <ele>814</ele>
        <time>2019-06-19T15:14:20Z</time>
      </trkpt>
      <trkpt lat="47.15097" lon="6.39877">
        <ele>814</ele>
        <time>2019-06-19T15:14:30Z</time>
      </trkpt>
      <trkpt lat="47.15089" lon="6.39889">
        <ele>815</ele>
        <time>2019-06-19T15:14:34Z</time>
      </trkpt>
      <trkpt lat="47.15083" lon="6.39902">
        <ele>815</ele>
        <time>2019-06-19T15:14:38Z</time>
      </trkpt>
      <trkpt lat="47.15078" lon="6.39916">
        <ele>815</ele>
        <time>2019-06-19T15:14:42Z</time>
      </trkpt>
      <trkpt lat="47.1507" lon="6.39929">
        <ele>813</ele>
        <time>2019-06-19T15:14:46Z</time>
      </trkpt>
      <trkpt lat="47.15064" lon="6.3994">
        <ele>812</ele>
        <time>2019-06-19T15:14:50Z</time>
      </trkpt>
      <trkpt lat="47.15057" lon="6.39955">
        <ele>811</ele>
        <time>2019-06-19T15:14:56Z</time>
      </trkpt>
      <trkpt lat="47.15042" lon="6.39981">
        <ele>810</ele>
        <time>2019-06-19T15:15:00Z</time>
      </trkpt>
      <trkpt lat="47.15034" lon="6.39996">
        <ele>809</ele>
        <time>2019-06-19T15:15:02Z</time>
      </trkpt>
      <trkpt lat="47.15028" lon="6.4001">
        <ele>807</ele>
        <time>2019-06-19T15:15:04Z</time>
      </trkpt>
      <trkpt lat="47.15014" lon="6.40017">
        <ele>807</ele>
        <time>2019-06-19T15:15:08Z</time>
      </trkpt>
      <trkpt lat="47.15002" lon="6.40027">
        <ele>807</ele>
        <time>2019-06-19T15:15:14Z</time>
      </trkpt>
      <trkpt lat="47.14991" lon="6.40026">
        <ele>809</ele>
        <time>2019-06-19T15:15:18Z</time>
      </trkpt>
      <trkpt lat="47.14978" lon="6.4002">
        <ele>810</ele>
        <time>2019-06-19T15:15:24Z</time>
      </trkpt>
      <trkpt lat="47.14963" lon="6.40015">
        <ele>810</ele>
        <time>2019-06-19T15:15:28Z</time>
      </trkpt>
      <trkpt lat="47.14949" lon="6.40011">
        <ele>811</ele>
        <time>2019-06-19T15:15:32Z</time>
      </trkpt>
      <trkpt lat="47.14934" lon="6.40004">
        <ele>812</ele>
        <time>2019-06-19T15:15:36Z</time>
      </trkpt>
      <trkpt lat="47.1492" lon="6.39994">
        <ele>813</ele>
        <time>2019-06-19T15:15:40Z</time>
      </trkpt>
      <trkpt lat="47.14903" lon="6.3998">
        <ele>814</ele>
        <time>2019-06-19T15:15:48Z</time>
      </trkpt>
      <trkpt lat="47.14893" lon="6.39972">
        <ele>814</ele>
        <time>2019-06-19T15:15:52Z</time>
      </trkpt>
      <trkpt lat="47.14882" lon="6.39962">
        <ele>814</ele>
        <time>2019-06-19T15:15:56Z</time>
      </trkpt>
      <trkpt lat="47.14867" lon="6.39958">
        <ele>814</ele>
        <time>2019-06-19T15:16:00Z</time>
      </trkpt>
      <trkpt lat="47.14851" lon="6.3996">
        <ele>814</ele>
        <time>2019-06-19T15:16:04Z</time>
      </trkpt>
      <trkpt lat="47.14841" lon="6.39961">
        <ele>815</ele>
        <time>2019-06-19T15:16:08Z</time>
      </trkpt>
      <trkpt lat="47.14826" lon="6.39966">
        <ele>813</ele>
        <time>2019-06-19T15:16:12Z</time>
      </trkpt>
      <trkpt lat="47.14817" lon="6.3997">
        <ele>813</ele>
        <time>2019-06-19T15:16:14Z</time>
      </trkpt>
      <trkpt lat="47.14814" lon="6.39987">
        <ele>813</ele>
        <time>2019-06-19T15:16:18Z</time>
      </trkpt>
      <trkpt lat="47.14822" lon="6.40001">
        <ele>814</ele>
        <time>2019-06-19T15:16:22Z</time>
      </trkpt>
      <trkpt lat="47.14829" lon="6.40015">
        <ele>814</ele>
        <time>2019-06-19T15:16:26Z</time>
      </trkpt>
      <trkpt lat="47.14834" lon="6.40026">
        <ele>815</ele>
        <time>2019-06-19T15:16:30Z</time>
      </trkpt>
      <trkpt lat="47.14842" lon="6.40044">
        <ele>815</ele>
        <time>2019-06-19T15:16:36Z</time>
      </trkpt>
      <trkpt lat="47.14849" lon="6.40058">
        <ele>815</ele>
        <time>2019-06-19T15:16:40Z</time>
      </trkpt>
      <trkpt lat="47.14858" lon="6.40068">
        <ele>815</ele>
        <time>2019-06-19T15:16:44Z</time>
      </trkpt>
      <trkpt lat="47.14868" lon="6.4008">
        <ele>815</ele>
        <time>2019-06-19T15:16:48Z</time>
      </trkpt>
      <trkpt lat="47.14889" lon="6.40112">
        <ele>811</ele>
        <time>2019-06-19T15:16:52Z</time>
      </trkpt>
      <trkpt lat="47.14897" lon="6.40124">
        <ele>810</ele>
        <time>2019-06-19T15:16:54Z</time>
      </trkpt>
      <trkpt lat="47.14903" lon="6.4014">
        <ele>808</ele>
        <time>2019-06-19T15:16:58Z</time>
      </trkpt>
      <trkpt lat="47.14909" lon="6.40153">
        <ele>806</ele>
        <time>2019-06-19T15:17:04Z</time>
      </trkpt>
      <trkpt lat="47.14911" lon="6.40169">
        <ele>802</ele>
        <time>2019-06-19T15:17:10Z</time>
      </trkpt>
      <trkpt lat="47.14911" lon="6.40193">
        <ele>801</ele>
        <time>2019-06-19T15:17:14Z</time>
      </trkpt>
      <trkpt lat="47.14908" lon="6.40207">
        <ele>800</ele>
        <time>2019-06-19T15:17:18Z</time>
      </trkpt>
      <trkpt lat="47.14895" lon="6.40217">
        <ele>800</ele>
        <time>2019-06-19T15:17:22Z</time>
      </trkpt>
      <trkpt lat="47.14885" lon="6.4022">
        <ele>800</ele>
        <time>2019-06-19T15:17:24Z</time>
      </trkpt>
      <trkpt lat="47.14867" lon="6.40227">
        <ele>799</ele>
        <time>2019-06-19T15:17:28Z</time>
      </trkpt>
      <trkpt lat="47.14851" lon="6.40233">
        <ele>798</ele>
        <time>2019-06-19T15:17:30Z</time>
      </trkpt>
      <trkpt lat="47.1484" lon="6.40237">
        <ele>798</ele>
        <time>2019-06-19T15:17:32Z</time>
      </trkpt>
      <trkpt lat="47.14829" lon="6.40241">
        <ele>795</ele>
        <time>2019-06-19T15:17:34Z</time>
      </trkpt>
      <trkpt lat="47.14818" lon="6.40241">
        <ele>795</ele>
        <time>2019-06-19T15:17:36Z</time>
      </trkpt>
      <trkpt lat="47.14807" lon="6.4024">
        <ele>795</ele>
        <time>2019-06-19T15:17:38Z</time>
      </trkpt>
      <trkpt lat="47.14798" lon="6.40239">
        <ele>795</ele>
        <time>2019-06-19T15:17:40Z</time>
      </trkpt>
      <trkpt lat="47.14788" lon="6.40237">
        <ele>794</ele>
        <time>2019-06-19T15:17:42Z</time>
      </trkpt>
      <trkpt lat="47.14779" lon="6.40233">
        <ele>794</ele>
        <time>2019-06-19T15:17:44Z</time>
      </trkpt>
      <trkpt lat="47.14768" lon="6.4023">
        <ele>793</ele>
        <time>2019-06-19T15:17:46Z</time>
      </trkpt>
      <trkpt lat="47.14758" lon="6.40226">
        <ele>793</ele>
        <time>2019-06-19T15:17:48Z</time>
      </trkpt>
      <trkpt lat="47.14749" lon="6.40222">
        <ele>786</ele>
        <time>2019-06-19T15:17:50Z</time>
      </trkpt>
      <trkpt lat="47.1474" lon="6.40218">
        <ele>785</ele>
        <time>2019-06-19T15:17:52Z</time>
      </trkpt>
      <trkpt lat="47.14731" lon="6.40214">
        <ele>785</ele>
        <time>2019-06-19T15:17:54Z</time>
      </trkpt>
      <trkpt lat="47.14721" lon="6.4021">
        <ele>784</ele>
        <time>2019-06-19T15:17:56Z</time>
      </trkpt>
      <trkpt lat="47.14704" lon="6.40202">
        <ele>782</ele>
        <time>2019-06-19T15:18:00Z</time>
      </trkpt>
      <trkpt lat="47.14694" lon="6.40199">
        <ele>781</ele>
        <time>2019-06-19T15:18:02Z</time>
      </trkpt>
      <trkpt lat="47.14673" lon="6.40189">
        <ele>779</ele>
        <time>2019-06-19T15:18:06Z</time>
      </trkpt>
      <trkpt lat="47.14656" lon="6.40181">
        <ele>771</ele>
        <time>2019-06-19T15:18:10Z</time>
      </trkpt>
      <trkpt lat="47.14645" lon="6.40178">
        <ele>771</ele>
        <time>2019-06-19T15:18:12Z</time>
      </trkpt>
      <trkpt lat="47.14633" lon="6.40178">
        <ele>769</ele>
        <time>2019-06-19T15:18:14Z</time>
      </trkpt>
      <trkpt lat="47.14621" lon="6.40179">
        <ele>768</ele>
        <time>2019-06-19T15:18:16Z</time>
      </trkpt>
      <trkpt lat="47.14609" lon="6.4018">
        <ele>767</ele>
        <time>2019-06-19T15:18:18Z</time>
      </trkpt>
      <trkpt lat="47.14599" lon="6.4018">
        <ele>766</ele>
        <time>2019-06-19T15:18:20Z</time>
      </trkpt>
      <trkpt lat="47.14587" lon="6.4018">
        <ele>765</ele>
        <time>2019-06-19T15:18:22Z</time>
      </trkpt>
      <trkpt lat="47.14577" lon="6.40178">
        <ele>764</ele>
        <time>2019-06-19T15:18:24Z</time>
      </trkpt>
      <trkpt lat="47.14564" lon="6.40173">
        <ele>765</ele>
        <time>2019-06-19T15:18:26Z</time>
      </trkpt>
      <trkpt lat="47.1455" lon="6.40167">
        <ele>765</ele>
        <time>2019-06-19T15:18:28Z</time>
      </trkpt>
      <trkpt lat="47.14534" lon="6.40161">
        <ele>764</ele>
        <time>2019-06-19T15:18:30Z</time>
      </trkpt>
      <trkpt lat="47.14523" lon="6.40155">
        <ele>763</ele>
        <time>2019-06-19T15:18:32Z</time>
      </trkpt>
      <trkpt lat="47.14511" lon="6.40148">
        <ele>763</ele>
        <time>2019-06-19T15:18:34Z</time>
      </trkpt>
      <trkpt lat="47.14497" lon="6.40142">
        <ele>762</ele>
        <time>2019-06-19T15:18:36Z</time>
      </trkpt>
      <trkpt lat="47.14486" lon="6.40135">
        <ele>762</ele>
        <time>2019-06-19T15:18:38Z</time>
      </trkpt>
      <trkpt lat="47.14474" lon="6.4013">
        <ele>762</ele>
        <time>2019-06-19T15:18:40Z</time>
      </trkpt>
      <trkpt lat="47.14461" lon="6.40121">
        <ele>762</ele>
        <time>2019-06-19T15:18:42Z</time>
      </trkpt>
      <trkpt lat="47.14451" lon="6.40113">
        <ele>762</ele>
        <time>2019-06-19T15:18:44Z</time>
      </trkpt>
      <trkpt lat="47.14441" lon="6.40107">
        <ele>761</ele>
        <time>2019-06-19T15:18:46Z</time>
      </trkpt>
      <trkpt lat="47.14433" lon="6.40099">
        <ele>760</ele>
        <time>2019-06-19T15:18:48Z</time>
      </trkpt>
      <trkpt lat="47.14425" lon="6.40089">
        <ele>759</ele>
        <time>2019-06-19T15:18:50Z</time>
      </trkpt>
      <trkpt lat="47.14414" lon="6.40077">
        <ele>757</ele>
        <time>2019-06-19T15:18:52Z</time>
      </trkpt>
      <trkpt lat="47.14404" lon="6.40064">
        <ele>757</ele>
        <time>2019-06-19T15:18:54Z</time>
      </trkpt>
      <trkpt lat="47.14394" lon="6.4005">
        <ele>756</ele>
        <time>2019-06-19T15:18:56Z</time>
      </trkpt>
      <trkpt lat="47.14384" lon="6.40038">
        <ele>756</ele>
        <time>2019-06-19T15:18:58Z</time>
      </trkpt>
      <trkpt lat="47.14375" lon="6.40023">
        <ele>756</ele>
        <time>2019-06-19T15:19:00Z</time>
      </trkpt>
      <trkpt lat="47.14362" lon="6.40016">
        <ele>755</ele>
        <time>2019-06-19T15:19:02Z</time>
      </trkpt>
      <trkpt lat="47.1435" lon="6.40001">
        <ele>754</ele>
        <time>2019-06-19T15:19:04Z</time>
      </trkpt>
      <trkpt lat="47.14342" lon="6.39985">
        <ele>752</ele>
        <time>2019-06-19T15:19:06Z</time>
      </trkpt>
      <trkpt lat="47.14336" lon="6.3997">
        <ele>752</ele>
        <time>2019-06-19T15:19:08Z</time>
      </trkpt>
      <trkpt lat="47.14328" lon="6.39955">
        <ele>747</ele>
        <time>2019-06-19T15:19:10Z</time>
      </trkpt>
      <trkpt lat="47.14315" lon="6.39943">
        <ele>746</ele>
        <time>2019-06-19T15:19:12Z</time>
      </trkpt>
      <trkpt lat="47.14307" lon="6.39932">
        <ele>746</ele>
        <time>2019-06-19T15:19:14Z</time>
      </trkpt>
      <trkpt lat="47.14298" lon="6.39915">
        <ele>744</ele>
        <time>2019-06-19T15:19:16Z</time>
      </trkpt>
      <trkpt lat="47.14292" lon="6.39898">
        <ele>744</ele>
        <time>2019-06-19T15:19:18Z</time>
      </trkpt>
      <trkpt lat="47.14284" lon="6.39886">
        <ele>743</ele>
        <time>2019-06-19T15:19:20Z</time>
      </trkpt>
      <trkpt lat="47.14277" lon="6.39875">
        <ele>743</ele>
        <time>2019-06-19T15:19:22Z</time>
      </trkpt>
      <trkpt lat="47.1427" lon="6.39867">
        <ele>743</ele>
        <time>2019-06-19T15:19:24Z</time>
      </trkpt>
      <trkpt lat="47.14262" lon="6.39853">
        <ele>742</ele>
        <time>2019-06-19T15:19:26Z</time>
      </trkpt>
      <trkpt lat="47.14254" lon="6.39836">
        <ele>741</ele>
        <time>2019-06-19T15:19:28Z</time>
      </trkpt>
      <trkpt lat="47.14249" lon="6.39821">
        <ele>739</ele>
        <time>2019-06-19T15:19:30Z</time>
      </trkpt>
      <trkpt lat="47.14243" lon="6.39806">
        <ele>739</ele>
        <time>2019-06-19T15:19:32Z</time>
      </trkpt>
      <trkpt lat="47.14237" lon="6.39788">
        <ele>739</ele>
        <time>2019-06-19T15:19:34Z</time>
      </trkpt>
      <trkpt lat="47.14231" lon="6.3977">
        <ele>739</ele>
        <time>2019-06-19T15:19:36Z</time>
      </trkpt>
      <trkpt lat="47.14229" lon="6.39752">
        <ele>739</ele>
        <time>2019-06-19T15:19:38Z</time>
      </trkpt>
      <trkpt lat="47.14228" lon="6.39734">
        <ele>738</ele>
        <time>2019-06-19T15:19:40Z</time>
      </trkpt>
      <trkpt lat="47.14225" lon="6.39716">
        <ele>738</ele>
        <time>2019-06-19T15:19:42Z</time>
      </trkpt>
      <trkpt lat="47.14222" lon="6.397">
        <ele>738</ele>
        <time>2019-06-19T15:19:44Z</time>
      </trkpt>
      <trkpt lat="47.1422" lon="6.39683">
        <ele>738</ele>
        <time>2019-06-19T15:19:46Z</time>
      </trkpt>
      <trkpt lat="47.14216" lon="6.39669">
        <ele>738</ele>
        <time>2019-06-19T15:19:48Z</time>
      </trkpt>
      <trkpt lat="47.14213" lon="6.39653">
        <ele>738</ele>
        <time>2019-06-19T15:19:50Z</time>
      </trkpt>
      <trkpt lat="47.1421" lon="6.39638">
        <ele>738</ele>
        <time>2019-06-19T15:19:52Z</time>
      </trkpt>
      <trkpt lat="47.14207" lon="6.39624">
        <ele>738</ele>
        <time>2019-06-19T15:19:54Z</time>
      </trkpt>
      <trkpt lat="47.14204" lon="6.3961">
        <ele>738</ele>
        <time>2019-06-19T15:19:56Z</time>
      </trkpt>
      <trkpt lat="47.14196" lon="6.39598">
        <ele>738</ele>
        <time>2019-06-19T15:19:58Z</time>
      </trkpt>
      <trkpt lat="47.14185" lon="6.39588">
        <ele>737</ele>
        <time>2019-06-19T15:20:00Z</time>
      </trkpt>
      <trkpt lat="47.14177" lon="6.39578">
        <ele>738</ele>
        <time>2019-06-19T15:20:02Z</time>
      </trkpt>
      <trkpt lat="47.14157" lon="6.39549">
        <ele>736</ele>
        <time>2019-06-19T15:20:06Z</time>
      </trkpt>
      <trkpt lat="47.14147" lon="6.39538">
        <ele>736</ele>
        <time>2019-06-19T15:20:08Z</time>
      </trkpt>
      <trkpt lat="47.14138" lon="6.39531">
        <ele>736</ele>
        <time>2019-06-19T15:20:10Z</time>
      </trkpt>
      <trkpt lat="47.14128" lon="6.39519">
        <ele>736</ele>
        <time>2019-06-19T15:20:12Z</time>
      </trkpt>
      <trkpt lat="47.14116" lon="6.39509">
        <ele>736</ele>
        <time>2019-06-19T15:20:14Z</time>
      </trkpt>
      <trkpt lat="47.14103" lon="6.39506">
        <ele>735</ele>
        <time>2019-06-19T15:20:16Z</time>
      </trkpt>
      <trkpt lat="47.14087" lon="6.39495">
        <ele>736</ele>
        <time>2019-06-19T15:20:18Z</time>
      </trkpt>
      <trkpt lat="47.14073" lon="6.39489">
        <ele>737</ele>
        <time>2019-06-19T15:20:20Z</time>
      </trkpt>
      <trkpt lat="47.14056" lon="6.39485">
        <ele>738</ele>
        <time>2019-06-19T15:20:22Z</time>
      </trkpt>
      <trkpt lat="47.14046" lon="6.39476">
        <ele>738</ele>
        <time>2019-06-19T15:20:24Z</time>
      </trkpt>
      <trkpt lat="47.14033" lon="6.39473">
        <ele>738</ele>
        <time>2019-06-19T15:20:26Z</time>
      </trkpt>
      <trkpt lat="47.14021" lon="6.39473">
        <ele>738</ele>
        <time>2019-06-19T15:20:28Z</time>
      </trkpt>
      <trkpt lat="47.14011" lon="6.39474">
        <ele>738</ele>
        <time>2019-06-19T15:20:30Z</time>
      </trkpt>
      <trkpt lat="47.13997" lon="6.39473">
        <ele>736</ele>
        <time>2019-06-19T15:20:32Z</time>
      </trkpt>
      <trkpt lat="47.13985" lon="6.39474">
        <ele>736</ele>
        <time>2019-06-19T15:20:34Z</time>
      </trkpt>
      <trkpt lat="47.13974" lon="6.3948">
        <ele>736</ele>
        <time>2019-06-19T15:20:36Z</time>
      </trkpt>
      <trkpt lat="47.13958" lon="6.39491">
        <ele>736</ele>
        <time>2019-06-19T15:20:38Z</time>
      </trkpt>
      <trkpt lat="47.13946" lon="6.395">
        <ele>732</ele>
        <time>2019-06-19T15:20:40Z</time>
      </trkpt>
      <trkpt lat="47.13934" lon="6.39509">
        <ele>732</ele>
        <time>2019-06-19T15:20:42Z</time>
      </trkpt>
      <trkpt lat="47.13921" lon="6.39516">
        <ele>732</ele>
        <time>2019-06-19T15:20:44Z</time>
      </trkpt>
      <trkpt lat="47.13908" lon="6.39526">
        <ele>731</ele>
        <time>2019-06-19T15:20:46Z</time>
      </trkpt>
      <trkpt lat="47.13895" lon="6.39533">
        <ele>731</ele>
        <time>2019-06-19T15:20:48Z</time>
      </trkpt>
      <trkpt lat="47.13884" lon="6.39541">
        <ele>731</ele>
        <time>2019-06-19T15:20:50Z</time>
      </trkpt>
      <trkpt lat="47.13874" lon="6.39555">
        <ele>731</ele>
        <time>2019-06-19T15:20:52Z</time>
      </trkpt>
      <trkpt lat="47.13865" lon="6.39569">
        <ele>731</ele>
        <time>2019-06-19T15:20:54Z</time>
      </trkpt>
      <trkpt lat="47.13867" lon="6.39591">
        <ele>731</ele>
        <time>2019-06-19T15:20:56Z</time>
      </trkpt>
      <trkpt lat="47.1387" lon="6.39611">
        <ele>731</ele>
        <time>2019-06-19T15:20:58Z</time>
      </trkpt>
      <trkpt lat="47.13876" lon="6.39626">
        <ele>731</ele>
        <time>2019-06-19T15:21:00Z</time>
      </trkpt>
      <trkpt lat="47.13879" lon="6.3964">
        <ele>731</ele>
        <time>2019-06-19T15:21:02Z</time>
      </trkpt>
      <trkpt lat="47.13881" lon="6.39656">
        <ele>732</ele>
        <time>2019-06-19T15:21:04Z</time>
      </trkpt>
      <trkpt lat="47.13883" lon="6.39675">
        <ele>733</ele>
        <time>2019-06-19T15:21:06Z</time>
      </trkpt>
      <trkpt lat="47.13887" lon="6.39694">
        <ele>733</ele>
        <time>2019-06-19T15:21:08Z</time>
      </trkpt>
      <trkpt lat="47.1389" lon="6.39714">
        <ele>733</ele>
        <time>2019-06-19T15:21:10Z</time>
      </trkpt>
      <trkpt lat="47.13894" lon="6.39733">
        <ele>733</ele>
        <time>2019-06-19T15:21:12Z</time>
      </trkpt>
      <trkpt lat="47.139" lon="6.39751">
        <ele>734</ele>
        <time>2019-06-19T15:21:14Z</time>
      </trkpt>
      <trkpt lat="47.13907" lon="6.39769">
        <ele>734</ele>
        <time>2019-06-19T15:21:16Z</time>
      </trkpt>
      <trkpt lat="47.13917" lon="6.39788">
        <ele>734</ele>
        <time>2019-06-19T15:21:18Z</time>
      </trkpt>
      <trkpt lat="47.13933" lon="6.39803">
        <ele>734</ele>
        <time>2019-06-19T15:21:20Z</time>
      </trkpt>
      <trkpt lat="47.13947" lon="6.39814">
        <ele>734</ele>
        <time>2019-06-19T15:21:22Z</time>
      </trkpt>
      <trkpt lat="47.13956" lon="6.39832">
        <ele>734</ele>
        <time>2019-06-19T15:21:24Z</time>
      </trkpt>
      <trkpt lat="47.13962" lon="6.3985">
        <ele>735</ele>
        <time>2019-06-19T15:21:26Z</time>
      </trkpt>
      <trkpt lat="47.13973" lon="6.39866">
        <ele>735</ele>
        <time>2019-06-19T15:21:28Z</time>
      </trkpt>
      <trkpt lat="47.13984" lon="6.39879">
        <ele>735</ele>
        <time>2019-06-19T15:21:30Z</time>
      </trkpt>
      <trkpt lat="47.13997" lon="6.39893">
        <ele>735</ele>
        <time>2019-06-19T15:21:32Z</time>
      </trkpt>
      <trkpt lat="47.1401" lon="6.39908">
        <ele>735</ele>
        <time>2019-06-19T15:21:34Z</time>
      </trkpt>
      <trkpt lat="47.14022" lon="6.39923">
        <ele>734</ele>
        <time>2019-06-19T15:21:36Z</time>
      </trkpt>
      <trkpt lat="47.14034" lon="6.39939">
        <ele>734</ele>
        <time>2019-06-19T15:21:38Z</time>
      </trkpt>
      <trkpt lat="47.14046" lon="6.39956">
        <ele>734</ele>
        <time>2019-06-19T15:21:40Z</time>
      </trkpt>
      <trkpt lat="47.14057" lon="6.39974">
        <ele>734</ele>
        <time>2019-06-19T15:21:42Z</time>
      </trkpt>
      <trkpt lat="47.14068" lon="6.39991">
        <ele>734</ele>
        <time>2019-06-19T15:21:44Z</time>
      </trkpt>
      <trkpt lat="47.14079" lon="6.40009">
        <ele>734</ele>
        <time>2019-06-19T15:21:46Z</time>
      </trkpt>
      <trkpt lat="47.1409" lon="6.40029">
        <ele>735</ele>
        <time>2019-06-19T15:21:48Z</time>
      </trkpt>
      <trkpt lat="47.14098" lon="6.40045">
        <ele>736</ele>
        <time>2019-06-19T15:21:50Z</time>
      </trkpt>
      <trkpt lat="47.14109" lon="6.40061">
        <ele>736</ele>
        <time>2019-06-19T15:21:52Z</time>
      </trkpt>
      <trkpt lat="47.14122" lon="6.40073">
        <ele>736</ele>
        <time>2019-06-19T15:21:54Z</time>
      </trkpt>
      <trkpt lat="47.14134" lon="6.40079">
        <ele>736</ele>
        <time>2019-06-19T15:21:56Z</time>
      </trkpt>
      <trkpt lat="47.14146" lon="6.40086">
        <ele>737</ele>
        <time>2019-06-19T15:21:58Z</time>
      </trkpt>
      <trkpt lat="47.14161" lon="6.40095">
        <ele>737</ele>
        <time>2019-06-19T15:22:00Z</time>
      </trkpt>
      <trkpt lat="47.14174" lon="6.40107">
        <ele>740</ele>
        <time>2019-06-19T15:22:02Z</time>
      </trkpt>
      <trkpt lat="47.14185" lon="6.40116">
        <ele>741</ele>
        <time>2019-06-19T15:22:04Z</time>
      </trkpt>
      <trkpt lat="47.14198" lon="6.40131">
        <ele>741</ele>
        <time>2019-06-19T15:22:06Z</time>
      </trkpt>
      <trkpt lat="47.14207" lon="6.40136">
        <ele>742</ele>
        <time>2019-06-19T15:22:08Z</time>
      </trkpt>
      <trkpt lat="47.14218" lon="6.40145">
        <ele>743</ele>
        <time>2019-06-19T15:22:10Z</time>
      </trkpt>
      <trkpt lat="47.14229" lon="6.40141">
        <ele>743</ele>
        <time>2019-06-19T15:22:12Z</time>
      </trkpt>
      <trkpt lat="47.14241" lon="6.40136">
        <ele>744</ele>
        <time>2019-06-19T15:22:14Z</time>
      </trkpt>
      <trkpt lat="47.14265" lon="6.40144">
        <ele>751</ele>
        <time>2019-06-19T15:22:18Z</time>
      </trkpt>
      <trkpt lat="47.14276" lon="6.40141">
        <ele>752</ele>
        <time>2019-06-19T15:22:20Z</time>
      </trkpt>
      <trkpt lat="47.14297" lon="6.40146">
        <ele>754</ele>
        <time>2019-06-19T15:22:24Z</time>
      </trkpt>
      <trkpt lat="47.14313" lon="6.40149">
        <ele>756</ele>
        <time>2019-06-19T15:22:28Z</time>
      </trkpt>
      <trkpt lat="47.14326" lon="6.40149">
        <ele>757</ele>
        <time>2019-06-19T15:22:32Z</time>
      </trkpt>
      <trkpt lat="47.1434" lon="6.40156">
        <ele>761</ele>
        <time>2019-06-19T15:22:36Z</time>
      </trkpt>
      <trkpt lat="47.14354" lon="6.40165">
        <ele>761</ele>
        <time>2019-06-19T15:22:42Z</time>
      </trkpt>
      <trkpt lat="47.14368" lon="6.40176">
        <ele>764</ele>
        <time>2019-06-19T15:22:46Z</time>
      </trkpt>
      <trkpt lat="47.14379" lon="6.40183">
        <ele>764</ele>
        <time>2019-06-19T15:22:50Z</time>
      </trkpt>
      <trkpt lat="47.14388" lon="6.4019">
        <ele>765</ele>
        <time>2019-06-19T15:22:54Z</time>
      </trkpt>
      <trkpt lat="47.14396" lon="6.40205">
        <ele>765</ele>
        <time>2019-06-19T15:22:58Z</time>
      </trkpt>
      <trkpt lat="47.14405" lon="6.40224">
        <ele>767</ele>
        <time>2019-06-19T15:23:02Z</time>
      </trkpt>
      <trkpt lat="47.14415" lon="6.40243">
        <ele>770</ele>
        <time>2019-06-19T15:23:06Z</time>
      </trkpt>
      <trkpt lat="47.14425" lon="6.40255">
        <ele>773</ele>
        <time>2019-06-19T15:23:10Z</time>
      </trkpt>
      <trkpt lat="47.14435" lon="6.4027">
        <ele>773</ele>
        <time>2019-06-19T15:23:14Z</time>
      </trkpt>
      <trkpt lat="47.14444" lon="6.40289">
        <ele>773</ele>
        <time>2019-06-19T15:23:18Z</time>
      </trkpt>
      <trkpt lat="47.14455" lon="6.403">
        <ele>774</ele>
        <time>2019-06-19T15:23:22Z</time>
      </trkpt>
      <trkpt lat="47.14475" lon="6.40327">
        <ele>776</ele>
        <time>2019-06-19T15:23:30Z</time>
      </trkpt>
      <trkpt lat="47.14482" lon="6.40347">
        <ele>774</ele>
        <time>2019-06-19T15:23:34Z</time>
      </trkpt>
      <trkpt lat="47.14491" lon="6.40363">
        <ele>774</ele>
        <time>2019-06-19T15:23:38Z</time>
      </trkpt>
      <trkpt lat="47.14501" lon="6.4037">
        <ele>777</ele>
        <time>2019-06-19T15:23:42Z</time>
      </trkpt>
      <trkpt lat="47.14518" lon="6.40377">
        <ele>777</ele>
        <time>2019-06-19T15:23:46Z</time>
      </trkpt>
      <trkpt lat="47.14533" lon="6.40387">
        <ele>777</ele>
        <time>2019-06-19T15:23:50Z</time>
      </trkpt>
      <trkpt lat="47.14541" lon="6.40394">
        <ele>777</ele>
        <time>2019-06-19T15:23:52Z</time>
      </trkpt>
      <trkpt lat="47.14549" lon="6.40401">
        <ele>776</ele>
        <time>2019-06-19T15:23:54Z</time>
      </trkpt>
      <trkpt lat="47.14557" lon="6.40408">
        <ele>777</ele>
        <time>2019-06-19T15:23:56Z</time>
      </trkpt>
      <trkpt lat="47.14573" lon="6.40422">
        <ele>776</ele>
        <time>2019-06-19T15:24:00Z</time>
      </trkpt>
      <trkpt lat="47.14586" lon="6.40436">
        <ele>778</ele>
        <time>2019-06-19T15:24:04Z</time>
      </trkpt>
      <trkpt lat="47.14599" lon="6.4045">
        <ele>779</ele>
        <time>2019-06-19T15:24:08Z</time>
      </trkpt>
      <trkpt lat="47.14619" lon="6.40472">
        <ele>780</ele>
        <time>2019-06-19T15:24:14Z</time>
      </trkpt>
      <trkpt lat="47.14632" lon="6.40488">
        <ele>781</ele>
        <time>2019-06-19T15:24:18Z</time>
      </trkpt>
      <trkpt lat="47.14645" lon="6.40501">
        <ele>782</ele>
        <time>2019-06-19T15:24:22Z</time>
      </trkpt>
      <trkpt lat="47.14658" lon="6.40513">
        <ele>783</ele>
        <time>2019-06-19T15:24:26Z</time>
      </trkpt>
      <trkpt lat="47.14671" lon="6.40524">
        <ele>785</ele>
        <time>2019-06-19T15:24:30Z</time>
      </trkpt>
      <trkpt lat="47.14687" lon="6.40533">
        <ele>786</ele>
        <time>2019-06-19T15:24:34Z</time>
      </trkpt>
      <trkpt lat="47.14703" lon="6.40542">
        <ele>786</ele>
        <time>2019-06-19T15:24:38Z</time>
      </trkpt>
      <trkpt lat="47.14717" lon="6.40548">
        <ele>786</ele>
        <time>2019-06-19T15:24:42Z</time>
      </trkpt>
      <trkpt lat="47.14734" lon="6.40554">
        <ele>787</ele>
        <time>2019-06-19T15:24:46Z</time>
      </trkpt>
      <trkpt lat="47.14751" lon="6.40559">
        <ele>789</ele>
        <time>2019-06-19T15:24:50Z</time>
      </trkpt>
      <trkpt lat="47.1476" lon="6.40561">
        <ele>790</ele>
        <time>2019-06-19T15:24:52Z</time>
      </trkpt>
      <trkpt lat="47.14777" lon="6.40566">
        <ele>790</ele>
        <time>2019-06-19T15:24:56Z</time>
      </trkpt>
      <trkpt lat="47.14792" lon="6.40574">
        <ele>791</ele>
        <time>2019-06-19T15:25:00Z</time>
      </trkpt>
      <trkpt lat="47.14809" lon="6.40575">
        <ele>792</ele>
        <time>2019-06-19T15:25:04Z</time>
      </trkpt>
      <trkpt lat="47.14825" lon="6.40582">
        <ele>794</ele>
        <time>2019-06-19T15:25:08Z</time>
      </trkpt>
      <trkpt lat="47.14847" lon="6.40593">
        <ele>795</ele>
        <time>2019-06-19T15:25:12Z</time>
      </trkpt>
      <trkpt lat="47.14866" lon="6.40603">
        <ele>795</ele>
        <time>2019-06-19T15:25:16Z</time>
      </trkpt>
      <trkpt lat="47.14875" lon="6.40609">
        <ele>795</ele>
        <time>2019-06-19T15:25:18Z</time>
      </trkpt>
      <trkpt lat="47.14895" lon="6.40615">
        <ele>795</ele>
        <time>2019-06-19T15:25:22Z</time>
      </trkpt>
      <trkpt lat="47.14905" lon="6.40614">
        <ele>795</ele>
        <time>2019-06-19T15:25:24Z</time>
      </trkpt>
      <trkpt lat="47.14916" lon="6.40615">
        <ele>795</ele>
        <time>2019-06-19T15:25:26Z</time>
      </trkpt>
      <trkpt lat="47.14933" lon="6.40617">
        <ele>796</ele>
        <time>2019-06-19T15:25:30Z</time>
      </trkpt>
      <trkpt lat="47.14973" lon="6.40625">
        <ele>797</ele>
        <time>2019-06-19T15:25:36Z</time>
      </trkpt>
      <trkpt lat="47.14998" lon="6.40622">
        <ele>797</ele>
        <time>2019-06-19T15:25:42Z</time>
      </trkpt>
      <trkpt lat="47.15018" lon="6.40617">
        <ele>798</ele>
        <time>2019-06-19T15:25:46Z</time>
      </trkpt>
      <trkpt lat="47.15033" lon="6.40611">
        <ele>798</ele>
        <time>2019-06-19T15:25:48Z</time>
      </trkpt>
      <trkpt lat="47.15043" lon="6.4061">
        <ele>798</ele>
        <time>2019-06-19T15:25:50Z</time>
      </trkpt>
      <trkpt lat="47.1506" lon="6.4061">
        <ele>798</ele>
        <time>2019-06-19T15:25:54Z</time>
      </trkpt>
      <trkpt lat="47.15085" lon="6.40608">
        <ele>799</ele>
        <time>2019-06-19T15:25:58Z</time>
      </trkpt>
      <trkpt lat="47.15103" lon="6.40608">
        <ele>800</ele>
        <time>2019-06-19T15:26:02Z</time>
      </trkpt>
      <trkpt lat="47.15113" lon="6.4061">
        <ele>800</ele>
        <time>2019-06-19T15:26:04Z</time>
      </trkpt>
      <trkpt lat="47.15123" lon="6.40611">
        <ele>800</ele>
        <time>2019-06-19T15:26:06Z</time>
      </trkpt>
      <trkpt lat="47.15141" lon="6.40612">
        <ele>800</ele>
        <time>2019-06-19T15:26:10Z</time>
      </trkpt>
      <trkpt lat="47.15151" lon="6.40612">
        <ele>800</ele>
        <time>2019-06-19T15:26:12Z</time>
      </trkpt>
      <trkpt lat="47.15161" lon="6.40615">
        <ele>800</ele>
        <time>2019-06-19T15:26:14Z</time>
      </trkpt>
      <trkpt lat="47.15174" lon="6.40611">
        <ele>803</ele>
        <time>2019-06-19T15:26:18Z</time>
      </trkpt>
      <trkpt lat="47.15185" lon="6.40614">
        <ele>803</ele>
        <time>2019-06-19T15:26:20Z</time>
      </trkpt>
      <trkpt lat="47.15193" lon="6.40623">
        <ele>804</ele>
        <time>2019-06-19T15:26:22Z</time>
      </trkpt>
      <trkpt lat="47.15207" lon="6.40619">
        <ele>804</ele>
        <time>2019-06-19T15:26:26Z</time>
      </trkpt>
      <trkpt lat="47.15223" lon="6.40623">
        <ele>805</ele>
        <time>2019-06-19T15:26:30Z</time>
      </trkpt>
      <trkpt lat="47.15233" lon="6.40625">
        <ele>806</ele>
        <time>2019-06-19T15:26:32Z</time>
      </trkpt>
      <trkpt lat="47.15249" lon="6.40629">
        <ele>806</ele>
        <time>2019-06-19T15:26:36Z</time>
      </trkpt>
      <trkpt lat="47.15266" lon="6.40635">
        <ele>809</ele>
        <time>2019-06-19T15:26:40Z</time>
      </trkpt>
      <trkpt lat="47.15275" lon="6.40636">
        <ele>809</ele>
        <time>2019-06-19T15:26:42Z</time>
      </trkpt>
      <trkpt lat="47.15295" lon="6.40647">
        <ele>809</ele>
        <time>2019-06-19T15:26:46Z</time>
      </trkpt>
      <trkpt lat="47.15316" lon="6.40647">
        <ele>810</ele>
        <time>2019-06-19T15:26:50Z</time>
      </trkpt>
      <trkpt lat="47.15325" lon="6.40652">
        <ele>810</ele>
        <time>2019-06-19T15:26:52Z</time>
      </trkpt>
      <trkpt lat="47.15339" lon="6.40655">
        <ele>811</ele>
        <time>2019-06-19T15:26:56Z</time>
      </trkpt>
      <trkpt lat="47.15355" lon="6.40657">
        <ele>811</ele>
        <time>2019-06-19T15:27:00Z</time>
      </trkpt>
      <trkpt lat="47.15372" lon="6.40664">
        <ele>811</ele>
        <time>2019-06-19T15:27:04Z</time>
      </trkpt>
      <trkpt lat="47.15386" lon="6.40667">
        <ele>814</ele>
        <time>2019-06-19T15:27:08Z</time>
      </trkpt>
      <trkpt lat="47.15401" lon="6.4067">
        <ele>813</ele>
        <time>2019-06-19T15:27:12Z</time>
      </trkpt>
      <trkpt lat="47.15417" lon="6.40671">
        <ele>812</ele>
        <time>2019-06-19T15:27:16Z</time>
      </trkpt>
      <trkpt lat="47.15433" lon="6.40676">
        <ele>813</ele>
        <time>2019-06-19T15:27:20Z</time>
      </trkpt>
      <trkpt lat="47.1545" lon="6.40681">
        <ele>813</ele>
        <time>2019-06-19T15:27:24Z</time>
      </trkpt>
      <trkpt lat="47.15466" lon="6.40682">
        <ele>813</ele>
        <time>2019-06-19T15:27:28Z</time>
      </trkpt>
      <trkpt lat="47.15483" lon="6.40684">
        <ele>813</ele>
        <time>2019-06-19T15:27:32Z</time>
      </trkpt>
      <trkpt lat="47.15495" lon="6.40687">
        <ele>813</ele>
        <time>2019-06-19T15:27:34Z</time>
      </trkpt>
      <trkpt lat="47.15508" lon="6.40688">
        <ele>812</ele>
        <time>2019-06-19T15:27:38Z</time>
      </trkpt>
      <trkpt lat="47.15524" lon="6.40688">
        <ele>812</ele>
        <time>2019-06-19T15:27:42Z</time>
      </trkpt>
      <trkpt lat="47.15534" lon="6.40689">
        <ele>812</ele>
        <time>2019-06-19T15:27:44Z</time>
      </trkpt>
      <trkpt lat="47.15551" lon="6.40687">
        <ele>812</ele>
        <time>2019-06-19T15:27:48Z</time>
      </trkpt>
      <trkpt lat="47.15579" lon="6.4069">
        <ele>811</ele>
        <time>2019-06-19T15:27:54Z</time>
      </trkpt>
      <trkpt lat="47.15596" lon="6.40692">
        <ele>810</ele>
        <time>2019-06-19T15:27:58Z</time>
      </trkpt>
      <trkpt lat="47.15616" lon="6.40693">
        <ele>810</ele>
        <time>2019-06-19T15:28:02Z</time>
      </trkpt>
      <trkpt lat="47.15625" lon="6.40694">
        <ele>810</ele>
        <time>2019-06-19T15:28:04Z</time>
      </trkpt>
      <trkpt lat="47.15636" lon="6.40696">
        <ele>810</ele>
        <time>2019-06-19T15:28:06Z</time>
      </trkpt>
      <trkpt lat="47.15647" lon="6.40697">
        <ele>810</ele>
        <time>2019-06-19T15:28:08Z</time>
      </trkpt>
      <trkpt lat="47.15659" lon="6.40698">
        <ele>809</ele>
        <time>2019-06-19T15:28:10Z</time>
      </trkpt>
      <trkpt lat="47.1567" lon="6.40699">
        <ele>809</ele>
        <time>2019-06-19T15:28:12Z</time>
      </trkpt>
      <trkpt lat="47.15682" lon="6.40701">
        <ele>809</ele>
        <time>2019-06-19T15:28:14Z</time>
      </trkpt>
      <trkpt lat="47.15693" lon="6.40703">
        <ele>809</ele>
        <time>2019-06-19T15:28:16Z</time>
      </trkpt>
      <trkpt lat="47.15705" lon="6.40704">
        <ele>809</ele>
        <time>2019-06-19T15:28:18Z</time>
      </trkpt>
      <trkpt lat="47.15717" lon="6.40705">
        <ele>808</ele>
        <time>2019-06-19T15:28:20Z</time>
      </trkpt>
      <trkpt lat="47.15728" lon="6.40706">
        <ele>808</ele>
        <time>2019-06-19T15:28:22Z</time>
      </trkpt>
      <trkpt lat="47.15742" lon="6.40707">
        <ele>808</ele>
        <time>2019-06-19T15:28:24Z</time>
      </trkpt>
      <trkpt lat="47.15754" lon="6.40706">
        <ele>809</ele>
        <time>2019-06-19T15:28:26Z</time>
      </trkpt>
      <trkpt lat="47.15768" lon="6.40706">
        <ele>810</ele>
        <time>2019-06-19T15:28:28Z</time>
      </trkpt>
      <trkpt lat="47.15782" lon="6.40706">
        <ele>810</ele>
        <time>2019-06-19T15:28:30Z</time>
      </trkpt>
      <trkpt lat="47.15797" lon="6.40706">
        <ele>810</ele>
        <time>2019-06-19T15:28:32Z</time>
      </trkpt>
      <trkpt lat="47.15812" lon="6.40705">
        <ele>811</ele>
        <time>2019-06-19T15:28:34Z</time>
      </trkpt>
      <trkpt lat="47.15828" lon="6.40704">
        <ele>811</ele>
        <time>2019-06-19T15:28:36Z</time>
      </trkpt>
      <trkpt lat="47.15842" lon="6.40704">
        <ele>813</ele>
        <time>2019-06-19T15:28:38Z</time>
      </trkpt>
      <trkpt lat="47.15858" lon="6.40703">
        <ele>814</ele>
        <time>2019-06-19T15:28:40Z</time>
      </trkpt>
      <trkpt lat="47.15872" lon="6.40701">
        <ele>814</ele>
        <time>2019-06-19T15:28:42Z</time>
      </trkpt>
      <trkpt lat="47.15883" lon="6.40701">
        <ele>814</ele>
        <time>2019-06-19T15:28:44Z</time>
      </trkpt>
      <trkpt lat="47.15895" lon="6.40702">
        <ele>814</ele>
        <time>2019-06-19T15:28:46Z</time>
      </trkpt>
      <trkpt lat="47.15908" lon="6.407">
        <ele>815</ele>
        <time>2019-06-19T15:28:48Z</time>
      </trkpt>
      <trkpt lat="47.15932" lon="6.40703">
        <ele>815</ele>
        <time>2019-06-19T15:28:54Z</time>
      </trkpt>
      <trkpt lat="47.15944" lon="6.40699">
        <ele>815</ele>
        <time>2019-06-19T15:28:56Z</time>
      </trkpt>
      <trkpt lat="47.15963" lon="6.40702">
        <ele>814</ele>
        <time>2019-06-19T15:29:02Z</time>
      </trkpt>
      <trkpt lat="47.15976" lon="6.40706">
        <ele>814</ele>
        <time>2019-06-19T15:29:04Z</time>
      </trkpt>
      <trkpt lat="47.15987" lon="6.40711">
        <ele>814</ele>
        <time>2019-06-19T15:29:06Z</time>
      </trkpt>
      <trkpt lat="47.16" lon="6.40711">
        <ele>811</ele>
        <time>2019-06-19T15:29:08Z</time>
      </trkpt>
      <trkpt lat="47.16015" lon="6.40718">
        <ele>810</ele>
        <time>2019-06-19T15:29:10Z</time>
      </trkpt>
      <trkpt lat="47.16032" lon="6.40723">
        <ele>810</ele>
        <time>2019-06-19T15:29:12Z</time>
      </trkpt>
      <trkpt lat="47.16046" lon="6.40728">
        <ele>809</ele>
        <time>2019-06-19T15:29:14Z</time>
      </trkpt>
      <trkpt lat="47.16059" lon="6.40731">
        <ele>809</ele>
        <time>2019-06-19T15:29:16Z</time>
      </trkpt>
      <trkpt lat="47.1607" lon="6.40734">
        <ele>809</ele>
        <time>2019-06-19T15:29:18Z</time>
      </trkpt>
      <trkpt lat="47.16084" lon="6.40739">
        <ele>805</ele>
        <time>2019-06-19T15:29:20Z</time>
      </trkpt>
      <trkpt lat="47.16103" lon="6.40751">
        <ele>806</ele>
        <time>2019-06-19T15:29:22Z</time>
      </trkpt>
      <trkpt lat="47.16114" lon="6.40759">
        <ele>804</ele>
        <time>2019-06-19T15:29:24Z</time>
      </trkpt>
      <trkpt lat="47.16133" lon="6.40771">
        <ele>802</ele>
        <time>2019-06-19T15:29:26Z</time>
      </trkpt>
      <trkpt lat="47.16158" lon="6.40794">
        <ele>801</ele>
        <time>2019-06-19T15:29:28Z</time>
      </trkpt>
      <trkpt lat="47.16177" lon="6.40815">
        <ele>793</ele>
        <time>2019-06-19T15:29:30Z</time>
      </trkpt>
      <trkpt lat="47.16199" lon="6.40834">
        <ele>795</ele>
        <time>2019-06-19T15:29:32Z</time>
      </trkpt>
      <trkpt lat="47.16222" lon="6.40863">
        <ele>794</ele>
        <time>2019-06-19T15:29:34Z</time>
      </trkpt>
      <trkpt lat="47.16239" lon="6.40893">
        <ele>793</ele>
        <time>2019-06-19T15:29:36Z</time>
      </trkpt>
      <trkpt lat="47.16259" lon="6.40912">
        <ele>788</ele>
        <time>2019-06-19T15:29:38Z</time>
      </trkpt>
      <trkpt lat="47.16279" lon="6.4093">
        <ele>791</ele>
        <time>2019-06-19T15:29:40Z</time>
      </trkpt>
      <trkpt lat="47.16296" lon="6.40942">
        <ele>791</ele>
        <time>2019-06-19T15:29:42Z</time>
      </trkpt>
      <trkpt lat="47.16322" lon="6.40942">
        <ele>790</ele>
        <time>2019-06-19T15:29:44Z</time>
      </trkpt>
      <trkpt lat="47.16342" lon="6.40945">
        <ele>788</ele>
        <time>2019-06-19T15:29:46Z</time>
      </trkpt>
      <trkpt lat="47.1636" lon="6.40957">
        <ele>788</ele>
        <time>2019-06-19T15:29:48Z</time>
      </trkpt>
      <trkpt lat="47.16375" lon="6.40971">
        <ele>789</ele>
        <time>2019-06-19T15:29:50Z</time>
      </trkpt>
      <trkpt lat="47.16393" lon="6.40983">
        <ele>790</ele>
        <time>2019-06-19T15:29:52Z</time>
      </trkpt>
      <trkpt lat="47.1641" lon="6.40999">
        <ele>792</ele>
        <time>2019-06-19T15:29:54Z</time>
      </trkpt>
      <trkpt lat="47.1642" lon="6.41008">
        <ele>794</ele>
        <time>2019-06-19T15:29:56Z</time>
      </trkpt>
      <trkpt lat="47.16438" lon="6.4102">
        <ele>796</ele>
        <time>2019-06-19T15:29:58Z</time>
      </trkpt>
      <trkpt lat="47.16454" lon="6.41027">
        <ele>796</ele>
        <time>2019-06-19T15:30:00Z</time>
      </trkpt>
      <trkpt lat="47.16467" lon="6.41036">
        <ele>796</ele>
        <time>2019-06-19T15:30:02Z</time>
      </trkpt>
      <trkpt lat="47.16478" lon="6.41049">
        <ele>797</ele>
        <time>2019-06-19T15:30:04Z</time>
      </trkpt>
      <trkpt lat="47.16487" lon="6.41064">
        <ele>797</ele>
        <time>2019-06-19T15:30:06Z</time>
      </trkpt>
      <trkpt lat="47.16495" lon="6.41075">
        <ele>798</ele>
        <time>2019-06-19T15:30:08Z</time>
      </trkpt>
      <trkpt lat="47.16503" lon="6.41088">
        <ele>797</ele>
        <time>2019-06-19T15:30:10Z</time>
      </trkpt>
      <trkpt lat="47.16513" lon="6.41102">
        <ele>795</ele>
        <time>2019-06-19T15:30:12Z</time>
      </trkpt>
      <trkpt lat="47.16526" lon="6.41119">
        <ele>794</ele>
        <time>2019-06-19T15:30:16Z</time>
      </trkpt>
      <trkpt lat="47.16533" lon="6.41144">
        <ele>794</ele>
        <time>2019-06-19T15:30:20Z</time>
      </trkpt>
      <trkpt lat="47.1654" lon="6.41165">
        <ele>794</ele>
        <time>2019-06-19T15:30:24Z</time>
      </trkpt>
      <trkpt lat="47.16543" lon="6.4118">
        <ele>796</ele>
        <time>2019-06-19T15:30:26Z</time>
      </trkpt>
      <trkpt lat="47.16544" lon="6.41194">
        <ele>796</ele>
        <time>2019-06-19T15:30:28Z</time>
      </trkpt>
      <trkpt lat="47.16545" lon="6.41207">
        <ele>796</ele>
        <time>2019-06-19T15:30:30Z</time>
      </trkpt>
      <trkpt lat="47.16547" lon="6.41233">
        <ele>796</ele>
        <time>2019-06-19T15:30:34Z</time>
      </trkpt>
      <trkpt lat="47.16548" lon="6.41259">
        <ele>797</ele>
        <time>2019-06-19T15:30:38Z</time>
      </trkpt>
      <trkpt lat="47.16551" lon="6.41285">
        <ele>797</ele>
        <time>2019-06-19T15:30:42Z</time>
      </trkpt>
      <trkpt lat="47.16552" lon="6.413">
        <ele>797</ele>
        <time>2019-06-19T15:30:44Z</time>
      </trkpt>
      <trkpt lat="47.16553" lon="6.41316">
        <ele>797</ele>
        <time>2019-06-19T15:30:46Z</time>
      </trkpt>
      <trkpt lat="47.16554" lon="6.41329">
        <ele>797</ele>
        <time>2019-06-19T15:30:48Z</time>
      </trkpt>
      <trkpt lat="47.16557" lon="6.41366">
        <ele>798</ele>
        <time>2019-06-19T15:30:54Z</time>
      </trkpt>
      <trkpt lat="47.1656" lon="6.41401">
        <ele>798</ele>
        <time>2019-06-19T15:30:58Z</time>
      </trkpt>
      <trkpt lat="47.16565" lon="6.41415">
        <ele>798</ele>
        <time>2019-06-19T15:31:00Z</time>
      </trkpt>
      <trkpt lat="47.16566" lon="6.41428">
        <ele>799</ele>
        <time>2019-06-19T15:31:02Z</time>
      </trkpt>
      <trkpt lat="47.16569" lon="6.41454">
        <ele>800</ele>
        <time>2019-06-19T15:31:06Z</time>
      </trkpt>
      <trkpt lat="47.1657" lon="6.4148">
        <ele>800</ele>
        <time>2019-06-19T15:31:10Z</time>
      </trkpt>
      <trkpt lat="47.16571" lon="6.41504">
        <ele>801</ele>
        <time>2019-06-19T15:31:14Z</time>
      </trkpt>
      <trkpt lat="47.16574" lon="6.41518">
        <ele>801</ele>
        <time>2019-06-19T15:31:16Z</time>
      </trkpt>
      <trkpt lat="47.16575" lon="6.41532">
        <ele>801</ele>
        <time>2019-06-19T15:31:18Z</time>
      </trkpt>
      <trkpt lat="47.16576" lon="6.41566">
        <ele>801</ele>
        <time>2019-06-19T15:31:24Z</time>
      </trkpt>
      <trkpt lat="47.16578" lon="6.41589">
        <ele>802</ele>
        <time>2019-06-19T15:31:28Z</time>
      </trkpt>
      <trkpt lat="47.16583" lon="6.41604">
        <ele>802</ele>
        <time>2019-06-19T15:31:30Z</time>
      </trkpt>
      <trkpt lat="47.16586" lon="6.41616">
        <ele>803</ele>
        <time>2019-06-19T15:31:32Z</time>
      </trkpt>
      <trkpt lat="47.16587" lon="6.41636">
        <ele>804</ele>
        <time>2019-06-19T15:31:34Z</time>
      </trkpt>
      <trkpt lat="47.16589" lon="6.41649">
        <ele>803</ele>
        <time>2019-06-19T15:31:36Z</time>
      </trkpt>
      <trkpt lat="47.16591" lon="6.41663">
        <ele>803</ele>
        <time>2019-06-19T15:31:38Z</time>
      </trkpt>
      <trkpt lat="47.16592" lon="6.41677">
        <ele>804</ele>
        <time>2019-06-19T15:31:40Z</time>
      </trkpt>
      <trkpt lat="47.16592" lon="6.41693">
        <ele>804</ele>
        <time>2019-06-19T15:31:42Z</time>
      </trkpt>
      <trkpt lat="47.16596" lon="6.41731">
        <ele>804</ele>
        <time>2019-06-19T15:31:48Z</time>
      </trkpt>
      <trkpt lat="47.16594" lon="6.41762">
        <ele>804</ele>
        <time>2019-06-19T15:31:52Z</time>
      </trkpt>
      <trkpt lat="47.16605" lon="6.41787">
        <ele>804</ele>
        <time>2019-06-19T15:31:54Z</time>
      </trkpt>
      <trkpt lat="47.16614" lon="6.41823">
        <ele>804</ele>
        <time>2019-06-19T15:31:58Z</time>
      </trkpt>
      <trkpt lat="47.1662" lon="6.41848">
        <ele>805</ele>
        <time>2019-06-19T15:32:00Z</time>
      </trkpt>
      <trkpt lat="47.16634" lon="6.41877">
        <ele>805</ele>
        <time>2019-06-19T15:32:04Z</time>
      </trkpt>
      <trkpt lat="47.1664" lon="6.41891">
        <ele>805</ele>
        <time>2019-06-19T15:32:06Z</time>
      </trkpt>
      <trkpt lat="47.16654" lon="6.41917">
        <ele>805</ele>
        <time>2019-06-19T15:32:10Z</time>
      </trkpt>
      <trkpt lat="47.16666" lon="6.41924">
        <ele>805</ele>
        <time>2019-06-19T15:32:12Z</time>
      </trkpt>
      <trkpt lat="47.16686" lon="6.41935">
        <ele>807</ele>
        <time>2019-06-19T15:32:16Z</time>
      </trkpt>
      <trkpt lat="47.16701" lon="6.41949">
        <ele>807</ele>
        <time>2019-06-19T15:32:20Z</time>
      </trkpt>
      <trkpt lat="47.16719" lon="6.41952">
        <ele>808</ele>
        <time>2019-06-19T15:32:24Z</time>
      </trkpt>
      <trkpt lat="47.16737" lon="6.41962">
        <ele>808</ele>
        <time>2019-06-19T15:32:28Z</time>
      </trkpt>
      <trkpt lat="47.16752" lon="6.41965">
        <ele>814</ele>
        <time>2019-06-19T15:32:32Z</time>
      </trkpt>
      <trkpt lat="47.1676" lon="6.41979">
        <ele>814</ele>
        <time>2019-06-19T15:32:36Z</time>
      </trkpt>
      <trkpt lat="47.16771" lon="6.41984">
        <ele>814</ele>
        <time>2019-06-19T15:32:40Z</time>
      </trkpt>
      <trkpt lat="47.16782" lon="6.41987">
        <ele>815</ele>
        <time>2019-06-19T15:32:44Z</time>
      </trkpt>
      <trkpt lat="47.16793" lon="6.41989">
        <ele>816</ele>
        <time>2019-06-19T15:32:48Z</time>
      </trkpt>
      <trkpt lat="47.16804" lon="6.41993">
        <ele>817</ele>
        <time>2019-06-19T15:32:52Z</time>
      </trkpt>
      <trkpt lat="47.16814" lon="6.41998">
        <ele>819</ele>
        <time>2019-06-19T15:32:56Z</time>
      </trkpt>
      <trkpt lat="47.16826" lon="6.42003">
        <ele>820</ele>
        <time>2019-06-19T15:33:00Z</time>
      </trkpt>
      <trkpt lat="47.16836" lon="6.42008">
        <ele>822</ele>
        <time>2019-06-19T15:33:04Z</time>
      </trkpt>
      <trkpt lat="47.1685" lon="6.42017">
        <ele>823</ele>
        <time>2019-06-19T15:33:08Z</time>
      </trkpt>
      <trkpt lat="47.16861" lon="6.4202">
        <ele>823</ele>
        <time>2019-06-19T15:33:12Z</time>
      </trkpt>
      <trkpt lat="47.16871" lon="6.42023">
        <ele>823</ele>
        <time>2019-06-19T15:33:16Z</time>
      </trkpt>
      <trkpt lat="47.16882" lon="6.42027">
        <ele>824</ele>
        <time>2019-06-19T15:33:20Z</time>
      </trkpt>
      <trkpt lat="47.16892" lon="6.42033">
        <ele>824</ele>
        <time>2019-06-19T15:33:24Z</time>
      </trkpt>
      <trkpt lat="47.16901" lon="6.42032">
        <ele>825</ele>
        <time>2019-06-19T15:33:28Z</time>
      </trkpt>
      <trkpt lat="47.16911" lon="6.42027">
        <ele>826</ele>
        <time>2019-06-19T15:33:32Z</time>
      </trkpt>
      <trkpt lat="47.1692" lon="6.42026">
        <ele>828</ele>
        <time>2019-06-19T15:33:38Z</time>
      </trkpt>
      <trkpt lat="47.16929" lon="6.42029">
        <ele>828</ele>
        <time>2019-06-19T15:33:42Z</time>
      </trkpt>
      <trkpt lat="47.16939" lon="6.42033">
        <ele>828</ele>
        <time>2019-06-19T15:33:46Z</time>
      </trkpt>
      <trkpt lat="47.16954" lon="6.42038">
        <ele>828</ele>
        <time>2019-06-19T15:33:50Z</time>
      </trkpt>
      <trkpt lat="47.16966" lon="6.4204">
        <ele>828</ele>
        <time>2019-06-19T15:33:52Z</time>
      </trkpt>
      <trkpt lat="47.16975" lon="6.42043">
        <ele>828</ele>
        <time>2019-06-19T15:33:54Z</time>
      </trkpt>
      <trkpt lat="47.16985" lon="6.42045">
        <ele>828</ele>
        <time>2019-06-19T15:33:58Z</time>
      </trkpt>
      <trkpt lat="47.16999" lon="6.42049">
        <ele>828</ele>
        <time>2019-06-19T15:34:02Z</time>
      </trkpt>
      <trkpt lat="47.1701" lon="6.42051">
        <ele>829</ele>
        <time>2019-06-19T15:34:08Z</time>
      </trkpt>
      <trkpt lat="47.1702" lon="6.42042">
        <ele>828</ele>
        <time>2019-06-19T15:34:12Z</time>
      </trkpt>
      <trkpt lat="47.17029" lon="6.42033">
        <ele>828</ele>
        <time>2019-06-19T15:34:14Z</time>
      </trkpt>
      <trkpt lat="47.17037" lon="6.42023">
        <ele>828</ele>
        <time>2019-06-19T15:34:16Z</time>
      </trkpt>
      <trkpt lat="47.17045" lon="6.42014">
        <ele>828</ele>
        <time>2019-06-19T15:34:18Z</time>
      </trkpt>
      <trkpt lat="47.17056" lon="6.42">
        <ele>828</ele>
        <time>2019-06-19T15:34:22Z</time>
      </trkpt>
      <trkpt lat="47.17068" lon="6.41992">
        <ele>828</ele>
        <time>2019-06-19T15:34:26Z</time>
      </trkpt>
      <trkpt lat="47.17077" lon="6.41986">
        <ele>828</ele>
        <time>2019-06-19T15:34:30Z</time>
      </trkpt>
      <trkpt lat="47.17089" lon="6.41976">
        <ele>828</ele>
        <time>2019-06-19T15:34:34Z</time>
      </trkpt>
      <trkpt lat="47.171" lon="6.41963">
        <ele>828</ele>
        <time>2019-06-19T15:34:38Z</time>
      </trkpt>
      <trkpt lat="47.17109" lon="6.4195">
        <ele>828</ele>
        <time>2019-06-19T15:34:42Z</time>
      </trkpt>
      <trkpt lat="47.1712" lon="6.41932">
        <ele>828</ele>
        <time>2019-06-19T15:34:46Z</time>
      </trkpt>
      <trkpt lat="47.1713" lon="6.41916">
        <ele>828</ele>
        <time>2019-06-19T15:34:50Z</time>
      </trkpt>
      <trkpt lat="47.1714" lon="6.41901">
        <ele>828</ele>
        <time>2019-06-19T15:34:54Z</time>
      </trkpt>
      <trkpt lat="47.17158" lon="6.41872">
        <ele>829</ele>
        <time>2019-06-19T15:35:00Z</time>
      </trkpt>
      <trkpt lat="47.17173" lon="6.41857">
        <ele>829</ele>
        <time>2019-06-19T15:35:04Z</time>
      </trkpt>
      <trkpt lat="47.17181" lon="6.41849">
        <ele>829</ele>
        <time>2019-06-19T15:35:06Z</time>
      </trkpt>
      <trkpt lat="47.17194" lon="6.41835">
        <ele>829</ele>
        <time>2019-06-19T15:35:10Z</time>
      </trkpt>
      <trkpt lat="47.17206" lon="6.41821">
        <ele>827</ele>
        <time>2019-06-19T15:35:14Z</time>
      </trkpt>
      <trkpt lat="47.1722" lon="6.4181">
        <ele>827</ele>
        <time>2019-06-19T15:35:18Z</time>
      </trkpt>
      <trkpt lat="47.17228" lon="6.418">
        <ele>827</ele>
        <time>2019-06-19T15:35:20Z</time>
      </trkpt>
      <trkpt lat="47.17235" lon="6.41789">
        <ele>826</ele>
        <time>2019-06-19T15:35:22Z</time>
      </trkpt>
      <trkpt lat="47.17246" lon="6.41765">
        <ele>825</ele>
        <time>2019-06-19T15:35:26Z</time>
      </trkpt>
      <trkpt lat="47.17265" lon="6.41746">
        <ele>821</ele>
        <time>2019-06-19T15:35:28Z</time>
      </trkpt>
      <trkpt lat="47.17277" lon="6.41728">
        <ele>820</ele>
        <time>2019-06-19T15:35:30Z</time>
      </trkpt>
      <trkpt lat="47.17287" lon="6.41714">
        <ele>819</ele>
        <time>2019-06-19T15:35:32Z</time>
      </trkpt>
      <trkpt lat="47.17294" lon="6.41705">
        <ele>818</ele>
        <time>2019-06-19T15:35:44Z</time>
      </trkpt>
      <trkpt lat="47.17285" lon="6.41717">
        <ele>819</ele>
        <time>2019-06-19T15:36:00Z</time>
      </trkpt>
      <trkpt lat="47.17278" lon="6.41725">
        <ele>819</ele>
        <time>2019-06-19T15:36:04Z</time>
      </trkpt>
      <trkpt lat="47.1727" lon="6.41739">
        <ele>820</ele>
        <time>2019-06-19T15:36:10Z</time>
      </trkpt>
      <trkpt lat="47.1726" lon="6.41752">
        <ele>823</ele>
        <time>2019-06-19T15:36:18Z</time>
      </trkpt>
      <trkpt lat="47.17252" lon="6.41766">
        <ele>824</ele>
        <time>2019-06-19T15:36:24Z</time>
      </trkpt>
      <trkpt lat="47.17244" lon="6.41781">
        <ele>826</ele>
        <time>2019-06-19T15:36:30Z</time>
      </trkpt>
      <trkpt lat="47.17235" lon="6.41794">
        <ele>826</ele>
        <time>2019-06-19T15:36:34Z</time>
      </trkpt>
      <trkpt lat="47.17227" lon="6.41807">
        <ele>827</ele>
        <time>2019-06-19T15:36:38Z</time>
      </trkpt>
      <trkpt lat="47.17217" lon="6.4182">
        <ele>827</ele>
        <time>2019-06-19T15:36:42Z</time>
      </trkpt>
      <trkpt lat="47.17207" lon="6.41832">
        <ele>827</ele>
        <time>2019-06-19T15:36:46Z</time>
      </trkpt>
      <trkpt lat="47.17197" lon="6.41846">
        <ele>829</ele>
        <time>2019-06-19T15:36:50Z</time>
      </trkpt>
      <trkpt lat="47.17185" lon="6.41857">
        <ele>829</ele>
        <time>2019-06-19T15:36:54Z</time>
      </trkpt>
      <trkpt lat="47.17175" lon="6.41873">
        <ele>829</ele>
        <time>2019-06-19T15:36:58Z</time>
      </trkpt>
      <trkpt lat="47.17166" lon="6.41883">
        <ele>829</ele>
        <time>2019-06-19T15:37:02Z</time>
      </trkpt>
      <trkpt lat="47.17158" lon="6.41893">
        <ele>829</ele>
        <time>2019-06-19T15:37:06Z</time>
      </trkpt>
      <trkpt lat="47.17147" lon="6.41905">
        <ele>829</ele>
        <time>2019-06-19T15:37:10Z</time>
      </trkpt>
      <trkpt lat="47.17129" lon="6.41927">
        <ele>828</ele>
        <time>2019-06-19T15:37:18Z</time>
      </trkpt>
      <trkpt lat="47.17119" lon="6.4194">
        <ele>828</ele>
        <time>2019-06-19T15:37:22Z</time>
      </trkpt>
      <trkpt lat="47.17108" lon="6.41954">
        <ele>828</ele>
        <time>2019-06-19T15:37:26Z</time>
      </trkpt>
      <trkpt lat="47.17096" lon="6.41976">
        <ele>828</ele>
        <time>2019-06-19T15:37:30Z</time>
      </trkpt>
      <trkpt lat="47.17087" lon="6.41987">
        <ele>828</ele>
        <time>2019-06-19T15:37:32Z</time>
      </trkpt>
      <trkpt lat="47.1708" lon="6.41997">
        <ele>828</ele>
        <time>2019-06-19T15:37:34Z</time>
      </trkpt>
      <trkpt lat="47.17065" lon="6.42013">
        <ele>828</ele>
        <time>2019-06-19T15:37:38Z</time>
      </trkpt>
      <trkpt lat="47.17057" lon="6.4202">
        <ele>828</ele>
        <time>2019-06-19T15:37:40Z</time>
      </trkpt>
      <trkpt lat="47.17048" lon="6.42028">
        <ele>828</ele>
        <time>2019-06-19T15:37:42Z</time>
      </trkpt>
      <trkpt lat="47.17037" lon="6.4204">
        <ele>828</ele>
        <time>2019-06-19T15:37:46Z</time>
      </trkpt>
      <trkpt lat="47.17045" lon="6.42055">
        <ele>829</ele>
        <time>2019-06-19T15:37:50Z</time>
      </trkpt>
      <trkpt lat="47.17048" lon="6.42077">
        <ele>829</ele>
        <time>2019-06-19T15:37:54Z</time>
      </trkpt>
      <trkpt lat="47.17047" lon="6.4209">
        <ele>828</ele>
        <time>2019-06-19T15:37:58Z</time>
      </trkpt>
      <trkpt lat="47.17053" lon="6.42108">
        <ele>827</ele>
        <time>2019-06-19T15:38:04Z</time>
      </trkpt>
      <trkpt lat="47.1707" lon="6.4214">
        <ele>827</ele>
        <time>2019-06-19T15:38:08Z</time>
      </trkpt>
      <trkpt lat="47.17088" lon="6.42157">
        <ele>826</ele>
        <time>2019-06-19T15:38:10Z</time>
      </trkpt>
      <trkpt lat="47.17102" lon="6.42168">
        <ele>825</ele>
        <time>2019-06-19T15:38:12Z</time>
      </trkpt>
      <trkpt lat="47.17116" lon="6.42186">
        <ele>824</ele>
        <time>2019-06-19T15:38:14Z</time>
      </trkpt>
      <trkpt lat="47.17126" lon="6.42206">
        <ele>823</ele>
        <time>2019-06-19T15:38:16Z</time>
      </trkpt>
      <trkpt lat="47.17138" lon="6.42219">
        <ele>823</ele>
        <time>2019-06-19T15:38:18Z</time>
      </trkpt>
      <trkpt lat="47.17144" lon="6.42238">
        <ele>822</ele>
        <time>2019-06-19T15:38:22Z</time>
      </trkpt>
      <trkpt lat="47.17154" lon="6.42245">
        <ele>822</ele>
        <time>2019-06-19T15:38:24Z</time>
      </trkpt>
      <trkpt lat="47.17161" lon="6.42258">
        <ele>821</ele>
        <time>2019-06-19T15:38:26Z</time>
      </trkpt>
      <trkpt lat="47.17173" lon="6.42272">
        <ele>820</ele>
        <time>2019-06-19T15:38:28Z</time>
      </trkpt>
      <trkpt lat="47.17189" lon="6.42289">
        <ele>820</ele>
        <time>2019-06-19T15:38:30Z</time>
      </trkpt>
      <trkpt lat="47.17207" lon="6.423">
        <ele>820</ele>
        <time>2019-06-19T15:38:32Z</time>
      </trkpt>
      <trkpt lat="47.17223" lon="6.42319">
        <ele>820</ele>
        <time>2019-06-19T15:38:34Z</time>
      </trkpt>
      <trkpt lat="47.17238" lon="6.42338">
        <ele>820</ele>
        <time>2019-06-19T15:38:36Z</time>
      </trkpt>
      <trkpt lat="47.17255" lon="6.42361">
        <ele>818</ele>
        <time>2019-06-19T15:38:38Z</time>
      </trkpt>
      <trkpt lat="47.17264" lon="6.42375">
        <ele>818</ele>
        <time>2019-06-19T15:38:40Z</time>
      </trkpt>
      <trkpt lat="47.17271" lon="6.42391">
        <ele>818</ele>
        <time>2019-06-19T15:38:42Z</time>
      </trkpt>
      <trkpt lat="47.17292" lon="6.42426">
        <ele>816</ele>
        <time>2019-06-19T15:38:48Z</time>
      </trkpt>
      <trkpt lat="47.17297" lon="6.42441">
        <ele>815</ele>
        <time>2019-06-19T15:38:50Z</time>
      </trkpt>
      <trkpt lat="47.17307" lon="6.42454">
        <ele>815</ele>
        <time>2019-06-19T15:38:52Z</time>
      </trkpt>
      <trkpt lat="47.17315" lon="6.42464">
        <ele>815</ele>
        <time>2019-06-19T15:38:54Z</time>
      </trkpt>
      <trkpt lat="47.17324" lon="6.42477">
        <ele>814</ele>
        <time>2019-06-19T15:38:56Z</time>
      </trkpt>
      <trkpt lat="47.17334" lon="6.42492">
        <ele>812</ele>
        <time>2019-06-19T15:38:58Z</time>
      </trkpt>
      <trkpt lat="47.1735" lon="6.42513">
        <ele>810</ele>
        <time>2019-06-19T15:39:02Z</time>
      </trkpt>
      <trkpt lat="47.17358" lon="6.42529">
        <ele>809</ele>
        <time>2019-06-19T15:39:04Z</time>
      </trkpt>
      <trkpt lat="47.17373" lon="6.42548">
        <ele>808</ele>
        <time>2019-06-19T15:39:08Z</time>
      </trkpt>
      <trkpt lat="47.17382" lon="6.42564">
        <ele>807</ele>
        <time>2019-06-19T15:39:10Z</time>
      </trkpt>
      <trkpt lat="47.17391" lon="6.42584">
        <ele>805</ele>
        <time>2019-06-19T15:39:12Z</time>
      </trkpt>
      <trkpt lat="47.17399" lon="6.42609">
        <ele>805</ele>
        <time>2019-06-19T15:39:14Z</time>
      </trkpt>
      <trkpt lat="47.17405" lon="6.4264">
        <ele>805</ele>
        <time>2019-06-19T15:39:18Z</time>
      </trkpt>
      <trkpt lat="47.17409" lon="6.42658">
        <ele>805</ele>
        <time>2019-06-19T15:39:20Z</time>
      </trkpt>
      <trkpt lat="47.17408" lon="6.42678">
        <ele>803</ele>
        <time>2019-06-19T15:39:22Z</time>
      </trkpt>
      <trkpt lat="47.17407" lon="6.42701">
        <ele>802</ele>
        <time>2019-06-19T15:39:24Z</time>
      </trkpt>
      <trkpt lat="47.17415" lon="6.42733">
        <ele>800</ele>
        <time>2019-06-19T15:39:26Z</time>
      </trkpt>
      <trkpt lat="47.17418" lon="6.42758">
        <ele>796</ele>
        <time>2019-06-19T15:39:28Z</time>
      </trkpt>
      <trkpt lat="47.17423" lon="6.42773">
        <ele>793</ele>
        <time>2019-06-19T15:39:30Z</time>
      </trkpt>
      <trkpt lat="47.17425" lon="6.4281">
        <ele>790</ele>
        <time>2019-06-19T15:39:34Z</time>
      </trkpt>
      <trkpt lat="47.17422" lon="6.42841">
        <ele>787</ele>
        <time>2019-06-19T15:39:36Z</time>
      </trkpt>
      <trkpt lat="47.17417" lon="6.42868">
        <ele>783</ele>
        <time>2019-06-19T15:39:38Z</time>
      </trkpt>
      <trkpt lat="47.17424" lon="6.42894">
        <ele>781</ele>
        <time>2019-06-19T15:39:42Z</time>
      </trkpt>
      <trkpt lat="47.17424" lon="6.42911">
        <ele>780</ele>
        <time>2019-06-19T15:39:44Z</time>
      </trkpt>
      <trkpt lat="47.17416" lon="6.42929">
        <ele>779</ele>
        <time>2019-06-19T15:39:46Z</time>
      </trkpt>
      <trkpt lat="47.17417" lon="6.42957">
        <ele>776</ele>
        <time>2019-06-19T15:39:50Z</time>
      </trkpt>
      <trkpt lat="47.17415" lon="6.42974">
        <ele>776</ele>
        <time>2019-06-19T15:39:52Z</time>
      </trkpt>
      <trkpt lat="47.17411" lon="6.42988">
        <ele>775</ele>
        <time>2019-06-19T15:39:54Z</time>
      </trkpt>
      <trkpt lat="47.17407" lon="6.43003">
        <ele>772</ele>
        <time>2019-06-19T15:39:58Z</time>
      </trkpt>
      <trkpt lat="47.17414" lon="6.43021">
        <ele>772</ele>
        <time>2019-06-19T15:40:02Z</time>
      </trkpt>
      <trkpt lat="47.17409" lon="6.43033">
        <ele>771</ele>
        <time>2019-06-19T15:40:18Z</time>
      </trkpt>
      <trkpt lat="47.17399" lon="6.43035">
        <ele>771</ele>
        <time>2019-06-19T15:40:34Z</time>
      </trkpt>
      <trkpt lat="47.17389" lon="6.43038">
        <ele>771</ele>
        <time>2019-06-19T15:40:38Z</time>
      </trkpt>
      <trkpt lat="47.17376" lon="6.43046">
        <ele>771</ele>
        <time>2019-06-19T15:40:42Z</time>
      </trkpt>
      <trkpt lat="47.17367" lon="6.43053">
        <ele>771</ele>
        <time>2019-06-19T15:40:46Z</time>
      </trkpt>
      <trkpt lat="47.17358" lon="6.43059">
        <ele>771</ele>
        <time>2019-06-19T15:40:52Z</time>
      </trkpt>
      <trkpt lat="47.17347" lon="6.43062">
        <ele>771</ele>
        <time>2019-06-19T15:40:56Z</time>
      </trkpt>
      <trkpt lat="47.17339" lon="6.43065">
        <ele>770</ele>
        <time>2019-06-19T15:41:14Z</time>
      </trkpt>
      <trkpt lat="47.17327" lon="6.43071">
        <ele>770</ele>
        <time>2019-06-19T15:41:30Z</time>
      </trkpt>
      <trkpt lat="47.17313" lon="6.43077">
        <ele>771</ele>
        <time>2019-06-19T15:41:36Z</time>
      </trkpt>
      <trkpt lat="47.17299" lon="6.43079">
        <ele>771</ele>
        <time>2019-06-19T15:41:40Z</time>
      </trkpt>
      <trkpt lat="47.17285" lon="6.4308">
        <ele>771</ele>
        <time>2019-06-19T15:41:44Z</time>
      </trkpt>
      <trkpt lat="47.17273" lon="6.4308">
        <ele>770</ele>
        <time>2019-06-19T15:41:48Z</time>
      </trkpt>
      <trkpt lat="47.17263" lon="6.4308">
        <ele>769</ele>
        <time>2019-06-19T15:41:50Z</time>
      </trkpt>
      <trkpt lat="47.17254" lon="6.43079">
        <ele>768</ele>
        <time>2019-06-19T15:41:52Z</time>
      </trkpt>
      <trkpt lat="47.17245" lon="6.43077">
        <ele>766</ele>
        <time>2019-06-19T15:41:54Z</time>
      </trkpt>
      <trkpt lat="47.17228" lon="6.43072">
        <ele>765</ele>
        <time>2019-06-19T15:41:56Z</time>
      </trkpt>
      <trkpt lat="47.17215" lon="6.43067">
        <ele>764</ele>
        <time>2019-06-19T15:41:58Z</time>
      </trkpt>
      <trkpt lat="47.17197" lon="6.43071">
        <ele>762</ele>
        <time>2019-06-19T15:42:00Z</time>
      </trkpt>
      <trkpt lat="47.17181" lon="6.43073">
        <ele>759</ele>
        <time>2019-06-19T15:42:02Z</time>
      </trkpt>
      <trkpt lat="47.17165" lon="6.43069">
        <ele>753</ele>
        <time>2019-06-19T15:42:04Z</time>
      </trkpt>
      <trkpt lat="47.17151" lon="6.43061">
        <ele>753</ele>
        <time>2019-06-19T15:42:06Z</time>
      </trkpt>
      <trkpt lat="47.17134" lon="6.4305">
        <ele>753</ele>
        <time>2019-06-19T15:42:08Z</time>
      </trkpt>
      <trkpt lat="47.17117" lon="6.43041">
        <ele>752</ele>
        <time>2019-06-19T15:42:10Z</time>
      </trkpt>
      <trkpt lat="47.17098" lon="6.43032">
        <ele>752</ele>
        <time>2019-06-19T15:42:12Z</time>
      </trkpt>
      <trkpt lat="47.17079" lon="6.43024">
        <ele>745</ele>
        <time>2019-06-19T15:42:14Z</time>
      </trkpt>
      <trkpt lat="47.17059" lon="6.43017">
        <ele>744</ele>
        <time>2019-06-19T15:42:16Z</time>
      </trkpt>
      <trkpt lat="47.1704" lon="6.43008">
        <ele>742</ele>
        <time>2019-06-19T15:42:18Z</time>
      </trkpt>
      <trkpt lat="47.17019" lon="6.42999">
        <ele>743</ele>
        <time>2019-06-19T15:42:20Z</time>
      </trkpt>
      <trkpt lat="47.16997" lon="6.4299">
        <ele>738</ele>
        <time>2019-06-19T15:42:22Z</time>
      </trkpt>
      <trkpt lat="47.16977" lon="6.42983">
        <ele>740</ele>
        <time>2019-06-19T15:42:24Z</time>
      </trkpt>
      <trkpt lat="47.16956" lon="6.42974">
        <ele>740</ele>
        <time>2019-06-19T15:42:26Z</time>
      </trkpt>
      <trkpt lat="47.16935" lon="6.42967">
        <ele>741</ele>
        <time>2019-06-19T15:42:28Z</time>
      </trkpt>
      <trkpt lat="47.1692" lon="6.42959">
        <ele>741</ele>
        <time>2019-06-19T15:42:30Z</time>
      </trkpt>
      <trkpt lat="47.16907" lon="6.42945">
        <ele>741</ele>
        <time>2019-06-19T15:42:32Z</time>
      </trkpt>
      <trkpt lat="47.16893" lon="6.42935">
        <ele>741</ele>
        <time>2019-06-19T15:42:34Z</time>
      </trkpt>
      <trkpt lat="47.16877" lon="6.42952">
        <ele>741</ele>
        <time>2019-06-19T15:42:40Z</time>
      </trkpt>
      <trkpt lat="47.16863" lon="6.42959">
        <ele>741</ele>
        <time>2019-06-19T15:42:42Z</time>
      </trkpt>
      <trkpt lat="47.16853" lon="6.42965">
        <ele>741</ele>
        <time>2019-06-19T15:42:44Z</time>
      </trkpt>
      <trkpt lat="47.16841" lon="6.42972">
        <ele>740</ele>
        <time>2019-06-19T15:42:46Z</time>
      </trkpt>
      <trkpt lat="47.16827" lon="6.42979">
        <ele>740</ele>
        <time>2019-06-19T15:42:48Z</time>
      </trkpt>
      <trkpt lat="47.16812" lon="6.42987">
        <ele>739</ele>
        <time>2019-06-19T15:42:50Z</time>
      </trkpt>
      <trkpt lat="47.16797" lon="6.42999">
        <ele>739</ele>
        <time>2019-06-19T15:42:52Z</time>
      </trkpt>
      <trkpt lat="47.16782" lon="6.43011">
        <ele>734</ele>
        <time>2019-06-19T15:42:54Z</time>
      </trkpt>
      <trkpt lat="47.16762" lon="6.43026">
        <ele>734</ele>
        <time>2019-06-19T15:42:56Z</time>
      </trkpt>
      <trkpt lat="47.16733" lon="6.43051">
        <ele>729</ele>
        <time>2019-06-19T15:42:58Z</time>
      </trkpt>
      <trkpt lat="47.16716" lon="6.43065">
        <ele>729</ele>
        <time>2019-06-19T15:43:00Z</time>
      </trkpt>
      <trkpt lat="47.16703" lon="6.43077">
        <ele>728</ele>
        <time>2019-06-19T15:43:02Z</time>
      </trkpt>
      <trkpt lat="47.16682" lon="6.43085">
        <ele>726</ele>
        <time>2019-06-19T15:43:04Z</time>
      </trkpt>
      <trkpt lat="47.16663" lon="6.43093">
        <ele>724</ele>
        <time>2019-06-19T15:43:06Z</time>
      </trkpt>
      <trkpt lat="47.16645" lon="6.43091">
        <ele>723</ele>
        <time>2019-06-19T15:43:08Z</time>
      </trkpt>
      <trkpt lat="47.16633" lon="6.43088">
        <ele>723</ele>
        <time>2019-06-19T15:43:10Z</time>
      </trkpt>
      <trkpt lat="47.16622" lon="6.43085">
        <ele>722</ele>
        <time>2019-06-19T15:43:12Z</time>
      </trkpt>
      <trkpt lat="47.1661" lon="6.43075">
        <ele>724</ele>
        <time>2019-06-19T15:43:22Z</time>
      </trkpt>
      <trkpt lat="47.16599" lon="6.43064">
        <ele>724</ele>
        <time>2019-06-19T15:43:26Z</time>
      </trkpt>
      <trkpt lat="47.16592" lon="6.43048">
        <ele>724</ele>
        <time>2019-06-19T15:43:28Z</time>
      </trkpt>
      <trkpt lat="47.1658" lon="6.43024">
        <ele>724</ele>
        <time>2019-06-19T15:43:32Z</time>
      </trkpt>
      <trkpt lat="47.16573" lon="6.4301">
        <ele>725</ele>
        <time>2019-06-19T15:43:34Z</time>
      </trkpt>
      <trkpt lat="47.16567" lon="6.42996">
        <ele>727</ele>
        <time>2019-06-19T15:43:36Z</time>
      </trkpt>
      <trkpt lat="47.1656" lon="6.42984">
        <ele>727</ele>
        <time>2019-06-19T15:43:38Z</time>
      </trkpt>
      <trkpt lat="47.16553" lon="6.42972">
        <ele>727</ele>
        <time>2019-06-19T15:43:40Z</time>
      </trkpt>
      <trkpt lat="47.16546" lon="6.42958">
        <ele>727</ele>
        <time>2019-06-19T15:43:42Z</time>
      </trkpt>
      <trkpt lat="47.16539" lon="6.42945">
        <ele>727</ele>
        <time>2019-06-19T15:43:44Z</time>
      </trkpt>
      <trkpt lat="47.16529" lon="6.42935">
        <ele>727</ele>
        <time>2019-06-19T15:43:46Z</time>
      </trkpt>
      <trkpt lat="47.16522" lon="6.42923">
        <ele>728</ele>
        <time>2019-06-19T15:43:48Z</time>
      </trkpt>
      <trkpt lat="47.165" lon="6.42914">
        <ele>728</ele>
        <time>2019-06-19T15:43:54Z</time>
      </trkpt>
      <trkpt lat="47.16487" lon="6.42906">
        <ele>728</ele>
        <time>2019-06-19T15:43:56Z</time>
      </trkpt>
      <trkpt lat="47.16478" lon="6.42902">
        <ele>728</ele>
        <time>2019-06-19T15:43:58Z</time>
      </trkpt>
      <trkpt lat="47.16469" lon="6.42897">
        <ele>728</ele>
        <time>2019-06-19T15:44:00Z</time>
      </trkpt>
      <trkpt lat="47.16456" lon="6.42886">
        <ele>727</ele>
        <time>2019-06-19T15:44:04Z</time>
      </trkpt>
      <trkpt lat="47.16443" lon="6.42879">
        <ele>727</ele>
        <time>2019-06-19T15:44:08Z</time>
      </trkpt>
      <trkpt lat="47.16433" lon="6.42886">
        <ele>727</ele>
        <time>2019-06-19T15:44:10Z</time>
      </trkpt>
      <trkpt lat="47.16423" lon="6.42896">
        <ele>726</ele>
        <time>2019-06-19T15:44:12Z</time>
      </trkpt>
      <trkpt lat="47.16412" lon="6.4291">
        <ele>723</ele>
        <time>2019-06-19T15:44:14Z</time>
      </trkpt>
      <trkpt lat="47.16398" lon="6.42927">
        <ele>721</ele>
        <time>2019-06-19T15:44:16Z</time>
      </trkpt>
      <trkpt lat="47.16386" lon="6.42944">
        <ele>720</ele>
        <time>2019-06-19T15:44:18Z</time>
      </trkpt>
      <trkpt lat="47.16372" lon="6.42962">
        <ele>720</ele>
        <time>2019-06-19T15:44:20Z</time>
      </trkpt>
      <trkpt lat="47.16356" lon="6.42978">
        <ele>719</ele>
        <time>2019-06-19T15:44:22Z</time>
      </trkpt>
      <trkpt lat="47.16338" lon="6.42993">
        <ele>718</ele>
        <time>2019-06-19T15:44:24Z</time>
      </trkpt>
      <trkpt lat="47.16321" lon="6.43007">
        <ele>716</ele>
        <time>2019-06-19T15:44:26Z</time>
      </trkpt>
      <trkpt lat="47.16303" lon="6.43021">
        <ele>716</ele>
        <time>2019-06-19T15:44:28Z</time>
      </trkpt>
      <trkpt lat="47.16283" lon="6.43034">
        <ele>716</ele>
        <time>2019-06-19T15:44:30Z</time>
      </trkpt>
      <trkpt lat="47.16267" lon="6.43054">
        <ele>715</ele>
        <time>2019-06-19T15:44:32Z</time>
      </trkpt>
      <trkpt lat="47.16251" lon="6.43071">
        <ele>714</ele>
        <time>2019-06-19T15:44:34Z</time>
      </trkpt>
      <trkpt lat="47.16233" lon="6.4309">
        <ele>713</ele>
        <time>2019-06-19T15:44:36Z</time>
      </trkpt>
      <trkpt lat="47.16222" lon="6.43113">
        <ele>712</ele>
        <time>2019-06-19T15:44:38Z</time>
      </trkpt>
      <trkpt lat="47.16211" lon="6.43135">
        <ele>712</ele>
        <time>2019-06-19T15:44:40Z</time>
      </trkpt>
      <trkpt lat="47.16198" lon="6.43155">
        <ele>712</ele>
        <time>2019-06-19T15:44:42Z</time>
      </trkpt>
      <trkpt lat="47.16184" lon="6.43173">
        <ele>711</ele>
        <time>2019-06-19T15:44:44Z</time>
      </trkpt>
      <trkpt lat="47.1617" lon="6.43191">
        <ele>711</ele>
        <time>2019-06-19T15:44:46Z</time>
      </trkpt>
      <trkpt lat="47.16153" lon="6.43197">
        <ele>711</ele>
        <time>2019-06-19T15:44:48Z</time>
      </trkpt>
      <trkpt lat="47.16129" lon="6.43208">
        <ele>711</ele>
        <time>2019-06-19T15:44:50Z</time>
      </trkpt>
      <trkpt lat="47.16113" lon="6.43214">
        <ele>711</ele>
        <time>2019-06-19T15:44:52Z</time>
      </trkpt>
      <trkpt lat="47.16101" lon="6.43215">
        <ele>711</ele>
        <time>2019-06-19T15:44:54Z</time>
      </trkpt>
      <trkpt lat="47.16087" lon="6.43194">
        <ele>711</ele>
        <time>2019-06-19T15:44:56Z</time>
      </trkpt>
      <trkpt lat="47.16066" lon="6.432">
        <ele>713</ele>
        <time>2019-06-19T15:45:00Z</time>
      </trkpt>
      <trkpt lat="47.16053" lon="6.43199">
        <ele>713</ele>
        <time>2019-06-19T15:45:02Z</time>
      </trkpt>
      <trkpt lat="47.16044" lon="6.43196">
        <ele>713</ele>
        <time>2019-06-19T15:45:04Z</time>
      </trkpt>
      <trkpt lat="47.16032" lon="6.43191">
        <ele>713</ele>
        <time>2019-06-19T15:45:06Z</time>
      </trkpt>
      <trkpt lat="47.16023" lon="6.43184">
        <ele>713</ele>
        <time>2019-06-19T15:45:08Z</time>
      </trkpt>
      <trkpt lat="47.16013" lon="6.43176">
        <ele>713</ele>
        <time>2019-06-19T15:45:10Z</time>
      </trkpt>
      <trkpt lat="47.16003" lon="6.43168">
        <ele>713</ele>
        <time>2019-06-19T15:45:12Z</time>
      </trkpt>
      <trkpt lat="47.15995" lon="6.43163">
        <ele>713</ele>
        <time>2019-06-19T15:45:14Z</time>
      </trkpt>
      <trkpt lat="47.15989" lon="6.43152">
        <ele>714</ele>
        <time>2019-06-19T15:45:16Z</time>
      </trkpt>
      <trkpt lat="47.15974" lon="6.43149">
        <ele>714</ele>
        <time>2019-06-19T15:45:20Z</time>
      </trkpt>
      <trkpt lat="47.15964" lon="6.43147">
        <ele>714</ele>
        <time>2019-06-19T15:45:22Z</time>
      </trkpt>
      <trkpt lat="47.15941" lon="6.43152">
        <ele>715</ele>
        <time>2019-06-19T15:45:26Z</time>
      </trkpt>
      <trkpt lat="47.15924" lon="6.43156">
        <ele>716</ele>
        <time>2019-06-19T15:45:30Z</time>
      </trkpt>
      <trkpt lat="47.15909" lon="6.43158">
        <ele>718</ele>
        <time>2019-06-19T15:45:32Z</time>
      </trkpt>
      <trkpt lat="47.159" lon="6.43158">
        <ele>717</ele>
        <time>2019-06-19T15:45:34Z</time>
      </trkpt>
      <trkpt lat="47.15873" lon="6.43158">
        <ele>717</ele>
        <time>2019-06-19T15:45:40Z</time>
      </trkpt>
      <trkpt lat="47.15857" lon="6.43162">
        <ele>717</ele>
        <time>2019-06-19T15:45:44Z</time>
      </trkpt>
      <trkpt lat="47.1584" lon="6.43165">
        <ele>718</ele>
        <time>2019-06-19T15:45:48Z</time>
      </trkpt>
      <trkpt lat="47.15817" lon="6.43165">
        <ele>719</ele>
        <time>2019-06-19T15:45:52Z</time>
      </trkpt>
      <trkpt lat="47.158" lon="6.43173">
        <ele>721</ele>
        <time>2019-06-19T15:45:56Z</time>
      </trkpt>
      <trkpt lat="47.15789" lon="6.43169">
        <ele>722</ele>
        <time>2019-06-19T15:45:58Z</time>
      </trkpt>
      <trkpt lat="47.15779" lon="6.43165">
        <ele>721</ele>
        <time>2019-06-19T15:46:00Z</time>
      </trkpt>
      <trkpt lat="47.15757" lon="6.43153">
        <ele>722</ele>
        <time>2019-06-19T15:46:06Z</time>
      </trkpt>
      <trkpt lat="47.15743" lon="6.43151">
        <ele>724</ele>
        <time>2019-06-19T15:46:10Z</time>
      </trkpt>
      <trkpt lat="47.15719" lon="6.43153">
        <ele>725</ele>
        <time>2019-06-19T15:46:16Z</time>
      </trkpt>
      <trkpt lat="47.15705" lon="6.43155">
        <ele>725</ele>
        <time>2019-06-19T15:46:20Z</time>
      </trkpt>
      <trkpt lat="47.15691" lon="6.43157">
        <ele>726</ele>
        <time>2019-06-19T15:46:24Z</time>
      </trkpt>
      <trkpt lat="47.15676" lon="6.43158">
        <ele>727</ele>
        <time>2019-06-19T15:46:28Z</time>
      </trkpt>
      <trkpt lat="47.15661" lon="6.43157">
        <ele>729</ele>
        <time>2019-06-19T15:46:32Z</time>
      </trkpt>
      <trkpt lat="47.15645" lon="6.43158">
        <ele>729</ele>
        <time>2019-06-19T15:46:36Z</time>
      </trkpt>
      <trkpt lat="47.15628" lon="6.43157">
        <ele>729</ele>
        <time>2019-06-19T15:46:40Z</time>
      </trkpt>
      <trkpt lat="47.15619" lon="6.43156">
        <ele>729</ele>
        <time>2019-06-19T15:46:42Z</time>
      </trkpt>
      <trkpt lat="47.1561" lon="6.43154">
        <ele>729</ele>
        <time>2019-06-19T15:46:44Z</time>
      </trkpt>
      <trkpt lat="47.15591" lon="6.43152">
        <ele>730</ele>
        <time>2019-06-19T15:46:48Z</time>
      </trkpt>
      <trkpt lat="47.15575" lon="6.4315">
        <ele>731</ele>
        <time>2019-06-19T15:46:52Z</time>
      </trkpt>
      <trkpt lat="47.15558" lon="6.43144">
        <ele>732</ele>
        <time>2019-06-19T15:46:56Z</time>
      </trkpt>
      <trkpt lat="47.15542" lon="6.4314">
        <ele>732</ele>
        <time>2019-06-19T15:47:00Z</time>
      </trkpt>
      <trkpt lat="47.15527" lon="6.43137">
        <ele>732</ele>
        <time>2019-06-19T15:47:04Z</time>
      </trkpt>
      <trkpt lat="47.15515" lon="6.43138">
        <ele>733</ele>
        <time>2019-06-19T15:47:08Z</time>
      </trkpt>
      <trkpt lat="47.15501" lon="6.43136">
        <ele>733</ele>
        <time>2019-06-19T15:47:12Z</time>
      </trkpt>
      <trkpt lat="47.15487" lon="6.43133">
        <ele>736</ele>
        <time>2019-06-19T15:47:16Z</time>
      </trkpt>
      <trkpt lat="47.15473" lon="6.43134">
        <ele>736</ele>
        <time>2019-06-19T15:47:20Z</time>
      </trkpt>
      <trkpt lat="47.15457" lon="6.43135">
        <ele>737</ele>
        <time>2019-06-19T15:47:24Z</time>
      </trkpt>
      <trkpt lat="47.15442" lon="6.43137">
        <ele>737</ele>
        <time>2019-06-19T15:47:28Z</time>
      </trkpt>
      <trkpt lat="47.15426" lon="6.43138">
        <ele>738</ele>
        <time>2019-06-19T15:47:32Z</time>
      </trkpt>
      <trkpt lat="47.15409" lon="6.43136">
        <ele>740</ele>
        <time>2019-06-19T15:47:36Z</time>
      </trkpt>
      <trkpt lat="47.15393" lon="6.43138">
        <ele>740</ele>
        <time>2019-06-19T15:47:40Z</time>
      </trkpt>
      <trkpt lat="47.15374" lon="6.43145">
        <ele>740</ele>
        <time>2019-06-19T15:47:44Z</time>
      </trkpt>
      <trkpt lat="47.15355" lon="6.43148">
        <ele>740</ele>
        <time>2019-06-19T15:47:48Z</time>
      </trkpt>
      <trkpt lat="47.15344" lon="6.43146">
        <ele>740</ele>
        <time>2019-06-19T15:47:50Z</time>
      </trkpt>
      <trkpt lat="47.15321" lon="6.43147">
        <ele>741</ele>
        <time>2019-06-19T15:47:54Z</time>
      </trkpt>
      <trkpt lat="47.15302" lon="6.43145">
        <ele>741</ele>
        <time>2019-06-19T15:47:58Z</time>
      </trkpt>
      <trkpt lat="47.15283" lon="6.43137">
        <ele>741</ele>
        <time>2019-06-19T15:48:02Z</time>
      </trkpt>
      <trkpt lat="47.15263" lon="6.43128">
        <ele>741</ele>
        <time>2019-06-19T15:48:06Z</time>
      </trkpt>
      <trkpt lat="47.15246" lon="6.43114">
        <ele>742</ele>
        <time>2019-06-19T15:48:18Z</time>
      </trkpt>
      <trkpt lat="47.15255" lon="6.43113">
        <ele>741</ele>
        <time>2019-06-19T15:48:30Z</time>
      </trkpt>
      <trkpt lat="47.15245" lon="6.43119">
        <ele>742</ele>
        <time>2019-06-19T15:49:35Z</time>
      </trkpt>
      <trkpt lat="47.15229" lon="6.43118">
        <ele>742</ele>
        <time>2019-06-19T15:49:39Z</time>
      </trkpt>
      <trkpt lat="47.15211" lon="6.43114">
        <ele>742</ele>
        <time>2019-06-19T15:49:43Z</time>
      </trkpt>
      <trkpt lat="47.15202" lon="6.43112">
        <ele>742</ele>
        <time>2019-06-19T15:49:45Z</time>
      </trkpt>
      <trkpt lat="47.15191" lon="6.4311">
        <ele>742</ele>
        <time>2019-06-19T15:49:47Z</time>
      </trkpt>
      <trkpt lat="47.15175" lon="6.43112">
        <ele>743</ele>
        <time>2019-06-19T15:49:51Z</time>
      </trkpt>
      <trkpt lat="47.15164" lon="6.43102">
        <ele>744</ele>
        <time>2019-06-19T15:49:53Z</time>
      </trkpt>
      <trkpt lat="47.15154" lon="6.43101">
        <ele>744</ele>
        <time>2019-06-19T15:49:55Z</time>
      </trkpt>
      <trkpt lat="47.15144" lon="6.431">
        <ele>744</ele>
        <time>2019-06-19T15:49:57Z</time>
      </trkpt>
      <trkpt lat="47.15134" lon="6.43094">
        <ele>744</ele>
        <time>2019-06-19T15:49:59Z</time>
      </trkpt>
      <trkpt lat="47.15122" lon="6.43092">
        <ele>744</ele>
        <time>2019-06-19T15:50:01Z</time>
      </trkpt>
      <trkpt lat="47.15111" lon="6.4309">
        <ele>745</ele>
        <time>2019-06-19T15:50:03Z</time>
      </trkpt>
      <trkpt lat="47.15093" lon="6.43085">
        <ele>745</ele>
        <time>2019-06-19T15:50:07Z</time>
      </trkpt>
      <trkpt lat="47.15081" lon="6.43083">
        <ele>745</ele>
        <time>2019-06-19T15:50:09Z</time>
      </trkpt>
      <trkpt lat="47.15072" lon="6.43085">
        <ele>745</ele>
        <time>2019-06-19T15:50:11Z</time>
      </trkpt>
      <trkpt lat="47.15058" lon="6.43079">
        <ele>744</ele>
        <time>2019-06-19T15:50:15Z</time>
      </trkpt>
      <trkpt lat="47.15048" lon="6.43084">
        <ele>744</ele>
        <time>2019-06-19T15:50:17Z</time>
      </trkpt>
      <trkpt lat="47.15034" lon="6.43081">
        <ele>744</ele>
        <time>2019-06-19T15:50:19Z</time>
      </trkpt>
      <trkpt lat="47.15023" lon="6.43077">
        <ele>744</ele>
        <time>2019-06-19T15:50:21Z</time>
      </trkpt>
      <trkpt lat="47.15007" lon="6.43074">
        <ele>744</ele>
        <time>2019-06-19T15:50:23Z</time>
      </trkpt>
      <trkpt lat="47.14995" lon="6.43066">
        <ele>743</ele>
        <time>2019-06-19T15:50:25Z</time>
      </trkpt>
      <trkpt lat="47.14983" lon="6.43062">
        <ele>743</ele>
        <time>2019-06-19T15:50:27Z</time>
      </trkpt>
      <trkpt lat="47.14969" lon="6.43056">
        <ele>742</ele>
        <time>2019-06-19T15:50:29Z</time>
      </trkpt>
      <trkpt lat="47.14956" lon="6.43059">
        <ele>742</ele>
        <time>2019-06-19T15:50:31Z</time>
      </trkpt>
      <trkpt lat="47.14941" lon="6.43062">
        <ele>741</ele>
        <time>2019-06-19T15:50:33Z</time>
      </trkpt>
      <trkpt lat="47.14926" lon="6.43074">
        <ele>740</ele>
        <time>2019-06-19T15:50:35Z</time>
      </trkpt>
      <trkpt lat="47.14909" lon="6.4308">
        <ele>738</ele>
        <time>2019-06-19T15:50:37Z</time>
      </trkpt>
      <trkpt lat="47.14892" lon="6.43088">
        <ele>736</ele>
        <time>2019-06-19T15:50:39Z</time>
      </trkpt>
      <trkpt lat="47.14876" lon="6.431">
        <ele>735</ele>
        <time>2019-06-19T15:50:41Z</time>
      </trkpt>
      <trkpt lat="47.1486" lon="6.43107">
        <ele>735</ele>
        <time>2019-06-19T15:50:43Z</time>
      </trkpt>
      <trkpt lat="47.14844" lon="6.43116">
        <ele>735</ele>
        <time>2019-06-19T15:50:45Z</time>
      </trkpt>
      <trkpt lat="47.14827" lon="6.43121">
        <ele>734</ele>
        <time>2019-06-19T15:50:47Z</time>
      </trkpt>
      <trkpt lat="47.1481" lon="6.43127">
        <ele>734</ele>
        <time>2019-06-19T15:50:49Z</time>
      </trkpt>
      <trkpt lat="47.14793" lon="6.43134">
        <ele>734</ele>
        <time>2019-06-19T15:50:51Z</time>
      </trkpt>
      <trkpt lat="47.14777" lon="6.43145">
        <ele>734</ele>
        <time>2019-06-19T15:50:53Z</time>
      </trkpt>
      <trkpt lat="47.14759" lon="6.43152">
        <ele>734</ele>
        <time>2019-06-19T15:50:55Z</time>
      </trkpt>
      <trkpt lat="47.14743" lon="6.4316">
        <ele>735</ele>
        <time>2019-06-19T15:50:57Z</time>
      </trkpt>
      <trkpt lat="47.14727" lon="6.43169">
        <ele>734</ele>
        <time>2019-06-19T15:50:59Z</time>
      </trkpt>
      <trkpt lat="47.14712" lon="6.43179">
        <ele>734</ele>
        <time>2019-06-19T15:51:01Z</time>
      </trkpt>
      <trkpt lat="47.14697" lon="6.43188">
        <ele>734</ele>
        <time>2019-06-19T15:51:03Z</time>
      </trkpt>
      <trkpt lat="47.14683" lon="6.43193">
        <ele>734</ele>
        <time>2019-06-19T15:51:05Z</time>
      </trkpt>
      <trkpt lat="47.14661" lon="6.43204">
        <ele>734</ele>
        <time>2019-06-19T15:51:07Z</time>
      </trkpt>
      <trkpt lat="47.14646" lon="6.4321">
        <ele>734</ele>
        <time>2019-06-19T15:51:09Z</time>
      </trkpt>
      <trkpt lat="47.14637" lon="6.43196">
        <ele>734</ele>
        <time>2019-06-19T15:51:11Z</time>
      </trkpt>
      <trkpt lat="47.14631" lon="6.43178">
        <ele>734</ele>
        <time>2019-06-19T15:51:13Z</time>
      </trkpt>
      <trkpt lat="47.14623" lon="6.43161">
        <ele>734</ele>
        <time>2019-06-19T15:51:15Z</time>
      </trkpt>
      <trkpt lat="47.14611" lon="6.43157">
        <ele>734</ele>
        <time>2019-06-19T15:51:17Z</time>
      </trkpt>
      <trkpt lat="47.14599" lon="6.43161">
        <ele>734</ele>
        <time>2019-06-19T15:51:19Z</time>
      </trkpt>
      <trkpt lat="47.14576" lon="6.43165">
        <ele>733</ele>
        <time>2019-06-19T15:51:23Z</time>
      </trkpt>
      <trkpt lat="47.14565" lon="6.43156">
        <ele>733</ele>
        <time>2019-06-19T15:51:25Z</time>
      </trkpt>
      <trkpt lat="47.14554" lon="6.43148">
        <ele>733</ele>
        <time>2019-06-19T15:51:27Z</time>
      </trkpt>
      <trkpt lat="47.14545" lon="6.43136">
        <ele>733</ele>
        <time>2019-06-19T15:51:33Z</time>
      </trkpt>
      <trkpt lat="47.14554" lon="6.43152">
        <ele>733</ele>
        <time>2019-06-19T15:51:35Z</time>
      </trkpt>
      <trkpt lat="47.14557" lon="6.43175">
        <ele>733</ele>
        <time>2019-06-19T15:51:39Z</time>
      </trkpt>
      <trkpt lat="47.1456" lon="6.43194">
        <ele>733</ele>
        <time>2019-06-19T15:51:41Z</time>
      </trkpt>
      <trkpt lat="47.14567" lon="6.43214">
        <ele>733</ele>
        <time>2019-06-19T15:51:43Z</time>
      </trkpt>
      <trkpt lat="47.14572" lon="6.43231">
        <ele>733</ele>
        <time>2019-06-19T15:51:45Z</time>
      </trkpt>
      <trkpt lat="47.14571" lon="6.43257">
        <ele>733</ele>
        <time>2019-06-19T15:51:47Z</time>
      </trkpt>
      <trkpt lat="47.14562" lon="6.43265">
        <ele>733</ele>
        <time>2019-06-19T15:51:49Z</time>
      </trkpt>
      <trkpt lat="47.14551" lon="6.43278">
        <ele>733</ele>
        <time>2019-06-19T15:51:51Z</time>
      </trkpt>
      <trkpt lat="47.14535" lon="6.43279">
        <ele>733</ele>
        <time>2019-06-19T15:51:53Z</time>
      </trkpt>
      <trkpt lat="47.1452" lon="6.43285">
        <ele>733</ele>
        <time>2019-06-19T15:51:55Z</time>
      </trkpt>
      <trkpt lat="47.14506" lon="6.4329">
        <ele>733</ele>
        <time>2019-06-19T15:51:57Z</time>
      </trkpt>
      <trkpt lat="47.14493" lon="6.43295">
        <ele>732</ele>
        <time>2019-06-19T15:51:59Z</time>
      </trkpt>
      <trkpt lat="47.14477" lon="6.43301">
        <ele>732</ele>
        <time>2019-06-19T15:52:01Z</time>
      </trkpt>
      <trkpt lat="47.14463" lon="6.43307">
        <ele>732</ele>
        <time>2019-06-19T15:52:03Z</time>
      </trkpt>
      <trkpt lat="47.14447" lon="6.4331">
        <ele>731</ele>
        <time>2019-06-19T15:52:05Z</time>
      </trkpt>
      <trkpt lat="47.14433" lon="6.43314">
        <ele>731</ele>
        <time>2019-06-19T15:52:07Z</time>
      </trkpt>
      <trkpt lat="47.14417" lon="6.43318">
        <ele>731</ele>
        <time>2019-06-19T15:52:09Z</time>
      </trkpt>
      <trkpt lat="47.14402" lon="6.43322">
        <ele>730</ele>
        <time>2019-06-19T15:52:11Z</time>
      </trkpt>
      <trkpt lat="47.14385" lon="6.4333">
        <ele>730</ele>
        <time>2019-06-19T15:52:13Z</time>
      </trkpt>
      <trkpt lat="47.1437" lon="6.43334">
        <ele>731</ele>
        <time>2019-06-19T15:52:15Z</time>
      </trkpt>
      <trkpt lat="47.14358" lon="6.43333">
        <ele>730</ele>
        <time>2019-06-19T15:52:17Z</time>
      </trkpt>
      <trkpt lat="47.14345" lon="6.43336">
        <ele>731</ele>
        <time>2019-06-19T15:52:19Z</time>
      </trkpt>
      <trkpt lat="47.14333" lon="6.43338">
        <ele>730</ele>
        <time>2019-06-19T15:52:21Z</time>
      </trkpt>
      <trkpt lat="47.14322" lon="6.43345">
        <ele>731</ele>
        <time>2019-06-19T15:52:23Z</time>
      </trkpt>
      <trkpt lat="47.14308" lon="6.43349">
        <ele>731</ele>
        <time>2019-06-19T15:52:25Z</time>
      </trkpt>
      <trkpt lat="47.14295" lon="6.43352">
        <ele>732</ele>
        <time>2019-06-19T15:52:27Z</time>
      </trkpt>
      <trkpt lat="47.14282" lon="6.43354">
        <ele>732</ele>
        <time>2019-06-19T15:52:29Z</time>
      </trkpt>
      <trkpt lat="47.14269" lon="6.43355">
        <ele>732</ele>
        <time>2019-06-19T15:52:31Z</time>
      </trkpt>
      <trkpt lat="47.14257" lon="6.43358">
        <ele>732</ele>
        <time>2019-06-19T15:52:33Z</time>
      </trkpt>
      <trkpt lat="47.14246" lon="6.43363">
        <ele>731</ele>
        <time>2019-06-19T15:52:35Z</time>
      </trkpt>
      <trkpt lat="47.14235" lon="6.43365">
        <ele>731</ele>
        <time>2019-06-19T15:52:37Z</time>
      </trkpt>
      <trkpt lat="47.14222" lon="6.43367">
        <ele>731</ele>
        <time>2019-06-19T15:52:39Z</time>
      </trkpt>
      <trkpt lat="47.14208" lon="6.4337">
        <ele>730</ele>
        <time>2019-06-19T15:52:41Z</time>
      </trkpt>
      <trkpt lat="47.14192" lon="6.43373">
        <ele>730</ele>
        <time>2019-06-19T15:52:43Z</time>
      </trkpt>
      <trkpt lat="47.14177" lon="6.43377">
        <ele>730</ele>
        <time>2019-06-19T15:52:45Z</time>
      </trkpt>
      <trkpt lat="47.1416" lon="6.4338">
        <ele>728</ele>
        <time>2019-06-19T15:52:47Z</time>
      </trkpt>
      <trkpt lat="47.14141" lon="6.43383">
        <ele>728</ele>
        <time>2019-06-19T15:52:49Z</time>
      </trkpt>
      <trkpt lat="47.14124" lon="6.43386">
        <ele>727</ele>
        <time>2019-06-19T15:52:51Z</time>
      </trkpt>
      <trkpt lat="47.14109" lon="6.43388">
        <ele>727</ele>
        <time>2019-06-19T15:52:53Z</time>
      </trkpt>
      <trkpt lat="47.14094" lon="6.43397">
        <ele>727</ele>
        <time>2019-06-19T15:52:55Z</time>
      </trkpt>
      <trkpt lat="47.1408" lon="6.43407">
        <ele>726</ele>
        <time>2019-06-19T15:52:57Z</time>
      </trkpt>
      <trkpt lat="47.14071" lon="6.43408">
        <ele>725</ele>
        <time>2019-06-19T15:52:59Z</time>
      </trkpt>
      <trkpt lat="47.14059" lon="6.43406">
        <ele>724</ele>
        <time>2019-06-19T15:53:01Z</time>
      </trkpt>
      <trkpt lat="47.14047" lon="6.43409">
        <ele>723</ele>
        <time>2019-06-19T15:53:03Z</time>
      </trkpt>
      <trkpt lat="47.14036" lon="6.43419">
        <ele>725</ele>
        <time>2019-06-19T15:53:05Z</time>
      </trkpt>
      <trkpt lat="47.14026" lon="6.43425">
        <ele>724</ele>
        <time>2019-06-19T15:53:07Z</time>
      </trkpt>
      <trkpt lat="47.14015" lon="6.43435">
        <ele>724</ele>
        <time>2019-06-19T15:53:09Z</time>
      </trkpt>
      <trkpt lat="47.13999" lon="6.43437">
        <ele>720</ele>
        <time>2019-06-19T15:53:11Z</time>
      </trkpt>
      <trkpt lat="47.13987" lon="6.43446">
        <ele>720</ele>
        <time>2019-06-19T15:53:13Z</time>
      </trkpt>
      <trkpt lat="47.13976" lon="6.43453">
        <ele>720</ele>
        <time>2019-06-19T15:53:15Z</time>
      </trkpt>
      <trkpt lat="47.13963" lon="6.43457">
        <ele>719</ele>
        <time>2019-06-19T15:53:17Z</time>
      </trkpt>
      <trkpt lat="47.1395" lon="6.43453">
        <ele>719</ele>
        <time>2019-06-19T15:53:19Z</time>
      </trkpt>
      <trkpt lat="47.13936" lon="6.4345">
        <ele>718</ele>
        <time>2019-06-19T15:53:21Z</time>
      </trkpt>
      <trkpt lat="47.13922" lon="6.43454">
        <ele>718</ele>
        <time>2019-06-19T15:53:23Z</time>
      </trkpt>
      <trkpt lat="47.13908" lon="6.43459">
        <ele>713</ele>
        <time>2019-06-19T15:53:25Z</time>
      </trkpt>
      <trkpt lat="47.13895" lon="6.43461">
        <ele>713</ele>
        <time>2019-06-19T15:53:27Z</time>
      </trkpt>
      <trkpt lat="47.13885" lon="6.43456">
        <ele>712</ele>
        <time>2019-06-19T15:53:29Z</time>
      </trkpt>
      <trkpt lat="47.13876" lon="6.43444">
        <ele>712</ele>
        <time>2019-06-19T15:53:31Z</time>
      </trkpt>
      <trkpt lat="47.13861" lon="6.43438">
        <ele>711</ele>
        <time>2019-06-19T15:53:33Z</time>
      </trkpt>
      <trkpt lat="47.13848" lon="6.43434">
        <ele>710</ele>
        <time>2019-06-19T15:53:35Z</time>
      </trkpt>
      <trkpt lat="47.13836" lon="6.4343">
        <ele>710</ele>
        <time>2019-06-19T15:53:37Z</time>
      </trkpt>
      <trkpt lat="47.13821" lon="6.4344">
        <ele>707</ele>
        <time>2019-06-19T15:53:41Z</time>
      </trkpt>
      <trkpt lat="47.13813" lon="6.43445">
        <ele>707</ele>
        <time>2019-06-19T15:53:43Z</time>
      </trkpt>
      <trkpt lat="47.13802" lon="6.43456">
        <ele>707</ele>
        <time>2019-06-19T15:53:45Z</time>
      </trkpt>
      <trkpt lat="47.13784" lon="6.43446">
        <ele>707</ele>
        <time>2019-06-19T15:53:49Z</time>
      </trkpt>
      <trkpt lat="47.13774" lon="6.43441">
        <ele>706</ele>
        <time>2019-06-19T15:53:51Z</time>
      </trkpt>
      <trkpt lat="47.13763" lon="6.43441">
        <ele>706</ele>
        <time>2019-06-19T15:53:53Z</time>
      </trkpt>
      <trkpt lat="47.13751" lon="6.43439">
        <ele>706</ele>
        <time>2019-06-19T15:53:55Z</time>
      </trkpt>
      <trkpt lat="47.1374" lon="6.43439">
        <ele>705</ele>
        <time>2019-06-19T15:53:57Z</time>
      </trkpt>
      <trkpt lat="47.13727" lon="6.43444">
        <ele>705</ele>
        <time>2019-06-19T15:53:59Z</time>
      </trkpt>
      <trkpt lat="47.13714" lon="6.43446">
        <ele>705</ele>
        <time>2019-06-19T15:54:01Z</time>
      </trkpt>
      <trkpt lat="47.13699" lon="6.43452">
        <ele>704</ele>
        <time>2019-06-19T15:54:03Z</time>
      </trkpt>
      <trkpt lat="47.13686" lon="6.43444">
        <ele>705</ele>
        <time>2019-06-19T15:54:05Z</time>
      </trkpt>
      <trkpt lat="47.13673" lon="6.43439">
        <ele>705</ele>
        <time>2019-06-19T15:54:07Z</time>
      </trkpt>
      <trkpt lat="47.13659" lon="6.43434">
        <ele>705</ele>
        <time>2019-06-19T15:54:09Z</time>
      </trkpt>
      <trkpt lat="47.13649" lon="6.43428">
        <ele>705</ele>
        <time>2019-06-19T15:54:11Z</time>
      </trkpt>
      <trkpt lat="47.13638" lon="6.43421">
        <ele>705</ele>
        <time>2019-06-19T15:54:13Z</time>
      </trkpt>
      <trkpt lat="47.13623" lon="6.43404">
        <ele>707</ele>
        <time>2019-06-19T15:54:17Z</time>
      </trkpt>
      <trkpt lat="47.13616" lon="6.43396">
        <ele>708</ele>
        <time>2019-06-19T15:54:19Z</time>
      </trkpt>
      <trkpt lat="47.13602" lon="6.43395">
        <ele>708</ele>
        <time>2019-06-19T15:54:23Z</time>
      </trkpt>
      <trkpt lat="47.13586" lon="6.43393">
        <ele>708</ele>
        <time>2019-06-19T15:54:27Z</time>
      </trkpt>
      <trkpt lat="47.13574" lon="6.4339">
        <ele>708</ele>
        <time>2019-06-19T15:54:29Z</time>
      </trkpt>
      <trkpt lat="47.13564" lon="6.43389">
        <ele>709</ele>
        <time>2019-06-19T15:54:31Z</time>
      </trkpt>
      <trkpt lat="47.13551" lon="6.43394">
        <ele>709</ele>
        <time>2019-06-19T15:54:33Z</time>
      </trkpt>
      <trkpt lat="47.13541" lon="6.43394">
        <ele>709</ele>
        <time>2019-06-19T15:54:35Z</time>
      </trkpt>
      <trkpt lat="47.1353" lon="6.43395">
        <ele>708</ele>
        <time>2019-06-19T15:54:37Z</time>
      </trkpt>
      <trkpt lat="47.13513" lon="6.43381">
        <ele>709</ele>
        <time>2019-06-19T15:54:41Z</time>
      </trkpt>
      <trkpt lat="47.13503" lon="6.43376">
        <ele>709</ele>
        <time>2019-06-19T15:54:43Z</time>
      </trkpt>
      <trkpt lat="47.13495" lon="6.43369">
        <ele>709</ele>
        <time>2019-06-19T15:54:45Z</time>
      </trkpt>
      <trkpt lat="47.13483" lon="6.43365">
        <ele>710</ele>
        <time>2019-06-19T15:54:47Z</time>
      </trkpt>
      <trkpt lat="47.13473" lon="6.4336">
        <ele>710</ele>
        <time>2019-06-19T15:54:49Z</time>
      </trkpt>
      <trkpt lat="47.13461" lon="6.4336">
        <ele>710</ele>
        <time>2019-06-19T15:54:51Z</time>
      </trkpt>
      <trkpt lat="47.13453" lon="6.43353">
        <ele>710</ele>
        <time>2019-06-19T15:54:53Z</time>
      </trkpt>
      <trkpt lat="47.13436" lon="6.43347">
        <ele>710</ele>
        <time>2019-06-19T15:54:57Z</time>
      </trkpt>
      <trkpt lat="47.13424" lon="6.43351">
        <ele>710</ele>
        <time>2019-06-19T15:54:59Z</time>
      </trkpt>
      <trkpt lat="47.13415" lon="6.43357">
        <ele>711</ele>
        <time>2019-06-19T15:55:01Z</time>
      </trkpt>
      <trkpt lat="47.13404" lon="6.43363">
        <ele>711</ele>
        <time>2019-06-19T15:55:05Z</time>
      </trkpt>
      <trkpt lat="47.13394" lon="6.43368">
        <ele>711</ele>
        <time>2019-06-19T15:55:07Z</time>
      </trkpt>
      <trkpt lat="47.13384" lon="6.43373">
        <ele>711</ele>
        <time>2019-06-19T15:55:09Z</time>
      </trkpt>
      <trkpt lat="47.13366" lon="6.43374">
        <ele>712</ele>
        <time>2019-06-19T15:55:13Z</time>
      </trkpt>
      <trkpt lat="47.13355" lon="6.43374">
        <ele>712</ele>
        <time>2019-06-19T15:55:15Z</time>
      </trkpt>
      <trkpt lat="47.13338" lon="6.43371">
        <ele>712</ele>
        <time>2019-06-19T15:55:19Z</time>
      </trkpt>
      <trkpt lat="47.13327" lon="6.4337">
        <ele>714</ele>
        <time>2019-06-19T15:55:21Z</time>
      </trkpt>
      <trkpt lat="47.13311" lon="6.43374">
        <ele>714</ele>
        <time>2019-06-19T15:55:25Z</time>
      </trkpt>
      <trkpt lat="47.133" lon="6.43375">
        <ele>715</ele>
        <time>2019-06-19T15:55:27Z</time>
      </trkpt>
      <trkpt lat="47.1329" lon="6.43382">
        <ele>715</ele>
        <time>2019-06-19T15:55:29Z</time>
      </trkpt>
      <trkpt lat="47.13282" lon="6.43389">
        <ele>715</ele>
        <time>2019-06-19T15:55:31Z</time>
      </trkpt>
      <trkpt lat="47.13272" lon="6.43396">
        <ele>715</ele>
        <time>2019-06-19T15:55:33Z</time>
      </trkpt>
      <trkpt lat="47.1326" lon="6.43404">
        <ele>715</ele>
        <time>2019-06-19T15:55:35Z</time>
      </trkpt>
      <trkpt lat="47.1325" lon="6.43405">
        <ele>716</ele>
        <time>2019-06-19T15:55:37Z</time>
      </trkpt>
      <trkpt lat="47.13239" lon="6.43398">
        <ele>716</ele>
        <time>2019-06-19T15:55:39Z</time>
      </trkpt>
      <trkpt lat="47.13221" lon="6.43404">
        <ele>716</ele>
        <time>2019-06-19T15:55:43Z</time>
      </trkpt>
      <trkpt lat="47.1321" lon="6.43413">
        <ele>716</ele>
        <time>2019-06-19T15:55:45Z</time>
      </trkpt>
      <trkpt lat="47.13199" lon="6.43421">
        <ele>716</ele>
        <time>2019-06-19T15:55:47Z</time>
      </trkpt>
      <trkpt lat="47.13189" lon="6.4343">
        <ele>716</ele>
        <time>2019-06-19T15:55:49Z</time>
      </trkpt>
      <trkpt lat="47.13176" lon="6.43445">
        <ele>716</ele>
        <time>2019-06-19T15:55:53Z</time>
      </trkpt>
      <trkpt lat="47.13165" lon="6.43452">
        <ele>716</ele>
        <time>2019-06-19T15:55:55Z</time>
      </trkpt>
      <trkpt lat="47.13149" lon="6.43457">
        <ele>716</ele>
        <time>2019-06-19T15:55:57Z</time>
      </trkpt>
      <trkpt lat="47.13139" lon="6.43462">
        <ele>716</ele>
        <time>2019-06-19T15:55:59Z</time>
      </trkpt>
      <trkpt lat="47.13127" lon="6.43467">
        <ele>716</ele>
        <time>2019-06-19T15:56:01Z</time>
      </trkpt>
      <trkpt lat="47.13115" lon="6.43471">
        <ele>716</ele>
        <time>2019-06-19T15:56:03Z</time>
      </trkpt>
      <trkpt lat="47.13102" lon="6.43477">
        <ele>716</ele>
        <time>2019-06-19T15:56:05Z</time>
      </trkpt>
      <trkpt lat="47.13089" lon="6.43482">
        <ele>717</ele>
        <time>2019-06-19T15:56:07Z</time>
      </trkpt>
      <trkpt lat="47.13077" lon="6.43486">
        <ele>717</ele>
        <time>2019-06-19T15:56:09Z</time>
      </trkpt>
      <trkpt lat="47.13062" lon="6.43491">
        <ele>716</ele>
        <time>2019-06-19T15:56:11Z</time>
      </trkpt>
      <trkpt lat="47.13049" lon="6.43496">
        <ele>716</ele>
        <time>2019-06-19T15:56:13Z</time>
      </trkpt>
      <trkpt lat="47.13038" lon="6.43502">
        <ele>715</ele>
        <time>2019-06-19T15:56:15Z</time>
      </trkpt>
      <trkpt lat="47.13025" lon="6.43505">
        <ele>714</ele>
        <time>2019-06-19T15:56:17Z</time>
      </trkpt>
      <trkpt lat="47.13012" lon="6.43511">
        <ele>714</ele>
        <time>2019-06-19T15:56:19Z</time>
      </trkpt>
      <trkpt lat="47.12996" lon="6.43512">
        <ele>714</ele>
        <time>2019-06-19T15:56:21Z</time>
      </trkpt>
      <trkpt lat="47.12985" lon="6.43519">
        <ele>714</ele>
        <time>2019-06-19T15:56:23Z</time>
      </trkpt>
      <trkpt lat="47.12972" lon="6.43524">
        <ele>713</ele>
        <time>2019-06-19T15:56:25Z</time>
      </trkpt>
      <trkpt lat="47.12957" lon="6.43525">
        <ele>713</ele>
        <time>2019-06-19T15:56:27Z</time>
      </trkpt>
      <trkpt lat="47.12943" lon="6.43532">
        <ele>713</ele>
        <time>2019-06-19T15:56:29Z</time>
      </trkpt>
      <trkpt lat="47.12929" lon="6.43534">
        <ele>713</ele>
        <time>2019-06-19T15:56:31Z</time>
      </trkpt>
      <trkpt lat="47.12912" lon="6.43529">
        <ele>714</ele>
        <time>2019-06-19T15:56:33Z</time>
      </trkpt>
      <trkpt lat="47.12895" lon="6.43527">
        <ele>714</ele>
        <time>2019-06-19T15:56:35Z</time>
      </trkpt>
      <trkpt lat="47.12878" lon="6.43525">
        <ele>714</ele>
        <time>2019-06-19T15:56:37Z</time>
      </trkpt>
      <trkpt lat="47.12862" lon="6.43522">
        <ele>713</ele>
        <time>2019-06-19T15:56:39Z</time>
      </trkpt>
      <trkpt lat="47.1285" lon="6.43507">
        <ele>713</ele>
        <time>2019-06-19T15:56:41Z</time>
      </trkpt>
      <trkpt lat="47.12838" lon="6.43493">
        <ele>712</ele>
        <time>2019-06-19T15:56:43Z</time>
      </trkpt>
      <trkpt lat="47.12856" lon="6.43462">
        <ele>712</ele>
        <time>2019-06-19T15:56:45Z</time>
      </trkpt>
      <trkpt lat="47.12865" lon="6.43452">
        <ele>712</ele>
        <time>2019-06-19T15:56:47Z</time>
      </trkpt>
      <trkpt lat="47.12875" lon="6.4344">
        <ele>713</ele>
        <time>2019-06-19T15:56:49Z</time>
      </trkpt>
      <trkpt lat="47.12887" lon="6.43431">
        <ele>713</ele>
        <time>2019-06-19T15:56:51Z</time>
      </trkpt>
      <trkpt lat="47.12903" lon="6.43414">
        <ele>714</ele>
        <time>2019-06-19T15:56:55Z</time>
      </trkpt>
      <trkpt lat="47.12909" lon="6.43402">
        <ele>714</ele>
        <time>2019-06-19T15:56:57Z</time>
      </trkpt>
      <trkpt lat="47.12915" lon="6.43388">
        <ele>714</ele>
        <time>2019-06-19T15:56:59Z</time>
      </trkpt>
      <trkpt lat="47.12919" lon="6.43375">
        <ele>716</ele>
        <time>2019-06-19T15:57:01Z</time>
      </trkpt>
      <trkpt lat="47.12915" lon="6.43361">
        <ele>715</ele>
        <time>2019-06-19T15:57:03Z</time>
      </trkpt>
      <trkpt lat="47.12905" lon="6.43354">
        <ele>715</ele>
        <time>2019-06-19T15:57:05Z</time>
      </trkpt>
      <trkpt lat="47.12895" lon="6.43348">
        <ele>714</ele>
        <time>2019-06-19T15:57:07Z</time>
      </trkpt>
      <trkpt lat="47.12888" lon="6.43335">
        <ele>714</ele>
        <time>2019-06-19T15:57:09Z</time>
      </trkpt>
      <trkpt lat="47.12879" lon="6.43328">
        <ele>715</ele>
        <time>2019-06-19T15:57:11Z</time>
      </trkpt>
      <trkpt lat="47.12869" lon="6.4332">
        <ele>715</ele>
        <time>2019-06-19T15:57:13Z</time>
      </trkpt>
      <trkpt lat="47.12853" lon="6.43315">
        <ele>715</ele>
        <time>2019-06-19T15:57:15Z</time>
      </trkpt>
      <trkpt lat="47.12837" lon="6.433">
        <ele>715</ele>
        <time>2019-06-19T15:57:19Z</time>
      </trkpt>
      <trkpt lat="47.12827" lon="6.43292">
        <ele>714</ele>
        <time>2019-06-19T15:57:21Z</time>
      </trkpt>
      <trkpt lat="47.12816" lon="6.43281">
        <ele>714</ele>
        <time>2019-06-19T15:57:23Z</time>
      </trkpt>
      <trkpt lat="47.12806" lon="6.43271">
        <ele>714</ele>
        <time>2019-06-19T15:57:25Z</time>
      </trkpt>
      <trkpt lat="47.1279" lon="6.43248">
        <ele>715</ele>
        <time>2019-06-19T15:57:29Z</time>
      </trkpt>
      <trkpt lat="47.12779" lon="6.43237">
        <ele>715</ele>
        <time>2019-06-19T15:57:31Z</time>
      </trkpt>
      <trkpt lat="47.12769" lon="6.43224">
        <ele>715</ele>
        <time>2019-06-19T15:57:33Z</time>
      </trkpt>
      <trkpt lat="47.1276" lon="6.43212">
        <ele>715</ele>
        <time>2019-06-19T15:57:35Z</time>
      </trkpt>
      <trkpt lat="47.12751" lon="6.43198">
        <ele>715</ele>
        <time>2019-06-19T15:57:37Z</time>
      </trkpt>
      <trkpt lat="47.12741" lon="6.43181">
        <ele>715</ele>
        <time>2019-06-19T15:57:39Z</time>
      </trkpt>
      <trkpt lat="47.12732" lon="6.43169">
        <ele>715</ele>
        <time>2019-06-19T15:57:41Z</time>
      </trkpt>
      <trkpt lat="47.12723" lon="6.43159">
        <ele>716</ele>
        <time>2019-06-19T15:57:43Z</time>
      </trkpt>
      <trkpt lat="47.12716" lon="6.4315">
        <ele>717</ele>
        <time>2019-06-19T15:57:45Z</time>
      </trkpt>
      <trkpt lat="47.12706" lon="6.43144">
        <ele>717</ele>
        <time>2019-06-19T15:57:47Z</time>
      </trkpt>
      <trkpt lat="47.12696" lon="6.43135">
        <ele>717</ele>
        <time>2019-06-19T15:57:49Z</time>
      </trkpt>
      <trkpt lat="47.12685" lon="6.43128">
        <ele>717</ele>
        <time>2019-06-19T15:57:51Z</time>
      </trkpt>
      <trkpt lat="47.12672" lon="6.43125">
        <ele>717</ele>
        <time>2019-06-19T15:57:53Z</time>
      </trkpt>
      <trkpt lat="47.12662" lon="6.43119">
        <ele>715</ele>
        <time>2019-06-19T15:57:55Z</time>
      </trkpt>
      <trkpt lat="47.12651" lon="6.43113">
        <ele>715</ele>
        <time>2019-06-19T15:57:57Z</time>
      </trkpt>
      <trkpt lat="47.12637" lon="6.43101">
        <ele>715</ele>
        <time>2019-06-19T15:57:59Z</time>
      </trkpt>
      <trkpt lat="47.12626" lon="6.43091">
        <ele>715</ele>
        <time>2019-06-19T15:58:01Z</time>
      </trkpt>
      <trkpt lat="47.12614" lon="6.43083">
        <ele>714</ele>
        <time>2019-06-19T15:58:03Z</time>
      </trkpt>
      <trkpt lat="47.12605" lon="6.43071">
        <ele>714</ele>
        <time>2019-06-19T15:58:05Z</time>
      </trkpt>
      <trkpt lat="47.12595" lon="6.43061">
        <ele>714</ele>
        <time>2019-06-19T15:58:07Z</time>
      </trkpt>
      <trkpt lat="47.12583" lon="6.43054">
        <ele>712</ele>
        <time>2019-06-19T15:58:09Z</time>
      </trkpt>
      <trkpt lat="47.12574" lon="6.43046">
        <ele>712</ele>
        <time>2019-06-19T15:58:11Z</time>
      </trkpt>
      <trkpt lat="47.12563" lon="6.43036">
        <ele>711</ele>
        <time>2019-06-19T15:58:13Z</time>
      </trkpt>
      <trkpt lat="47.12552" lon="6.43021">
        <ele>711</ele>
        <time>2019-06-19T15:58:15Z</time>
      </trkpt>
      <trkpt lat="47.12537" lon="6.43007">
        <ele>711</ele>
        <time>2019-06-19T15:58:17Z</time>
      </trkpt>
      <trkpt lat="47.12524" lon="6.42992">
        <ele>712</ele>
        <time>2019-06-19T15:58:19Z</time>
      </trkpt>
      <trkpt lat="47.12515" lon="6.42969">
        <ele>712</ele>
        <time>2019-06-19T15:58:21Z</time>
      </trkpt>
      <trkpt lat="47.12507" lon="6.42954">
        <ele>712</ele>
        <time>2019-06-19T15:58:23Z</time>
      </trkpt>
      <trkpt lat="47.12499" lon="6.42937">
        <ele>713</ele>
        <time>2019-06-19T15:58:25Z</time>
      </trkpt>
      <trkpt lat="47.12492" lon="6.4292">
        <ele>712</ele>
        <time>2019-06-19T15:58:27Z</time>
      </trkpt>
      <trkpt lat="47.12484" lon="6.42904">
        <ele>713</ele>
        <time>2019-06-19T15:58:29Z</time>
      </trkpt>
      <trkpt lat="47.12477" lon="6.42889">
        <ele>713</ele>
        <time>2019-06-19T15:58:31Z</time>
      </trkpt>
      <trkpt lat="47.12467" lon="6.42874">
        <ele>713</ele>
        <time>2019-06-19T15:58:33Z</time>
      </trkpt>
      <trkpt lat="47.12459" lon="6.42857">
        <ele>713</ele>
        <time>2019-06-19T15:58:35Z</time>
      </trkpt>
      <trkpt lat="47.12451" lon="6.42842">
        <ele>713</ele>
        <time>2019-06-19T15:58:37Z</time>
      </trkpt>
      <trkpt lat="47.12443" lon="6.42828">
        <ele>712</ele>
        <time>2019-06-19T15:58:39Z</time>
      </trkpt>
      <trkpt lat="47.12433" lon="6.42812">
        <ele>712</ele>
        <time>2019-06-19T15:58:41Z</time>
      </trkpt>
      <trkpt lat="47.12425" lon="6.42798">
        <ele>712</ele>
        <time>2019-06-19T15:58:43Z</time>
      </trkpt>
      <trkpt lat="47.1242" lon="6.42784">
        <ele>712</ele>
        <time>2019-06-19T15:58:45Z</time>
      </trkpt>
      <trkpt lat="47.12408" lon="6.42768">
        <ele>713</ele>
        <time>2019-06-19T15:58:47Z</time>
      </trkpt>
      <trkpt lat="47.124" lon="6.42753">
        <ele>713</ele>
        <time>2019-06-19T15:58:49Z</time>
      </trkpt>
      <trkpt lat="47.12389" lon="6.42725">
        <ele>714</ele>
        <time>2019-06-19T15:58:53Z</time>
      </trkpt>
      <trkpt lat="47.12383" lon="6.42712">
        <ele>714</ele>
        <time>2019-06-19T15:58:55Z</time>
      </trkpt>
      <trkpt lat="47.12374" lon="6.42696">
        <ele>715</ele>
        <time>2019-06-19T15:58:59Z</time>
      </trkpt>
      <trkpt lat="47.12362" lon="6.42678">
        <ele>715</ele>
        <time>2019-06-19T15:59:03Z</time>
      </trkpt>
      <trkpt lat="47.1235" lon="6.42664">
        <ele>715</ele>
        <time>2019-06-19T15:59:07Z</time>
      </trkpt>
      <trkpt lat="47.12341" lon="6.42654">
        <ele>715</ele>
        <time>2019-06-19T15:59:09Z</time>
      </trkpt>
      <trkpt lat="47.12338" lon="6.42641">
        <ele>714</ele>
        <time>2019-06-19T15:59:11Z</time>
      </trkpt>
      <trkpt lat="47.12332" lon="6.42629">
        <ele>715</ele>
        <time>2019-06-19T15:59:13Z</time>
      </trkpt>
      <trkpt lat="47.12324" lon="6.42618">
        <ele>715</ele>
        <time>2019-06-19T15:59:15Z</time>
      </trkpt>
      <trkpt lat="47.12316" lon="6.42603">
        <ele>714</ele>
        <time>2019-06-19T15:59:17Z</time>
      </trkpt>
      <trkpt lat="47.12311" lon="6.42593">
        <ele>714</ele>
        <time>2019-06-19T15:59:19Z</time>
      </trkpt>
      <trkpt lat="47.12305" lon="6.42576">
        <ele>714</ele>
        <time>2019-06-19T15:59:21Z</time>
      </trkpt>
      <trkpt lat="47.12295" lon="6.42556">
        <ele>715</ele>
        <time>2019-06-19T15:59:25Z</time>
      </trkpt>
      <trkpt lat="47.12288" lon="6.42536">
        <ele>715</ele>
        <time>2019-06-19T15:59:29Z</time>
      </trkpt>
      <trkpt lat="47.12277" lon="6.42517">
        <ele>716</ele>
        <time>2019-06-19T15:59:33Z</time>
      </trkpt>
      <trkpt lat="47.12264" lon="6.42498">
        <ele>716</ele>
        <time>2019-06-19T15:59:37Z</time>
      </trkpt>
      <trkpt lat="47.12254" lon="6.42476">
        <ele>716</ele>
        <time>2019-06-19T15:59:41Z</time>
      </trkpt>
      <trkpt lat="47.12248" lon="6.42457">
        <ele>717</ele>
        <time>2019-06-19T15:59:45Z</time>
      </trkpt>
      <trkpt lat="47.12244" lon="6.42439">
        <ele>716</ele>
        <time>2019-06-19T15:59:49Z</time>
      </trkpt>
      <trkpt lat="47.1224" lon="6.42427">
        <ele>716</ele>
        <time>2019-06-19T15:59:51Z</time>
      </trkpt>
      <trkpt lat="47.12233" lon="6.42416">
        <ele>714</ele>
        <time>2019-06-19T15:59:53Z</time>
      </trkpt>
      <trkpt lat="47.12229" lon="6.42402">
        <ele>715</ele>
        <time>2019-06-19T15:59:55Z</time>
      </trkpt>
      <trkpt lat="47.12227" lon="6.42385">
        <ele>714</ele>
        <time>2019-06-19T15:59:57Z</time>
      </trkpt>
      <trkpt lat="47.12227" lon="6.42368">
        <ele>714</ele>
        <time>2019-06-19T15:59:59Z</time>
      </trkpt>
      <trkpt lat="47.12221" lon="6.42355">
        <ele>714</ele>
        <time>2019-06-19T16:00:01Z</time>
      </trkpt>
      <trkpt lat="47.12211" lon="6.42343">
        <ele>714</ele>
        <time>2019-06-19T16:00:03Z</time>
      </trkpt>
      <trkpt lat="47.12204" lon="6.42327">
        <ele>714</ele>
        <time>2019-06-19T16:00:07Z</time>
      </trkpt>
      <trkpt lat="47.12194" lon="6.42311">
        <ele>714</ele>
        <time>2019-06-19T16:00:11Z</time>
      </trkpt>
      <trkpt lat="47.12179" lon="6.4229">
        <ele>714</ele>
        <time>2019-06-19T16:00:15Z</time>
      </trkpt>
      <trkpt lat="47.1217" lon="6.4228">
        <ele>715</ele>
        <time>2019-06-19T16:00:17Z</time>
      </trkpt>
      <trkpt lat="47.12163" lon="6.4227">
        <ele>716</ele>
        <time>2019-06-19T16:00:19Z</time>
      </trkpt>
      <trkpt lat="47.12157" lon="6.42256">
        <ele>716</ele>
        <time>2019-06-19T16:00:21Z</time>
      </trkpt>
      <trkpt lat="47.12145" lon="6.42235">
        <ele>715</ele>
        <time>2019-06-19T16:00:25Z</time>
      </trkpt>
      <trkpt lat="47.12142" lon="6.42219">
        <ele>715</ele>
        <time>2019-06-19T16:00:27Z</time>
      </trkpt>
      <trkpt lat="47.1213" lon="6.42209">
        <ele>715</ele>
        <time>2019-06-19T16:00:29Z</time>
      </trkpt>
      <trkpt lat="47.12123" lon="6.42196">
        <ele>715</ele>
        <time>2019-06-19T16:00:31Z</time>
      </trkpt>
      <trkpt lat="47.12114" lon="6.42185">
        <ele>715</ele>
        <time>2019-06-19T16:00:33Z</time>
      </trkpt>
      <trkpt lat="47.12101" lon="6.42165">
        <ele>715</ele>
        <time>2019-06-19T16:00:37Z</time>
      </trkpt>
      <trkpt lat="47.12096" lon="6.42153">
        <ele>715</ele>
        <time>2019-06-19T16:00:39Z</time>
      </trkpt>
      <trkpt lat="47.12089" lon="6.42142">
        <ele>715</ele>
        <time>2019-06-19T16:00:41Z</time>
      </trkpt>
      <trkpt lat="47.12083" lon="6.4213">
        <ele>715</ele>
        <time>2019-06-19T16:00:43Z</time>
      </trkpt>
      <trkpt lat="47.12072" lon="6.42126">
        <ele>716</ele>
        <time>2019-06-19T16:00:45Z</time>
      </trkpt>
      <trkpt lat="47.12063" lon="6.42114">
        <ele>716</ele>
        <time>2019-06-19T16:00:47Z</time>
      </trkpt>
      <trkpt lat="47.12056" lon="6.42103">
        <ele>716</ele>
        <time>2019-06-19T16:00:49Z</time>
      </trkpt>
      <trkpt lat="47.1205" lon="6.42091">
        <ele>716</ele>
        <time>2019-06-19T16:00:51Z</time>
      </trkpt>
      <trkpt lat="47.12046" lon="6.42077">
        <ele>715</ele>
        <time>2019-06-19T16:00:53Z</time>
      </trkpt>
      <trkpt lat="47.12042" lon="6.42066">
        <ele>715</ele>
        <time>2019-06-19T16:00:55Z</time>
      </trkpt>
      <trkpt lat="47.12031" lon="6.42052">
        <ele>716</ele>
        <time>2019-06-19T16:00:57Z</time>
      </trkpt>
      <trkpt lat="47.12024" lon="6.42037">
        <ele>716</ele>
        <time>2019-06-19T16:00:59Z</time>
      </trkpt>
      <trkpt lat="47.12016" lon="6.42026">
        <ele>716</ele>
        <time>2019-06-19T16:01:01Z</time>
      </trkpt>
      <trkpt lat="47.12009" lon="6.42014">
        <ele>716</ele>
        <time>2019-06-19T16:01:03Z</time>
      </trkpt>
      <trkpt lat="47.12001" lon="6.42">
        <ele>716</ele>
        <time>2019-06-19T16:01:05Z</time>
      </trkpt>
      <trkpt lat="47.11993" lon="6.41989">
        <ele>716</ele>
        <time>2019-06-19T16:01:07Z</time>
      </trkpt>
      <trkpt lat="47.11987" lon="6.41977">
        <ele>715</ele>
        <time>2019-06-19T16:01:09Z</time>
      </trkpt>
      <trkpt lat="47.11979" lon="6.4197">
        <ele>715</ele>
        <time>2019-06-19T16:01:11Z</time>
      </trkpt>
      <trkpt lat="47.11971" lon="6.41961">
        <ele>715</ele>
        <time>2019-06-19T16:01:13Z</time>
      </trkpt>
      <trkpt lat="47.1196" lon="6.41948">
        <ele>715</ele>
        <time>2019-06-19T16:01:17Z</time>
      </trkpt>
      <trkpt lat="47.1195" lon="6.41943">
        <ele>715</ele>
        <time>2019-06-19T16:01:19Z</time>
      </trkpt>
      <trkpt lat="47.11943" lon="6.41935">
        <ele>715</ele>
        <time>2019-06-19T16:01:21Z</time>
      </trkpt>
      <trkpt lat="47.1193" lon="6.41917">
        <ele>714</ele>
        <time>2019-06-19T16:01:25Z</time>
      </trkpt>
      <trkpt lat="47.11919" lon="6.41893">
        <ele>715</ele>
        <time>2019-06-19T16:01:29Z</time>
      </trkpt>
      <trkpt lat="47.11913" lon="6.41882">
        <ele>715</ele>
        <time>2019-06-19T16:01:31Z</time>
      </trkpt>
      <trkpt lat="47.11908" lon="6.4187">
        <ele>715</ele>
        <time>2019-06-19T16:01:33Z</time>
      </trkpt>
      <trkpt lat="47.11903" lon="6.41856">
        <ele>715</ele>
        <time>2019-06-19T16:01:35Z</time>
      </trkpt>
      <trkpt lat="47.11897" lon="6.41845">
        <ele>715</ele>
        <time>2019-06-19T16:01:37Z</time>
      </trkpt>
      <trkpt lat="47.11888" lon="6.41831">
        <ele>716</ele>
        <time>2019-06-19T16:01:41Z</time>
      </trkpt>
      <trkpt lat="47.11881" lon="6.4182">
        <ele>716</ele>
        <time>2019-06-19T16:01:43Z</time>
      </trkpt>
      <trkpt lat="47.11873" lon="6.41809">
        <ele>716</ele>
        <time>2019-06-19T16:01:45Z</time>
      </trkpt>
      <trkpt lat="47.11863" lon="6.41796">
        <ele>716</ele>
        <time>2019-06-19T16:01:47Z</time>
      </trkpt>
      <trkpt lat="47.11857" lon="6.41785">
        <ele>716</ele>
        <time>2019-06-19T16:01:49Z</time>
      </trkpt>
      <trkpt lat="47.11849" lon="6.41775">
        <ele>717</ele>
        <time>2019-06-19T16:01:51Z</time>
      </trkpt>
      <trkpt lat="47.11842" lon="6.41766">
        <ele>717</ele>
        <time>2019-06-19T16:01:53Z</time>
      </trkpt>
      <trkpt lat="47.11836" lon="6.41755">
        <ele>717</ele>
        <time>2019-06-19T16:01:55Z</time>
      </trkpt>
      <trkpt lat="47.11823" lon="6.41744">
        <ele>718</ele>
        <time>2019-06-19T16:01:59Z</time>
      </trkpt>
      <trkpt lat="47.11806" lon="6.41752">
        <ele>719</ele>
        <time>2019-06-19T16:02:03Z</time>
      </trkpt>
      <trkpt lat="47.11795" lon="6.41755">
        <ele>720</ele>
        <time>2019-06-19T16:02:05Z</time>
      </trkpt>
      <trkpt lat="47.11786" lon="6.4176">
        <ele>720</ele>
        <time>2019-06-19T16:02:07Z</time>
      </trkpt>
      <trkpt lat="47.11776" lon="6.41762">
        <ele>720</ele>
        <time>2019-06-19T16:02:09Z</time>
      </trkpt>
      <trkpt lat="47.11762" lon="6.41772">
        <ele>721</ele>
        <time>2019-06-19T16:02:13Z</time>
      </trkpt>
      <trkpt lat="47.11749" lon="6.4177">
        <ele>724</ele>
        <time>2019-06-19T16:02:15Z</time>
      </trkpt>
      <trkpt lat="47.11737" lon="6.41773">
        <ele>724</ele>
        <time>2019-06-19T16:02:19Z</time>
      </trkpt>
      <trkpt lat="47.11733" lon="6.41785">
        <ele>724</ele>
        <time>2019-06-19T16:02:23Z</time>
      </trkpt>
      <trkpt lat="47.11726" lon="6.41794">
        <ele>725</ele>
        <time>2019-06-19T16:02:27Z</time>
      </trkpt>
      <trkpt lat="47.11715" lon="6.41806">
        <ele>725</ele>
        <time>2019-06-19T16:02:31Z</time>
      </trkpt>
      <trkpt lat="47.11706" lon="6.41809">
        <ele>725</ele>
        <time>2019-06-19T16:02:35Z</time>
      </trkpt>
      <trkpt lat="47.11693" lon="6.41814">
        <ele>726</ele>
        <time>2019-06-19T16:02:39Z</time>
      </trkpt>
      <trkpt lat="47.11678" lon="6.41821">
        <ele>727</ele>
        <time>2019-06-19T16:02:43Z</time>
      </trkpt>
      <trkpt lat="47.11667" lon="6.41829">
        <ele>728</ele>
        <time>2019-06-19T16:02:47Z</time>
      </trkpt>
      <trkpt lat="47.11654" lon="6.41836">
        <ele>728</ele>
        <time>2019-06-19T16:02:51Z</time>
      </trkpt>
      <trkpt lat="47.11639" lon="6.41845">
        <ele>729</ele>
        <time>2019-06-19T16:02:55Z</time>
      </trkpt>
      <trkpt lat="47.11625" lon="6.41848">
        <ele>729</ele>
        <time>2019-06-19T16:02:57Z</time>
      </trkpt>
      <trkpt lat="47.11614" lon="6.41847">
        <ele>729</ele>
        <time>2019-06-19T16:02:59Z</time>
      </trkpt>
      <trkpt lat="47.11602" lon="6.41848">
        <ele>729</ele>
        <time>2019-06-19T16:03:01Z</time>
      </trkpt>
      <trkpt lat="47.11585" lon="6.41851">
        <ele>729</ele>
        <time>2019-06-19T16:03:03Z</time>
      </trkpt>
      <trkpt lat="47.11573" lon="6.41852">
        <ele>731</ele>
        <time>2019-06-19T16:03:05Z</time>
      </trkpt>
      <trkpt lat="47.11563" lon="6.41855">
        <ele>732</ele>
        <time>2019-06-19T16:03:07Z</time>
      </trkpt>
      <trkpt lat="47.11554" lon="6.41861">
        <ele>733</ele>
        <time>2019-06-19T16:03:09Z</time>
      </trkpt>
      <trkpt lat="47.11537" lon="6.41867">
        <ele>733</ele>
        <time>2019-06-19T16:03:13Z</time>
      </trkpt>
      <trkpt lat="47.11527" lon="6.4186">
        <ele>734</ele>
        <time>2019-06-19T16:03:17Z</time>
      </trkpt>
      <trkpt lat="47.11514" lon="6.41855">
        <ele>734</ele>
        <time>2019-06-19T16:03:21Z</time>
      </trkpt>
      <trkpt lat="47.11502" lon="6.41846">
        <ele>734</ele>
        <time>2019-06-19T16:03:25Z</time>
      </trkpt>
      <trkpt lat="47.1149" lon="6.41839">
        <ele>736</ele>
        <time>2019-06-19T16:03:29Z</time>
      </trkpt>
      <trkpt lat="47.11478" lon="6.41829">
        <ele>735</ele>
        <time>2019-06-19T16:03:33Z</time>
      </trkpt>
      <trkpt lat="47.11466" lon="6.41825">
        <ele>735</ele>
        <time>2019-06-19T16:03:37Z</time>
      </trkpt>
      <trkpt lat="47.11453" lon="6.41828">
        <ele>735</ele>
        <time>2019-06-19T16:03:41Z</time>
      </trkpt>
      <trkpt lat="47.11439" lon="6.41833">
        <ele>735</ele>
        <time>2019-06-19T16:03:45Z</time>
      </trkpt>
      <trkpt lat="47.11424" lon="6.4184">
        <ele>737</ele>
        <time>2019-06-19T16:03:49Z</time>
      </trkpt>
      <trkpt lat="47.11409" lon="6.41848">
        <ele>736</ele>
        <time>2019-06-19T16:03:53Z</time>
      </trkpt>
      <trkpt lat="47.11395" lon="6.4186">
        <ele>736</ele>
        <time>2019-06-19T16:03:57Z</time>
      </trkpt>
      <trkpt lat="47.11383" lon="6.41872">
        <ele>736</ele>
        <time>2019-06-19T16:04:01Z</time>
      </trkpt>
      <trkpt lat="47.11366" lon="6.41883">
        <ele>736</ele>
        <time>2019-06-19T16:04:05Z</time>
      </trkpt>
      <trkpt lat="47.11358" lon="6.41891">
        <ele>735</ele>
        <time>2019-06-19T16:04:07Z</time>
      </trkpt>
      <trkpt lat="47.1134" lon="6.41893">
        <ele>735</ele>
        <time>2019-06-19T16:04:09Z</time>
      </trkpt>
      <trkpt lat="47.11323" lon="6.41891">
        <ele>733</ele>
        <time>2019-06-19T16:04:11Z</time>
      </trkpt>
      <trkpt lat="47.11307" lon="6.41892">
        <ele>733</ele>
        <time>2019-06-19T16:04:13Z</time>
      </trkpt>
      <trkpt lat="47.11289" lon="6.41892">
        <ele>732</ele>
        <time>2019-06-19T16:04:15Z</time>
      </trkpt>
      <trkpt lat="47.11268" lon="6.41893">
        <ele>731</ele>
        <time>2019-06-19T16:04:17Z</time>
      </trkpt>
      <trkpt lat="47.11248" lon="6.41894">
        <ele>728</ele>
        <time>2019-06-19T16:04:19Z</time>
      </trkpt>
      <trkpt lat="47.1123" lon="6.41895">
        <ele>728</ele>
        <time>2019-06-19T16:04:21Z</time>
      </trkpt>
      <trkpt lat="47.11209" lon="6.41896">
        <ele>727</ele>
        <time>2019-06-19T16:04:23Z</time>
      </trkpt>
      <trkpt lat="47.11189" lon="6.41895">
        <ele>727</ele>
        <time>2019-06-19T16:04:25Z</time>
      </trkpt>
      <trkpt lat="47.11171" lon="6.419">
        <ele>726</ele>
        <time>2019-06-19T16:04:27Z</time>
      </trkpt>
      <trkpt lat="47.11156" lon="6.419">
        <ele>726</ele>
        <time>2019-06-19T16:04:29Z</time>
      </trkpt>
      <trkpt lat="47.11139" lon="6.41901">
        <ele>726</ele>
        <time>2019-06-19T16:04:31Z</time>
      </trkpt>
      <trkpt lat="47.11123" lon="6.41903">
        <ele>726</ele>
        <time>2019-06-19T16:04:33Z</time>
      </trkpt>
      <trkpt lat="47.1111" lon="6.41903">
        <ele>726</ele>
        <time>2019-06-19T16:04:35Z</time>
      </trkpt>
      <trkpt lat="47.11095" lon="6.41902">
        <ele>726</ele>
        <time>2019-06-19T16:04:37Z</time>
      </trkpt>
      <trkpt lat="47.11084" lon="6.419">
        <ele>727</ele>
        <time>2019-06-19T16:04:39Z</time>
      </trkpt>
      <trkpt lat="47.11071" lon="6.419">
        <ele>728</ele>
        <time>2019-06-19T16:04:41Z</time>
      </trkpt>
      <trkpt lat="47.11061" lon="6.41896">
        <ele>729</ele>
        <time>2019-06-19T16:04:43Z</time>
      </trkpt>
      <trkpt lat="47.11047" lon="6.41884">
        <ele>729</ele>
        <time>2019-06-19T16:04:47Z</time>
      </trkpt>
      <trkpt lat="47.1104" lon="6.41874">
        <ele>730</ele>
        <time>2019-06-19T16:04:49Z</time>
      </trkpt>
      <trkpt lat="47.11027" lon="6.41852">
        <ele>730</ele>
        <time>2019-06-19T16:04:53Z</time>
      </trkpt>
      <trkpt lat="47.11019" lon="6.41831">
        <ele>731</ele>
        <time>2019-06-19T16:04:57Z</time>
      </trkpt>
      <trkpt lat="47.1101" lon="6.41822">
        <ele>731</ele>
        <time>2019-06-19T16:04:59Z</time>
      </trkpt>
      <trkpt lat="47.11011" lon="6.41809">
        <ele>731</ele>
        <time>2019-06-19T16:05:03Z</time>
      </trkpt>
      <trkpt lat="47.10999" lon="6.41791">
        <ele>735</ele>
        <time>2019-06-19T16:05:07Z</time>
      </trkpt>
      <trkpt lat="47.10986" lon="6.41777">
        <ele>735</ele>
        <time>2019-06-19T16:05:11Z</time>
      </trkpt>
      <trkpt lat="47.1097" lon="6.41767">
        <ele>735</ele>
        <time>2019-06-19T16:05:15Z</time>
      </trkpt>
      <trkpt lat="47.10956" lon="6.41756">
        <ele>736</ele>
        <time>2019-06-19T16:05:19Z</time>
      </trkpt>
      <trkpt lat="47.10942" lon="6.41745">
        <ele>738</ele>
        <time>2019-06-19T16:05:23Z</time>
      </trkpt>
      <trkpt lat="47.10924" lon="6.41737">
        <ele>739</ele>
        <time>2019-06-19T16:05:27Z</time>
      </trkpt>
      <trkpt lat="47.10915" lon="6.41733">
        <ele>741</ele>
        <time>2019-06-19T16:05:29Z</time>
      </trkpt>
      <trkpt lat="47.10906" lon="6.41729">
        <ele>741</ele>
        <time>2019-06-19T16:05:31Z</time>
      </trkpt>
      <trkpt lat="47.10897" lon="6.41724">
        <ele>741</ele>
        <time>2019-06-19T16:05:33Z</time>
      </trkpt>
      <trkpt lat="47.10888" lon="6.4172">
        <ele>741</ele>
        <time>2019-06-19T16:05:35Z</time>
      </trkpt>
      <trkpt lat="47.10872" lon="6.41715">
        <ele>741</ele>
        <time>2019-06-19T16:05:39Z</time>
      </trkpt>
      <trkpt lat="47.10855" lon="6.41714">
        <ele>742</ele>
        <time>2019-06-19T16:05:43Z</time>
      </trkpt>
      <trkpt lat="47.10838" lon="6.41717">
        <ele>742</ele>
        <time>2019-06-19T16:05:47Z</time>
      </trkpt>
      <trkpt lat="47.10821" lon="6.41723">
        <ele>744</ele>
        <time>2019-06-19T16:05:51Z</time>
      </trkpt>
      <trkpt lat="47.10805" lon="6.41735">
        <ele>744</ele>
        <time>2019-06-19T16:05:55Z</time>
      </trkpt>
      <trkpt lat="47.10793" lon="6.41749">
        <ele>745</ele>
        <time>2019-06-19T16:05:59Z</time>
      </trkpt>
      <trkpt lat="47.10776" lon="6.4177">
        <ele>746</ele>
        <time>2019-06-19T16:06:03Z</time>
      </trkpt>
      <trkpt lat="47.10767" lon="6.41786">
        <ele>746</ele>
        <time>2019-06-19T16:06:07Z</time>
      </trkpt>
      <trkpt lat="47.10758" lon="6.4179">
        <ele>746</ele>
        <time>2019-06-19T16:06:09Z</time>
      </trkpt>
      <trkpt lat="47.10743" lon="6.41785">
        <ele>751</ele>
        <time>2019-06-19T16:06:13Z</time>
      </trkpt>
      <trkpt lat="47.10731" lon="6.41777">
        <ele>751</ele>
        <time>2019-06-19T16:06:17Z</time>
      </trkpt>
      <trkpt lat="47.10722" lon="6.41767">
        <ele>751</ele>
        <time>2019-06-19T16:06:21Z</time>
      </trkpt>
      <trkpt lat="47.10714" lon="6.41758">
        <ele>752</ele>
        <time>2019-06-19T16:06:25Z</time>
      </trkpt>
      <trkpt lat="47.10704" lon="6.41748">
        <ele>753</ele>
        <time>2019-06-19T16:06:29Z</time>
      </trkpt>
      <trkpt lat="47.10696" lon="6.41743">
        <ele>754</ele>
        <time>2019-06-19T16:06:33Z</time>
      </trkpt>
      <trkpt lat="47.10688" lon="6.41736">
        <ele>754</ele>
        <time>2019-06-19T16:06:37Z</time>
      </trkpt>
      <trkpt lat="47.1068" lon="6.41729">
        <ele>755</ele>
        <time>2019-06-19T16:06:41Z</time>
      </trkpt>
      <trkpt lat="47.10669" lon="6.41723">
        <ele>755</ele>
        <time>2019-06-19T16:06:47Z</time>
      </trkpt>
      <trkpt lat="47.10657" lon="6.41725">
        <ele>760</ele>
        <time>2019-06-19T16:06:53Z</time>
      </trkpt>
      <trkpt lat="47.10648" lon="6.41719">
        <ele>760</ele>
        <time>2019-06-19T16:06:57Z</time>
      </trkpt>
      <trkpt lat="47.10637" lon="6.41713">
        <ele>760</ele>
        <time>2019-06-19T16:07:01Z</time>
      </trkpt>
      <trkpt lat="47.10624" lon="6.41706">
        <ele>761</ele>
        <time>2019-06-19T16:07:05Z</time>
      </trkpt>
      <trkpt lat="47.10609" lon="6.41698">
        <ele>762</ele>
        <time>2019-06-19T16:07:09Z</time>
      </trkpt>
      <trkpt lat="47.10595" lon="6.41691">
        <ele>762</ele>
        <time>2019-06-19T16:07:13Z</time>
      </trkpt>
      <trkpt lat="47.10582" lon="6.41684">
        <ele>764</ele>
        <time>2019-06-19T16:07:17Z</time>
      </trkpt>
      <trkpt lat="47.10565" lon="6.41676">
        <ele>764</ele>
        <time>2019-06-19T16:07:21Z</time>
      </trkpt>
      <trkpt lat="47.10556" lon="6.41672">
        <ele>764</ele>
        <time>2019-06-19T16:07:23Z</time>
      </trkpt>
      <trkpt lat="47.10547" lon="6.41668">
        <ele>764</ele>
        <time>2019-06-19T16:07:25Z</time>
      </trkpt>
      <trkpt lat="47.1054" lon="6.41657">
        <ele>766</ele>
        <time>2019-06-19T16:07:27Z</time>
      </trkpt>
      <trkpt lat="47.10527" lon="6.4164">
        <ele>766</ele>
        <time>2019-06-19T16:07:31Z</time>
      </trkpt>
      <trkpt lat="47.10521" lon="6.41626">
        <ele>766</ele>
        <time>2019-06-19T16:07:35Z</time>
      </trkpt>
      <trkpt lat="47.10511" lon="6.41603">
        <ele>766</ele>
        <time>2019-06-19T16:07:39Z</time>
      </trkpt>
      <trkpt lat="47.10504" lon="6.41587">
        <ele>767</ele>
        <time>2019-06-19T16:07:43Z</time>
      </trkpt>
      <trkpt lat="47.10493" lon="6.4157">
        <ele>768</ele>
        <time>2019-06-19T16:07:47Z</time>
      </trkpt>
      <trkpt lat="47.10484" lon="6.41551">
        <ele>769</ele>
        <time>2019-06-19T16:07:51Z</time>
      </trkpt>
      <trkpt lat="47.10475" lon="6.41533">
        <ele>769</ele>
        <time>2019-06-19T16:07:55Z</time>
      </trkpt>
      <trkpt lat="47.10463" lon="6.41517">
        <ele>769</ele>
        <time>2019-06-19T16:07:59Z</time>
      </trkpt>
      <trkpt lat="47.10447" lon="6.41505">
        <ele>769</ele>
        <time>2019-06-19T16:08:03Z</time>
      </trkpt>
      <trkpt lat="47.1043" lon="6.41495">
        <ele>770</ele>
        <time>2019-06-19T16:08:07Z</time>
      </trkpt>
      <trkpt lat="47.10414" lon="6.41494">
        <ele>771</ele>
        <time>2019-06-19T16:08:11Z</time>
      </trkpt>
      <trkpt lat="47.10397" lon="6.41494">
        <ele>772</ele>
        <time>2019-06-19T16:08:15Z</time>
      </trkpt>
      <trkpt lat="47.10382" lon="6.41494">
        <ele>773</ele>
        <time>2019-06-19T16:08:19Z</time>
      </trkpt>
      <trkpt lat="47.10365" lon="6.41493">
        <ele>773</ele>
        <time>2019-06-19T16:08:23Z</time>
      </trkpt>
      <trkpt lat="47.10348" lon="6.41492">
        <ele>774</ele>
        <time>2019-06-19T16:08:27Z</time>
      </trkpt>
      <trkpt lat="47.10331" lon="6.41491">
        <ele>774</ele>
        <time>2019-06-19T16:08:31Z</time>
      </trkpt>
      <trkpt lat="47.10313" lon="6.41489">
        <ele>775</ele>
        <time>2019-06-19T16:08:35Z</time>
      </trkpt>
      <trkpt lat="47.10296" lon="6.41484">
        <ele>775</ele>
        <time>2019-06-19T16:08:39Z</time>
      </trkpt>
      <trkpt lat="47.10281" lon="6.41475">
        <ele>775</ele>
        <time>2019-06-19T16:08:43Z</time>
      </trkpt>
      <trkpt lat="47.1027" lon="6.41454">
        <ele>775</ele>
        <time>2019-06-19T16:08:47Z</time>
      </trkpt>
      <trkpt lat="47.10264" lon="6.41443">
        <ele>775</ele>
        <time>2019-06-19T16:08:49Z</time>
      </trkpt>
      <trkpt lat="47.1026" lon="6.41426">
        <ele>775</ele>
        <time>2019-06-19T16:08:51Z</time>
      </trkpt>
      <trkpt lat="47.10253" lon="6.41401">
        <ele>778</ele>
        <time>2019-06-19T16:08:55Z</time>
      </trkpt>
      <trkpt lat="47.10246" lon="6.4139">
        <ele>774</ele>
        <time>2019-06-19T16:08:57Z</time>
      </trkpt>
      <trkpt lat="47.10235" lon="6.41376">
        <ele>775</ele>
        <time>2019-06-19T16:08:59Z</time>
      </trkpt>
      <trkpt lat="47.10225" lon="6.41366">
        <ele>775</ele>
        <time>2019-06-19T16:09:01Z</time>
      </trkpt>
      <trkpt lat="47.10211" lon="6.41356">
        <ele>774</ele>
        <time>2019-06-19T16:09:03Z</time>
      </trkpt>
      <trkpt lat="47.10197" lon="6.41346">
        <ele>774</ele>
        <time>2019-06-19T16:09:05Z</time>
      </trkpt>
      <trkpt lat="47.10182" lon="6.41337">
        <ele>773</ele>
        <time>2019-06-19T16:09:07Z</time>
      </trkpt>
      <trkpt lat="47.10157" lon="6.41329">
        <ele>773</ele>
        <time>2019-06-19T16:09:09Z</time>
      </trkpt>
      <trkpt lat="47.10146" lon="6.41318">
        <ele>774</ele>
        <time>2019-06-19T16:09:11Z</time>
      </trkpt>
      <trkpt lat="47.10132" lon="6.41309">
        <ele>775</ele>
        <time>2019-06-19T16:09:13Z</time>
      </trkpt>
      <trkpt lat="47.1012" lon="6.41306">
        <ele>774</ele>
        <time>2019-06-19T16:09:15Z</time>
      </trkpt>
      <trkpt lat="47.10112" lon="6.41317">
        <ele>773</ele>
        <time>2019-06-19T16:09:19Z</time>
      </trkpt>
      <trkpt lat="47.10106" lon="6.41336">
        <ele>765</ele>
        <time>2019-06-19T16:09:25Z</time>
      </trkpt>
      <trkpt lat="47.10104" lon="6.41357">
        <ele>764</ele>
        <time>2019-06-19T16:09:29Z</time>
      </trkpt>
      <trkpt lat="47.10103" lon="6.4137">
        <ele>763</ele>
        <time>2019-06-19T16:09:31Z</time>
      </trkpt>
      <trkpt lat="47.10104" lon="6.41385">
        <ele>762</ele>
        <time>2019-06-19T16:10:06Z</time>
      </trkpt>
      <trkpt lat="47.10106" lon="6.4141">
        <ele>760</ele>
        <time>2019-06-19T16:11:23Z</time>
      </trkpt>
      <trkpt lat="47.1011" lon="6.41423">
        <ele>757</ele>
        <time>2019-06-19T16:11:25Z</time>
      </trkpt>
      <trkpt lat="47.10114" lon="6.41438">
        <ele>757</ele>
        <time>2019-06-19T16:11:27Z</time>
      </trkpt>
      <trkpt lat="47.10119" lon="6.41455">
        <ele>756</ele>
        <time>2019-06-19T16:11:29Z</time>
      </trkpt>
      <trkpt lat="47.10122" lon="6.41471">
        <ele>756</ele>
        <time>2019-06-19T16:11:31Z</time>
      </trkpt>
      <trkpt lat="47.10125" lon="6.41489">
        <ele>756</ele>
        <time>2019-06-19T16:11:33Z</time>
      </trkpt>
      <trkpt lat="47.10126" lon="6.41506">
        <ele>754</ele>
        <time>2019-06-19T16:11:37Z</time>
      </trkpt>
      <trkpt lat="47.1013" lon="6.4152">
        <ele>754</ele>
        <time>2019-06-19T16:11:41Z</time>
      </trkpt>
      <trkpt lat="47.10132" lon="6.41539">
        <ele>754</ele>
        <time>2019-06-19T16:11:45Z</time>
      </trkpt>
      <trkpt lat="47.10133" lon="6.4156">
        <ele>755</ele>
        <time>2019-06-19T16:11:49Z</time>
      </trkpt>
      <trkpt lat="47.10133" lon="6.41581">
        <ele>755</ele>
        <time>2019-06-19T16:11:53Z</time>
      </trkpt>
      <trkpt lat="47.10136" lon="6.41597">
        <ele>754</ele>
        <time>2019-06-19T16:11:55Z</time>
      </trkpt>
      <trkpt lat="47.10138" lon="6.41621">
        <ele>753</ele>
        <time>2019-06-19T16:11:59Z</time>
      </trkpt>
      <trkpt lat="47.10141" lon="6.41635">
        <ele>753</ele>
        <time>2019-06-19T16:12:01Z</time>
      </trkpt>
      <trkpt lat="47.10147" lon="6.41657">
        <ele>754</ele>
        <time>2019-06-19T16:12:05Z</time>
      </trkpt>
      <trkpt lat="47.10153" lon="6.41676">
        <ele>753</ele>
        <time>2019-06-19T16:12:09Z</time>
      </trkpt>
      <trkpt lat="47.10158" lon="6.41695">
        <ele>752</ele>
        <time>2019-06-19T16:12:13Z</time>
      </trkpt>
      <trkpt lat="47.10162" lon="6.4172">
        <ele>751</ele>
        <time>2019-06-19T16:12:17Z</time>
      </trkpt>
      <trkpt lat="47.10166" lon="6.41744">
        <ele>751</ele>
        <time>2019-06-19T16:12:21Z</time>
      </trkpt>
      <trkpt lat="47.10172" lon="6.41767">
        <ele>753</ele>
        <time>2019-06-19T16:12:25Z</time>
      </trkpt>
      <trkpt lat="47.10175" lon="6.41781">
        <ele>754</ele>
        <time>2019-06-19T16:12:27Z</time>
      </trkpt>
      <trkpt lat="47.10177" lon="6.41794">
        <ele>753</ele>
        <time>2019-06-19T16:12:29Z</time>
      </trkpt>
      <trkpt lat="47.1018" lon="6.41808">
        <ele>753</ele>
        <time>2019-06-19T16:12:31Z</time>
      </trkpt>
      <trkpt lat="47.10183" lon="6.4183">
        <ele>751</ele>
        <time>2019-06-19T16:12:33Z</time>
      </trkpt>
      <trkpt lat="47.10192" lon="6.41838">
        <ele>751</ele>
        <time>2019-06-19T16:12:37Z</time>
      </trkpt>
      <trkpt lat="47.10206" lon="6.41854">
        <ele>751</ele>
        <time>2019-06-19T16:12:39Z</time>
      </trkpt>
      <trkpt lat="47.10226" lon="6.41866">
        <ele>752</ele>
        <time>2019-06-19T16:12:47Z</time>
      </trkpt>
      <trkpt lat="47.10249" lon="6.41878">
        <ele>753</ele>
        <time>2019-06-19T16:12:57Z</time>
      </trkpt>
      <trkpt lat="47.10267" lon="6.41887">
        <ele>758</ele>
        <time>2019-06-19T16:13:01Z</time>
      </trkpt>
      <trkpt lat="47.10274" lon="6.41896">
        <ele>758</ele>
        <time>2019-06-19T16:13:03Z</time>
      </trkpt>
      <trkpt lat="47.10285" lon="6.4192">
        <ele>756</ele>
        <time>2019-06-19T16:13:05Z</time>
      </trkpt>
      <trkpt lat="47.10292" lon="6.41933">
        <ele>756</ele>
        <time>2019-06-19T16:13:07Z</time>
      </trkpt>
      <trkpt lat="47.10297" lon="6.41948">
        <ele>756</ele>
        <time>2019-06-19T16:13:09Z</time>
      </trkpt>
      <trkpt lat="47.10296" lon="6.41961">
        <ele>756</ele>
        <time>2019-06-19T16:13:11Z</time>
      </trkpt>
      <trkpt lat="47.10296" lon="6.41976">
        <ele>756</ele>
        <time>2019-06-19T16:13:17Z</time>
      </trkpt>
      <trkpt lat="47.10289" lon="6.41988">
        <ele>756</ele>
        <time>2019-06-19T16:13:50Z</time>
      </trkpt>
      <trkpt lat="47.10275" lon="6.41987">
        <ele>757</ele>
        <time>2019-06-19T16:13:54Z</time>
      </trkpt>
      <trkpt lat="47.10261" lon="6.41985">
        <ele>758</ele>
        <time>2019-06-19T16:13:58Z</time>
      </trkpt>
      <trkpt lat="47.10246" lon="6.41989">
        <ele>759</ele>
        <time>2019-06-19T16:14:02Z</time>
      </trkpt>
      <trkpt lat="47.10232" lon="6.41989">
        <ele>758</ele>
        <time>2019-06-19T16:14:08Z</time>
      </trkpt>
      <trkpt lat="47.10222" lon="6.4199">
        <ele>758</ele>
        <time>2019-06-19T16:14:12Z</time>
      </trkpt>
      <trkpt lat="47.1021" lon="6.41991">
        <ele>757</ele>
        <time>2019-06-19T16:14:16Z</time>
      </trkpt>
      <trkpt lat="47.10201" lon="6.41991">
        <ele>757</ele>
        <time>2019-06-19T16:14:20Z</time>
      </trkpt>
      <trkpt lat="47.10189" lon="6.41982">
        <ele>757</ele>
        <time>2019-06-19T16:14:26Z</time>
      </trkpt>
      <trkpt lat="47.1018" lon="6.41963">
        <ele>756</ele>
        <time>2019-06-19T16:14:30Z</time>
      </trkpt>
      <trkpt lat="47.10171" lon="6.41956">
        <ele>755</ele>
        <time>2019-06-19T16:14:34Z</time>
      </trkpt>
      <trkpt lat="47.10162" lon="6.4196">
        <ele>754</ele>
        <time>2019-06-19T16:14:44Z</time>
      </trkpt>
      <trkpt lat="47.10147" lon="6.41958">
        <ele>754</ele>
        <time>2019-06-19T16:15:11Z</time>
      </trkpt>
      <trkpt lat="47.10132" lon="6.4195">
        <ele>753</ele>
        <time>2019-06-19T16:15:15Z</time>
      </trkpt>
      <trkpt lat="47.10117" lon="6.41944">
        <ele>753</ele>
        <time>2019-06-19T16:15:19Z</time>
      </trkpt>
      <trkpt lat="47.10103" lon="6.41941">
        <ele>752</ele>
        <time>2019-06-19T16:15:23Z</time>
      </trkpt>
      <trkpt lat="47.10093" lon="6.41941">
        <ele>752</ele>
        <time>2019-06-19T16:15:25Z</time>
      </trkpt>
      <trkpt lat="47.10078" lon="6.41941">
        <ele>752</ele>
        <time>2019-06-19T16:15:29Z</time>
      </trkpt>
      <trkpt lat="47.10066" lon="6.41944">
        <ele>752</ele>
        <time>2019-06-19T16:15:35Z</time>
      </trkpt>
      <trkpt lat="47.10042" lon="6.41945">
        <ele>752</ele>
        <time>2019-06-19T16:15:47Z</time>
      </trkpt>
      <trkpt lat="47.10034" lon="6.41936">
        <ele>752</ele>
        <time>2019-06-19T16:15:59Z</time>
      </trkpt>
      <trkpt lat="47.10024" lon="6.41944">
        <ele>752</ele>
        <time>2019-06-19T16:16:05Z</time>
      </trkpt>
      <trkpt lat="47.10013" lon="6.41937">
        <ele>751</ele>
        <time>2019-06-19T16:16:09Z</time>
      </trkpt>
      <trkpt lat="47.1" lon="6.41927">
        <ele>750</ele>
        <time>2019-06-19T16:16:13Z</time>
      </trkpt>
      <trkpt lat="47.09988" lon="6.41919">
        <ele>750</ele>
        <time>2019-06-19T16:16:17Z</time>
      </trkpt>
      <trkpt lat="47.09976" lon="6.41909">
        <ele>747</ele>
        <time>2019-06-19T16:16:21Z</time>
      </trkpt>
      <trkpt lat="47.09964" lon="6.41899">
        <ele>747</ele>
        <time>2019-06-19T16:16:25Z</time>
      </trkpt>
      <trkpt lat="47.09953" lon="6.41888">
        <ele>747</ele>
        <time>2019-06-19T16:16:29Z</time>
      </trkpt>
      <trkpt lat="47.09945" lon="6.41878">
        <ele>746</ele>
        <time>2019-06-19T16:16:33Z</time>
      </trkpt>
      <trkpt lat="47.09931" lon="6.41873">
        <ele>746</ele>
        <time>2019-06-19T16:16:37Z</time>
      </trkpt>
      <trkpt lat="47.09917" lon="6.41878">
        <ele>746</ele>
        <time>2019-06-19T16:16:41Z</time>
      </trkpt>
      <trkpt lat="47.09908" lon="6.41888">
        <ele>747</ele>
        <time>2019-06-19T16:16:45Z</time>
      </trkpt>
      <trkpt lat="47.09899" lon="6.41899">
        <ele>747</ele>
        <time>2019-06-19T16:16:51Z</time>
      </trkpt>
      <trkpt lat="47.0989" lon="6.41911">
        <ele>747</ele>
        <time>2019-06-19T16:16:57Z</time>
      </trkpt>
      <trkpt lat="47.09879" lon="6.41923">
        <ele>752</ele>
        <time>2019-06-19T16:17:03Z</time>
      </trkpt>
      <trkpt lat="47.09868" lon="6.41932">
        <ele>752</ele>
        <time>2019-06-19T16:17:09Z</time>
      </trkpt>
      <trkpt lat="47.09859" lon="6.41938">
        <ele>752</ele>
        <time>2019-06-19T16:17:13Z</time>
      </trkpt>
      <trkpt lat="47.09849" lon="6.41943">
        <ele>752</ele>
        <time>2019-06-19T16:17:19Z</time>
      </trkpt>
      <trkpt lat="47.0984" lon="6.41947">
        <ele>752</ele>
        <time>2019-06-19T16:17:23Z</time>
      </trkpt>
      <trkpt lat="47.09827" lon="6.41952">
        <ele>752</ele>
        <time>2019-06-19T16:17:27Z</time>
      </trkpt>
      <trkpt lat="47.09812" lon="6.41959">
        <ele>752</ele>
        <time>2019-06-19T16:17:31Z</time>
      </trkpt>
      <trkpt lat="47.09797" lon="6.41958">
        <ele>752</ele>
        <time>2019-06-19T16:17:35Z</time>
      </trkpt>
      <trkpt lat="47.09784" lon="6.41961">
        <ele>751</ele>
        <time>2019-06-19T16:17:39Z</time>
      </trkpt>
      <trkpt lat="47.09775" lon="6.41972">
        <ele>751</ele>
        <time>2019-06-19T16:17:43Z</time>
      </trkpt>
      <trkpt lat="47.09762" lon="6.41974">
        <ele>751</ele>
        <time>2019-06-19T16:17:59Z</time>
      </trkpt>
      <trkpt lat="47.09748" lon="6.41959">
        <ele>750</ele>
        <time>2019-06-19T16:18:07Z</time>
      </trkpt>
      <trkpt lat="47.09741" lon="6.41944">
        <ele>750</ele>
        <time>2019-06-19T16:18:11Z</time>
      </trkpt>
      <trkpt lat="47.09735" lon="6.41927">
        <ele>750</ele>
        <time>2019-06-19T16:18:15Z</time>
      </trkpt>
      <trkpt lat="47.09734" lon="6.41907">
        <ele>749</ele>
        <time>2019-06-19T16:18:19Z</time>
      </trkpt>
      <trkpt lat="47.09728" lon="6.4189">
        <ele>749</ele>
        <time>2019-06-19T16:18:23Z</time>
      </trkpt>
      <trkpt lat="47.0972" lon="6.41876">
        <ele>749</ele>
        <time>2019-06-19T16:18:27Z</time>
      </trkpt>
      <trkpt lat="47.09708" lon="6.41867">
        <ele>749</ele>
        <time>2019-06-19T16:18:31Z</time>
      </trkpt>
      <trkpt lat="47.09701" lon="6.4185">
        <ele>749</ele>
        <time>2019-06-19T16:18:35Z</time>
      </trkpt>
      <trkpt lat="47.09698" lon="6.41832">
        <ele>749</ele>
        <time>2019-06-19T16:18:39Z</time>
      </trkpt>
      <trkpt lat="47.09691" lon="6.41817">
        <ele>749</ele>
        <time>2019-06-19T16:18:43Z</time>
      </trkpt>
      <trkpt lat="47.09685" lon="6.41804">
        <ele>749</ele>
        <time>2019-06-19T16:18:49Z</time>
      </trkpt>
      <trkpt lat="47.09679" lon="6.41789">
        <ele>749</ele>
        <time>2019-06-19T16:18:53Z</time>
      </trkpt>
      <trkpt lat="47.09672" lon="6.41775">
        <ele>750</ele>
        <time>2019-06-19T16:18:57Z</time>
      </trkpt>
      <trkpt lat="47.09666" lon="6.4176">
        <ele>751</ele>
        <time>2019-06-19T16:19:01Z</time>
      </trkpt>
      <trkpt lat="47.09656" lon="6.41747">
        <ele>752</ele>
        <time>2019-06-19T16:19:05Z</time>
      </trkpt>
      <trkpt lat="47.0965" lon="6.4173">
        <ele>753</ele>
        <time>2019-06-19T16:19:09Z</time>
      </trkpt>
      <trkpt lat="47.09651" lon="6.41709">
        <ele>754</ele>
        <time>2019-06-19T16:19:13Z</time>
      </trkpt>
      <trkpt lat="47.09653" lon="6.41693">
        <ele>755</ele>
        <time>2019-06-19T16:19:17Z</time>
      </trkpt>
      <trkpt lat="47.09652" lon="6.41675">
        <ele>755</ele>
        <time>2019-06-19T16:19:21Z</time>
      </trkpt>
      <trkpt lat="47.09651" lon="6.41656">
        <ele>759</ele>
        <time>2019-06-19T16:19:25Z</time>
      </trkpt>
      <trkpt lat="47.09649" lon="6.41644">
        <ele>761</ele>
        <time>2019-06-19T16:19:29Z</time>
      </trkpt>
      <trkpt lat="47.09647" lon="6.41628">
        <ele>762</ele>
        <time>2019-06-19T16:19:33Z</time>
      </trkpt>
      <trkpt lat="47.09654" lon="6.41611">
        <ele>763</ele>
        <time>2019-06-19T16:19:37Z</time>
      </trkpt>
      <trkpt lat="47.09661" lon="6.41602">
        <ele>763</ele>
        <time>2019-06-19T16:19:39Z</time>
      </trkpt>
      <trkpt lat="47.09668" lon="6.41591">
        <ele>760</ele>
        <time>2019-06-19T16:19:41Z</time>
      </trkpt>
      <trkpt lat="47.09675" lon="6.41576">
        <ele>762</ele>
        <time>2019-06-19T16:19:43Z</time>
      </trkpt>
      <trkpt lat="47.0968" lon="6.41564">
        <ele>761</ele>
        <time>2019-06-19T16:19:45Z</time>
      </trkpt>
      <trkpt lat="47.09684" lon="6.41551">
        <ele>761</ele>
        <time>2019-06-19T16:19:47Z</time>
      </trkpt>
      <trkpt lat="47.09687" lon="6.41537">
        <ele>762</ele>
        <time>2019-06-19T16:19:49Z</time>
      </trkpt>
      <trkpt lat="47.09689" lon="6.41524">
        <ele>763</ele>
        <time>2019-06-19T16:19:51Z</time>
      </trkpt>
      <trkpt lat="47.09695" lon="6.41503">
        <ele>763</ele>
        <time>2019-06-19T16:19:55Z</time>
      </trkpt>
      <trkpt lat="47.09695" lon="6.41474">
        <ele>767</ele>
        <time>2019-06-19T16:19:59Z</time>
      </trkpt>
      <trkpt lat="47.09694" lon="6.41458">
        <ele>768</ele>
        <time>2019-06-19T16:20:01Z</time>
      </trkpt>
      <trkpt lat="47.09696" lon="6.41435">
        <ele>769</ele>
        <time>2019-06-19T16:20:05Z</time>
      </trkpt>
      <trkpt lat="47.09698" lon="6.41422">
        <ele>770</ele>
        <time>2019-06-19T16:20:07Z</time>
      </trkpt>
      <trkpt lat="47.097" lon="6.41407">
        <ele>772</ele>
        <time>2019-06-19T16:20:09Z</time>
      </trkpt>
      <trkpt lat="47.09703" lon="6.41393">
        <ele>771</ele>
        <time>2019-06-19T16:20:11Z</time>
      </trkpt>
      <trkpt lat="47.09706" lon="6.41379">
        <ele>771</ele>
        <time>2019-06-19T16:20:13Z</time>
      </trkpt>
      <trkpt lat="47.09709" lon="6.41361">
        <ele>771</ele>
        <time>2019-06-19T16:20:15Z</time>
      </trkpt>
      <trkpt lat="47.09721" lon="6.41334">
        <ele>768</ele>
        <time>2019-06-19T16:20:19Z</time>
      </trkpt>
      <trkpt lat="47.09726" lon="6.41322">
        <ele>769</ele>
        <time>2019-06-19T16:20:21Z</time>
      </trkpt>
      <trkpt lat="47.09731" lon="6.41309">
        <ele>769</ele>
        <time>2019-06-19T16:20:23Z</time>
      </trkpt>
      <trkpt lat="47.09737" lon="6.41296">
        <ele>770</ele>
        <time>2019-06-19T16:20:25Z</time>
      </trkpt>
      <trkpt lat="47.09748" lon="6.41275">
        <ele>770</ele>
        <time>2019-06-19T16:20:29Z</time>
      </trkpt>
      <trkpt lat="47.09755" lon="6.41264">
        <ele>763</ele>
        <time>2019-06-19T16:20:31Z</time>
      </trkpt>
      <trkpt lat="47.09762" lon="6.41255">
        <ele>763</ele>
        <time>2019-06-19T16:20:33Z</time>
      </trkpt>
      <trkpt lat="47.09776" lon="6.4124">
        <ele>766</ele>
        <time>2019-06-19T16:20:37Z</time>
      </trkpt>
      <trkpt lat="47.09784" lon="6.41231">
        <ele>766</ele>
        <time>2019-06-19T16:20:39Z</time>
      </trkpt>
      <trkpt lat="47.09773" lon="6.41218">
        <ele>767</ele>
        <time>2019-06-19T16:20:43Z</time>
      </trkpt>
      <trkpt lat="47.09764" lon="6.41224">
        <ele>767</ele>
        <time>2019-06-19T16:20:45Z</time>
      </trkpt>
      <trkpt lat="47.09754" lon="6.41229">
        <ele>767</ele>
        <time>2019-06-19T16:20:47Z</time>
      </trkpt>
      <trkpt lat="47.09744" lon="6.41232">
        <ele>773</ele>
        <time>2019-06-19T16:20:49Z</time>
      </trkpt>
      <trkpt lat="47.09733" lon="6.41236">
        <ele>774</ele>
        <time>2019-06-19T16:20:51Z</time>
      </trkpt>
      <trkpt lat="47.09716" lon="6.41246">
        <ele>776</ele>
        <time>2019-06-19T16:20:55Z</time>
      </trkpt>
      <trkpt lat="47.09704" lon="6.41251">
        <ele>775</ele>
        <time>2019-06-19T16:20:59Z</time>
      </trkpt>
      <trkpt lat="47.09688" lon="6.41251">
        <ele>778</ele>
        <time>2019-06-19T16:21:03Z</time>
      </trkpt>
      <trkpt lat="47.09678" lon="6.41248">
        <ele>782</ele>
        <time>2019-06-19T16:21:05Z</time>
      </trkpt>
      <trkpt lat="47.09678" lon="6.4123">
        <ele>781</ele>
        <time>2019-06-19T16:21:11Z</time>
      </trkpt>
      <trkpt lat="47.09683" lon="6.41219">
        <ele>781</ele>
        <time>2019-06-19T16:21:15Z</time>
      </trkpt>
      <trkpt lat="47.09686" lon="6.41202">
        <ele>781</ele>
        <time>2019-06-19T16:21:21Z</time>
      </trkpt>
      <trkpt lat="47.09692" lon="6.41187">
        <ele>781</ele>
        <time>2019-06-19T16:21:27Z</time>
      </trkpt>
      <trkpt lat="47.09698" lon="6.41174">
        <ele>781</ele>
        <time>2019-06-19T16:21:31Z</time>
      </trkpt>
      <trkpt lat="47.09702" lon="6.41161">
        <ele>782</ele>
        <time>2019-06-19T16:21:35Z</time>
      </trkpt>
      <trkpt lat="47.09712" lon="6.4115">
        <ele>781</ele>
        <time>2019-06-19T16:21:41Z</time>
      </trkpt>
      <trkpt lat="47.0972" lon="6.41142">
        <ele>780</ele>
        <time>2019-06-19T16:21:45Z</time>
      </trkpt>
      <trkpt lat="47.09732" lon="6.41108">
        <ele>779</ele>
        <time>2019-06-19T16:21:53Z</time>
      </trkpt>
      <trkpt lat="47.09737" lon="6.41087">
        <ele>778</ele>
        <time>2019-06-19T16:21:57Z</time>
      </trkpt>
      <trkpt lat="47.09738" lon="6.41054">
        <ele>778</ele>
        <time>2019-06-19T16:22:05Z</time>
      </trkpt>
      <trkpt lat="47.09736" lon="6.4103">
        <ele>779</ele>
        <time>2019-06-19T16:22:09Z</time>
      </trkpt>
      <trkpt lat="47.09734" lon="6.4101">
        <ele>779</ele>
        <time>2019-06-19T16:22:13Z</time>
      </trkpt>
      <trkpt lat="47.09733" lon="6.40993">
        <ele>780</ele>
        <time>2019-06-19T16:22:19Z</time>
      </trkpt>
      <trkpt lat="47.09731" lon="6.4098">
        <ele>781</ele>
        <time>2019-06-19T16:22:23Z</time>
      </trkpt>
      <trkpt lat="47.09731" lon="6.40961">
        <ele>782</ele>
        <time>2019-06-19T16:22:27Z</time>
      </trkpt>
      <trkpt lat="47.09732" lon="6.40942">
        <ele>783</ele>
        <time>2019-06-19T16:22:31Z</time>
      </trkpt>
      <trkpt lat="47.09735" lon="6.40923">
        <ele>783</ele>
        <time>2019-06-19T16:22:35Z</time>
      </trkpt>
      <trkpt lat="47.09738" lon="6.40906">
        <ele>787</ele>
        <time>2019-06-19T16:22:39Z</time>
      </trkpt>
      <trkpt lat="47.09742" lon="6.40887">
        <ele>789</ele>
        <time>2019-06-19T16:22:43Z</time>
      </trkpt>
      <trkpt lat="47.09747" lon="6.4087">
        <ele>790</ele>
        <time>2019-06-19T16:22:47Z</time>
      </trkpt>
      <trkpt lat="47.09749" lon="6.40852">
        <ele>791</ele>
        <time>2019-06-19T16:22:51Z</time>
      </trkpt>
      <trkpt lat="47.09753" lon="6.40832">
        <ele>791</ele>
        <time>2019-06-19T16:22:55Z</time>
      </trkpt>
      <trkpt lat="47.09757" lon="6.40815">
        <ele>791</ele>
        <time>2019-06-19T16:22:59Z</time>
      </trkpt>
      <trkpt lat="47.09761" lon="6.40801">
        <ele>792</ele>
        <time>2019-06-19T16:23:03Z</time>
      </trkpt>
      <trkpt lat="47.09766" lon="6.40787">
        <ele>793</ele>
        <time>2019-06-19T16:23:07Z</time>
      </trkpt>
      <trkpt lat="47.0977" lon="6.40772">
        <ele>794</ele>
        <time>2019-06-19T16:23:11Z</time>
      </trkpt>
      <trkpt lat="47.09772" lon="6.40757">
        <ele>795</ele>
        <time>2019-06-19T16:23:15Z</time>
      </trkpt>
      <trkpt lat="47.09772" lon="6.4074">
        <ele>798</ele>
        <time>2019-06-19T16:23:19Z</time>
      </trkpt>
      <trkpt lat="47.09768" lon="6.40708">
        <ele>799</ele>
        <time>2019-06-19T16:23:29Z</time>
      </trkpt>
      <trkpt lat="47.09764" lon="6.4069">
        <ele>801</ele>
        <time>2019-06-19T16:23:33Z</time>
      </trkpt>
      <trkpt lat="47.09763" lon="6.40673">
        <ele>803</ele>
        <time>2019-06-19T16:23:37Z</time>
      </trkpt>
      <trkpt lat="47.09762" lon="6.40658">
        <ele>805</ele>
        <time>2019-06-19T16:23:41Z</time>
      </trkpt>
      <trkpt lat="47.0976" lon="6.40643">
        <ele>805</ele>
        <time>2019-06-19T16:23:45Z</time>
      </trkpt>
      <trkpt lat="47.09754" lon="6.40624">
        <ele>806</ele>
        <time>2019-06-19T16:23:51Z</time>
      </trkpt>
      <trkpt lat="47.09735" lon="6.40605">
        <ele>818</ele>
        <time>2019-06-19T16:23:59Z</time>
      </trkpt>
      <trkpt lat="47.09727" lon="6.40598">
        <ele>818</ele>
        <time>2019-06-19T16:24:03Z</time>
      </trkpt>
      <trkpt lat="47.09717" lon="6.40604">
        <ele>819</ele>
        <time>2019-06-19T16:24:13Z</time>
      </trkpt>
      <trkpt lat="47.09707" lon="6.40615">
        <ele>819</ele>
        <time>2019-06-19T16:24:21Z</time>
      </trkpt>
      <trkpt lat="47.09695" lon="6.40619">
        <ele>820</ele>
        <time>2019-06-19T16:24:25Z</time>
      </trkpt>
      <trkpt lat="47.09684" lon="6.40625">
        <ele>820</ele>
        <time>2019-06-19T16:24:29Z</time>
      </trkpt>
      <trkpt lat="47.09672" lon="6.40628">
        <ele>820</ele>
        <time>2019-06-19T16:24:33Z</time>
      </trkpt>
      <trkpt lat="47.09662" lon="6.40633">
        <ele>827</ele>
        <time>2019-06-19T16:24:37Z</time>
      </trkpt>
      <trkpt lat="47.09652" lon="6.40637">
        <ele>827</ele>
        <time>2019-06-19T16:24:41Z</time>
      </trkpt>
      <trkpt lat="47.09643" lon="6.40641">
        <ele>827</ele>
        <time>2019-06-19T16:24:45Z</time>
      </trkpt>
      <trkpt lat="47.09633" lon="6.40645">
        <ele>827</ele>
        <time>2019-06-19T16:24:49Z</time>
      </trkpt>
      <trkpt lat="47.09624" lon="6.4065">
        <ele>828</ele>
        <time>2019-06-19T16:24:53Z</time>
      </trkpt>
      <trkpt lat="47.09613" lon="6.40656">
        <ele>828</ele>
        <time>2019-06-19T16:24:57Z</time>
      </trkpt>
      <trkpt lat="47.09602" lon="6.40662">
        <ele>829</ele>
        <time>2019-06-19T16:25:01Z</time>
      </trkpt>
      <trkpt lat="47.09592" lon="6.40668">
        <ele>827</ele>
        <time>2019-06-19T16:25:07Z</time>
      </trkpt>
      <trkpt lat="47.09581" lon="6.40672">
        <ele>829</ele>
        <time>2019-06-19T16:25:11Z</time>
      </trkpt>
      <trkpt lat="47.09568" lon="6.40667">
        <ele>830</ele>
        <time>2019-06-19T16:25:15Z</time>
      </trkpt>
      <trkpt lat="47.09561" lon="6.40654">
        <ele>834</ele>
        <time>2019-06-19T16:25:19Z</time>
      </trkpt>
      <trkpt lat="47.09558" lon="6.40637">
        <ele>835</ele>
        <time>2019-06-19T16:25:23Z</time>
      </trkpt>
      <trkpt lat="47.09557" lon="6.40621">
        <ele>836</ele>
        <time>2019-06-19T16:25:27Z</time>
      </trkpt>
      <trkpt lat="47.09558" lon="6.40607">
        <ele>837</ele>
        <time>2019-06-19T16:25:31Z</time>
      </trkpt>
      <trkpt lat="47.09559" lon="6.40593">
        <ele>837</ele>
        <time>2019-06-19T16:25:35Z</time>
      </trkpt>
      <trkpt lat="47.09558" lon="6.40575">
        <ele>843</ele>
        <time>2019-06-19T16:25:41Z</time>
      </trkpt>
      <trkpt lat="47.09558" lon="6.40558">
        <ele>844</ele>
        <time>2019-06-19T16:25:47Z</time>
      </trkpt>
      <trkpt lat="47.09557" lon="6.40543">
        <ele>845</ele>
        <time>2019-06-19T16:25:53Z</time>
      </trkpt>
      <trkpt lat="47.09552" lon="6.40528">
        <ele>846</ele>
        <time>2019-06-19T16:25:59Z</time>
      </trkpt>
      <trkpt lat="47.09546" lon="6.40517">
        <ele>846</ele>
        <time>2019-06-19T16:26:05Z</time>
      </trkpt>
      <trkpt lat="47.09532" lon="6.40494">
        <ele>852</ele>
        <time>2019-06-19T16:26:13Z</time>
      </trkpt>
      <trkpt lat="47.09514" lon="6.40482">
        <ele>853</ele>
        <time>2019-06-19T16:26:23Z</time>
      </trkpt>
      <trkpt lat="47.09503" lon="6.40476">
        <ele>853</ele>
        <time>2019-06-19T16:26:29Z</time>
      </trkpt>
      <trkpt lat="47.09496" lon="6.40464">
        <ele>857</ele>
        <time>2019-06-19T16:26:35Z</time>
      </trkpt>
      <trkpt lat="47.09489" lon="6.40454">
        <ele>857</ele>
        <time>2019-06-19T16:26:39Z</time>
      </trkpt>
      <trkpt lat="47.0948" lon="6.40444">
        <ele>857</ele>
        <time>2019-06-19T16:26:43Z</time>
      </trkpt>
      <trkpt lat="47.09483" lon="6.40427">
        <ele>857</ele>
        <time>2019-06-19T16:26:49Z</time>
      </trkpt>
      <trkpt lat="47.09486" lon="6.40413">
        <ele>859</ele>
        <time>2019-06-19T16:26:57Z</time>
      </trkpt>
      <trkpt lat="47.09469" lon="6.40394">
        <ele>861</ele>
        <time>2019-06-19T16:27:15Z</time>
      </trkpt>
      <trkpt lat="47.09457" lon="6.40388">
        <ele>862</ele>
        <time>2019-06-19T16:27:21Z</time>
      </trkpt>
      <trkpt lat="47.09448" lon="6.40378">
        <ele>862</ele>
        <time>2019-06-19T16:27:27Z</time>
      </trkpt>
      <trkpt lat="47.0944" lon="6.40368">
        <ele>863</ele>
        <time>2019-06-19T16:27:37Z</time>
      </trkpt>
      <trkpt lat="47.09435" lon="6.40357">
        <ele>864</ele>
        <time>2019-06-19T16:28:15Z</time>
      </trkpt>
      <trkpt lat="47.09432" lon="6.40343">
        <ele>864</ele>
        <time>2019-06-19T16:28:21Z</time>
      </trkpt>
      <trkpt lat="47.09427" lon="6.40328">
        <ele>867</ele>
        <time>2019-06-19T16:28:27Z</time>
      </trkpt>
      <trkpt lat="47.09422" lon="6.40315">
        <ele>867</ele>
        <time>2019-06-19T16:28:31Z</time>
      </trkpt>
      <trkpt lat="47.09418" lon="6.40303">
        <ele>868</ele>
        <time>2019-06-19T16:28:35Z</time>
      </trkpt>
      <trkpt lat="47.0941" lon="6.4029">
        <ele>870</ele>
        <time>2019-06-19T16:28:41Z</time>
      </trkpt>
      <trkpt lat="47.09403" lon="6.40281">
        <ele>871</ele>
        <time>2019-06-19T16:28:47Z</time>
      </trkpt>
      <trkpt lat="47.09393" lon="6.40272">
        <ele>871</ele>
        <time>2019-06-19T16:28:53Z</time>
      </trkpt>
      <trkpt lat="47.0938" lon="6.40262">
        <ele>871</ele>
        <time>2019-06-19T16:28:59Z</time>
      </trkpt>
      <trkpt lat="47.09368" lon="6.40252">
        <ele>870</ele>
        <time>2019-06-19T16:29:03Z</time>
      </trkpt>
      <trkpt lat="47.09358" lon="6.40239">
        <ele>878</ele>
        <time>2019-06-19T16:29:07Z</time>
      </trkpt>
      <trkpt lat="47.09348" lon="6.40229">
        <ele>878</ele>
        <time>2019-06-19T16:29:11Z</time>
      </trkpt>
      <trkpt lat="47.09338" lon="6.40216">
        <ele>879</ele>
        <time>2019-06-19T16:29:15Z</time>
      </trkpt>
      <trkpt lat="47.09329" lon="6.40203">
        <ele>873</ele>
        <time>2019-06-19T16:29:19Z</time>
      </trkpt>
      <trkpt lat="47.09318" lon="6.4019">
        <ele>874</ele>
        <time>2019-06-19T16:29:23Z</time>
      </trkpt>
      <trkpt lat="47.09308" lon="6.40178">
        <ele>874</ele>
        <time>2019-06-19T16:29:27Z</time>
      </trkpt>
      <trkpt lat="47.09296" lon="6.40162">
        <ele>881</ele>
        <time>2019-06-19T16:29:31Z</time>
      </trkpt>
      <trkpt lat="47.09288" lon="6.40149">
        <ele>880</ele>
        <time>2019-06-19T16:29:35Z</time>
      </trkpt>
      <trkpt lat="47.0928" lon="6.40131">
        <ele>880</ele>
        <time>2019-06-19T16:29:39Z</time>
      </trkpt>
      <trkpt lat="47.09271" lon="6.40113">
        <ele>881</ele>
        <time>2019-06-19T16:29:43Z</time>
      </trkpt>
      <trkpt lat="47.09259" lon="6.40096">
        <ele>880</ele>
        <time>2019-06-19T16:29:47Z</time>
      </trkpt>
      <trkpt lat="47.09254" lon="6.40084">
        <ele>879</ele>
        <time>2019-06-19T16:29:49Z</time>
      </trkpt>
      <trkpt lat="47.0925" lon="6.4007">
        <ele>884</ele>
        <time>2019-06-19T16:29:51Z</time>
      </trkpt>
      <trkpt lat="47.09246" lon="6.40054">
        <ele>876</ele>
        <time>2019-06-19T16:29:55Z</time>
      </trkpt>
      <trkpt lat="47.09243" lon="6.40037">
        <ele>877</ele>
        <time>2019-06-19T16:29:59Z</time>
      </trkpt>
      <trkpt lat="47.09241" lon="6.40019">
        <ele>879</ele>
        <time>2019-06-19T16:30:03Z</time>
      </trkpt>
      <trkpt lat="47.09238" lon="6.40006">
        <ele>880</ele>
        <time>2019-06-19T16:30:05Z</time>
      </trkpt>
      <trkpt lat="47.09234" lon="6.39978">
        <ele>881</ele>
        <time>2019-06-19T16:30:09Z</time>
      </trkpt>
      <trkpt lat="47.09231" lon="6.39963">
        <ele>880</ele>
        <time>2019-06-19T16:30:11Z</time>
      </trkpt>
      <trkpt lat="47.09227" lon="6.39948">
        <ele>880</ele>
        <time>2019-06-19T16:30:13Z</time>
      </trkpt>
      <trkpt lat="47.09223" lon="6.39925">
        <ele>881</ele>
        <time>2019-06-19T16:30:15Z</time>
      </trkpt>
      <trkpt lat="47.09216" lon="6.39907">
        <ele>882</ele>
        <time>2019-06-19T16:30:17Z</time>
      </trkpt>
      <trkpt lat="47.09209" lon="6.39888">
        <ele>882</ele>
        <time>2019-06-19T16:30:19Z</time>
      </trkpt>
      <trkpt lat="47.09202" lon="6.39867">
        <ele>882</ele>
        <time>2019-06-19T16:30:21Z</time>
      </trkpt>
      <trkpt lat="47.09196" lon="6.39846">
        <ele>882</ele>
        <time>2019-06-19T16:30:23Z</time>
      </trkpt>
      <trkpt lat="47.09193" lon="6.39825">
        <ele>887</ele>
        <time>2019-06-19T16:30:25Z</time>
      </trkpt>
      <trkpt lat="47.09192" lon="6.39806">
        <ele>889</ele>
        <time>2019-06-19T16:30:27Z</time>
      </trkpt>
      <trkpt lat="47.09189" lon="6.39786">
        <ele>891</ele>
        <time>2019-06-19T16:30:29Z</time>
      </trkpt>
      <trkpt lat="47.09191" lon="6.39765">
        <ele>892</ele>
        <time>2019-06-19T16:30:31Z</time>
      </trkpt>
      <trkpt lat="47.09189" lon="6.3975">
        <ele>892</ele>
        <time>2019-06-19T16:30:33Z</time>
      </trkpt>
      <trkpt lat="47.09187" lon="6.3972">
        <ele>897</ele>
        <time>2019-06-19T16:30:37Z</time>
      </trkpt>
      <trkpt lat="47.09187" lon="6.39703">
        <ele>898</ele>
        <time>2019-06-19T16:30:39Z</time>
      </trkpt>
      <trkpt lat="47.09186" lon="6.3968">
        <ele>898</ele>
        <time>2019-06-19T16:30:43Z</time>
      </trkpt>
      <trkpt lat="47.09187" lon="6.3966">
        <ele>898</ele>
        <time>2019-06-19T16:30:45Z</time>
      </trkpt>
      <trkpt lat="47.09183" lon="6.39638">
        <ele>899</ele>
        <time>2019-06-19T16:30:47Z</time>
      </trkpt>
      <trkpt lat="47.09179" lon="6.39624">
        <ele>899</ele>
        <time>2019-06-19T16:30:49Z</time>
      </trkpt>
      <trkpt lat="47.09177" lon="6.3961">
        <ele>898</ele>
        <time>2019-06-19T16:30:51Z</time>
      </trkpt>
      <trkpt lat="47.09174" lon="6.39595">
        <ele>897</ele>
        <time>2019-06-19T16:30:53Z</time>
      </trkpt>
      <trkpt lat="47.09169" lon="6.39581">
        <ele>895</ele>
        <time>2019-06-19T16:30:55Z</time>
      </trkpt>
      <trkpt lat="47.09171" lon="6.39563">
        <ele>898</ele>
        <time>2019-06-19T16:30:57Z</time>
      </trkpt>
      <trkpt lat="47.09174" lon="6.3955">
        <ele>899</ele>
        <time>2019-06-19T16:30:59Z</time>
      </trkpt>
      <trkpt lat="47.09174" lon="6.39537">
        <ele>899</ele>
        <time>2019-06-19T16:31:01Z</time>
      </trkpt>
      <trkpt lat="47.09174" lon="6.39521">
        <ele>898</ele>
        <time>2019-06-19T16:31:03Z</time>
      </trkpt>
      <trkpt lat="47.09173" lon="6.39487">
        <ele>898</ele>
        <time>2019-06-19T16:31:07Z</time>
      </trkpt>
      <trkpt lat="47.09171" lon="6.39457">
        <ele>901</ele>
        <time>2019-06-19T16:31:11Z</time>
      </trkpt>
      <trkpt lat="47.09168" lon="6.39439">
        <ele>900</ele>
        <time>2019-06-19T16:31:15Z</time>
      </trkpt>
      <trkpt lat="47.09168" lon="6.39422">
        <ele>898</ele>
        <time>2019-06-19T16:31:19Z</time>
      </trkpt>
      <trkpt lat="47.09165" lon="6.39401">
        <ele>900</ele>
        <time>2019-06-19T16:31:23Z</time>
      </trkpt>
      <trkpt lat="47.0916" lon="6.39386">
        <ele>901</ele>
        <time>2019-06-19T16:31:27Z</time>
      </trkpt>
      <trkpt lat="47.09154" lon="6.39362">
        <ele>901</ele>
        <time>2019-06-19T16:31:31Z</time>
      </trkpt>
      <trkpt lat="47.09154" lon="6.39322">
        <ele>899</ele>
        <time>2019-06-19T16:31:37Z</time>
      </trkpt>
      <trkpt lat="47.09156" lon="6.39308">
        <ele>900</ele>
        <time>2019-06-19T16:31:39Z</time>
      </trkpt>
      <trkpt lat="47.09159" lon="6.39287">
        <ele>901</ele>
        <time>2019-06-19T16:31:43Z</time>
      </trkpt>
      <trkpt lat="47.09161" lon="6.39269">
        <ele>899</ele>
        <time>2019-06-19T16:31:47Z</time>
      </trkpt>
      <trkpt lat="47.09161" lon="6.39249">
        <ele>897</ele>
        <time>2019-06-19T16:31:51Z</time>
      </trkpt>
      <trkpt lat="47.09156" lon="6.39225">
        <ele>902</ele>
        <time>2019-06-19T16:31:55Z</time>
      </trkpt>
      <trkpt lat="47.0915" lon="6.39201">
        <ele>903</ele>
        <time>2019-06-19T16:31:59Z</time>
      </trkpt>
      <trkpt lat="47.09148" lon="6.39186">
        <ele>903</ele>
        <time>2019-06-19T16:32:01Z</time>
      </trkpt>
      <trkpt lat="47.09148" lon="6.39172">
        <ele>903</ele>
        <time>2019-06-19T16:32:03Z</time>
      </trkpt>
      <trkpt lat="47.09148" lon="6.39157">
        <ele>904</ele>
        <time>2019-06-19T16:32:05Z</time>
      </trkpt>
      <trkpt lat="47.09148" lon="6.39143">
        <ele>905</ele>
        <time>2019-06-19T16:32:07Z</time>
      </trkpt>
      <trkpt lat="47.09149" lon="6.39129">
        <ele>906</ele>
        <time>2019-06-19T16:32:09Z</time>
      </trkpt>
      <trkpt lat="47.0915" lon="6.39104">
        <ele>907</ele>
        <time>2019-06-19T16:32:13Z</time>
      </trkpt>
      <trkpt lat="47.09151" lon="6.39083">
        <ele>907</ele>
        <time>2019-06-19T16:32:17Z</time>
      </trkpt>
      <trkpt lat="47.09151" lon="6.39062">
        <ele>908</ele>
        <time>2019-06-19T16:32:21Z</time>
      </trkpt>
      <trkpt lat="47.0915" lon="6.39042">
        <ele>908</ele>
        <time>2019-06-19T16:32:25Z</time>
      </trkpt>
      <trkpt lat="47.09149" lon="6.3902">
        <ele>908</ele>
        <time>2019-06-19T16:32:29Z</time>
      </trkpt>
      <trkpt lat="47.09147" lon="6.39001">
        <ele>908</ele>
        <time>2019-06-19T16:32:33Z</time>
      </trkpt>
      <trkpt lat="47.09147" lon="6.38981">
        <ele>907</ele>
        <time>2019-06-19T16:32:37Z</time>
      </trkpt>
      <trkpt lat="47.09147" lon="6.38957">
        <ele>906</ele>
        <time>2019-06-19T16:32:41Z</time>
      </trkpt>
      <trkpt lat="47.09147" lon="6.38936">
        <ele>906</ele>
        <time>2019-06-19T16:32:45Z</time>
      </trkpt>
      <trkpt lat="47.09148" lon="6.38915">
        <ele>903</ele>
        <time>2019-06-19T16:32:49Z</time>
      </trkpt>
      <trkpt lat="47.09149" lon="6.38894">
        <ele>903</ele>
        <time>2019-06-19T16:32:53Z</time>
      </trkpt>
      <trkpt lat="47.09149" lon="6.38872">
        <ele>902</ele>
        <time>2019-06-19T16:32:57Z</time>
      </trkpt>
      <trkpt lat="47.0915" lon="6.3885">
        <ele>901</ele>
        <time>2019-06-19T16:33:01Z</time>
      </trkpt>
      <trkpt lat="47.09153" lon="6.38826">
        <ele>899</ele>
        <time>2019-06-19T16:33:05Z</time>
      </trkpt>
      <trkpt lat="47.09156" lon="6.38788">
        <ele>898</ele>
        <time>2019-06-19T16:33:11Z</time>
      </trkpt>
      <trkpt lat="47.09156" lon="6.38764">
        <ele>898</ele>
        <time>2019-06-19T16:33:15Z</time>
      </trkpt>
      <trkpt lat="47.09154" lon="6.38735">
        <ele>896</ele>
        <time>2019-06-19T16:33:19Z</time>
      </trkpt>
      <trkpt lat="47.09151" lon="6.38709">
        <ele>895</ele>
        <time>2019-06-19T16:33:23Z</time>
      </trkpt>
      <trkpt lat="47.09148" lon="6.38696">
        <ele>895</ele>
        <time>2019-06-19T16:33:25Z</time>
      </trkpt>
      <trkpt lat="47.09145" lon="6.38682">
        <ele>895</ele>
        <time>2019-06-19T16:33:27Z</time>
      </trkpt>
      <trkpt lat="47.09141" lon="6.38668">
        <ele>895</ele>
        <time>2019-06-19T16:33:29Z</time>
      </trkpt>
      <trkpt lat="47.09137" lon="6.38655">
        <ele>893</ele>
        <time>2019-06-19T16:33:31Z</time>
      </trkpt>
      <trkpt lat="47.09132" lon="6.38642">
        <ele>893</ele>
        <time>2019-06-19T16:33:33Z</time>
      </trkpt>
      <trkpt lat="47.09127" lon="6.38629">
        <ele>893</ele>
        <time>2019-06-19T16:33:35Z</time>
      </trkpt>
      <trkpt lat="47.09121" lon="6.38616">
        <ele>893</ele>
        <time>2019-06-19T16:33:37Z</time>
      </trkpt>
      <trkpt lat="47.09116" lon="6.38604">
        <ele>892</ele>
        <time>2019-06-19T16:33:39Z</time>
      </trkpt>
      <trkpt lat="47.09112" lon="6.38591">
        <ele>892</ele>
        <time>2019-06-19T16:33:41Z</time>
      </trkpt>
      <trkpt lat="47.09103" lon="6.38567">
        <ele>892</ele>
        <time>2019-06-19T16:33:45Z</time>
      </trkpt>
      <trkpt lat="47.09094" lon="6.38546">
        <ele>892</ele>
        <time>2019-06-19T16:33:49Z</time>
      </trkpt>
      <trkpt lat="47.0909" lon="6.38532">
        <ele>893</ele>
        <time>2019-06-19T16:33:51Z</time>
      </trkpt>
      <trkpt lat="47.09084" lon="6.38512">
        <ele>892</ele>
        <time>2019-06-19T16:33:55Z</time>
      </trkpt>
      <trkpt lat="47.09077" lon="6.38494">
        <ele>893</ele>
        <time>2019-06-19T16:33:59Z</time>
      </trkpt>
      <trkpt lat="47.09069" lon="6.38474">
        <ele>894</ele>
        <time>2019-06-19T16:34:03Z</time>
      </trkpt>
      <trkpt lat="47.09069" lon="6.38456">
        <ele>895</ele>
        <time>2019-06-19T16:34:07Z</time>
      </trkpt>
      <trkpt lat="47.09085" lon="6.38454">
        <ele>895</ele>
        <time>2019-06-19T16:34:11Z</time>
      </trkpt>
      <trkpt lat="47.09094" lon="6.38453">
        <ele>895</ele>
        <time>2019-06-19T16:34:13Z</time>
      </trkpt>
      <trkpt lat="47.09112" lon="6.38449">
        <ele>895</ele>
        <time>2019-06-19T16:34:17Z</time>
      </trkpt>
      <trkpt lat="47.09121" lon="6.38448">
        <ele>895</ele>
        <time>2019-06-19T16:34:19Z</time>
      </trkpt>
      <trkpt lat="47.09132" lon="6.38453">
        <ele>895</ele>
        <time>2019-06-19T16:34:21Z</time>
      </trkpt>
      <trkpt lat="47.09142" lon="6.38451">
        <ele>895</ele>
        <time>2019-06-19T16:34:23Z</time>
      </trkpt>
      <trkpt lat="47.09152" lon="6.3845">
        <ele>895</ele>
        <time>2019-06-19T16:34:25Z</time>
      </trkpt>
      <trkpt lat="47.09166" lon="6.38452">
        <ele>896</ele>
        <time>2019-06-19T16:34:29Z</time>
      </trkpt>
      <trkpt lat="47.09182" lon="6.3846">
        <ele>902</ele>
        <time>2019-06-19T16:34:33Z</time>
      </trkpt>
      <trkpt lat="47.09195" lon="6.38466">
        <ele>903</ele>
        <time>2019-06-19T16:34:37Z</time>
      </trkpt>
      <trkpt lat="47.09208" lon="6.38475">
        <ele>904</ele>
        <time>2019-06-19T16:34:41Z</time>
      </trkpt>
      <trkpt lat="47.09222" lon="6.3848">
        <ele>906</ele>
        <time>2019-06-19T16:34:45Z</time>
      </trkpt>
      <trkpt lat="47.09234" lon="6.38478">
        <ele>907</ele>
        <time>2019-06-19T16:34:49Z</time>
      </trkpt>
      <trkpt lat="47.09243" lon="6.38473">
        <ele>908</ele>
        <time>2019-06-19T16:34:53Z</time>
      </trkpt>
      <trkpt lat="47.0925" lon="6.38461">
        <ele>915</ele>
        <time>2019-06-19T16:34:57Z</time>
      </trkpt>
      <trkpt lat="47.09252" lon="6.38445">
        <ele>915</ele>
        <time>2019-06-19T16:35:01Z</time>
      </trkpt>
      <trkpt lat="47.09256" lon="6.38432">
        <ele>915</ele>
        <time>2019-06-19T16:35:05Z</time>
      </trkpt>
      <trkpt lat="47.09261" lon="6.38402">
        <ele>916</ele>
        <time>2019-06-19T16:35:15Z</time>
      </trkpt>
      <trkpt lat="47.09262" lon="6.38384">
        <ele>917</ele>
        <time>2019-06-19T16:35:21Z</time>
      </trkpt>
      <trkpt lat="47.09264" lon="6.38371">
        <ele>918</ele>
        <time>2019-06-19T16:35:29Z</time>
      </trkpt>
      <trkpt lat="47.09267" lon="6.38357">
        <ele>918</ele>
        <time>2019-06-19T16:35:37Z</time>
      </trkpt>
      <trkpt lat="47.09273" lon="6.38346">
        <ele>918</ele>
        <time>2019-06-19T16:35:43Z</time>
      </trkpt>
      <trkpt lat="47.09279" lon="6.38334">
        <ele>918</ele>
        <time>2019-06-19T16:35:49Z</time>
      </trkpt>
      <trkpt lat="47.09282" lon="6.38318">
        <ele>921</ele>
        <time>2019-06-19T16:35:53Z</time>
      </trkpt>
      <trkpt lat="47.09287" lon="6.38297">
        <ele>922</ele>
        <time>2019-06-19T16:35:57Z</time>
      </trkpt>
      <trkpt lat="47.09299" lon="6.38276">
        <ele>924</ele>
        <time>2019-06-19T16:36:01Z</time>
      </trkpt>
      <trkpt lat="47.09316" lon="6.38276">
        <ele>925</ele>
        <time>2019-06-19T16:36:03Z</time>
      </trkpt>
      <trkpt lat="47.09329" lon="6.3828">
        <ele>925</ele>
        <time>2019-06-19T16:36:05Z</time>
      </trkpt>
      <trkpt lat="47.09355" lon="6.38289">
        <ele>926</ele>
        <time>2019-06-19T16:36:07Z</time>
      </trkpt>
      <trkpt lat="47.09366" lon="6.38298">
        <ele>925</ele>
        <time>2019-06-19T16:36:09Z</time>
      </trkpt>
      <trkpt lat="47.09377" lon="6.38308">
        <ele>924</ele>
        <time>2019-06-19T16:36:11Z</time>
      </trkpt>
      <trkpt lat="47.09388" lon="6.38309">
        <ele>924</ele>
        <time>2019-06-19T16:36:13Z</time>
      </trkpt>
      <trkpt lat="47.09402" lon="6.38302">
        <ele>924</ele>
        <time>2019-06-19T16:36:15Z</time>
      </trkpt>
      <trkpt lat="47.09412" lon="6.38305">
        <ele>923</ele>
        <time>2019-06-19T16:36:17Z</time>
      </trkpt>
      <trkpt lat="47.0942" lon="6.383">
        <ele>924</ele>
        <time>2019-06-19T16:36:19Z</time>
      </trkpt>
      <trkpt lat="47.09435" lon="6.38294">
        <ele>924</ele>
        <time>2019-06-19T16:36:21Z</time>
      </trkpt>
      <trkpt lat="47.09449" lon="6.38284">
        <ele>925</ele>
        <time>2019-06-19T16:36:25Z</time>
      </trkpt>
      <trkpt lat="47.09458" lon="6.38288">
        <ele>925</ele>
        <time>2019-06-19T16:36:27Z</time>
      </trkpt>
      <trkpt lat="47.09479" lon="6.38295">
        <ele>924</ele>
        <time>2019-06-19T16:36:31Z</time>
      </trkpt>
      <trkpt lat="47.09495" lon="6.383">
        <ele>923</ele>
        <time>2019-06-19T16:36:35Z</time>
      </trkpt>
      <trkpt lat="47.0951" lon="6.38301">
        <ele>919</ele>
        <time>2019-06-19T16:36:39Z</time>
      </trkpt>
      <trkpt lat="47.09526" lon="6.38302">
        <ele>918</ele>
        <time>2019-06-19T16:36:43Z</time>
      </trkpt>
      <trkpt lat="47.09541" lon="6.38292">
        <ele>918</ele>
        <time>2019-06-19T16:36:47Z</time>
      </trkpt>
      <trkpt lat="47.09553" lon="6.38285">
        <ele>917</ele>
        <time>2019-06-19T16:36:51Z</time>
      </trkpt>
      <trkpt lat="47.09561" lon="6.3827">
        <ele>917</ele>
        <time>2019-06-19T16:36:55Z</time>
      </trkpt>
      <trkpt lat="47.09563" lon="6.38253">
        <ele>917</ele>
        <time>2019-06-19T16:36:59Z</time>
      </trkpt>
      <trkpt lat="47.09561" lon="6.38238">
        <ele>919</ele>
        <time>2019-06-19T16:37:03Z</time>
      </trkpt>
      <trkpt lat="47.09556" lon="6.3822">
        <ele>920</ele>
        <time>2019-06-19T16:37:07Z</time>
      </trkpt>
      <trkpt lat="47.09554" lon="6.38207">
        <ele>920</ele>
        <time>2019-06-19T16:37:09Z</time>
      </trkpt>
      <trkpt lat="47.09549" lon="6.38184">
        <ele>920</ele>
        <time>2019-06-19T16:37:13Z</time>
      </trkpt>
      <trkpt lat="47.09541" lon="6.38169">
        <ele>922</ele>
        <time>2019-06-19T16:37:17Z</time>
      </trkpt>
      <trkpt lat="47.09534" lon="6.38154">
        <ele>919</ele>
        <time>2019-06-19T16:37:21Z</time>
      </trkpt>
      <trkpt lat="47.09526" lon="6.38137">
        <ele>919</ele>
        <time>2019-06-19T16:37:25Z</time>
      </trkpt>
      <trkpt lat="47.0952" lon="6.38121">
        <ele>918</ele>
        <time>2019-06-19T16:37:31Z</time>
      </trkpt>
      <trkpt lat="47.09506" lon="6.38105">
        <ele>919</ele>
        <time>2019-06-19T16:37:37Z</time>
      </trkpt>
      <trkpt lat="47.09493" lon="6.3807">
        <ele>924</ele>
        <time>2019-06-19T16:37:43Z</time>
      </trkpt>
      <trkpt lat="47.09486" lon="6.38057">
        <ele>924</ele>
        <time>2019-06-19T16:37:45Z</time>
      </trkpt>
      <trkpt lat="47.09478" lon="6.38046">
        <ele>924</ele>
        <time>2019-06-19T16:37:47Z</time>
      </trkpt>
      <trkpt lat="47.09472" lon="6.38036">
        <ele>924</ele>
        <time>2019-06-19T16:37:49Z</time>
      </trkpt>
      <trkpt lat="47.09464" lon="6.38026">
        <ele>924</ele>
        <time>2019-06-19T16:37:55Z</time>
      </trkpt>
      <trkpt lat="47.09456" lon="6.38022">
        <ele>925</ele>
        <time>2019-06-19T16:38:07Z</time>
      </trkpt>
      <trkpt lat="47.09456" lon="6.38007">
        <ele>924</ele>
        <time>2019-06-19T16:38:13Z</time>
      </trkpt>
      <trkpt lat="47.09462" lon="6.37995">
        <ele>917</ele>
        <time>2019-06-19T16:38:17Z</time>
      </trkpt>
      <trkpt lat="47.09471" lon="6.37984">
        <ele>915</ele>
        <time>2019-06-19T16:38:21Z</time>
      </trkpt>
      <trkpt lat="47.09481" lon="6.37977">
        <ele>913</ele>
        <time>2019-06-19T16:38:23Z</time>
      </trkpt>
      <trkpt lat="47.09496" lon="6.37971">
        <ele>912</ele>
        <time>2019-06-19T16:38:27Z</time>
      </trkpt>
      <trkpt lat="47.09506" lon="6.37967">
        <ele>897</ele>
        <time>2019-06-19T16:38:29Z</time>
      </trkpt>
      <trkpt lat="47.09523" lon="6.37956">
        <ele>894</ele>
        <time>2019-06-19T16:38:33Z</time>
      </trkpt>
      <trkpt lat="47.09533" lon="6.3795">
        <ele>893</ele>
        <time>2019-06-19T16:38:35Z</time>
      </trkpt>
      <trkpt lat="47.09545" lon="6.37938">
        <ele>890</ele>
        <time>2019-06-19T16:38:39Z</time>
      </trkpt>
      <trkpt lat="47.09554" lon="6.37934">
        <ele>888</ele>
        <time>2019-06-19T16:38:41Z</time>
      </trkpt>
      <trkpt lat="47.09567" lon="6.37924">
        <ele>885</ele>
        <time>2019-06-19T16:38:45Z</time>
      </trkpt>
      <trkpt lat="47.09576" lon="6.37918">
        <ele>881</ele>
        <time>2019-06-19T16:38:47Z</time>
      </trkpt>
      <trkpt lat="47.09586" lon="6.37919">
        <ele>878</ele>
        <time>2019-06-19T16:38:51Z</time>
      </trkpt>
      <trkpt lat="47.09596" lon="6.37935">
        <ele>880</ele>
        <time>2019-06-19T16:38:55Z</time>
      </trkpt>
      <trkpt lat="47.09612" lon="6.37937">
        <ele>881</ele>
        <time>2019-06-19T16:38:59Z</time>
      </trkpt>
      <trkpt lat="47.0963" lon="6.37931">
        <ele>881</ele>
        <time>2019-06-19T16:39:03Z</time>
      </trkpt>
      <trkpt lat="47.09645" lon="6.37927">
        <ele>882</ele>
        <time>2019-06-19T16:39:07Z</time>
      </trkpt>
      <trkpt lat="47.09657" lon="6.37923">
        <ele>883</ele>
        <time>2019-06-19T16:39:11Z</time>
      </trkpt>
      <trkpt lat="47.09667" lon="6.37935">
        <ele>889</ele>
        <time>2019-06-19T16:39:15Z</time>
      </trkpt>
      <trkpt lat="47.09673" lon="6.37953">
        <ele>890</ele>
        <time>2019-06-19T16:39:17Z</time>
      </trkpt>
      <trkpt lat="47.09677" lon="6.37966">
        <ele>889</ele>
        <time>2019-06-19T16:39:19Z</time>
      </trkpt>
      <trkpt lat="47.09681" lon="6.37979">
        <ele>888</ele>
        <time>2019-06-19T16:39:21Z</time>
      </trkpt>
      <trkpt lat="47.09688" lon="6.38005">
        <ele>884</ele>
        <time>2019-06-19T16:39:25Z</time>
      </trkpt>
      <trkpt lat="47.09693" lon="6.38018">
        <ele>885</ele>
        <time>2019-06-19T16:39:27Z</time>
      </trkpt>
      <trkpt lat="47.09698" lon="6.38033">
        <ele>886</ele>
        <time>2019-06-19T16:39:29Z</time>
      </trkpt>
      <trkpt lat="47.09702" lon="6.38049">
        <ele>886</ele>
        <time>2019-06-19T16:39:31Z</time>
      </trkpt>
      <trkpt lat="47.09708" lon="6.38067">
        <ele>886</ele>
        <time>2019-06-19T16:39:33Z</time>
      </trkpt>
      <trkpt lat="47.09712" lon="6.38082">
        <ele>886</ele>
        <time>2019-06-19T16:39:35Z</time>
      </trkpt>
      <trkpt lat="47.09716" lon="6.38098">
        <ele>884</ele>
        <time>2019-06-19T16:39:37Z</time>
      </trkpt>
      <trkpt lat="47.09724" lon="6.38112">
        <ele>885</ele>
        <time>2019-06-19T16:39:39Z</time>
      </trkpt>
      <trkpt lat="47.09729" lon="6.38128">
        <ele>884</ele>
        <time>2019-06-19T16:39:41Z</time>
      </trkpt>
      <trkpt lat="47.09732" lon="6.38145">
        <ele>884</ele>
        <time>2019-06-19T16:39:43Z</time>
      </trkpt>
      <trkpt lat="47.09735" lon="6.38162">
        <ele>883</ele>
        <time>2019-06-19T16:39:45Z</time>
      </trkpt>
      <trkpt lat="47.0974" lon="6.38178">
        <ele>883</ele>
        <time>2019-06-19T16:39:47Z</time>
      </trkpt>
      <trkpt lat="47.09745" lon="6.38193">
        <ele>882</ele>
        <time>2019-06-19T16:39:49Z</time>
      </trkpt>
      <trkpt lat="47.09752" lon="6.3821">
        <ele>889</ele>
        <time>2019-06-19T16:39:51Z</time>
      </trkpt>
      <trkpt lat="47.09757" lon="6.38227">
        <ele>888</ele>
        <time>2019-06-19T16:39:53Z</time>
      </trkpt>
      <trkpt lat="47.09759" lon="6.38252">
        <ele>882</ele>
        <time>2019-06-19T16:39:57Z</time>
      </trkpt>
      <trkpt lat="47.09764" lon="6.38272">
        <ele>885</ele>
        <time>2019-06-19T16:39:59Z</time>
      </trkpt>
      <trkpt lat="47.09769" lon="6.38287">
        <ele>886</ele>
        <time>2019-06-19T16:40:01Z</time>
      </trkpt>
      <trkpt lat="47.09773" lon="6.38307">
        <ele>885</ele>
        <time>2019-06-19T16:40:03Z</time>
      </trkpt>
      <trkpt lat="47.09778" lon="6.3832">
        <ele>885</ele>
        <time>2019-06-19T16:40:05Z</time>
      </trkpt>
      <trkpt lat="47.09782" lon="6.38334">
        <ele>882</ele>
        <time>2019-06-19T16:40:07Z</time>
      </trkpt>
      <trkpt lat="47.09786" lon="6.38347">
        <ele>882</ele>
        <time>2019-06-19T16:40:09Z</time>
      </trkpt>
      <trkpt lat="47.0979" lon="6.3836">
        <ele>883</ele>
        <time>2019-06-19T16:40:11Z</time>
      </trkpt>
      <trkpt lat="47.09791" lon="6.38373">
        <ele>882</ele>
        <time>2019-06-19T16:40:13Z</time>
      </trkpt>
      <trkpt lat="47.09796" lon="6.38394">
        <ele>882</ele>
        <time>2019-06-19T16:40:17Z</time>
      </trkpt>
      <trkpt lat="47.09802" lon="6.38409">
        <ele>882</ele>
        <time>2019-06-19T16:40:43Z</time>
      </trkpt>
      <trkpt lat="47.09808" lon="6.38423">
        <ele>880</ele>
        <time>2019-06-19T16:40:47Z</time>
      </trkpt>
      <trkpt lat="47.09815" lon="6.38442">
        <ele>879</ele>
        <time>2019-06-19T16:40:51Z</time>
      </trkpt>
      <trkpt lat="47.09823" lon="6.3846">
        <ele>879</ele>
        <time>2019-06-19T16:40:55Z</time>
      </trkpt>
      <trkpt lat="47.0983" lon="6.38487">
        <ele>878</ele>
        <time>2019-06-19T16:40:59Z</time>
      </trkpt>
      <trkpt lat="47.09832" lon="6.385">
        <ele>878</ele>
        <time>2019-06-19T16:41:01Z</time>
      </trkpt>
      <trkpt lat="47.09838" lon="6.38513">
        <ele>882</ele>
        <time>2019-06-19T16:41:03Z</time>
      </trkpt>
      <trkpt lat="47.09846" lon="6.38548">
        <ele>884</ele>
        <time>2019-06-19T16:41:09Z</time>
      </trkpt>
      <trkpt lat="47.0985" lon="6.38573">
        <ele>882</ele>
        <time>2019-06-19T16:41:13Z</time>
      </trkpt>
      <trkpt lat="47.09852" lon="6.38598">
        <ele>880</ele>
        <time>2019-06-19T16:41:17Z</time>
      </trkpt>
      <trkpt lat="47.09853" lon="6.38622">
        <ele>881</ele>
        <time>2019-06-19T16:41:21Z</time>
      </trkpt>
      <trkpt lat="47.09856" lon="6.38643">
        <ele>881</ele>
        <time>2019-06-19T16:41:25Z</time>
      </trkpt>
      <trkpt lat="47.09861" lon="6.38664">
        <ele>880</ele>
        <time>2019-06-19T16:41:29Z</time>
      </trkpt>
      <trkpt lat="47.09863" lon="6.38689">
        <ele>881</ele>
        <time>2019-06-19T16:41:33Z</time>
      </trkpt>
      <trkpt lat="47.09866" lon="6.38713">
        <ele>882</ele>
        <time>2019-06-19T16:41:37Z</time>
      </trkpt>
      <trkpt lat="47.0987" lon="6.38733">
        <ele>882</ele>
        <time>2019-06-19T16:41:41Z</time>
      </trkpt>
      <trkpt lat="47.09874" lon="6.38754">
        <ele>882</ele>
        <time>2019-06-19T16:41:45Z</time>
      </trkpt>
      <trkpt lat="47.09876" lon="6.38772">
        <ele>883</ele>
        <time>2019-06-19T16:41:49Z</time>
      </trkpt>
      <trkpt lat="47.0988" lon="6.38785">
        <ele>883</ele>
        <time>2019-06-19T16:41:53Z</time>
      </trkpt>
      <trkpt lat="47.09886" lon="6.38798">
        <ele>883</ele>
        <time>2019-06-19T16:42:49Z</time>
      </trkpt>
      <trkpt lat="47.09888" lon="6.38821">
        <ele>883</ele>
        <time>2019-06-19T16:42:53Z</time>
      </trkpt>
      <trkpt lat="47.0989" lon="6.38835">
        <ele>884</ele>
        <time>2019-06-19T16:42:55Z</time>
      </trkpt>
      <trkpt lat="47.09894" lon="6.38851">
        <ele>884</ele>
        <time>2019-06-19T16:42:57Z</time>
      </trkpt>
      <trkpt lat="47.09899" lon="6.38865">
        <ele>884</ele>
        <time>2019-06-19T16:42:59Z</time>
      </trkpt>
      <trkpt lat="47.09901" lon="6.3888">
        <ele>884</ele>
        <time>2019-06-19T16:43:01Z</time>
      </trkpt>
      <trkpt lat="47.09907" lon="6.38904">
        <ele>884</ele>
        <time>2019-06-19T16:43:05Z</time>
      </trkpt>
      <trkpt lat="47.09911" lon="6.38928">
        <ele>884</ele>
        <time>2019-06-19T16:43:09Z</time>
      </trkpt>
      <trkpt lat="47.09915" lon="6.38948">
        <ele>884</ele>
        <time>2019-06-19T16:43:13Z</time>
      </trkpt>
      <trkpt lat="47.09917" lon="6.38965">
        <ele>883</ele>
        <time>2019-06-19T16:43:23Z</time>
      </trkpt>
      <trkpt lat="47.0992" lon="6.38989">
        <ele>883</ele>
        <time>2019-06-19T16:43:27Z</time>
      </trkpt>
      <trkpt lat="47.09922" lon="6.39003">
        <ele>882</ele>
        <time>2019-06-19T16:43:29Z</time>
      </trkpt>
      <trkpt lat="47.09925" lon="6.39021">
        <ele>881</ele>
        <time>2019-06-19T16:43:31Z</time>
      </trkpt>
      <trkpt lat="47.09928" lon="6.39048">
        <ele>880</ele>
        <time>2019-06-19T16:43:35Z</time>
      </trkpt>
      <trkpt lat="47.09929" lon="6.39061">
        <ele>879</ele>
        <time>2019-06-19T16:43:37Z</time>
      </trkpt>
      <trkpt lat="47.0993" lon="6.39075">
        <ele>878</ele>
        <time>2019-06-19T16:43:39Z</time>
      </trkpt>
      <trkpt lat="47.0993" lon="6.3909">
        <ele>877</ele>
        <time>2019-06-19T16:43:41Z</time>
      </trkpt>
      <trkpt lat="47.09934" lon="6.39117">
        <ele>877</ele>
        <time>2019-06-19T16:43:43Z</time>
      </trkpt>
      <trkpt lat="47.09935" lon="6.39135">
        <ele>877</ele>
        <time>2019-06-19T16:43:45Z</time>
      </trkpt>
      <trkpt lat="47.09937" lon="6.39154">
        <ele>877</ele>
        <time>2019-06-19T16:43:47Z</time>
      </trkpt>
      <trkpt lat="47.09935" lon="6.39182">
        <ele>876</ele>
        <time>2019-06-19T16:43:51Z</time>
      </trkpt>
      <trkpt lat="47.09936" lon="6.3921">
        <ele>876</ele>
        <time>2019-06-19T16:43:53Z</time>
      </trkpt>
      <trkpt lat="47.09935" lon="6.39229">
        <ele>876</ele>
        <time>2019-06-19T16:43:55Z</time>
      </trkpt>
      <trkpt lat="47.09932" lon="6.39249">
        <ele>875</ele>
        <time>2019-06-19T16:43:57Z</time>
      </trkpt>
      <trkpt lat="47.09933" lon="6.39273">
        <ele>873</ele>
        <time>2019-06-19T16:43:59Z</time>
      </trkpt>
      <trkpt lat="47.09933" lon="6.39295">
        <ele>872</ele>
        <time>2019-06-19T16:44:01Z</time>
      </trkpt>
      <trkpt lat="47.09934" lon="6.39318">
        <ele>871</ele>
        <time>2019-06-19T16:44:03Z</time>
      </trkpt>
      <trkpt lat="47.09934" lon="6.39341">
        <ele>867</ele>
        <time>2019-06-19T16:44:05Z</time>
      </trkpt>
      <trkpt lat="47.09934" lon="6.39359">
        <ele>866</ele>
        <time>2019-06-19T16:44:07Z</time>
      </trkpt>
      <trkpt lat="47.09934" lon="6.39377">
        <ele>865</ele>
        <time>2019-06-19T16:44:09Z</time>
      </trkpt>
      <trkpt lat="47.09938" lon="6.39402">
        <ele>863</ele>
        <time>2019-06-19T16:44:11Z</time>
      </trkpt>
      <trkpt lat="47.0994" lon="6.39417">
        <ele>863</ele>
        <time>2019-06-19T16:44:13Z</time>
      </trkpt>
      <trkpt lat="47.09942" lon="6.39432">
        <ele>859</ele>
        <time>2019-06-19T16:44:15Z</time>
      </trkpt>
      <trkpt lat="47.09943" lon="6.39446">
        <ele>858</ele>
        <time>2019-06-19T16:44:19Z</time>
      </trkpt>
      <trkpt lat="47.09946" lon="6.39468">
        <ele>858</ele>
        <time>2019-06-19T16:44:23Z</time>
      </trkpt>
      <trkpt lat="47.0995" lon="6.3949">
        <ele>857</ele>
        <time>2019-06-19T16:44:27Z</time>
      </trkpt>
      <trkpt lat="47.09949" lon="6.39509">
        <ele>851</ele>
        <time>2019-06-19T16:44:31Z</time>
      </trkpt>
      <trkpt lat="47.09946" lon="6.39521">
        <ele>851</ele>
        <time>2019-06-19T16:44:37Z</time>
      </trkpt>
      <trkpt lat="47.09944" lon="6.39536">
        <ele>850</ele>
        <time>2019-06-19T16:44:49Z</time>
      </trkpt>
      <trkpt lat="47.09948" lon="6.39551">
        <ele>850</ele>
        <time>2019-06-19T16:44:53Z</time>
      </trkpt>
      <trkpt lat="47.09951" lon="6.39566">
        <ele>849</ele>
        <time>2019-06-19T16:44:57Z</time>
      </trkpt>
      <trkpt lat="47.09951" lon="6.39582">
        <ele>848</ele>
        <time>2019-06-19T16:45:01Z</time>
      </trkpt>
      <trkpt lat="47.09955" lon="6.39596">
        <ele>844</ele>
        <time>2019-06-19T16:45:05Z</time>
      </trkpt>
      <trkpt lat="47.09963" lon="6.39617">
        <ele>845</ele>
        <time>2019-06-19T16:45:09Z</time>
      </trkpt>
      <trkpt lat="47.09969" lon="6.39638">
        <ele>844</ele>
        <time>2019-06-19T16:45:13Z</time>
      </trkpt>
      <trkpt lat="47.09975" lon="6.39668">
        <ele>841</ele>
        <time>2019-06-19T16:45:15Z</time>
      </trkpt>
      <trkpt lat="47.09981" lon="6.39689">
        <ele>841</ele>
        <time>2019-06-19T16:45:19Z</time>
      </trkpt>
      <trkpt lat="47.09985" lon="6.39704">
        <ele>840</ele>
        <time>2019-06-19T16:45:21Z</time>
      </trkpt>
      <trkpt lat="47.09988" lon="6.39719">
        <ele>839</ele>
        <time>2019-06-19T16:45:23Z</time>
      </trkpt>
      <trkpt lat="47.09993" lon="6.39731">
        <ele>839</ele>
        <time>2019-06-19T16:45:27Z</time>
      </trkpt>
      <trkpt lat="47.09999" lon="6.39746">
        <ele>837</ele>
        <time>2019-06-19T16:45:31Z</time>
      </trkpt>
      <trkpt lat="47.10004" lon="6.39766">
        <ele>837</ele>
        <time>2019-06-19T16:45:35Z</time>
      </trkpt>
      <trkpt lat="47.10011" lon="6.39784">
        <ele>836</ele>
        <time>2019-06-19T16:45:39Z</time>
      </trkpt>
      <trkpt lat="47.10017" lon="6.39809">
        <ele>834</ele>
        <time>2019-06-19T16:45:43Z</time>
      </trkpt>
      <trkpt lat="47.10021" lon="6.39829">
        <ele>833</ele>
        <time>2019-06-19T16:45:45Z</time>
      </trkpt>
      <trkpt lat="47.10027" lon="6.39847">
        <ele>830</ele>
        <time>2019-06-19T16:45:47Z</time>
      </trkpt>
      <trkpt lat="47.10031" lon="6.3986">
        <ele>830</ele>
        <time>2019-06-19T16:45:49Z</time>
      </trkpt>
      <trkpt lat="47.10039" lon="6.39873">
        <ele>830</ele>
        <time>2019-06-19T16:45:55Z</time>
      </trkpt>
      <trkpt lat="47.10053" lon="6.39886">
        <ele>830</ele>
        <time>2019-06-19T16:45:59Z</time>
      </trkpt>
      <trkpt lat="47.10061" lon="6.39901">
        <ele>829</ele>
        <time>2019-06-19T16:46:03Z</time>
      </trkpt>
      <trkpt lat="47.10066" lon="6.39915">
        <ele>829</ele>
        <time>2019-06-19T16:46:07Z</time>
      </trkpt>
      <trkpt lat="47.10075" lon="6.39927">
        <ele>827</ele>
        <time>2019-06-19T16:46:09Z</time>
      </trkpt>
      <trkpt lat="47.10084" lon="6.39941">
        <ele>826</ele>
        <time>2019-06-19T16:46:13Z</time>
      </trkpt>
      <trkpt lat="47.10089" lon="6.39953">
        <ele>826</ele>
        <time>2019-06-19T16:46:15Z</time>
      </trkpt>
      <trkpt lat="47.10096" lon="6.39967">
        <ele>825</ele>
        <time>2019-06-19T16:46:17Z</time>
      </trkpt>
      <trkpt lat="47.10103" lon="6.39978">
        <ele>824</ele>
        <time>2019-06-19T16:46:19Z</time>
      </trkpt>
      <trkpt lat="47.10111" lon="6.39989">
        <ele>824</ele>
        <time>2019-06-19T16:46:21Z</time>
      </trkpt>
      <trkpt lat="47.10119" lon="6.4">
        <ele>825</ele>
        <time>2019-06-19T16:46:23Z</time>
      </trkpt>
      <trkpt lat="47.10128" lon="6.40023">
        <ele>821</ele>
        <time>2019-06-19T16:46:27Z</time>
      </trkpt>
      <trkpt lat="47.10132" lon="6.40036">
        <ele>821</ele>
        <time>2019-06-19T16:46:29Z</time>
      </trkpt>
      <trkpt lat="47.10139" lon="6.40058">
        <ele>821</ele>
        <time>2019-06-19T16:46:33Z</time>
      </trkpt>
      <trkpt lat="47.10144" lon="6.4007">
        <ele>820</ele>
        <time>2019-06-19T16:46:35Z</time>
      </trkpt>
      <trkpt lat="47.10151" lon="6.4008">
        <ele>820</ele>
        <time>2019-06-19T16:46:37Z</time>
      </trkpt>
      <trkpt lat="47.10164" lon="6.40106">
        <ele>818</ele>
        <time>2019-06-19T16:46:39Z</time>
      </trkpt>
      <trkpt lat="47.1017" lon="6.40121">
        <ele>820</ele>
        <time>2019-06-19T16:46:41Z</time>
      </trkpt>
      <trkpt lat="47.10178" lon="6.4013">
        <ele>820</ele>
        <time>2019-06-19T16:46:43Z</time>
      </trkpt>
      <trkpt lat="47.10182" lon="6.40144">
        <ele>819</ele>
        <time>2019-06-19T16:46:47Z</time>
      </trkpt>
      <trkpt lat="47.1019" lon="6.40155">
        <ele>819</ele>
        <time>2019-06-19T16:46:49Z</time>
      </trkpt>
      <trkpt lat="47.10198" lon="6.40167">
        <ele>817</ele>
        <time>2019-06-19T16:46:51Z</time>
      </trkpt>
      <trkpt lat="47.1021" lon="6.40184">
        <ele>817</ele>
        <time>2019-06-19T16:46:55Z</time>
      </trkpt>
      <trkpt lat="47.10228" lon="6.40203">
        <ele>817</ele>
        <time>2019-06-19T16:46:57Z</time>
      </trkpt>
      <trkpt lat="47.10238" lon="6.4021">
        <ele>817</ele>
        <time>2019-06-19T16:46:59Z</time>
      </trkpt>
      <trkpt lat="47.10249" lon="6.40214">
        <ele>817</ele>
        <time>2019-06-19T16:47:01Z</time>
      </trkpt>
      <trkpt lat="47.10266" lon="6.40223">
        <ele>818</ele>
        <time>2019-06-19T16:47:05Z</time>
      </trkpt>
      <trkpt lat="47.1028" lon="6.40212">
        <ele>818</ele>
        <time>2019-06-19T16:47:09Z</time>
      </trkpt>
      <trkpt lat="47.10288" lon="6.40204">
        <ele>818</ele>
        <time>2019-06-19T16:47:11Z</time>
      </trkpt>
      <trkpt lat="47.10295" lon="6.40195">
        <ele>818</ele>
        <time>2019-06-19T16:47:13Z</time>
      </trkpt>
      <trkpt lat="47.10298" lon="6.40179">
        <ele>818</ele>
        <time>2019-06-19T16:47:15Z</time>
      </trkpt>
      <trkpt lat="47.10305" lon="6.40162">
        <ele>819</ele>
        <time>2019-06-19T16:47:17Z</time>
      </trkpt>
      <trkpt lat="47.10314" lon="6.40146">
        <ele>818</ele>
        <time>2019-06-19T16:47:19Z</time>
      </trkpt>
      <trkpt lat="47.10323" lon="6.40133">
        <ele>819</ele>
        <time>2019-06-19T16:47:21Z</time>
      </trkpt>
      <trkpt lat="47.10329" lon="6.40117">
        <ele>819</ele>
        <time>2019-06-19T16:47:23Z</time>
      </trkpt>
      <trkpt lat="47.10336" lon="6.40102">
        <ele>815</ele>
        <time>2019-06-19T16:47:25Z</time>
      </trkpt>
      <trkpt lat="47.10342" lon="6.40086">
        <ele>816</ele>
        <time>2019-06-19T16:47:27Z</time>
      </trkpt>
      <trkpt lat="47.10347" lon="6.4007">
        <ele>814</ele>
        <time>2019-06-19T16:47:29Z</time>
      </trkpt>
      <trkpt lat="47.10351" lon="6.40052">
        <ele>813</ele>
        <time>2019-06-19T16:47:31Z</time>
      </trkpt>
      <trkpt lat="47.10354" lon="6.40034">
        <ele>813</ele>
        <time>2019-06-19T16:47:33Z</time>
      </trkpt>
      <trkpt lat="47.10359" lon="6.40016">
        <ele>813</ele>
        <time>2019-06-19T16:47:35Z</time>
      </trkpt>
      <trkpt lat="47.10363" lon="6.40001">
        <ele>812</ele>
        <time>2019-06-19T16:47:37Z</time>
      </trkpt>
      <trkpt lat="47.10367" lon="6.39987">
        <ele>811</ele>
        <time>2019-06-19T16:47:39Z</time>
      </trkpt>
      <trkpt lat="47.10372" lon="6.39963">
        <ele>811</ele>
        <time>2019-06-19T16:47:43Z</time>
      </trkpt>
      <trkpt lat="47.10377" lon="6.3994">
        <ele>811</ele>
        <time>2019-06-19T16:47:47Z</time>
      </trkpt>
      <trkpt lat="47.10379" lon="6.39923">
        <ele>811</ele>
        <time>2019-06-19T16:47:49Z</time>
      </trkpt>
      <trkpt lat="47.1038" lon="6.39903">
        <ele>809</ele>
        <time>2019-06-19T16:47:51Z</time>
      </trkpt>
      <trkpt lat="47.10383" lon="6.39884">
        <ele>808</ele>
        <time>2019-06-19T16:47:53Z</time>
      </trkpt>
      <trkpt lat="47.10389" lon="6.39859">
        <ele>808</ele>
        <time>2019-06-19T16:47:55Z</time>
      </trkpt>
      <trkpt lat="47.10393" lon="6.39837">
        <ele>807</ele>
        <time>2019-06-19T16:47:57Z</time>
      </trkpt>
      <trkpt lat="47.10399" lon="6.39814">
        <ele>804</ele>
        <time>2019-06-19T16:47:59Z</time>
      </trkpt>
      <trkpt lat="47.10408" lon="6.39788">
        <ele>803</ele>
        <time>2019-06-19T16:48:01Z</time>
      </trkpt>
      <trkpt lat="47.10414" lon="6.39757">
        <ele>801</ele>
        <time>2019-06-19T16:48:03Z</time>
      </trkpt>
      <trkpt lat="47.10418" lon="6.39729">
        <ele>798</ele>
        <time>2019-06-19T16:48:05Z</time>
      </trkpt>
      <trkpt lat="47.10421" lon="6.39703">
        <ele>797</ele>
        <time>2019-06-19T16:48:07Z</time>
      </trkpt>
      <trkpt lat="47.10427" lon="6.39679">
        <ele>795</ele>
        <time>2019-06-19T16:48:09Z</time>
      </trkpt>
      <trkpt lat="47.10435" lon="6.39658">
        <ele>793</ele>
        <time>2019-06-19T16:48:11Z</time>
      </trkpt>
      <trkpt lat="47.10444" lon="6.39645">
        <ele>793</ele>
        <time>2019-06-19T16:48:13Z</time>
      </trkpt>
      <trkpt lat="47.10457" lon="6.39634">
        <ele>793</ele>
        <time>2019-06-19T16:48:15Z</time>
      </trkpt>
      <trkpt lat="47.10469" lon="6.39624">
        <ele>793</ele>
        <time>2019-06-19T16:48:17Z</time>
      </trkpt>
      <trkpt lat="47.10481" lon="6.3961">
        <ele>793</ele>
        <time>2019-06-19T16:48:19Z</time>
      </trkpt>
      <trkpt lat="47.1049" lon="6.39598">
        <ele>792</ele>
        <time>2019-06-19T16:48:21Z</time>
      </trkpt>
      <trkpt lat="47.10501" lon="6.39585">
        <ele>792</ele>
        <time>2019-06-19T16:48:23Z</time>
      </trkpt>
      <trkpt lat="47.10508" lon="6.39574">
        <ele>791</ele>
        <time>2019-06-19T16:48:25Z</time>
      </trkpt>
      <trkpt lat="47.10517" lon="6.39548">
        <ele>791</ele>
        <time>2019-06-19T16:48:29Z</time>
      </trkpt>
      <trkpt lat="47.10524" lon="6.39531">
        <ele>791</ele>
        <time>2019-06-19T16:48:31Z</time>
      </trkpt>
      <trkpt lat="47.10531" lon="6.39512">
        <ele>791</ele>
        <time>2019-06-19T16:48:33Z</time>
      </trkpt>
      <trkpt lat="47.10536" lon="6.39494">
        <ele>791</ele>
        <time>2019-06-19T16:48:35Z</time>
      </trkpt>
      <trkpt lat="47.10541" lon="6.39477">
        <ele>791</ele>
        <time>2019-06-19T16:48:37Z</time>
      </trkpt>
      <trkpt lat="47.10545" lon="6.3946">
        <ele>791</ele>
        <time>2019-06-19T16:48:39Z</time>
      </trkpt>
      <trkpt lat="47.10549" lon="6.39444">
        <ele>791</ele>
        <time>2019-06-19T16:48:41Z</time>
      </trkpt>
      <trkpt lat="47.10555" lon="6.39429">
        <ele>791</ele>
        <time>2019-06-19T16:48:43Z</time>
      </trkpt>
      <trkpt lat="47.1056" lon="6.39412">
        <ele>793</ele>
        <time>2019-06-19T16:48:45Z</time>
      </trkpt>
      <trkpt lat="47.10564" lon="6.39395">
        <ele>793</ele>
        <time>2019-06-19T16:48:47Z</time>
      </trkpt>
      <trkpt lat="47.10568" lon="6.39377">
        <ele>793</ele>
        <time>2019-06-19T16:48:49Z</time>
      </trkpt>
      <trkpt lat="47.10572" lon="6.3936">
        <ele>793</ele>
        <time>2019-06-19T16:48:51Z</time>
      </trkpt>
      <trkpt lat="47.10575" lon="6.39343">
        <ele>792</ele>
        <time>2019-06-19T16:48:53Z</time>
      </trkpt>
      <trkpt lat="47.10584" lon="6.39325">
        <ele>790</ele>
        <time>2019-06-19T16:48:55Z</time>
      </trkpt>
      <trkpt lat="47.10587" lon="6.39301">
        <ele>790</ele>
        <time>2019-06-19T16:48:57Z</time>
      </trkpt>
      <trkpt lat="47.10592" lon="6.39283">
        <ele>791</ele>
        <time>2019-06-19T16:48:59Z</time>
      </trkpt>
      <trkpt lat="47.10602" lon="6.39264">
        <ele>792</ele>
        <time>2019-06-19T16:49:01Z</time>
      </trkpt>
      <trkpt lat="47.10607" lon="6.39247">
        <ele>794</ele>
        <time>2019-06-19T16:49:03Z</time>
      </trkpt>
      <trkpt lat="47.10615" lon="6.39214">
        <ele>795</ele>
        <time>2019-06-19T16:49:07Z</time>
      </trkpt>
      <trkpt lat="47.10622" lon="6.39196">
        <ele>795</ele>
        <time>2019-06-19T16:49:09Z</time>
      </trkpt>
      <trkpt lat="47.10628" lon="6.39177">
        <ele>795</ele>
        <time>2019-06-19T16:49:11Z</time>
      </trkpt>
      <trkpt lat="47.10635" lon="6.39154">
        <ele>796</ele>
        <time>2019-06-19T16:49:13Z</time>
      </trkpt>
      <trkpt lat="47.10645" lon="6.39131">
        <ele>796</ele>
        <time>2019-06-19T16:49:15Z</time>
      </trkpt>
      <trkpt lat="47.10653" lon="6.39114">
        <ele>795</ele>
        <time>2019-06-19T16:49:17Z</time>
      </trkpt>
      <trkpt lat="47.10664" lon="6.39097">
        <ele>794</ele>
        <time>2019-06-19T16:49:19Z</time>
      </trkpt>
      <trkpt lat="47.10674" lon="6.39078">
        <ele>792</ele>
        <time>2019-06-19T16:49:21Z</time>
      </trkpt>
      <trkpt lat="47.10682" lon="6.3906">
        <ele>793</ele>
        <time>2019-06-19T16:49:23Z</time>
      </trkpt>
      <trkpt lat="47.1069" lon="6.3904">
        <ele>794</ele>
        <time>2019-06-19T16:49:25Z</time>
      </trkpt>
      <trkpt lat="47.10696" lon="6.39024">
        <ele>794</ele>
        <time>2019-06-19T16:49:27Z</time>
      </trkpt>
      <trkpt lat="47.10702" lon="6.39003">
        <ele>794</ele>
        <time>2019-06-19T16:49:29Z</time>
      </trkpt>
      <trkpt lat="47.10707" lon="6.38981">
        <ele>794</ele>
        <time>2019-06-19T16:49:31Z</time>
      </trkpt>
      <trkpt lat="47.10707" lon="6.38943">
        <ele>794</ele>
        <time>2019-06-19T16:49:35Z</time>
      </trkpt>
      <trkpt lat="47.10709" lon="6.38924">
        <ele>793</ele>
        <time>2019-06-19T16:49:37Z</time>
      </trkpt>
      <trkpt lat="47.10717" lon="6.38903">
        <ele>791</ele>
        <time>2019-06-19T16:49:39Z</time>
      </trkpt>
      <trkpt lat="47.10723" lon="6.38883">
        <ele>790</ele>
        <time>2019-06-19T16:49:41Z</time>
      </trkpt>
      <trkpt lat="47.10729" lon="6.38859">
        <ele>788</ele>
        <time>2019-06-19T16:49:43Z</time>
      </trkpt>
      <trkpt lat="47.10736" lon="6.38834">
        <ele>786</ele>
        <time>2019-06-19T16:49:45Z</time>
      </trkpt>
      <trkpt lat="47.10748" lon="6.38814">
        <ele>784</ele>
        <time>2019-06-19T16:49:47Z</time>
      </trkpt>
      <trkpt lat="47.10762" lon="6.38793">
        <ele>779</ele>
        <time>2019-06-19T16:49:49Z</time>
      </trkpt>
      <trkpt lat="47.10776" lon="6.38774">
        <ele>778</ele>
        <time>2019-06-19T16:49:51Z</time>
      </trkpt>
      <trkpt lat="47.10786" lon="6.38755">
        <ele>777</ele>
        <time>2019-06-19T16:49:53Z</time>
      </trkpt>
      <trkpt lat="47.10801" lon="6.38735">
        <ele>774</ele>
        <time>2019-06-19T16:49:55Z</time>
      </trkpt>
      <trkpt lat="47.10807" lon="6.38712">
        <ele>773</ele>
        <time>2019-06-19T16:49:57Z</time>
      </trkpt>
      <trkpt lat="47.10816" lon="6.38686">
        <ele>771</ele>
        <time>2019-06-19T16:49:59Z</time>
      </trkpt>
      <trkpt lat="47.10819" lon="6.38659">
        <ele>768</ele>
        <time>2019-06-19T16:50:01Z</time>
      </trkpt>
      <trkpt lat="47.10821" lon="6.38632">
        <ele>769</ele>
        <time>2019-06-19T16:50:03Z</time>
      </trkpt>
      <trkpt lat="47.10824" lon="6.38606">
        <ele>767</ele>
        <time>2019-06-19T16:50:05Z</time>
      </trkpt>
      <trkpt lat="47.1083" lon="6.38582">
        <ele>764</ele>
        <time>2019-06-19T16:50:07Z</time>
      </trkpt>
      <trkpt lat="47.10841" lon="6.38563">
        <ele>764</ele>
        <time>2019-06-19T16:50:09Z</time>
      </trkpt>
      <trkpt lat="47.10852" lon="6.38546">
        <ele>764</ele>
        <time>2019-06-19T16:50:11Z</time>
      </trkpt>
      <trkpt lat="47.10864" lon="6.38531">
        <ele>765</ele>
        <time>2019-06-19T16:50:13Z</time>
      </trkpt>
      <trkpt lat="47.10877" lon="6.38525">
        <ele>765</ele>
        <time>2019-06-19T16:50:15Z</time>
      </trkpt>
      <trkpt lat="47.10889" lon="6.38515">
        <ele>766</ele>
        <time>2019-06-19T16:50:17Z</time>
      </trkpt>
      <trkpt lat="47.10901" lon="6.38509">
        <ele>766</ele>
        <time>2019-06-19T16:50:19Z</time>
      </trkpt>
      <trkpt lat="47.10912" lon="6.38502">
        <ele>767</ele>
        <time>2019-06-19T16:50:21Z</time>
      </trkpt>
      <trkpt lat="47.10924" lon="6.3849">
        <ele>769</ele>
        <time>2019-06-19T16:50:23Z</time>
      </trkpt>
      <trkpt lat="47.10933" lon="6.38479">
        <ele>770</ele>
        <time>2019-06-19T16:50:25Z</time>
      </trkpt>
      <trkpt lat="47.10939" lon="6.38467">
        <ele>770</ele>
        <time>2019-06-19T16:50:27Z</time>
      </trkpt>
      <trkpt lat="47.10943" lon="6.38454">
        <ele>771</ele>
        <time>2019-06-19T16:50:29Z</time>
      </trkpt>
      <trkpt lat="47.10946" lon="6.38436">
        <ele>771</ele>
        <time>2019-06-19T16:50:31Z</time>
      </trkpt>
      <trkpt lat="47.10953" lon="6.38422">
        <ele>771</ele>
        <time>2019-06-19T16:50:33Z</time>
      </trkpt>
      <trkpt lat="47.10963" lon="6.38398">
        <ele>773</ele>
        <time>2019-06-19T16:50:37Z</time>
      </trkpt>
      <trkpt lat="47.10969" lon="6.38384">
        <ele>773</ele>
        <time>2019-06-19T16:50:39Z</time>
      </trkpt>
      <trkpt lat="47.10975" lon="6.38371">
        <ele>773</ele>
        <time>2019-06-19T16:50:41Z</time>
      </trkpt>
      <trkpt lat="47.10981" lon="6.38361">
        <ele>773</ele>
        <time>2019-06-19T16:50:43Z</time>
      </trkpt>
      <trkpt lat="47.10987" lon="6.38349">
        <ele>774</ele>
        <time>2019-06-19T16:50:45Z</time>
      </trkpt>
      <trkpt lat="47.10992" lon="6.38336">
        <ele>774</ele>
        <time>2019-06-19T16:50:47Z</time>
      </trkpt>
      <trkpt lat="47.10997" lon="6.38323">
        <ele>775</ele>
        <time>2019-06-19T16:50:49Z</time>
      </trkpt>
      <trkpt lat="47.1101" lon="6.38304">
        <ele>775</ele>
        <time>2019-06-19T16:50:53Z</time>
      </trkpt>
      <trkpt lat="47.11026" lon="6.38286">
        <ele>775</ele>
        <time>2019-06-19T16:50:57Z</time>
      </trkpt>
      <trkpt lat="47.11034" lon="6.38277">
        <ele>775</ele>
        <time>2019-06-19T16:50:59Z</time>
      </trkpt>
      <trkpt lat="47.11043" lon="6.38267">
        <ele>776</ele>
        <time>2019-06-19T16:51:01Z</time>
      </trkpt>
      <trkpt lat="47.11053" lon="6.38256">
        <ele>776</ele>
        <time>2019-06-19T16:51:03Z</time>
      </trkpt>
      <trkpt lat="47.11062" lon="6.38248">
        <ele>776</ele>
        <time>2019-06-19T16:51:05Z</time>
      </trkpt>
      <trkpt lat="47.11069" lon="6.38238">
        <ele>776</ele>
        <time>2019-06-19T16:51:07Z</time>
      </trkpt>
      <trkpt lat="47.11079" lon="6.38227">
        <ele>776</ele>
        <time>2019-06-19T16:51:09Z</time>
      </trkpt>
      <trkpt lat="47.11087" lon="6.38219">
        <ele>777</ele>
        <time>2019-06-19T16:51:11Z</time>
      </trkpt>
      <trkpt lat="47.11094" lon="6.38206">
        <ele>778</ele>
        <time>2019-06-19T16:51:13Z</time>
      </trkpt>
      <trkpt lat="47.11105" lon="6.38184">
        <ele>778</ele>
        <time>2019-06-19T16:51:17Z</time>
      </trkpt>
      <trkpt lat="47.11112" lon="6.38162">
        <ele>778</ele>
        <time>2019-06-19T16:51:21Z</time>
      </trkpt>
      <trkpt lat="47.11121" lon="6.38125">
        <ele>778</ele>
        <time>2019-06-19T16:51:25Z</time>
      </trkpt>
      <trkpt lat="47.11126" lon="6.38113">
        <ele>778</ele>
        <time>2019-06-19T16:51:27Z</time>
      </trkpt>
      <trkpt lat="47.11135" lon="6.38084">
        <ele>778</ele>
        <time>2019-06-19T16:51:31Z</time>
      </trkpt>
      <trkpt lat="47.11138" lon="6.3807">
        <ele>777</ele>
        <time>2019-06-19T16:51:33Z</time>
      </trkpt>
      <trkpt lat="47.1114" lon="6.38054">
        <ele>777</ele>
        <time>2019-06-19T16:51:35Z</time>
      </trkpt>
      <trkpt lat="47.11148" lon="6.3804">
        <ele>777</ele>
        <time>2019-06-19T16:51:39Z</time>
      </trkpt>
      <trkpt lat="47.11157" lon="6.38054">
        <ele>777</ele>
        <time>2019-06-19T16:51:43Z</time>
      </trkpt>
      <trkpt lat="47.11166" lon="6.38074">
        <ele>777</ele>
        <time>2019-06-19T16:51:47Z</time>
      </trkpt>
      <trkpt lat="47.11177" lon="6.38096">
        <ele>778</ele>
        <time>2019-06-19T16:51:51Z</time>
      </trkpt>
      <trkpt lat="47.11183" lon="6.38109">
        <ele>778</ele>
        <time>2019-06-19T16:51:53Z</time>
      </trkpt>
      <trkpt lat="47.11187" lon="6.38121">
        <ele>778</ele>
        <time>2019-06-19T16:51:55Z</time>
      </trkpt>
      <trkpt lat="47.1119" lon="6.38137">
        <ele>779</ele>
        <time>2019-06-19T16:51:57Z</time>
      </trkpt>
      <trkpt lat="47.11192" lon="6.38153">
        <ele>779</ele>
        <time>2019-06-19T16:51:59Z</time>
      </trkpt>
      <trkpt lat="47.11194" lon="6.38168">
        <ele>780</ele>
        <time>2019-06-19T16:52:01Z</time>
      </trkpt>
      <trkpt lat="47.11196" lon="6.38181">
        <ele>780</ele>
        <time>2019-06-19T16:52:03Z</time>
      </trkpt>
      <trkpt lat="47.11197" lon="6.38197">
        <ele>780</ele>
        <time>2019-06-19T16:52:05Z</time>
      </trkpt>
      <trkpt lat="47.11199" lon="6.38213">
        <ele>780</ele>
        <time>2019-06-19T16:52:07Z</time>
      </trkpt>
      <trkpt lat="47.11198" lon="6.38234">
        <ele>780</ele>
        <time>2019-06-19T16:52:09Z</time>
      </trkpt>
      <trkpt lat="47.11195" lon="6.3825">
        <ele>780</ele>
        <time>2019-06-19T16:52:11Z</time>
      </trkpt>
      <trkpt lat="47.11193" lon="6.38269">
        <ele>780</ele>
        <time>2019-06-19T16:52:13Z</time>
      </trkpt>
      <trkpt lat="47.11183" lon="6.38286">
        <ele>780</ele>
        <time>2019-06-19T16:52:15Z</time>
      </trkpt>
      <trkpt lat="47.11177" lon="6.38306">
        <ele>780</ele>
        <time>2019-06-19T16:52:17Z</time>
      </trkpt>
      <trkpt lat="47.11171" lon="6.38323">
        <ele>779</ele>
        <time>2019-06-19T16:52:19Z</time>
      </trkpt>
      <trkpt lat="47.11162" lon="6.38335">
        <ele>779</ele>
        <time>2019-06-19T16:52:21Z</time>
      </trkpt>
      <trkpt lat="47.11155" lon="6.38351">
        <ele>778</ele>
        <time>2019-06-19T16:52:23Z</time>
      </trkpt>
      <trkpt lat="47.11148" lon="6.38368">
        <ele>777</ele>
        <time>2019-06-19T16:52:25Z</time>
      </trkpt>
      <trkpt lat="47.11142" lon="6.38384">
        <ele>777</ele>
        <time>2019-06-19T16:52:27Z</time>
      </trkpt>
      <trkpt lat="47.1115" lon="6.38368">
        <ele>777</ele>
        <time>2019-06-19T16:52:37Z</time>
      </trkpt>
      <trkpt lat="47.11159" lon="6.38357">
        <ele>778</ele>
        <time>2019-06-19T16:52:39Z</time>
      </trkpt>
      <trkpt lat="47.11165" lon="6.38336">
        <ele>779</ele>
        <time>2019-06-19T16:52:41Z</time>
      </trkpt>
      <trkpt lat="47.11171" lon="6.38319">
        <ele>779</ele>
        <time>2019-06-19T16:52:43Z</time>
      </trkpt>
      <trkpt lat="47.11177" lon="6.38304">
        <ele>780</ele>
        <time>2019-06-19T16:52:45Z</time>
      </trkpt>
      <trkpt lat="47.11184" lon="6.3829">
        <ele>780</ele>
        <time>2019-06-19T16:52:47Z</time>
      </trkpt>
      <trkpt lat="47.1119" lon="6.38276">
        <ele>780</ele>
        <time>2019-06-19T16:52:49Z</time>
      </trkpt>
      <trkpt lat="47.11194" lon="6.38259">
        <ele>780</ele>
        <time>2019-06-19T16:52:51Z</time>
      </trkpt>
      <trkpt lat="47.11197" lon="6.38242">
        <ele>780</ele>
        <time>2019-06-19T16:52:53Z</time>
      </trkpt>
      <trkpt lat="47.11198" lon="6.38225">
        <ele>780</ele>
        <time>2019-06-19T16:52:55Z</time>
      </trkpt>
      <trkpt lat="47.11198" lon="6.38209">
        <ele>780</ele>
        <time>2019-06-19T16:52:57Z</time>
      </trkpt>
      <trkpt lat="47.11198" lon="6.38193">
        <ele>780</ele>
        <time>2019-06-19T16:52:59Z</time>
      </trkpt>
      <trkpt lat="47.11195" lon="6.38176">
        <ele>780</ele>
        <time>2019-06-19T16:53:01Z</time>
      </trkpt>
      <trkpt lat="47.11192" lon="6.38157">
        <ele>779</ele>
        <time>2019-06-19T16:53:03Z</time>
      </trkpt>
      <trkpt lat="47.1119" lon="6.38138">
        <ele>779</ele>
        <time>2019-06-19T16:53:05Z</time>
      </trkpt>
      <trkpt lat="47.11184" lon="6.38121">
        <ele>778</ele>
        <time>2019-06-19T16:53:07Z</time>
      </trkpt>
      <trkpt lat="47.11175" lon="6.38106">
        <ele>778</ele>
        <time>2019-06-19T16:53:09Z</time>
      </trkpt>
      <trkpt lat="47.11168" lon="6.3809">
        <ele>777</ele>
        <time>2019-06-19T16:53:11Z</time>
      </trkpt>
      <trkpt lat="47.11163" lon="6.38076">
        <ele>777</ele>
        <time>2019-06-19T16:53:13Z</time>
      </trkpt>
      <trkpt lat="47.11154" lon="6.38061">
        <ele>777</ele>
        <time>2019-06-19T16:53:15Z</time>
      </trkpt>
      <trkpt lat="47.11147" lon="6.38048">
        <ele>777</ele>
        <time>2019-06-19T16:53:17Z</time>
      </trkpt>
      <trkpt lat="47.11139" lon="6.38035">
        <ele>777</ele>
        <time>2019-06-19T16:53:19Z</time>
      </trkpt>
      <trkpt lat="47.11133" lon="6.38019">
        <ele>777</ele>
        <time>2019-06-19T16:53:21Z</time>
      </trkpt>
      <trkpt lat="47.11134" lon="6.37998">
        <ele>774</ele>
        <time>2019-06-19T16:53:23Z</time>
      </trkpt>
      <trkpt lat="47.11141" lon="6.37976">
        <ele>773</ele>
        <time>2019-06-19T16:53:25Z</time>
      </trkpt>
      <trkpt lat="47.11158" lon="6.37962">
        <ele>772</ele>
        <time>2019-06-19T16:53:27Z</time>
      </trkpt>
      <trkpt lat="47.11176" lon="6.37953">
        <ele>770</ele>
        <time>2019-06-19T16:53:29Z</time>
      </trkpt>
      <trkpt lat="47.11196" lon="6.37942">
        <ele>769</ele>
        <time>2019-06-19T16:53:31Z</time>
      </trkpt>
      <trkpt lat="47.11214" lon="6.37931">
        <ele>768</ele>
        <time>2019-06-19T16:53:33Z</time>
      </trkpt>
      <trkpt lat="47.11232" lon="6.37918">
        <ele>767</ele>
        <time>2019-06-19T16:53:35Z</time>
      </trkpt>
      <trkpt lat="47.1124" lon="6.37897">
        <ele>763</ele>
        <time>2019-06-19T16:53:37Z</time>
      </trkpt>
      <trkpt lat="47.11253" lon="6.37886">
        <ele>762</ele>
        <time>2019-06-19T16:53:39Z</time>
      </trkpt>
      <trkpt lat="47.11263" lon="6.37879">
        <ele>762</ele>
        <time>2019-06-19T16:53:41Z</time>
      </trkpt>
      <trkpt lat="47.11272" lon="6.37886">
        <ele>762</ele>
        <time>2019-06-19T16:53:43Z</time>
      </trkpt>
      <trkpt lat="47.11277" lon="6.37898">
        <ele>763</ele>
        <time>2019-06-19T16:53:45Z</time>
      </trkpt>
      <trkpt lat="47.11283" lon="6.37908">
        <ele>763</ele>
        <time>2019-06-19T16:53:47Z</time>
      </trkpt>
      <trkpt lat="47.11291" lon="6.37916">
        <ele>763</ele>
        <time>2019-06-19T16:53:49Z</time>
      </trkpt>
      <trkpt lat="47.11306" lon="6.3793">
        <ele>767</ele>
        <time>2019-06-19T16:53:53Z</time>
      </trkpt>
      <trkpt lat="47.11319" lon="6.37937">
        <ele>767</ele>
        <time>2019-06-19T16:53:55Z</time>
      </trkpt>
      <trkpt lat="47.11326" lon="6.37945">
        <ele>767</ele>
        <time>2019-06-19T16:53:57Z</time>
      </trkpt>
      <trkpt lat="47.11335" lon="6.37953">
        <ele>767</ele>
        <time>2019-06-19T16:53:59Z</time>
      </trkpt>
      <trkpt lat="47.11342" lon="6.37962">
        <ele>767</ele>
        <time>2019-06-19T16:54:01Z</time>
      </trkpt>
      <trkpt lat="47.11358" lon="6.37976">
        <ele>768</ele>
        <time>2019-06-19T16:54:05Z</time>
      </trkpt>
      <trkpt lat="47.11366" lon="6.37985">
        <ele>768</ele>
        <time>2019-06-19T16:54:07Z</time>
      </trkpt>
      <trkpt lat="47.11377" lon="6.37993">
        <ele>768</ele>
        <time>2019-06-19T16:54:09Z</time>
      </trkpt>
      <trkpt lat="47.11383" lon="6.38015">
        <ele>772</ele>
        <time>2019-06-19T16:54:13Z</time>
      </trkpt>
      <trkpt lat="47.11388" lon="6.38038">
        <ele>772</ele>
        <time>2019-06-19T16:54:17Z</time>
      </trkpt>
      <trkpt lat="47.11391" lon="6.38052">
        <ele>772</ele>
        <time>2019-06-19T16:54:19Z</time>
      </trkpt>
      <trkpt lat="47.11396" lon="6.38075">
        <ele>773</ele>
        <time>2019-06-19T16:54:23Z</time>
      </trkpt>
      <trkpt lat="47.114" lon="6.38096">
        <ele>775</ele>
        <time>2019-06-19T16:54:27Z</time>
      </trkpt>
      <trkpt lat="47.11404" lon="6.38116">
        <ele>775</ele>
        <time>2019-06-19T16:54:31Z</time>
      </trkpt>
      <trkpt lat="47.11404" lon="6.38141">
        <ele>776</ele>
        <time>2019-06-19T16:54:35Z</time>
      </trkpt>
      <trkpt lat="47.11401" lon="6.38164">
        <ele>776</ele>
        <time>2019-06-19T16:54:39Z</time>
      </trkpt>
      <trkpt lat="47.11398" lon="6.38185">
        <ele>778</ele>
        <time>2019-06-19T16:54:43Z</time>
      </trkpt>
      <trkpt lat="47.11393" lon="6.38204">
        <ele>778</ele>
        <time>2019-06-19T16:54:47Z</time>
      </trkpt>
      <trkpt lat="47.11389" lon="6.38227">
        <ele>779</ele>
        <time>2019-06-19T16:54:51Z</time>
      </trkpt>
      <trkpt lat="47.11393" lon="6.38252">
        <ele>781</ele>
        <time>2019-06-19T16:54:55Z</time>
      </trkpt>
      <trkpt lat="47.11391" lon="6.3827">
        <ele>781</ele>
        <time>2019-06-19T16:54:57Z</time>
      </trkpt>
      <trkpt lat="47.11392" lon="6.38286">
        <ele>781</ele>
        <time>2019-06-19T16:54:59Z</time>
      </trkpt>
      <trkpt lat="47.11392" lon="6.38304">
        <ele>782</ele>
        <time>2019-06-19T16:55:01Z</time>
      </trkpt>
      <trkpt lat="47.11388" lon="6.38317">
        <ele>782</ele>
        <time>2019-06-19T16:55:03Z</time>
      </trkpt>
      <trkpt lat="47.11383" lon="6.38332">
        <ele>782</ele>
        <time>2019-06-19T16:55:05Z</time>
      </trkpt>
      <trkpt lat="47.1138" lon="6.38351">
        <ele>782</ele>
        <time>2019-06-19T16:55:07Z</time>
      </trkpt>
      <trkpt lat="47.11375" lon="6.38366">
        <ele>782</ele>
        <time>2019-06-19T16:55:09Z</time>
      </trkpt>
      <trkpt lat="47.11369" lon="6.38383">
        <ele>782</ele>
        <time>2019-06-19T16:55:11Z</time>
      </trkpt>
      <trkpt lat="47.11362" lon="6.38396">
        <ele>781</ele>
        <time>2019-06-19T16:55:13Z</time>
      </trkpt>
      <trkpt lat="47.11356" lon="6.38407">
        <ele>781</ele>
        <time>2019-06-19T16:55:15Z</time>
      </trkpt>
      <trkpt lat="47.11368" lon="6.38395">
        <ele>782</ele>
        <time>2019-06-19T16:55:23Z</time>
      </trkpt>
      <trkpt lat="47.11372" lon="6.38413">
        <ele>782</ele>
        <time>2019-06-19T16:55:25Z</time>
      </trkpt>
      <trkpt lat="47.1138" lon="6.38425">
        <ele>782</ele>
        <time>2019-06-19T16:55:29Z</time>
      </trkpt>
      <trkpt lat="47.1139" lon="6.38435">
        <ele>783</ele>
        <time>2019-06-19T16:56:34Z</time>
      </trkpt>
      <trkpt lat="47.11401" lon="6.38474">
        <ele>783</ele>
        <time>2019-06-19T16:56:42Z</time>
      </trkpt>
      <trkpt lat="47.11424" lon="6.385">
        <ele>784</ele>
        <time>2019-06-19T16:56:46Z</time>
      </trkpt>
      <trkpt lat="47.11435" lon="6.38521">
        <ele>782</ele>
        <time>2019-06-19T16:56:48Z</time>
      </trkpt>
      <trkpt lat="47.11441" lon="6.3854">
        <ele>781</ele>
        <time>2019-06-19T16:56:50Z</time>
      </trkpt>
      <trkpt lat="47.11454" lon="6.38554">
        <ele>780</ele>
        <time>2019-06-19T16:56:52Z</time>
      </trkpt>
      <trkpt lat="47.11466" lon="6.38569">
        <ele>779</ele>
        <time>2019-06-19T16:56:54Z</time>
      </trkpt>
      <trkpt lat="47.11489" lon="6.38588">
        <ele>777</ele>
        <time>2019-06-19T16:56:56Z</time>
      </trkpt>
      <trkpt lat="47.115" lon="6.38611">
        <ele>777</ele>
        <time>2019-06-19T16:56:58Z</time>
      </trkpt>
      <trkpt lat="47.11508" lon="6.38637">
        <ele>773</ele>
        <time>2019-06-19T16:57:00Z</time>
      </trkpt>
      <trkpt lat="47.11517" lon="6.38662">
        <ele>773</ele>
        <time>2019-06-19T16:57:02Z</time>
      </trkpt>
      <trkpt lat="47.11529" lon="6.3869">
        <ele>771</ele>
        <time>2019-06-19T16:57:04Z</time>
      </trkpt>
      <trkpt lat="47.1154" lon="6.38712">
        <ele>770</ele>
        <time>2019-06-19T16:57:06Z</time>
      </trkpt>
      <trkpt lat="47.11556" lon="6.38727">
        <ele>769</ele>
        <time>2019-06-19T16:57:08Z</time>
      </trkpt>
      <trkpt lat="47.11571" lon="6.38743">
        <ele>768</ele>
        <time>2019-06-19T16:57:10Z</time>
      </trkpt>
      <trkpt lat="47.11585" lon="6.3876">
        <ele>765</ele>
        <time>2019-06-19T16:57:12Z</time>
      </trkpt>
      <trkpt lat="47.11598" lon="6.38774">
        <ele>764</ele>
        <time>2019-06-19T16:57:14Z</time>
      </trkpt>
      <trkpt lat="47.11614" lon="6.38798">
        <ele>763</ele>
        <time>2019-06-19T16:57:16Z</time>
      </trkpt>
      <trkpt lat="47.11625" lon="6.38822">
        <ele>762</ele>
        <time>2019-06-19T16:57:18Z</time>
      </trkpt>
      <trkpt lat="47.11643" lon="6.38835">
        <ele>759</ele>
        <time>2019-06-19T16:57:20Z</time>
      </trkpt>
      <trkpt lat="47.11662" lon="6.3885">
        <ele>758</ele>
        <time>2019-06-19T16:57:22Z</time>
      </trkpt>
      <trkpt lat="47.11681" lon="6.38848">
        <ele>755</ele>
        <time>2019-06-19T16:57:24Z</time>
      </trkpt>
      <trkpt lat="47.11697" lon="6.38838">
        <ele>754</ele>
        <time>2019-06-19T16:57:26Z</time>
      </trkpt>
      <trkpt lat="47.11713" lon="6.38828">
        <ele>756</ele>
        <time>2019-06-19T16:57:28Z</time>
      </trkpt>
      <trkpt lat="47.11726" lon="6.38819">
        <ele>756</ele>
        <time>2019-06-19T16:57:30Z</time>
      </trkpt>
      <trkpt lat="47.11738" lon="6.3881">
        <ele>756</ele>
        <time>2019-06-19T16:57:32Z</time>
      </trkpt>
      <trkpt lat="47.11752" lon="6.38804">
        <ele>761</ele>
        <time>2019-06-19T16:57:34Z</time>
      </trkpt>
      <trkpt lat="47.11762" lon="6.38805">
        <ele>762</ele>
        <time>2019-06-19T16:57:36Z</time>
      </trkpt>
      <trkpt lat="47.11774" lon="6.38811">
        <ele>762</ele>
        <time>2019-06-19T16:57:38Z</time>
      </trkpt>
      <trkpt lat="47.11785" lon="6.38813">
        <ele>763</ele>
        <time>2019-06-19T16:57:40Z</time>
      </trkpt>
      <trkpt lat="47.11769" lon="6.38808">
        <ele>762</ele>
        <time>2019-06-19T16:57:56Z</time>
      </trkpt>
      <trkpt lat="47.11756" lon="6.38808">
        <ele>761</ele>
        <time>2019-06-19T16:58:00Z</time>
      </trkpt>
      <trkpt lat="47.11746" lon="6.3881">
        <ele>756</ele>
        <time>2019-06-19T16:58:02Z</time>
      </trkpt>
      <trkpt lat="47.11736" lon="6.38815">
        <ele>756</ele>
        <time>2019-06-19T16:58:04Z</time>
      </trkpt>
      <trkpt lat="47.11726" lon="6.38819">
        <ele>756</ele>
        <time>2019-06-19T16:58:06Z</time>
      </trkpt>
      <trkpt lat="47.11715" lon="6.38826">
        <ele>756</ele>
        <time>2019-06-19T16:58:08Z</time>
      </trkpt>
      <trkpt lat="47.117" lon="6.38834">
        <ele>754</ele>
        <time>2019-06-19T16:58:10Z</time>
      </trkpt>
      <trkpt lat="47.11689" lon="6.38841">
        <ele>755</ele>
        <time>2019-06-19T16:58:12Z</time>
      </trkpt>
      <trkpt lat="47.11677" lon="6.38847">
        <ele>755</ele>
        <time>2019-06-19T16:58:14Z</time>
      </trkpt>
      <trkpt lat="47.11667" lon="6.38857">
        <ele>755</ele>
        <time>2019-06-19T16:58:16Z</time>
      </trkpt>
      <trkpt lat="47.11661" lon="6.38874">
        <ele>758</ele>
        <time>2019-06-19T16:58:18Z</time>
      </trkpt>
      <trkpt lat="47.11653" lon="6.38893">
        <ele>758</ele>
        <time>2019-06-19T16:58:20Z</time>
      </trkpt>
      <trkpt lat="47.11648" lon="6.38917">
        <ele>755</ele>
        <time>2019-06-19T16:58:22Z</time>
      </trkpt>
      <trkpt lat="47.11646" lon="6.3894">
        <ele>755</ele>
        <time>2019-06-19T16:58:24Z</time>
      </trkpt>
      <trkpt lat="47.11648" lon="6.38963">
        <ele>754</ele>
        <time>2019-06-19T16:58:26Z</time>
      </trkpt>
      <trkpt lat="47.1166" lon="6.38986">
        <ele>752</ele>
        <time>2019-06-19T16:58:28Z</time>
      </trkpt>
      <trkpt lat="47.11671" lon="6.39005">
        <ele>748</ele>
        <time>2019-06-19T16:58:30Z</time>
      </trkpt>
      <trkpt lat="47.11681" lon="6.39025">
        <ele>746</ele>
        <time>2019-06-19T16:58:32Z</time>
      </trkpt>
      <trkpt lat="47.11694" lon="6.39058">
        <ele>745</ele>
        <time>2019-06-19T16:58:34Z</time>
      </trkpt>
      <trkpt lat="47.11702" lon="6.39082">
        <ele>745</ele>
        <time>2019-06-19T16:58:36Z</time>
      </trkpt>
      <trkpt lat="47.11709" lon="6.39106">
        <ele>743</ele>
        <time>2019-06-19T16:58:38Z</time>
      </trkpt>
      <trkpt lat="47.11716" lon="6.39126">
        <ele>742</ele>
        <time>2019-06-19T16:58:40Z</time>
      </trkpt>
      <trkpt lat="47.11718" lon="6.39145">
        <ele>742</ele>
        <time>2019-06-19T16:58:42Z</time>
      </trkpt>
      <trkpt lat="47.11718" lon="6.39166">
        <ele>742</ele>
        <time>2019-06-19T16:58:44Z</time>
      </trkpt>
      <trkpt lat="47.11705" lon="6.39191">
        <ele>741</ele>
        <time>2019-06-19T16:58:46Z</time>
      </trkpt>
      <trkpt lat="47.11699" lon="6.39214">
        <ele>740</ele>
        <time>2019-06-19T16:58:48Z</time>
      </trkpt>
      <trkpt lat="47.11692" lon="6.39236">
        <ele>740</ele>
        <time>2019-06-19T16:58:50Z</time>
      </trkpt>
      <trkpt lat="47.11685" lon="6.39253">
        <ele>741</ele>
        <time>2019-06-19T16:58:52Z</time>
      </trkpt>
      <trkpt lat="47.1168" lon="6.3927">
        <ele>741</ele>
        <time>2019-06-19T16:58:54Z</time>
      </trkpt>
      <trkpt lat="47.11675" lon="6.39287">
        <ele>742</ele>
        <time>2019-06-19T16:58:56Z</time>
      </trkpt>
      <trkpt lat="47.11669" lon="6.39301">
        <ele>742</ele>
        <time>2019-06-19T16:58:58Z</time>
      </trkpt>
      <trkpt lat="47.11659" lon="6.39319">
        <ele>744</ele>
        <time>2019-06-19T16:59:02Z</time>
      </trkpt>
      <trkpt lat="47.11654" lon="6.39338">
        <ele>746</ele>
        <time>2019-06-19T16:59:06Z</time>
      </trkpt>
      <trkpt lat="47.11646" lon="6.39354">
        <ele>748</ele>
        <time>2019-06-19T16:59:10Z</time>
      </trkpt>
      <trkpt lat="47.11639" lon="6.39365">
        <ele>749</ele>
        <time>2019-06-19T16:59:16Z</time>
      </trkpt>
      <trkpt lat="47.11627" lon="6.39365">
        <ele>749</ele>
        <time>2019-06-19T16:59:20Z</time>
      </trkpt>
      <trkpt lat="47.11615" lon="6.39367">
        <ele>749</ele>
        <time>2019-06-19T16:59:24Z</time>
      </trkpt>
      <trkpt lat="47.11607" lon="6.39372">
        <ele>750</ele>
        <time>2019-06-19T16:59:28Z</time>
      </trkpt>
      <trkpt lat="47.11599" lon="6.39378">
        <ele>750</ele>
        <time>2019-06-19T16:59:32Z</time>
      </trkpt>
      <trkpt lat="47.1159" lon="6.39387">
        <ele>751</ele>
        <time>2019-06-19T16:59:38Z</time>
      </trkpt>
      <trkpt lat="47.1158" lon="6.39391">
        <ele>752</ele>
        <time>2019-06-19T16:59:42Z</time>
      </trkpt>
      <trkpt lat="47.11569" lon="6.39395">
        <ele>752</ele>
        <time>2019-06-19T16:59:46Z</time>
      </trkpt>
      <trkpt lat="47.11548" lon="6.39409">
        <ele>752</ele>
        <time>2019-06-19T16:59:56Z</time>
      </trkpt>
      <trkpt lat="47.1153" lon="6.39417">
        <ele>756</ele>
        <time>2019-06-19T17:00:04Z</time>
      </trkpt>
      <trkpt lat="47.11517" lon="6.39421">
        <ele>755</ele>
        <time>2019-06-19T17:00:10Z</time>
      </trkpt>
      <trkpt lat="47.11508" lon="6.39427">
        <ele>755</ele>
        <time>2019-06-19T17:00:14Z</time>
      </trkpt>
      <trkpt lat="47.115" lon="6.39439">
        <ele>756</ele>
        <time>2019-06-19T17:00:36Z</time>
      </trkpt>
      <trkpt lat="47.11498" lon="6.39452">
        <ele>756</ele>
        <time>2019-06-19T17:00:42Z</time>
      </trkpt>
      <trkpt lat="47.11496" lon="6.39468">
        <ele>756</ele>
        <time>2019-06-19T17:00:48Z</time>
      </trkpt>
      <trkpt lat="47.11496" lon="6.39485">
        <ele>757</ele>
        <time>2019-06-19T17:00:54Z</time>
      </trkpt>
      <trkpt lat="47.11498" lon="6.39504">
        <ele>759</ele>
        <time>2019-06-19T17:01:00Z</time>
      </trkpt>
      <trkpt lat="47.11504" lon="6.39517">
        <ele>759</ele>
        <time>2019-06-19T17:01:04Z</time>
      </trkpt>
      <trkpt lat="47.11501" lon="6.39533">
        <ele>759</ele>
        <time>2019-06-19T17:01:14Z</time>
      </trkpt>
      <trkpt lat="47.11494" lon="6.39543">
        <ele>758</ele>
        <time>2019-06-19T17:01:42Z</time>
      </trkpt>
      <trkpt lat="47.11484" lon="6.39548">
        <ele>757</ele>
        <time>2019-06-19T17:01:48Z</time>
      </trkpt>
      <trkpt lat="47.11479" lon="6.39561">
        <ele>757</ele>
        <time>2019-06-19T17:01:58Z</time>
      </trkpt>
      <trkpt lat="47.1148" lon="6.39581">
        <ele>757</ele>
        <time>2019-06-19T17:02:02Z</time>
      </trkpt>
      <trkpt lat="47.1148" lon="6.39604">
        <ele>756</ele>
        <time>2019-06-19T17:02:06Z</time>
      </trkpt>
      <trkpt lat="47.1148" lon="6.39627">
        <ele>755</ele>
        <time>2019-06-19T17:02:10Z</time>
      </trkpt>
      <trkpt lat="47.11476" lon="6.39651">
        <ele>755</ele>
        <time>2019-06-19T17:02:14Z</time>
      </trkpt>
      <trkpt lat="47.11472" lon="6.39663">
        <ele>755</ele>
        <time>2019-06-19T17:02:16Z</time>
      </trkpt>
      <trkpt lat="47.1147" lon="6.39681">
        <ele>754</ele>
        <time>2019-06-19T17:02:18Z</time>
      </trkpt>
      <trkpt lat="47.11467" lon="6.39696">
        <ele>754</ele>
        <time>2019-06-19T17:02:20Z</time>
      </trkpt>
      <trkpt lat="47.11462" lon="6.39707">
        <ele>753</ele>
        <time>2019-06-19T17:02:22Z</time>
      </trkpt>
      <trkpt lat="47.11461" lon="6.3972">
        <ele>753</ele>
        <time>2019-06-19T17:02:24Z</time>
      </trkpt>
      <trkpt lat="47.11459" lon="6.39734">
        <ele>753</ele>
        <time>2019-06-19T17:02:26Z</time>
      </trkpt>
      <trkpt lat="47.11461" lon="6.39749">
        <ele>753</ele>
        <time>2019-06-19T17:02:28Z</time>
      </trkpt>
      <trkpt lat="47.11462" lon="6.39774">
        <ele>753</ele>
        <time>2019-06-19T17:02:32Z</time>
      </trkpt>
      <trkpt lat="47.11456" lon="6.39792">
        <ele>753</ele>
        <time>2019-06-19T17:02:36Z</time>
      </trkpt>
      <trkpt lat="47.11444" lon="6.39813">
        <ele>753</ele>
        <time>2019-06-19T17:02:40Z</time>
      </trkpt>
      <trkpt lat="47.11434" lon="6.3982">
        <ele>753</ele>
        <time>2019-06-19T17:02:44Z</time>
      </trkpt>
      <trkpt lat="47.11424" lon="6.39828">
        <ele>754</ele>
        <time>2019-06-19T17:03:18Z</time>
      </trkpt>
      <trkpt lat="47.1141" lon="6.39842">
        <ele>753</ele>
        <time>2019-06-19T17:03:22Z</time>
      </trkpt>
      <trkpt lat="47.11398" lon="6.39853">
        <ele>752</ele>
        <time>2019-06-19T17:03:26Z</time>
      </trkpt>
      <trkpt lat="47.11388" lon="6.39859">
        <ele>752</ele>
        <time>2019-06-19T17:03:28Z</time>
      </trkpt>
      <trkpt lat="47.11377" lon="6.39869">
        <ele>752</ele>
        <time>2019-06-19T17:03:30Z</time>
      </trkpt>
      <trkpt lat="47.11359" lon="6.39887">
        <ele>751</ele>
        <time>2019-06-19T17:03:34Z</time>
      </trkpt>
      <trkpt lat="47.11355" lon="6.39912">
        <ele>751</ele>
        <time>2019-06-19T17:03:38Z</time>
      </trkpt>
      <trkpt lat="47.11346" lon="6.39918">
        <ele>751</ele>
        <time>2019-06-19T17:03:40Z</time>
      </trkpt>
      <trkpt lat="47.11333" lon="6.39924">
        <ele>750</ele>
        <time>2019-06-19T17:03:42Z</time>
      </trkpt>
      <trkpt lat="47.11324" lon="6.39931">
        <ele>751</ele>
        <time>2019-06-19T17:03:44Z</time>
      </trkpt>
      <trkpt lat="47.11317" lon="6.39941">
        <ele>751</ele>
        <time>2019-06-19T17:03:46Z</time>
      </trkpt>
      <trkpt lat="47.11313" lon="6.39952">
        <ele>751</ele>
        <time>2019-06-19T17:03:48Z</time>
      </trkpt>
      <trkpt lat="47.11309" lon="6.39967">
        <ele>752</ele>
        <time>2019-06-19T17:03:50Z</time>
      </trkpt>
      <trkpt lat="47.11303" lon="6.39983">
        <ele>752</ele>
        <time>2019-06-19T17:03:52Z</time>
      </trkpt>
      <trkpt lat="47.11302" lon="6.39999">
        <ele>752</ele>
        <time>2019-06-19T17:03:54Z</time>
      </trkpt>
      <trkpt lat="47.11301" lon="6.40014">
        <ele>753</ele>
        <time>2019-06-19T17:03:56Z</time>
      </trkpt>
      <trkpt lat="47.11295" lon="6.4003">
        <ele>753</ele>
        <time>2019-06-19T17:03:58Z</time>
      </trkpt>
      <trkpt lat="47.11294" lon="6.40047">
        <ele>753</ele>
        <time>2019-06-19T17:04:00Z</time>
      </trkpt>
      <trkpt lat="47.11295" lon="6.40064">
        <ele>753</ele>
        <time>2019-06-19T17:04:02Z</time>
      </trkpt>
      <trkpt lat="47.11295" lon="6.40081">
        <ele>753</ele>
        <time>2019-06-19T17:04:04Z</time>
      </trkpt>
      <trkpt lat="47.11294" lon="6.40099">
        <ele>753</ele>
        <time>2019-06-19T17:04:06Z</time>
      </trkpt>
      <trkpt lat="47.11293" lon="6.40116">
        <ele>753</ele>
        <time>2019-06-19T17:04:08Z</time>
      </trkpt>
      <trkpt lat="47.11296" lon="6.40131">
        <ele>753</ele>
        <time>2019-06-19T17:04:10Z</time>
      </trkpt>
      <trkpt lat="47.11297" lon="6.4015">
        <ele>753</ele>
        <time>2019-06-19T17:04:12Z</time>
      </trkpt>
      <trkpt lat="47.11304" lon="6.40173">
        <ele>751</ele>
        <time>2019-06-19T17:04:14Z</time>
      </trkpt>
      <trkpt lat="47.11314" lon="6.40192">
        <ele>750</ele>
        <time>2019-06-19T17:04:16Z</time>
      </trkpt>
      <trkpt lat="47.11323" lon="6.40211">
        <ele>749</ele>
        <time>2019-06-19T17:04:18Z</time>
      </trkpt>
      <trkpt lat="47.11335" lon="6.40236">
        <ele>747</ele>
        <time>2019-06-19T17:04:20Z</time>
      </trkpt>
      <trkpt lat="47.11345" lon="6.40257">
        <ele>745</ele>
        <time>2019-06-19T17:04:22Z</time>
      </trkpt>
      <trkpt lat="47.11356" lon="6.40276">
        <ele>745</ele>
        <time>2019-06-19T17:04:24Z</time>
      </trkpt>
      <trkpt lat="47.11366" lon="6.40299">
        <ele>744</ele>
        <time>2019-06-19T17:04:26Z</time>
      </trkpt>
      <trkpt lat="47.11375" lon="6.40319">
        <ele>744</ele>
        <time>2019-06-19T17:04:28Z</time>
      </trkpt>
      <trkpt lat="47.11388" lon="6.40342">
        <ele>743</ele>
        <time>2019-06-19T17:04:30Z</time>
      </trkpt>
      <trkpt lat="47.114" lon="6.40377">
        <ele>742</ele>
        <time>2019-06-19T17:04:32Z</time>
      </trkpt>
      <trkpt lat="47.11398" lon="6.40404">
        <ele>742</ele>
        <time>2019-06-19T17:04:34Z</time>
      </trkpt>
      <trkpt lat="47.11395" lon="6.40433">
        <ele>741</ele>
        <time>2019-06-19T17:04:36Z</time>
      </trkpt>
      <trkpt lat="47.11381" lon="6.40449">
        <ele>741</ele>
        <time>2019-06-19T17:04:38Z</time>
      </trkpt>
      <trkpt lat="47.11369" lon="6.40469">
        <ele>740</ele>
        <time>2019-06-19T17:04:40Z</time>
      </trkpt>
      <trkpt lat="47.11358" lon="6.40489">
        <ele>740</ele>
        <time>2019-06-19T17:04:42Z</time>
      </trkpt>
      <trkpt lat="47.11346" lon="6.40508">
        <ele>738</ele>
        <time>2019-06-19T17:04:44Z</time>
      </trkpt>
      <trkpt lat="47.11335" lon="6.4052">
        <ele>738</ele>
        <time>2019-06-19T17:04:46Z</time>
      </trkpt>
      <trkpt lat="47.11324" lon="6.40541">
        <ele>736</ele>
        <time>2019-06-19T17:04:48Z</time>
      </trkpt>
      <trkpt lat="47.11317" lon="6.40572">
        <ele>736</ele>
        <time>2019-06-19T17:04:50Z</time>
      </trkpt>
      <trkpt lat="47.11319" lon="6.406">
        <ele>734</ele>
        <time>2019-06-19T17:04:52Z</time>
      </trkpt>
      <trkpt lat="47.1132" lon="6.40628">
        <ele>734</ele>
        <time>2019-06-19T17:04:54Z</time>
      </trkpt>
      <trkpt lat="47.11327" lon="6.40654">
        <ele>733</ele>
        <time>2019-06-19T17:04:56Z</time>
      </trkpt>
      <trkpt lat="47.11335" lon="6.4068">
        <ele>733</ele>
        <time>2019-06-19T17:04:58Z</time>
      </trkpt>
      <trkpt lat="47.11342" lon="6.40708">
        <ele>732</ele>
        <time>2019-06-19T17:05:00Z</time>
      </trkpt>
      <trkpt lat="47.11353" lon="6.40747">
        <ele>731</ele>
        <time>2019-06-19T17:05:02Z</time>
      </trkpt>
      <trkpt lat="47.11358" lon="6.40777">
        <ele>728</ele>
        <time>2019-06-19T17:05:04Z</time>
      </trkpt>
      <trkpt lat="47.11365" lon="6.40807">
        <ele>728</ele>
        <time>2019-06-19T17:05:06Z</time>
      </trkpt>
      <trkpt lat="47.11373" lon="6.40839">
        <ele>726</ele>
        <time>2019-06-19T17:05:08Z</time>
      </trkpt>
      <trkpt lat="47.11379" lon="6.40866">
        <ele>726</ele>
        <time>2019-06-19T17:05:10Z</time>
      </trkpt>
      <trkpt lat="47.11386" lon="6.40894">
        <ele>727</ele>
        <time>2019-06-19T17:05:12Z</time>
      </trkpt>
      <trkpt lat="47.11392" lon="6.4092">
        <ele>727</ele>
        <time>2019-06-19T17:05:14Z</time>
      </trkpt>
      <trkpt lat="47.114" lon="6.40948">
        <ele>727</ele>
        <time>2019-06-19T17:05:16Z</time>
      </trkpt>
      <trkpt lat="47.11407" lon="6.40974">
        <ele>727</ele>
        <time>2019-06-19T17:05:18Z</time>
      </trkpt>
      <trkpt lat="47.11415" lon="6.41">
        <ele>727</ele>
        <time>2019-06-19T17:05:20Z</time>
      </trkpt>
      <trkpt lat="47.1142" lon="6.41028">
        <ele>727</ele>
        <time>2019-06-19T17:05:22Z</time>
      </trkpt>
      <trkpt lat="47.11427" lon="6.41053">
        <ele>726</ele>
        <time>2019-06-19T17:05:24Z</time>
      </trkpt>
      <trkpt lat="47.11435" lon="6.41077">
        <ele>726</ele>
        <time>2019-06-19T17:05:26Z</time>
      </trkpt>
      <trkpt lat="47.11442" lon="6.41101">
        <ele>725</ele>
        <time>2019-06-19T17:05:28Z</time>
      </trkpt>
      <trkpt lat="47.11448" lon="6.41126">
        <ele>724</ele>
        <time>2019-06-19T17:05:30Z</time>
      </trkpt>
      <trkpt lat="47.11456" lon="6.41148">
        <ele>724</ele>
        <time>2019-06-19T17:05:32Z</time>
      </trkpt>
      <trkpt lat="47.11466" lon="6.41165">
        <ele>724</ele>
        <time>2019-06-19T17:05:34Z</time>
      </trkpt>
      <trkpt lat="47.11475" lon="6.41186">
        <ele>723</ele>
        <time>2019-06-19T17:05:36Z</time>
      </trkpt>
      <trkpt lat="47.11483" lon="6.41205">
        <ele>723</ele>
        <time>2019-06-19T17:05:38Z</time>
      </trkpt>
      <trkpt lat="47.11492" lon="6.41225">
        <ele>723</ele>
        <time>2019-06-19T17:05:40Z</time>
      </trkpt>
      <trkpt lat="47.11502" lon="6.41244">
        <ele>722</ele>
        <time>2019-06-19T17:05:42Z</time>
      </trkpt>
      <trkpt lat="47.11514" lon="6.41268">
        <ele>722</ele>
        <time>2019-06-19T17:05:44Z</time>
      </trkpt>
      <trkpt lat="47.11523" lon="6.41286">
        <ele>722</ele>
        <time>2019-06-19T17:05:46Z</time>
      </trkpt>
      <trkpt lat="47.11533" lon="6.41306">
        <ele>722</ele>
        <time>2019-06-19T17:05:48Z</time>
      </trkpt>
      <trkpt lat="47.11548" lon="6.41294">
        <ele>722</ele>
        <time>2019-06-19T17:05:50Z</time>
      </trkpt>
      <trkpt lat="47.11556" lon="6.41284">
        <ele>722</ele>
        <time>2019-06-19T17:05:52Z</time>
      </trkpt>
      <trkpt lat="47.11563" lon="6.41274">
        <ele>722</ele>
        <time>2019-06-19T17:05:54Z</time>
      </trkpt>
      <trkpt lat="47.11554" lon="6.41286">
        <ele>722</ele>
        <time>2019-06-19T17:05:56Z</time>
      </trkpt>
      <trkpt lat="47.11547" lon="6.41296">
        <ele>722</ele>
        <time>2019-06-19T17:05:58Z</time>
      </trkpt>
      <trkpt lat="47.11536" lon="6.41321">
        <ele>722</ele>
        <time>2019-06-19T17:06:02Z</time>
      </trkpt>
      <trkpt lat="47.11548" lon="6.41344">
        <ele>722</ele>
        <time>2019-06-19T17:06:04Z</time>
      </trkpt>
      <trkpt lat="47.11557" lon="6.41359">
        <ele>721</ele>
        <time>2019-06-19T17:06:06Z</time>
      </trkpt>
      <trkpt lat="47.11565" lon="6.41372">
        <ele>721</ele>
        <time>2019-06-19T17:06:08Z</time>
      </trkpt>
      <trkpt lat="47.11575" lon="6.41391">
        <ele>721</ele>
        <time>2019-06-19T17:06:10Z</time>
      </trkpt>
      <trkpt lat="47.11583" lon="6.41408">
        <ele>720</ele>
        <time>2019-06-19T17:06:12Z</time>
      </trkpt>
      <trkpt lat="47.11594" lon="6.41425">
        <ele>719</ele>
        <time>2019-06-19T17:06:14Z</time>
      </trkpt>
      <trkpt lat="47.11603" lon="6.41442">
        <ele>719</ele>
        <time>2019-06-19T17:06:16Z</time>
      </trkpt>
      <trkpt lat="47.11613" lon="6.41458">
        <ele>719</ele>
        <time>2019-06-19T17:06:18Z</time>
      </trkpt>
      <trkpt lat="47.11622" lon="6.41472">
        <ele>719</ele>
        <time>2019-06-19T17:06:20Z</time>
      </trkpt>
      <trkpt lat="47.11634" lon="6.41489">
        <ele>719</ele>
        <time>2019-06-19T17:06:22Z</time>
      </trkpt>
      <trkpt lat="47.11644" lon="6.41504">
        <ele>719</ele>
        <time>2019-06-19T17:06:24Z</time>
      </trkpt>
      <trkpt lat="47.11654" lon="6.41504">
        <ele>719</ele>
        <time>2019-06-19T17:06:26Z</time>
      </trkpt>
      <trkpt lat="47.11665" lon="6.41496">
        <ele>719</ele>
        <time>2019-06-19T17:06:28Z</time>
      </trkpt>
      <trkpt lat="47.11676" lon="6.41487">
        <ele>720</ele>
        <time>2019-06-19T17:06:30Z</time>
      </trkpt>
      <trkpt lat="47.11686" lon="6.41474">
        <ele>720</ele>
        <time>2019-06-19T17:06:32Z</time>
      </trkpt>
      <trkpt lat="47.11696" lon="6.41458">
        <ele>721</ele>
        <time>2019-06-19T17:06:34Z</time>
      </trkpt>
      <trkpt lat="47.11705" lon="6.41447">
        <ele>721</ele>
        <time>2019-06-19T17:06:36Z</time>
      </trkpt>
      <trkpt lat="47.11713" lon="6.41437">
        <ele>721</ele>
        <time>2019-06-19T17:06:38Z</time>
      </trkpt>
      <trkpt lat="47.11722" lon="6.41428">
        <ele>722</ele>
        <time>2019-06-19T17:06:40Z</time>
      </trkpt>
      <trkpt lat="47.11737" lon="6.41408">
        <ele>723</ele>
        <time>2019-06-19T17:06:44Z</time>
      </trkpt>
      <trkpt lat="47.11747" lon="6.41402">
        <ele>723</ele>
        <time>2019-06-19T17:06:46Z</time>
      </trkpt>
      <trkpt lat="47.11755" lon="6.41393">
        <ele>725</ele>
        <time>2019-06-19T17:06:48Z</time>
      </trkpt>
      <trkpt lat="47.11765" lon="6.41386">
        <ele>725</ele>
        <time>2019-06-19T17:06:50Z</time>
      </trkpt>
      <trkpt lat="47.11774" lon="6.41378">
        <ele>725</ele>
        <time>2019-06-19T17:06:52Z</time>
      </trkpt>
      <trkpt lat="47.11784" lon="6.41371">
        <ele>725</ele>
        <time>2019-06-19T17:06:54Z</time>
      </trkpt>
      <trkpt lat="47.118" lon="6.41356">
        <ele>726</ele>
        <time>2019-06-19T17:06:58Z</time>
      </trkpt>
      <trkpt lat="47.11808" lon="6.41349">
        <ele>726</ele>
        <time>2019-06-19T17:07:00Z</time>
      </trkpt>
      <trkpt lat="47.11819" lon="6.41343">
        <ele>726</ele>
        <time>2019-06-19T17:07:02Z</time>
      </trkpt>
      <trkpt lat="47.11828" lon="6.41336">
        <ele>726</ele>
        <time>2019-06-19T17:07:04Z</time>
      </trkpt>
      <trkpt lat="47.11837" lon="6.41329">
        <ele>726</ele>
        <time>2019-06-19T17:07:06Z</time>
      </trkpt>
      <trkpt lat="47.11852" lon="6.41327">
        <ele>725</ele>
        <time>2019-06-19T17:07:08Z</time>
      </trkpt>
      <trkpt lat="47.11863" lon="6.41323">
        <ele>725</ele>
        <time>2019-06-19T17:07:10Z</time>
      </trkpt>
      <trkpt lat="47.11887" lon="6.4131">
        <ele>725</ele>
        <time>2019-06-19T17:07:14Z</time>
      </trkpt>
      <trkpt lat="47.119" lon="6.41308">
        <ele>725</ele>
        <time>2019-06-19T17:07:16Z</time>
      </trkpt>
      <trkpt lat="47.11913" lon="6.41304">
        <ele>725</ele>
        <time>2019-06-19T17:07:18Z</time>
      </trkpt>
      <trkpt lat="47.11928" lon="6.413">
        <ele>726</ele>
        <time>2019-06-19T17:07:20Z</time>
      </trkpt>
      <trkpt lat="47.1194" lon="6.41293">
        <ele>726</ele>
        <time>2019-06-19T17:07:22Z</time>
      </trkpt>
      <trkpt lat="47.11953" lon="6.41286">
        <ele>726</ele>
        <time>2019-06-19T17:07:24Z</time>
      </trkpt>
      <trkpt lat="47.11968" lon="6.41277">
        <ele>726</ele>
        <time>2019-06-19T17:07:26Z</time>
      </trkpt>
      <trkpt lat="47.1198" lon="6.4127">
        <ele>727</ele>
        <time>2019-06-19T17:07:28Z</time>
      </trkpt>
      <trkpt lat="47.11991" lon="6.41263">
        <ele>727</ele>
        <time>2019-06-19T17:07:30Z</time>
      </trkpt>
      <trkpt lat="47.12002" lon="6.41256">
        <ele>728</ele>
        <time>2019-06-19T17:07:32Z</time>
      </trkpt>
      <trkpt lat="47.12014" lon="6.41248">
        <ele>729</ele>
        <time>2019-06-19T17:07:34Z</time>
      </trkpt>
      <trkpt lat="47.12024" lon="6.4124">
        <ele>730</ele>
        <time>2019-06-19T17:07:36Z</time>
      </trkpt>
      <trkpt lat="47.12034" lon="6.41235">
        <ele>730</ele>
        <time>2019-06-19T17:07:38Z</time>
      </trkpt>
      <trkpt lat="47.12044" lon="6.41228">
        <ele>730</ele>
        <time>2019-06-19T17:07:40Z</time>
      </trkpt>
      <trkpt lat="47.12053" lon="6.4122">
        <ele>730</ele>
        <time>2019-06-19T17:07:42Z</time>
      </trkpt>
      <trkpt lat="47.12066" lon="6.41199">
        <ele>731</ele>
        <time>2019-06-19T17:07:46Z</time>
      </trkpt>
      <trkpt lat="47.12074" lon="6.41191">
        <ele>731</ele>
        <time>2019-06-19T17:07:48Z</time>
      </trkpt>
      <trkpt lat="47.12079" lon="6.41179">
        <ele>731</ele>
        <time>2019-06-19T17:07:50Z</time>
      </trkpt>
      <trkpt lat="47.12086" lon="6.41169">
        <ele>732</ele>
        <time>2019-06-19T17:07:52Z</time>
      </trkpt>
      <trkpt lat="47.12111" lon="6.41152">
        <ele>733</ele>
        <time>2019-06-19T17:07:58Z</time>
      </trkpt>
      <trkpt lat="47.12123" lon="6.4114">
        <ele>734</ele>
        <time>2019-06-19T17:08:02Z</time>
      </trkpt>
      <trkpt lat="47.12138" lon="6.41128">
        <ele>734</ele>
        <time>2019-06-19T17:08:06Z</time>
      </trkpt>
      <trkpt lat="47.12153" lon="6.41115">
        <ele>735</ele>
        <time>2019-06-19T17:08:10Z</time>
      </trkpt>
      <trkpt lat="47.12166" lon="6.41104">
        <ele>735</ele>
        <time>2019-06-19T17:08:14Z</time>
      </trkpt>
      <trkpt lat="47.12181" lon="6.41092">
        <ele>735</ele>
        <time>2019-06-19T17:08:18Z</time>
      </trkpt>
      <trkpt lat="47.12188" lon="6.41082">
        <ele>736</ele>
        <time>2019-06-19T17:08:20Z</time>
      </trkpt>
      <trkpt lat="47.12196" lon="6.41075">
        <ele>736</ele>
        <time>2019-06-19T17:08:22Z</time>
      </trkpt>
      <trkpt lat="47.12207" lon="6.41066">
        <ele>736</ele>
        <time>2019-06-19T17:08:24Z</time>
      </trkpt>
      <trkpt lat="47.12213" lon="6.41053">
        <ele>736</ele>
        <time>2019-06-19T17:08:26Z</time>
      </trkpt>
      <trkpt lat="47.12222" lon="6.41041">
        <ele>736</ele>
        <time>2019-06-19T17:08:28Z</time>
      </trkpt>
      <trkpt lat="47.12232" lon="6.41027">
        <ele>736</ele>
        <time>2019-06-19T17:08:30Z</time>
      </trkpt>
      <trkpt lat="47.12242" lon="6.41016">
        <ele>736</ele>
        <time>2019-06-19T17:08:32Z</time>
      </trkpt>
      <trkpt lat="47.1225" lon="6.41002">
        <ele>736</ele>
        <time>2019-06-19T17:08:34Z</time>
      </trkpt>
      <trkpt lat="47.12262" lon="6.40986">
        <ele>736</ele>
        <time>2019-06-19T17:08:36Z</time>
      </trkpt>
      <trkpt lat="47.1227" lon="6.40976">
        <ele>736</ele>
        <time>2019-06-19T17:08:38Z</time>
      </trkpt>
      <trkpt lat="47.1228" lon="6.40965">
        <ele>736</ele>
        <time>2019-06-19T17:08:40Z</time>
      </trkpt>
      <trkpt lat="47.12289" lon="6.40959">
        <ele>736</ele>
        <time>2019-06-19T17:08:42Z</time>
      </trkpt>
      <trkpt lat="47.12299" lon="6.40955">
        <ele>737</ele>
        <time>2019-06-19T17:08:44Z</time>
      </trkpt>
      <trkpt lat="47.12309" lon="6.40949">
        <ele>737</ele>
        <time>2019-06-19T17:08:46Z</time>
      </trkpt>
      <trkpt lat="47.12319" lon="6.40939">
        <ele>737</ele>
        <time>2019-06-19T17:08:48Z</time>
      </trkpt>
      <trkpt lat="47.12329" lon="6.40933">
        <ele>737</ele>
        <time>2019-06-19T17:08:50Z</time>
      </trkpt>
      <trkpt lat="47.1234" lon="6.40927">
        <ele>737</ele>
        <time>2019-06-19T17:08:52Z</time>
      </trkpt>
      <trkpt lat="47.12348" lon="6.40918">
        <ele>737</ele>
        <time>2019-06-19T17:08:54Z</time>
      </trkpt>
      <trkpt lat="47.12356" lon="6.40911">
        <ele>739</ele>
        <time>2019-06-19T17:08:56Z</time>
      </trkpt>
      <trkpt lat="47.12366" lon="6.40902">
        <ele>739</ele>
        <time>2019-06-19T17:08:58Z</time>
      </trkpt>
      <trkpt lat="47.12381" lon="6.40882">
        <ele>740</ele>
        <time>2019-06-19T17:09:02Z</time>
      </trkpt>
      <trkpt lat="47.12389" lon="6.40872">
        <ele>740</ele>
        <time>2019-06-19T17:09:04Z</time>
      </trkpt>
      <trkpt lat="47.12394" lon="6.4086">
        <ele>740</ele>
        <time>2019-06-19T17:09:06Z</time>
      </trkpt>
      <trkpt lat="47.12399" lon="6.4085">
        <ele>741</ele>
        <time>2019-06-19T17:09:08Z</time>
      </trkpt>
      <trkpt lat="47.12405" lon="6.40839">
        <ele>742</ele>
        <time>2019-06-19T17:09:10Z</time>
      </trkpt>
      <trkpt lat="47.12415" lon="6.40834">
        <ele>743</ele>
        <time>2019-06-19T17:09:12Z</time>
      </trkpt>
      <trkpt lat="47.1242" lon="6.40823">
        <ele>744</ele>
        <time>2019-06-19T17:09:14Z</time>
      </trkpt>
      <trkpt lat="47.12433" lon="6.40808">
        <ele>744</ele>
        <time>2019-06-19T17:09:18Z</time>
      </trkpt>
      <trkpt lat="47.12447" lon="6.40793">
        <ele>744</ele>
        <time>2019-06-19T17:09:22Z</time>
      </trkpt>
      <trkpt lat="47.12459" lon="6.40773">
        <ele>745</ele>
        <time>2019-06-19T17:09:26Z</time>
      </trkpt>
      <trkpt lat="47.12466" lon="6.40764">
        <ele>745</ele>
        <time>2019-06-19T17:09:28Z</time>
      </trkpt>
      <trkpt lat="47.12476" lon="6.4076">
        <ele>745</ele>
        <time>2019-06-19T17:09:30Z</time>
      </trkpt>
      <trkpt lat="47.12483" lon="6.40751">
        <ele>745</ele>
        <time>2019-06-19T17:09:32Z</time>
      </trkpt>
      <trkpt lat="47.1249" lon="6.40741">
        <ele>746</ele>
        <time>2019-06-19T17:09:34Z</time>
      </trkpt>
      <trkpt lat="47.125" lon="6.40734">
        <ele>746</ele>
        <time>2019-06-19T17:09:36Z</time>
      </trkpt>
      <trkpt lat="47.12513" lon="6.40728">
        <ele>746</ele>
        <time>2019-06-19T17:09:38Z</time>
      </trkpt>
      <trkpt lat="47.12523" lon="6.40722">
        <ele>746</ele>
        <time>2019-06-19T17:09:40Z</time>
      </trkpt>
      <trkpt lat="47.12537" lon="6.40721">
        <ele>745</ele>
        <time>2019-06-19T17:09:42Z</time>
      </trkpt>
      <trkpt lat="47.12547" lon="6.40714">
        <ele>745</ele>
        <time>2019-06-19T17:09:44Z</time>
      </trkpt>
      <trkpt lat="47.12557" lon="6.40709">
        <ele>745</ele>
        <time>2019-06-19T17:09:46Z</time>
      </trkpt>
      <trkpt lat="47.12569" lon="6.40701">
        <ele>745</ele>
        <time>2019-06-19T17:09:48Z</time>
      </trkpt>
      <trkpt lat="47.12579" lon="6.40695">
        <ele>745</ele>
        <time>2019-06-19T17:09:50Z</time>
      </trkpt>
      <trkpt lat="47.1259" lon="6.40688">
        <ele>744</ele>
        <time>2019-06-19T17:09:52Z</time>
      </trkpt>
      <trkpt lat="47.12602" lon="6.40678">
        <ele>744</ele>
        <time>2019-06-19T17:09:54Z</time>
      </trkpt>
      <trkpt lat="47.12619" lon="6.40664">
        <ele>745</ele>
        <time>2019-06-19T17:09:56Z</time>
      </trkpt>
      <trkpt lat="47.12631" lon="6.40654">
        <ele>745</ele>
        <time>2019-06-19T17:09:58Z</time>
      </trkpt>
      <trkpt lat="47.12646" lon="6.40646">
        <ele>744</ele>
        <time>2019-06-19T17:10:00Z</time>
      </trkpt>
      <trkpt lat="47.12661" lon="6.40637">
        <ele>744</ele>
        <time>2019-06-19T17:10:02Z</time>
      </trkpt>
      <trkpt lat="47.12674" lon="6.40643">
        <ele>743</ele>
        <time>2019-06-19T17:10:04Z</time>
      </trkpt>
      <trkpt lat="47.12692" lon="6.40647">
        <ele>743</ele>
        <time>2019-06-19T17:10:06Z</time>
      </trkpt>
      <trkpt lat="47.12706" lon="6.40648">
        <ele>742</ele>
        <time>2019-06-19T17:10:08Z</time>
      </trkpt>
      <trkpt lat="47.12724" lon="6.40648">
        <ele>742</ele>
        <time>2019-06-19T17:10:10Z</time>
      </trkpt>
      <trkpt lat="47.12739" lon="6.40657">
        <ele>740</ele>
        <time>2019-06-19T17:10:12Z</time>
      </trkpt>
      <trkpt lat="47.12753" lon="6.40659">
        <ele>738</ele>
        <time>2019-06-19T17:10:14Z</time>
      </trkpt>
      <trkpt lat="47.12769" lon="6.40658">
        <ele>739</ele>
        <time>2019-06-19T17:10:16Z</time>
      </trkpt>
      <trkpt lat="47.12782" lon="6.40654">
        <ele>738</ele>
        <time>2019-06-19T17:10:18Z</time>
      </trkpt>
      <trkpt lat="47.12795" lon="6.40651">
        <ele>738</ele>
        <time>2019-06-19T17:10:20Z</time>
      </trkpt>
      <trkpt lat="47.12808" lon="6.40643">
        <ele>738</ele>
        <time>2019-06-19T17:10:22Z</time>
      </trkpt>
      <trkpt lat="47.12824" lon="6.40632">
        <ele>738</ele>
        <time>2019-06-19T17:10:24Z</time>
      </trkpt>
      <trkpt lat="47.1284" lon="6.40623">
        <ele>734</ele>
        <time>2019-06-19T17:10:26Z</time>
      </trkpt>
      <trkpt lat="47.12856" lon="6.40613">
        <ele>733</ele>
        <time>2019-06-19T17:10:28Z</time>
      </trkpt>
      <trkpt lat="47.12877" lon="6.40607">
        <ele>733</ele>
        <time>2019-06-19T17:10:30Z</time>
      </trkpt>
      <trkpt lat="47.12894" lon="6.40597">
        <ele>732</ele>
        <time>2019-06-19T17:10:32Z</time>
      </trkpt>
      <trkpt lat="47.12912" lon="6.40591">
        <ele>731</ele>
        <time>2019-06-19T17:10:34Z</time>
      </trkpt>
      <trkpt lat="47.12927" lon="6.40582">
        <ele>730</ele>
        <time>2019-06-19T17:10:36Z</time>
      </trkpt>
      <trkpt lat="47.12944" lon="6.40572">
        <ele>729</ele>
        <time>2019-06-19T17:10:38Z</time>
      </trkpt>
      <trkpt lat="47.12955" lon="6.40555">
        <ele>729</ele>
        <time>2019-06-19T17:10:40Z</time>
      </trkpt>
      <trkpt lat="47.12967" lon="6.40538">
        <ele>728</ele>
        <time>2019-06-19T17:10:42Z</time>
      </trkpt>
      <trkpt lat="47.12981" lon="6.40528">
        <ele>728</ele>
        <time>2019-06-19T17:10:44Z</time>
      </trkpt>
      <trkpt lat="47.12994" lon="6.40526">
        <ele>728</ele>
        <time>2019-06-19T17:10:46Z</time>
      </trkpt>
      <trkpt lat="47.13009" lon="6.40526">
        <ele>727</ele>
        <time>2019-06-19T17:10:48Z</time>
      </trkpt>
      <trkpt lat="47.13018" lon="6.40525">
        <ele>727</ele>
        <time>2019-06-19T17:10:50Z</time>
      </trkpt>
      <trkpt lat="47.13034" lon="6.4052">
        <ele>727</ele>
        <time>2019-06-19T17:10:52Z</time>
      </trkpt>
      <trkpt lat="47.13046" lon="6.40513">
        <ele>727</ele>
        <time>2019-06-19T17:10:54Z</time>
      </trkpt>
      <trkpt lat="47.1306" lon="6.40506">
        <ele>727</ele>
        <time>2019-06-19T17:10:56Z</time>
      </trkpt>
      <trkpt lat="47.13071" lon="6.40495">
        <ele>727</ele>
        <time>2019-06-19T17:10:58Z</time>
      </trkpt>
      <trkpt lat="47.13084" lon="6.40484">
        <ele>726</ele>
        <time>2019-06-19T17:11:00Z</time>
      </trkpt>
      <trkpt lat="47.13097" lon="6.40474">
        <ele>726</ele>
        <time>2019-06-19T17:11:03Z</time>
      </trkpt>
      <trkpt lat="47.13122" lon="6.40449">
        <ele>726</ele>
        <time>2019-06-19T17:11:06Z</time>
      </trkpt>
      <trkpt lat="47.13141" lon="6.40438">
        <ele>725</ele>
        <time>2019-06-19T17:11:08Z</time>
      </trkpt>
      <trkpt lat="47.13154" lon="6.40436">
        <ele>725</ele>
        <time>2019-06-19T17:11:10Z</time>
      </trkpt>
      <trkpt lat="47.13169" lon="6.40432">
        <ele>724</ele>
        <time>2019-06-19T17:11:12Z</time>
      </trkpt>
      <trkpt lat="47.13181" lon="6.40433">
        <ele>724</ele>
        <time>2019-06-19T17:11:14Z</time>
      </trkpt>
      <trkpt lat="47.13194" lon="6.40437">
        <ele>724</ele>
        <time>2019-06-19T17:11:16Z</time>
      </trkpt>
      <trkpt lat="47.13208" lon="6.4044">
        <ele>724</ele>
        <time>2019-06-19T17:11:18Z</time>
      </trkpt>
      <trkpt lat="47.13227" lon="6.40447">
        <ele>723</ele>
        <time>2019-06-19T17:11:20Z</time>
      </trkpt>
      <trkpt lat="47.13245" lon="6.40449">
        <ele>723</ele>
        <time>2019-06-19T17:11:22Z</time>
      </trkpt>
      <trkpt lat="47.13261" lon="6.40449">
        <ele>723</ele>
        <time>2019-06-19T17:11:24Z</time>
      </trkpt>
      <trkpt lat="47.13276" lon="6.40445">
        <ele>723</ele>
        <time>2019-06-19T17:11:26Z</time>
      </trkpt>
      <trkpt lat="47.13294" lon="6.4044">
        <ele>723</ele>
        <time>2019-06-19T17:11:28Z</time>
      </trkpt>
      <trkpt lat="47.13311" lon="6.40437">
        <ele>722</ele>
        <time>2019-06-19T17:11:30Z</time>
      </trkpt>
      <trkpt lat="47.13321" lon="6.40423">
        <ele>722</ele>
        <time>2019-06-19T17:11:32Z</time>
      </trkpt>
      <trkpt lat="47.13335" lon="6.40413">
        <ele>723</ele>
        <time>2019-06-19T17:11:34Z</time>
      </trkpt>
      <trkpt lat="47.1335" lon="6.40404">
        <ele>724</ele>
        <time>2019-06-19T17:11:36Z</time>
      </trkpt>
      <trkpt lat="47.13365" lon="6.40407">
        <ele>724</ele>
        <time>2019-06-19T17:11:38Z</time>
      </trkpt>
      <trkpt lat="47.13381" lon="6.4041">
        <ele>725</ele>
        <time>2019-06-19T17:11:40Z</time>
      </trkpt>
      <trkpt lat="47.13394" lon="6.40413">
        <ele>725</ele>
        <time>2019-06-19T17:11:42Z</time>
      </trkpt>
      <trkpt lat="47.13407" lon="6.40417">
        <ele>725</ele>
        <time>2019-06-19T17:11:44Z</time>
      </trkpt>
      <trkpt lat="47.13424" lon="6.40421">
        <ele>726</ele>
        <time>2019-06-19T17:11:46Z</time>
      </trkpt>
      <trkpt lat="47.13438" lon="6.40424">
        <ele>726</ele>
        <time>2019-06-19T17:11:48Z</time>
      </trkpt>
      <trkpt lat="47.13453" lon="6.40432">
        <ele>727</ele>
        <time>2019-06-19T17:11:50Z</time>
      </trkpt>
      <trkpt lat="47.13466" lon="6.40433">
        <ele>727</ele>
        <time>2019-06-19T17:11:52Z</time>
      </trkpt>
      <trkpt lat="47.13479" lon="6.40434">
        <ele>727</ele>
        <time>2019-06-19T17:11:54Z</time>
      </trkpt>
      <trkpt lat="47.1349" lon="6.40443">
        <ele>727</ele>
        <time>2019-06-19T17:11:56Z</time>
      </trkpt>
      <trkpt lat="47.13502" lon="6.40445">
        <ele>728</ele>
        <time>2019-06-19T17:11:58Z</time>
      </trkpt>
      <trkpt lat="47.13513" lon="6.40448">
        <ele>728</ele>
        <time>2019-06-19T17:12:00Z</time>
      </trkpt>
      <trkpt lat="47.13525" lon="6.40451">
        <ele>728</ele>
        <time>2019-06-19T17:12:02Z</time>
      </trkpt>
      <trkpt lat="47.13538" lon="6.40454">
        <ele>728</ele>
        <time>2019-06-19T17:12:04Z</time>
      </trkpt>
      <trkpt lat="47.1355" lon="6.40456">
        <ele>728</ele>
        <time>2019-06-19T17:12:06Z</time>
      </trkpt>
      <trkpt lat="47.13562" lon="6.40456">
        <ele>728</ele>
        <time>2019-06-19T17:12:08Z</time>
      </trkpt>
      <trkpt lat="47.13575" lon="6.40453">
        <ele>728</ele>
        <time>2019-06-19T17:12:10Z</time>
      </trkpt>
      <trkpt lat="47.13589" lon="6.40448">
        <ele>728</ele>
        <time>2019-06-19T17:12:12Z</time>
      </trkpt>
      <trkpt lat="47.13602" lon="6.40439">
        <ele>728</ele>
        <time>2019-06-19T17:12:14Z</time>
      </trkpt>
      <trkpt lat="47.13614" lon="6.40431">
        <ele>727</ele>
        <time>2019-06-19T17:12:16Z</time>
      </trkpt>
      <trkpt lat="47.13627" lon="6.40421">
        <ele>727</ele>
        <time>2019-06-19T17:12:18Z</time>
      </trkpt>
      <trkpt lat="47.13644" lon="6.40421">
        <ele>727</ele>
        <time>2019-06-19T17:12:20Z</time>
      </trkpt>
      <trkpt lat="47.13657" lon="6.40416">
        <ele>727</ele>
        <time>2019-06-19T17:12:22Z</time>
      </trkpt>
      <trkpt lat="47.13669" lon="6.40405">
        <ele>727</ele>
        <time>2019-06-19T17:12:24Z</time>
      </trkpt>
      <trkpt lat="47.13683" lon="6.404">
        <ele>728</ele>
        <time>2019-06-19T17:12:26Z</time>
      </trkpt>
      <trkpt lat="47.13696" lon="6.40394">
        <ele>728</ele>
        <time>2019-06-19T17:12:28Z</time>
      </trkpt>
      <trkpt lat="47.13704" lon="6.40384">
        <ele>728</ele>
        <time>2019-06-19T17:12:30Z</time>
      </trkpt>
      <trkpt lat="47.13712" lon="6.40372">
        <ele>728</ele>
        <time>2019-06-19T17:12:32Z</time>
      </trkpt>
      <trkpt lat="47.13722" lon="6.40362">
        <ele>728</ele>
        <time>2019-06-19T17:12:34Z</time>
      </trkpt>
      <trkpt lat="47.13732" lon="6.40352">
        <ele>729</ele>
        <time>2019-06-19T17:12:36Z</time>
      </trkpt>
      <trkpt lat="47.13741" lon="6.40342">
        <ele>729</ele>
        <time>2019-06-19T17:12:38Z</time>
      </trkpt>
      <trkpt lat="47.13749" lon="6.4033">
        <ele>730</ele>
        <time>2019-06-19T17:12:40Z</time>
      </trkpt>
      <trkpt lat="47.13757" lon="6.40313">
        <ele>730</ele>
        <time>2019-06-19T17:12:42Z</time>
      </trkpt>
      <trkpt lat="47.13765" lon="6.403">
        <ele>730</ele>
        <time>2019-06-19T17:12:44Z</time>
      </trkpt>
      <trkpt lat="47.13773" lon="6.40287">
        <ele>731</ele>
        <time>2019-06-19T17:12:46Z</time>
      </trkpt>
      <trkpt lat="47.13779" lon="6.40276">
        <ele>731</ele>
        <time>2019-06-19T17:12:48Z</time>
      </trkpt>
      <trkpt lat="47.13785" lon="6.4026">
        <ele>731</ele>
        <time>2019-06-19T17:12:50Z</time>
      </trkpt>
      <trkpt lat="47.13792" lon="6.40249">
        <ele>733</ele>
        <time>2019-06-19T17:12:52Z</time>
      </trkpt>
      <trkpt lat="47.13801" lon="6.4024">
        <ele>733</ele>
        <time>2019-06-19T17:12:54Z</time>
      </trkpt>
      <trkpt lat="47.13809" lon="6.40232">
        <ele>733</ele>
        <time>2019-06-19T17:12:56Z</time>
      </trkpt>
      <trkpt lat="47.13817" lon="6.40224">
        <ele>733</ele>
        <time>2019-06-19T17:12:58Z</time>
      </trkpt>
      <trkpt lat="47.13829" lon="6.40221">
        <ele>733</ele>
        <time>2019-06-19T17:13:00Z</time>
      </trkpt>
      <trkpt lat="47.13841" lon="6.40215">
        <ele>732</ele>
        <time>2019-06-19T17:13:02Z</time>
      </trkpt>
      <trkpt lat="47.13851" lon="6.40209">
        <ele>732</ele>
        <time>2019-06-19T17:13:04Z</time>
      </trkpt>
      <trkpt lat="47.13862" lon="6.40204">
        <ele>732</ele>
        <time>2019-06-19T17:13:06Z</time>
      </trkpt>
      <trkpt lat="47.13873" lon="6.40196">
        <ele>731</ele>
        <time>2019-06-19T17:13:08Z</time>
      </trkpt>
      <trkpt lat="47.13884" lon="6.40186">
        <ele>731</ele>
        <time>2019-06-19T17:13:10Z</time>
      </trkpt>
      <trkpt lat="47.13903" lon="6.40175">
        <ele>730</ele>
        <time>2019-06-19T17:13:12Z</time>
      </trkpt>
      <trkpt lat="47.13915" lon="6.40167">
        <ele>728</ele>
        <time>2019-06-19T17:13:14Z</time>
      </trkpt>
      <trkpt lat="47.13919" lon="6.40149">
        <ele>730</ele>
        <time>2019-06-19T17:13:16Z</time>
      </trkpt>
      <trkpt lat="47.13914" lon="6.40131">
        <ele>732</ele>
        <time>2019-06-19T17:13:18Z</time>
      </trkpt>
      <trkpt lat="47.1391" lon="6.40116">
        <ele>733</ele>
        <time>2019-06-19T17:13:20Z</time>
      </trkpt>
      <trkpt lat="47.13907" lon="6.401">
        <ele>733</ele>
        <time>2019-06-19T17:13:22Z</time>
      </trkpt>
      <trkpt lat="47.13903" lon="6.40083">
        <ele>734</ele>
        <time>2019-06-19T17:13:24Z</time>
      </trkpt>
      <trkpt lat="47.13901" lon="6.40066">
        <ele>735</ele>
        <time>2019-06-19T17:13:26Z</time>
      </trkpt>
      <trkpt lat="47.13899" lon="6.4005">
        <ele>736</ele>
        <time>2019-06-19T17:13:28Z</time>
      </trkpt>
      <trkpt lat="47.13897" lon="6.40032">
        <ele>736</ele>
        <time>2019-06-19T17:13:30Z</time>
      </trkpt>
      <trkpt lat="47.13895" lon="6.40016">
        <ele>736</ele>
        <time>2019-06-19T17:13:32Z</time>
      </trkpt>
      <trkpt lat="47.13893" lon="6.4">
        <ele>736</ele>
        <time>2019-06-19T17:13:34Z</time>
      </trkpt>
      <trkpt lat="47.1389" lon="6.39983">
        <ele>737</ele>
        <time>2019-06-19T17:13:36Z</time>
      </trkpt>
      <trkpt lat="47.1389" lon="6.39965">
        <ele>737</ele>
        <time>2019-06-19T17:13:38Z</time>
      </trkpt>
      <trkpt lat="47.13887" lon="6.3995">
        <ele>737</ele>
        <time>2019-06-19T17:13:40Z</time>
      </trkpt>
      <trkpt lat="47.13886" lon="6.39935">
        <ele>737</ele>
        <time>2019-06-19T17:13:42Z</time>
      </trkpt>
      <trkpt lat="47.13883" lon="6.39918">
        <ele>737</ele>
        <time>2019-06-19T17:13:44Z</time>
      </trkpt>
      <trkpt lat="47.13881" lon="6.39901">
        <ele>736</ele>
        <time>2019-06-19T17:13:46Z</time>
      </trkpt>
      <trkpt lat="47.13877" lon="6.39885">
        <ele>736</ele>
        <time>2019-06-19T17:13:48Z</time>
      </trkpt>
      <trkpt lat="47.13873" lon="6.39868">
        <ele>736</ele>
        <time>2019-06-19T17:13:50Z</time>
      </trkpt>
      <trkpt lat="47.13871" lon="6.39847">
        <ele>736</ele>
        <time>2019-06-19T17:13:52Z</time>
      </trkpt>
      <trkpt lat="47.13871" lon="6.39825">
        <ele>735</ele>
        <time>2019-06-19T17:13:54Z</time>
      </trkpt>
      <trkpt lat="47.13873" lon="6.39805">
        <ele>735</ele>
        <time>2019-06-19T17:13:56Z</time>
      </trkpt>
      <trkpt lat="47.13902" lon="6.398">
        <ele>734</ele>
        <time>2019-06-19T17:14:00Z</time>
      </trkpt>
      <trkpt lat="47.13914" lon="6.398">
        <ele>734</ele>
        <time>2019-06-19T17:14:02Z</time>
      </trkpt>
      <trkpt lat="47.13926" lon="6.39801">
        <ele>734</ele>
        <time>2019-06-19T17:14:04Z</time>
      </trkpt>
      <trkpt lat="47.13936" lon="6.39804">
        <ele>734</ele>
        <time>2019-06-19T17:14:06Z</time>
      </trkpt>
      <trkpt lat="47.13945" lon="6.39814">
        <ele>734</ele>
        <time>2019-06-19T17:14:08Z</time>
      </trkpt>
      <trkpt lat="47.13951" lon="6.39827">
        <ele>734</ele>
        <time>2019-06-19T17:14:10Z</time>
      </trkpt>
      <trkpt lat="47.1396" lon="6.39849">
        <ele>735</ele>
        <time>2019-06-19T17:14:14Z</time>
      </trkpt>
      <trkpt lat="47.13967" lon="6.39861">
        <ele>735</ele>
        <time>2019-06-19T17:14:18Z</time>
      </trkpt>
      <trkpt lat="47.13978" lon="6.39872">
        <ele>735</ele>
        <time>2019-06-19T17:14:22Z</time>
      </trkpt>
      <trkpt lat="47.13988" lon="6.3988">
        <ele>735</ele>
        <time>2019-06-19T17:14:24Z</time>
      </trkpt>
      <trkpt lat="47.13996" lon="6.39887">
        <ele>735</ele>
        <time>2019-06-19T17:14:26Z</time>
      </trkpt>
      <trkpt lat="47.14005" lon="6.39896">
        <ele>735</ele>
        <time>2019-06-19T17:14:28Z</time>
      </trkpt>
      <trkpt lat="47.14013" lon="6.39907">
        <ele>735</ele>
        <time>2019-06-19T17:14:30Z</time>
      </trkpt>
      <trkpt lat="47.14022" lon="6.39918">
        <ele>734</ele>
        <time>2019-06-19T17:14:32Z</time>
      </trkpt>
      <trkpt lat="47.14031" lon="6.39929">
        <ele>734</ele>
        <time>2019-06-19T17:14:34Z</time>
      </trkpt>
      <trkpt lat="47.1404" lon="6.39943">
        <ele>734</ele>
        <time>2019-06-19T17:14:36Z</time>
      </trkpt>
      <trkpt lat="47.14048" lon="6.39958">
        <ele>734</ele>
        <time>2019-06-19T17:14:38Z</time>
      </trkpt>
      <trkpt lat="47.14055" lon="6.39972">
        <ele>734</ele>
        <time>2019-06-19T17:14:40Z</time>
      </trkpt>
      <trkpt lat="47.14063" lon="6.39987">
        <ele>734</ele>
        <time>2019-06-19T17:14:42Z</time>
      </trkpt>
      <trkpt lat="47.14071" lon="6.39997">
        <ele>734</ele>
        <time>2019-06-19T17:14:44Z</time>
      </trkpt>
      <trkpt lat="47.14079" lon="6.4001">
        <ele>734</ele>
        <time>2019-06-19T17:14:46Z</time>
      </trkpt>
      <trkpt lat="47.14091" lon="6.40026">
        <ele>735</ele>
        <time>2019-06-19T17:14:48Z</time>
      </trkpt>
      <trkpt lat="47.14097" lon="6.4004">
        <ele>736</ele>
        <time>2019-06-19T17:14:50Z</time>
      </trkpt>
      <trkpt lat="47.14105" lon="6.40052">
        <ele>736</ele>
        <time>2019-06-19T17:14:52Z</time>
      </trkpt>
      <trkpt lat="47.14116" lon="6.40063">
        <ele>736</ele>
        <time>2019-06-19T17:14:54Z</time>
      </trkpt>
      <trkpt lat="47.14127" lon="6.4007">
        <ele>736</ele>
        <time>2019-06-19T17:14:56Z</time>
      </trkpt>
      <trkpt lat="47.14137" lon="6.40076">
        <ele>736</ele>
        <time>2019-06-19T17:14:58Z</time>
      </trkpt>
      <trkpt lat="47.14154" lon="6.40085">
        <ele>737</ele>
        <time>2019-06-19T17:15:02Z</time>
      </trkpt>
      <trkpt lat="47.14164" lon="6.40089">
        <ele>737</ele>
        <time>2019-06-19T17:15:04Z</time>
      </trkpt>
      <trkpt lat="47.14177" lon="6.40103">
        <ele>740</ele>
        <time>2019-06-19T17:15:08Z</time>
      </trkpt>
      <trkpt lat="47.14185" lon="6.40111">
        <ele>741</ele>
        <time>2019-06-19T17:15:10Z</time>
      </trkpt>
      <trkpt lat="47.14192" lon="6.4012">
        <ele>741</ele>
        <time>2019-06-19T17:15:12Z</time>
      </trkpt>
      <trkpt lat="47.142" lon="6.40128">
        <ele>742</ele>
        <time>2019-06-19T17:15:14Z</time>
      </trkpt>
      <trkpt lat="47.14209" lon="6.40131">
        <ele>742</ele>
        <time>2019-06-19T17:15:16Z</time>
      </trkpt>
      <trkpt lat="47.14218" lon="6.40135">
        <ele>743</ele>
        <time>2019-06-19T17:15:18Z</time>
      </trkpt>
      <trkpt lat="47.14232" lon="6.40133">
        <ele>743</ele>
        <time>2019-06-19T17:15:22Z</time>
      </trkpt>
      <trkpt lat="47.14246" lon="6.40139">
        <ele>744</ele>
        <time>2019-06-19T17:15:28Z</time>
      </trkpt>
      <trkpt lat="47.14258" lon="6.40139">
        <ele>751</ele>
        <time>2019-06-19T17:15:32Z</time>
      </trkpt>
      <trkpt lat="47.14268" lon="6.40139">
        <ele>751</ele>
        <time>2019-06-19T17:15:36Z</time>
      </trkpt>
      <trkpt lat="47.1428" lon="6.40139">
        <ele>752</ele>
        <time>2019-06-19T17:15:40Z</time>
      </trkpt>
      <trkpt lat="47.1429" lon="6.40138">
        <ele>753</ele>
        <time>2019-06-19T17:15:44Z</time>
      </trkpt>
      <trkpt lat="47.14299" lon="6.40137">
        <ele>754</ele>
        <time>2019-06-19T17:15:48Z</time>
      </trkpt>
      <trkpt lat="47.14322" lon="6.40142">
        <ele>756</ele>
        <time>2019-06-19T17:15:58Z</time>
      </trkpt>
      <trkpt lat="47.14331" lon="6.40146">
        <ele>757</ele>
        <time>2019-06-19T17:16:02Z</time>
      </trkpt>
      <trkpt lat="47.1434" lon="6.40155">
        <ele>761</ele>
        <time>2019-06-19T17:16:08Z</time>
      </trkpt>
      <trkpt lat="47.14349" lon="6.40167">
        <ele>762</ele>
        <time>2019-06-19T17:16:14Z</time>
      </trkpt>
      <trkpt lat="47.14359" lon="6.40178">
        <ele>763</ele>
        <time>2019-06-19T17:16:18Z</time>
      </trkpt>
      <trkpt lat="47.14373" lon="6.40181">
        <ele>764</ele>
        <time>2019-06-19T17:16:24Z</time>
      </trkpt>
      <trkpt lat="47.14382" lon="6.40192">
        <ele>764</ele>
        <time>2019-06-19T17:16:30Z</time>
      </trkpt>
      <trkpt lat="47.1439" lon="6.40206">
        <ele>765</ele>
        <time>2019-06-19T17:16:34Z</time>
      </trkpt>
      <trkpt lat="47.14398" lon="6.40218">
        <ele>766</ele>
        <time>2019-06-19T17:16:38Z</time>
      </trkpt>
      <trkpt lat="47.14405" lon="6.40231">
        <ele>767</ele>
        <time>2019-06-19T17:16:42Z</time>
      </trkpt>
      <trkpt lat="47.14414" lon="6.40243">
        <ele>770</ele>
        <time>2019-06-19T17:16:46Z</time>
      </trkpt>
      <trkpt lat="47.14422" lon="6.40259">
        <ele>773</ele>
        <time>2019-06-19T17:16:52Z</time>
      </trkpt>
      <trkpt lat="47.14429" lon="6.40276">
        <ele>773</ele>
        <time>2019-06-19T17:16:56Z</time>
      </trkpt>
      <trkpt lat="47.14439" lon="6.40286">
        <ele>773</ele>
        <time>2019-06-19T17:17:00Z</time>
      </trkpt>
      <trkpt lat="47.14457" lon="6.40304">
        <ele>774</ele>
        <time>2019-06-19T17:17:08Z</time>
      </trkpt>
      <trkpt lat="47.14462" lon="6.40316">
        <ele>774</ele>
        <time>2019-06-19T17:17:12Z</time>
      </trkpt>
      <trkpt lat="47.14468" lon="6.40329">
        <ele>775</ele>
        <time>2019-06-19T17:17:18Z</time>
      </trkpt>
      <trkpt lat="47.14476" lon="6.40346">
        <ele>774</ele>
        <time>2019-06-19T17:17:22Z</time>
      </trkpt>
      <trkpt lat="47.14485" lon="6.40357">
        <ele>774</ele>
        <time>2019-06-19T17:17:26Z</time>
      </trkpt>
      <trkpt lat="47.14494" lon="6.40365">
        <ele>774</ele>
        <time>2019-06-19T17:17:30Z</time>
      </trkpt>
      <trkpt lat="47.14507" lon="6.40369">
        <ele>777</ele>
        <time>2019-06-19T17:17:34Z</time>
      </trkpt>
      <trkpt lat="47.1452" lon="6.40378">
        <ele>777</ele>
        <time>2019-06-19T17:17:38Z</time>
      </trkpt>
      <trkpt lat="47.14533" lon="6.40388">
        <ele>777</ele>
        <time>2019-06-19T17:17:42Z</time>
      </trkpt>
      <trkpt lat="47.14544" lon="6.40398">
        <ele>776</ele>
        <time>2019-06-19T17:17:46Z</time>
      </trkpt>
      <trkpt lat="47.14556" lon="6.4041">
        <ele>777</ele>
        <time>2019-06-19T17:17:50Z</time>
      </trkpt>
      <trkpt lat="47.14568" lon="6.40421">
        <ele>776</ele>
        <time>2019-06-19T17:17:54Z</time>
      </trkpt>
      <trkpt lat="47.14579" lon="6.40431">
        <ele>776</ele>
        <time>2019-06-19T17:17:58Z</time>
      </trkpt>
      <trkpt lat="47.14589" lon="6.40443">
        <ele>779</ele>
        <time>2019-06-19T17:18:02Z</time>
      </trkpt>
      <trkpt lat="47.14599" lon="6.40458">
        <ele>779</ele>
        <time>2019-06-19T17:18:06Z</time>
      </trkpt>
      <trkpt lat="47.1461" lon="6.40471">
        <ele>779</ele>
        <time>2019-06-19T17:18:10Z</time>
      </trkpt>
      <trkpt lat="47.14622" lon="6.40485">
        <ele>780</ele>
        <time>2019-06-19T17:18:14Z</time>
      </trkpt>
      <trkpt lat="47.14632" lon="6.40497">
        <ele>781</ele>
        <time>2019-06-19T17:18:18Z</time>
      </trkpt>
      <trkpt lat="47.14642" lon="6.4051">
        <ele>782</ele>
        <time>2019-06-19T17:18:22Z</time>
      </trkpt>
      <trkpt lat="47.14652" lon="6.40517">
        <ele>782</ele>
        <time>2019-06-19T17:18:26Z</time>
      </trkpt>
      <trkpt lat="47.14664" lon="6.40525">
        <ele>782</ele>
        <time>2019-06-19T17:18:30Z</time>
      </trkpt>
      <trkpt lat="47.14677" lon="6.4053">
        <ele>786</ele>
        <time>2019-06-19T17:18:34Z</time>
      </trkpt>
      <trkpt lat="47.14689" lon="6.40536">
        <ele>786</ele>
        <time>2019-06-19T17:18:38Z</time>
      </trkpt>
      <trkpt lat="47.14703" lon="6.40542">
        <ele>786</ele>
        <time>2019-06-19T17:18:42Z</time>
      </trkpt>
      <trkpt lat="47.14718" lon="6.40549">
        <ele>786</ele>
        <time>2019-06-19T17:18:46Z</time>
      </trkpt>
      <trkpt lat="47.14732" lon="6.40555">
        <ele>787</ele>
        <time>2019-06-19T17:18:50Z</time>
      </trkpt>
      <trkpt lat="47.14744" lon="6.4056">
        <ele>787</ele>
        <time>2019-06-19T17:18:54Z</time>
      </trkpt>
      <trkpt lat="47.14757" lon="6.40564">
        <ele>790</ele>
        <time>2019-06-19T17:18:58Z</time>
      </trkpt>
      <trkpt lat="47.1477" lon="6.40568">
        <ele>790</ele>
        <time>2019-06-19T17:19:02Z</time>
      </trkpt>
      <trkpt lat="47.14782" lon="6.40573">
        <ele>790</ele>
        <time>2019-06-19T17:19:06Z</time>
      </trkpt>
      <trkpt lat="47.14795" lon="6.40576">
        <ele>791</ele>
        <time>2019-06-19T17:19:10Z</time>
      </trkpt>
      <trkpt lat="47.14807" lon="6.40578">
        <ele>792</ele>
        <time>2019-06-19T17:19:14Z</time>
      </trkpt>
      <trkpt lat="47.14822" lon="6.40584">
        <ele>793</ele>
        <time>2019-06-19T17:19:18Z</time>
      </trkpt>
      <trkpt lat="47.14837" lon="6.40591">
        <ele>795</ele>
        <time>2019-06-19T17:19:22Z</time>
      </trkpt>
      <trkpt lat="47.14851" lon="6.40598">
        <ele>795</ele>
        <time>2019-06-19T17:19:26Z</time>
      </trkpt>
      <trkpt lat="47.14865" lon="6.40605">
        <ele>795</ele>
        <time>2019-06-19T17:19:30Z</time>
      </trkpt>
      <trkpt lat="47.14881" lon="6.4061">
        <ele>795</ele>
        <time>2019-06-19T17:19:34Z</time>
      </trkpt>
      <trkpt lat="47.14896" lon="6.40613">
        <ele>795</ele>
        <time>2019-06-19T17:19:38Z</time>
      </trkpt>
      <trkpt lat="47.14912" lon="6.40612">
        <ele>795</ele>
        <time>2019-06-19T17:19:42Z</time>
      </trkpt>
      <trkpt lat="47.14929" lon="6.40611">
        <ele>796</ele>
        <time>2019-06-19T17:19:46Z</time>
      </trkpt>
      <trkpt lat="47.14945" lon="6.40611">
        <ele>796</ele>
        <time>2019-06-19T17:19:50Z</time>
      </trkpt>
      <trkpt lat="47.14961" lon="6.40613">
        <ele>797</ele>
        <time>2019-06-19T17:19:54Z</time>
      </trkpt>
      <trkpt lat="47.14977" lon="6.40611">
        <ele>797</ele>
        <time>2019-06-19T17:19:58Z</time>
      </trkpt>
      <trkpt lat="47.14986" lon="6.40608">
        <ele>797</ele>
        <time>2019-06-19T17:20:00Z</time>
      </trkpt>
      <trkpt lat="47.14995" lon="6.40606">
        <ele>797</ele>
        <time>2019-06-19T17:20:02Z</time>
      </trkpt>
      <trkpt lat="47.15004" lon="6.40605">
        <ele>798</ele>
        <time>2019-06-19T17:20:04Z</time>
      </trkpt>
      <trkpt lat="47.15014" lon="6.40605">
        <ele>798</ele>
        <time>2019-06-19T17:20:06Z</time>
      </trkpt>
      <trkpt lat="47.15023" lon="6.40607">
        <ele>798</ele>
        <time>2019-06-19T17:20:08Z</time>
      </trkpt>
      <trkpt lat="47.15033" lon="6.40606">
        <ele>798</ele>
        <time>2019-06-19T17:20:10Z</time>
      </trkpt>
      <trkpt lat="47.15042" lon="6.40604">
        <ele>798</ele>
        <time>2019-06-19T17:20:12Z</time>
      </trkpt>
      <trkpt lat="47.15056" lon="6.40599">
        <ele>798</ele>
        <time>2019-06-19T17:20:16Z</time>
      </trkpt>
      <trkpt lat="47.15066" lon="6.406">
        <ele>798</ele>
        <time>2019-06-19T17:20:18Z</time>
      </trkpt>
      <trkpt lat="47.15076" lon="6.40601">
        <ele>798</ele>
        <time>2019-06-19T17:20:20Z</time>
      </trkpt>
      <trkpt lat="47.15087" lon="6.40605">
        <ele>799</ele>
        <time>2019-06-19T17:20:22Z</time>
      </trkpt>
      <trkpt lat="47.15097" lon="6.40607">
        <ele>799</ele>
        <time>2019-06-19T17:20:24Z</time>
      </trkpt>
      <trkpt lat="47.15106" lon="6.40608">
        <ele>800</ele>
        <time>2019-06-19T17:20:26Z</time>
      </trkpt>
      <trkpt lat="47.15124" lon="6.40611">
        <ele>800</ele>
        <time>2019-06-19T17:20:30Z</time>
      </trkpt>
      <trkpt lat="47.15134" lon="6.40612">
        <ele>800</ele>
        <time>2019-06-19T17:20:32Z</time>
      </trkpt>
      <trkpt lat="47.1515" lon="6.40609">
        <ele>800</ele>
        <time>2019-06-19T17:20:36Z</time>
      </trkpt>
      <trkpt lat="47.1516" lon="6.40614">
        <ele>800</ele>
        <time>2019-06-19T17:20:38Z</time>
      </trkpt>
      <trkpt lat="47.15174" lon="6.40614">
        <ele>803</ele>
        <time>2019-06-19T17:20:42Z</time>
      </trkpt>
      <trkpt lat="47.15189" lon="6.40611">
        <ele>803</ele>
        <time>2019-06-19T17:20:46Z</time>
      </trkpt>
      <trkpt lat="47.15205" lon="6.40617">
        <ele>804</ele>
        <time>2019-06-19T17:20:50Z</time>
      </trkpt>
      <trkpt lat="47.15219" lon="6.40622">
        <ele>805</ele>
        <time>2019-06-19T17:20:54Z</time>
      </trkpt>
      <trkpt lat="47.15233" lon="6.40625">
        <ele>805</ele>
        <time>2019-06-19T17:20:58Z</time>
      </trkpt>
      <trkpt lat="47.15248" lon="6.40627">
        <ele>806</ele>
        <time>2019-06-19T17:21:02Z</time>
      </trkpt>
      <trkpt lat="47.15262" lon="6.40631">
        <ele>809</ele>
        <time>2019-06-19T17:21:06Z</time>
      </trkpt>
      <trkpt lat="47.15278" lon="6.40631">
        <ele>809</ele>
        <time>2019-06-19T17:21:10Z</time>
      </trkpt>
      <trkpt lat="47.15294" lon="6.40634">
        <ele>809</ele>
        <time>2019-06-19T17:21:14Z</time>
      </trkpt>
      <trkpt lat="47.15312" lon="6.4064">
        <ele>809</ele>
        <time>2019-06-19T17:21:18Z</time>
      </trkpt>
      <trkpt lat="47.15329" lon="6.40642">
        <ele>810</ele>
        <time>2019-06-19T17:21:22Z</time>
      </trkpt>
      <trkpt lat="47.15345" lon="6.40644">
        <ele>811</ele>
        <time>2019-06-19T17:21:26Z</time>
      </trkpt>
      <trkpt lat="47.1536" lon="6.40648">
        <ele>811</ele>
        <time>2019-06-19T17:21:30Z</time>
      </trkpt>
      <trkpt lat="47.15375" lon="6.40649">
        <ele>811</ele>
        <time>2019-06-19T17:21:34Z</time>
      </trkpt>
      <trkpt lat="47.1539" lon="6.40651">
        <ele>811</ele>
        <time>2019-06-19T17:21:38Z</time>
      </trkpt>
      <trkpt lat="47.15407" lon="6.4066">
        <ele>812</ele>
        <time>2019-06-19T17:21:42Z</time>
      </trkpt>
      <trkpt lat="47.15416" lon="6.40664">
        <ele>812</ele>
        <time>2019-06-19T17:21:44Z</time>
      </trkpt>
      <trkpt lat="47.15431" lon="6.40668">
        <ele>813</ele>
        <time>2019-06-19T17:21:48Z</time>
      </trkpt>
      <trkpt lat="47.15446" lon="6.40671">
        <ele>813</ele>
        <time>2019-06-19T17:21:52Z</time>
      </trkpt>
      <trkpt lat="47.15462" lon="6.40673">
        <ele>813</ele>
        <time>2019-06-19T17:21:56Z</time>
      </trkpt>
      <trkpt lat="47.15479" lon="6.40674">
        <ele>813</ele>
        <time>2019-06-19T17:22:00Z</time>
      </trkpt>
      <trkpt lat="47.15495" lon="6.40677">
        <ele>813</ele>
        <time>2019-06-19T17:22:04Z</time>
      </trkpt>
      <trkpt lat="47.15512" lon="6.4068">
        <ele>813</ele>
        <time>2019-06-19T17:22:08Z</time>
      </trkpt>
      <trkpt lat="47.15529" lon="6.40682">
        <ele>812</ele>
        <time>2019-06-19T17:22:12Z</time>
      </trkpt>
      <trkpt lat="47.15538" lon="6.40683">
        <ele>812</ele>
        <time>2019-06-19T17:22:14Z</time>
      </trkpt>
      <trkpt lat="47.15548" lon="6.40684">
        <ele>812</ele>
        <time>2019-06-19T17:22:16Z</time>
      </trkpt>
      <trkpt lat="47.15558" lon="6.40685">
        <ele>811</ele>
        <time>2019-06-19T17:22:18Z</time>
      </trkpt>
      <trkpt lat="47.15569" lon="6.40687">
        <ele>811</ele>
        <time>2019-06-19T17:22:20Z</time>
      </trkpt>
      <trkpt lat="47.15579" lon="6.40688">
        <ele>811</ele>
        <time>2019-06-19T17:22:22Z</time>
      </trkpt>
      <trkpt lat="47.1559" lon="6.40689">
        <ele>810</ele>
        <time>2019-06-19T17:22:24Z</time>
      </trkpt>
      <trkpt lat="47.15599" lon="6.4069">
        <ele>810</ele>
        <time>2019-06-19T17:22:26Z</time>
      </trkpt>
      <trkpt lat="47.15611" lon="6.40692">
        <ele>810</ele>
        <time>2019-06-19T17:22:28Z</time>
      </trkpt>
      <trkpt lat="47.15622" lon="6.40694">
        <ele>810</ele>
        <time>2019-06-19T17:22:30Z</time>
      </trkpt>
      <trkpt lat="47.15634" lon="6.40698">
        <ele>810</ele>
        <time>2019-06-19T17:22:32Z</time>
      </trkpt>
      <trkpt lat="47.15645" lon="6.40698">
        <ele>810</ele>
        <time>2019-06-19T17:22:34Z</time>
      </trkpt>
      <trkpt lat="47.15656" lon="6.40699">
        <ele>809</ele>
        <time>2019-06-19T17:22:36Z</time>
      </trkpt>
      <trkpt lat="47.15667" lon="6.40699">
        <ele>809</ele>
        <time>2019-06-19T17:22:38Z</time>
      </trkpt>
      <trkpt lat="47.15678" lon="6.40697">
        <ele>809</ele>
        <time>2019-06-19T17:22:40Z</time>
      </trkpt>
      <trkpt lat="47.15689" lon="6.40698">
        <ele>809</ele>
        <time>2019-06-19T17:22:42Z</time>
      </trkpt>
      <trkpt lat="47.15704" lon="6.40704">
        <ele>809</ele>
        <time>2019-06-19T17:22:44Z</time>
      </trkpt>
      <trkpt lat="47.15717" lon="6.40702">
        <ele>808</ele>
        <time>2019-06-19T17:22:46Z</time>
      </trkpt>
      <trkpt lat="47.1573" lon="6.40704">
        <ele>808</ele>
        <time>2019-06-19T17:22:48Z</time>
      </trkpt>
      <trkpt lat="47.15741" lon="6.40701">
        <ele>808</ele>
        <time>2019-06-19T17:22:50Z</time>
      </trkpt>
      <trkpt lat="47.15753" lon="6.40698">
        <ele>809</ele>
        <time>2019-06-19T17:22:52Z</time>
      </trkpt>
      <trkpt lat="47.15766" lon="6.40698">
        <ele>810</ele>
        <time>2019-06-19T17:22:54Z</time>
      </trkpt>
      <trkpt lat="47.15786" lon="6.40699">
        <ele>810</ele>
        <time>2019-06-19T17:22:56Z</time>
      </trkpt>
      <trkpt lat="47.15801" lon="6.40697">
        <ele>811</ele>
        <time>2019-06-19T17:22:58Z</time>
      </trkpt>
      <trkpt lat="47.15816" lon="6.40699">
        <ele>811</ele>
        <time>2019-06-19T17:23:00Z</time>
      </trkpt>
      <trkpt lat="47.15829" lon="6.40697">
        <ele>812</ele>
        <time>2019-06-19T17:23:02Z</time>
      </trkpt>
      <trkpt lat="47.1584" lon="6.40697">
        <ele>814</ele>
        <time>2019-06-19T17:23:04Z</time>
      </trkpt>
      <trkpt lat="47.15854" lon="6.40696">
        <ele>814</ele>
        <time>2019-06-19T17:23:06Z</time>
      </trkpt>
      <trkpt lat="47.15867" lon="6.40696">
        <ele>814</ele>
        <time>2019-06-19T17:23:08Z</time>
      </trkpt>
      <trkpt lat="47.1588" lon="6.40695">
        <ele>814</ele>
        <time>2019-06-19T17:23:10Z</time>
      </trkpt>
      <trkpt lat="47.15891" lon="6.40695">
        <ele>815</ele>
        <time>2019-06-19T17:23:12Z</time>
      </trkpt>
      <trkpt lat="47.15901" lon="6.40696">
        <ele>815</ele>
        <time>2019-06-19T17:23:14Z</time>
      </trkpt>
      <trkpt lat="47.15911" lon="6.40696">
        <ele>815</ele>
        <time>2019-06-19T17:23:16Z</time>
      </trkpt>
      <trkpt lat="47.15921" lon="6.40696">
        <ele>815</ele>
        <time>2019-06-19T17:23:18Z</time>
      </trkpt>
      <trkpt lat="47.15932" lon="6.40696">
        <ele>815</ele>
        <time>2019-06-19T17:23:20Z</time>
      </trkpt>
      <trkpt lat="47.15944" lon="6.40692">
        <ele>815</ele>
        <time>2019-06-19T17:23:22Z</time>
      </trkpt>
      <trkpt lat="47.15953" lon="6.4069">
        <ele>815</ele>
        <time>2019-06-19T17:23:24Z</time>
      </trkpt>
      <trkpt lat="47.15962" lon="6.40694">
        <ele>814</ele>
        <time>2019-06-19T17:23:26Z</time>
      </trkpt>
      <trkpt lat="47.15979" lon="6.40702">
        <ele>814</ele>
        <time>2019-06-19T17:23:30Z</time>
      </trkpt>
      <trkpt lat="47.1599" lon="6.40705">
        <ele>814</ele>
        <time>2019-06-19T17:23:32Z</time>
      </trkpt>
      <trkpt lat="47.1602" lon="6.40719">
        <ele>810</ele>
        <time>2019-06-19T17:23:36Z</time>
      </trkpt>
      <trkpt lat="47.16034" lon="6.40729">
        <ele>810</ele>
        <time>2019-06-19T17:23:38Z</time>
      </trkpt>
      <trkpt lat="47.16046" lon="6.40735">
        <ele>809</ele>
        <time>2019-06-19T17:23:40Z</time>
      </trkpt>
      <trkpt lat="47.16059" lon="6.40742">
        <ele>809</ele>
        <time>2019-06-19T17:23:42Z</time>
      </trkpt>
      <trkpt lat="47.16073" lon="6.40749">
        <ele>809</ele>
        <time>2019-06-19T17:23:44Z</time>
      </trkpt>
      <trkpt lat="47.16086" lon="6.40753">
        <ele>808</ele>
        <time>2019-06-19T17:23:46Z</time>
      </trkpt>
      <trkpt lat="47.16103" lon="6.40759">
        <ele>806</ele>
        <time>2019-06-19T17:23:48Z</time>
      </trkpt>
      <trkpt lat="47.16118" lon="6.40767">
        <ele>804</ele>
        <time>2019-06-19T17:23:50Z</time>
      </trkpt>
      <trkpt lat="47.16139" lon="6.40779">
        <ele>802</ele>
        <time>2019-06-19T17:23:52Z</time>
      </trkpt>
      <trkpt lat="47.16157" lon="6.40792">
        <ele>801</ele>
        <time>2019-06-19T17:23:54Z</time>
      </trkpt>
      <trkpt lat="47.16179" lon="6.40811">
        <ele>793</ele>
        <time>2019-06-19T17:23:56Z</time>
      </trkpt>
      <trkpt lat="47.16198" lon="6.4083">
        <ele>792</ele>
        <time>2019-06-19T17:23:58Z</time>
      </trkpt>
      <trkpt lat="47.16217" lon="6.40856">
        <ele>794</ele>
        <time>2019-06-19T17:24:00Z</time>
      </trkpt>
      <trkpt lat="47.16234" lon="6.40886">
        <ele>794</ele>
        <time>2019-06-19T17:24:02Z</time>
      </trkpt>
      <trkpt lat="47.16256" lon="6.40905">
        <ele>788</ele>
        <time>2019-06-19T17:24:04Z</time>
      </trkpt>
      <trkpt lat="47.16275" lon="6.40917">
        <ele>791</ele>
        <time>2019-06-19T17:24:06Z</time>
      </trkpt>
      <trkpt lat="47.16295" lon="6.40927">
        <ele>790</ele>
        <time>2019-06-19T17:24:08Z</time>
      </trkpt>
      <trkpt lat="47.16315" lon="6.40925">
        <ele>789</ele>
        <time>2019-06-19T17:24:10Z</time>
      </trkpt>
      <trkpt lat="47.16332" lon="6.40912">
        <ele>785</ele>
        <time>2019-06-19T17:24:12Z</time>
      </trkpt>
      <trkpt lat="47.16346" lon="6.40896">
        <ele>783</ele>
        <time>2019-06-19T17:24:14Z</time>
      </trkpt>
      <trkpt lat="47.16358" lon="6.40876">
        <ele>781</ele>
        <time>2019-06-19T17:24:16Z</time>
      </trkpt>
      <trkpt lat="47.16379" lon="6.40862">
        <ele>781</ele>
        <time>2019-06-19T17:24:18Z</time>
      </trkpt>
      <trkpt lat="47.16401" lon="6.4085">
        <ele>781</ele>
        <time>2019-06-19T17:24:20Z</time>
      </trkpt>
      <trkpt lat="47.1642" lon="6.40839">
        <ele>781</ele>
        <time>2019-06-19T17:24:22Z</time>
      </trkpt>
      <trkpt lat="47.16444" lon="6.40834">
        <ele>782</ele>
        <time>2019-06-19T17:24:24Z</time>
      </trkpt>
      <trkpt lat="47.16462" lon="6.40812">
        <ele>783</ele>
        <time>2019-06-19T17:24:26Z</time>
      </trkpt>
      <trkpt lat="47.16478" lon="6.40792">
        <ele>783</ele>
        <time>2019-06-19T17:24:28Z</time>
      </trkpt>
      <trkpt lat="47.16496" lon="6.40776">
        <ele>783</ele>
        <time>2019-06-19T17:24:30Z</time>
      </trkpt>
      <trkpt lat="47.16513" lon="6.40759">
        <ele>782</ele>
        <time>2019-06-19T17:24:32Z</time>
      </trkpt>
      <trkpt lat="47.16531" lon="6.40745">
        <ele>782</ele>
        <time>2019-06-19T17:24:34Z</time>
      </trkpt>
      <trkpt lat="47.16551" lon="6.40738">
        <ele>781</ele>
        <time>2019-06-19T17:24:36Z</time>
      </trkpt>
      <trkpt lat="47.16573" lon="6.40747">
        <ele>779</ele>
        <time>2019-06-19T17:24:38Z</time>
      </trkpt>
      <trkpt lat="47.16595" lon="6.40747">
        <ele>775</ele>
        <time>2019-06-19T17:24:40Z</time>
      </trkpt>
      <trkpt lat="47.16614" lon="6.40737">
        <ele>774</ele>
        <time>2019-06-19T17:24:42Z</time>
      </trkpt>
      <trkpt lat="47.1663" lon="6.40715">
        <ele>772</ele>
        <time>2019-06-19T17:24:44Z</time>
      </trkpt>
      <trkpt lat="47.1665" lon="6.40702">
        <ele>771</ele>
        <time>2019-06-19T17:24:46Z</time>
      </trkpt>
      <trkpt lat="47.16669" lon="6.4069">
        <ele>765</ele>
        <time>2019-06-19T17:24:48Z</time>
      </trkpt>
      <trkpt lat="47.16689" lon="6.40692">
        <ele>765</ele>
        <time>2019-06-19T17:24:50Z</time>
      </trkpt>
      <trkpt lat="47.16707" lon="6.40681">
        <ele>764</ele>
        <time>2019-06-19T17:24:52Z</time>
      </trkpt>
      <trkpt lat="47.16723" lon="6.40659">
        <ele>760</ele>
        <time>2019-06-19T17:24:54Z</time>
      </trkpt>
      <trkpt lat="47.16732" lon="6.40631">
        <ele>759</ele>
        <time>2019-06-19T17:24:56Z</time>
      </trkpt>
      <trkpt lat="47.1674" lon="6.40604">
        <ele>757</ele>
        <time>2019-06-19T17:24:58Z</time>
      </trkpt>
      <trkpt lat="47.16773" lon="6.40605">
        <ele>751</ele>
        <time>2019-06-19T17:25:00Z</time>
      </trkpt>
      <trkpt lat="47.16795" lon="6.40606">
        <ele>750</ele>
        <time>2019-06-19T17:25:02Z</time>
      </trkpt>
      <trkpt lat="47.16818" lon="6.40609">
        <ele>748</ele>
        <time>2019-06-19T17:25:04Z</time>
      </trkpt>
      <trkpt lat="47.16841" lon="6.4061">
        <ele>742</ele>
        <time>2019-06-19T17:25:06Z</time>
      </trkpt>
      <trkpt lat="47.16867" lon="6.4061">
        <ele>741</ele>
        <time>2019-06-19T17:25:08Z</time>
      </trkpt>
      <trkpt lat="47.16892" lon="6.40608">
        <ele>739</ele>
        <time>2019-06-19T17:25:10Z</time>
      </trkpt>
      <trkpt lat="47.16917" lon="6.40604">
        <ele>734</ele>
        <time>2019-06-19T17:25:12Z</time>
      </trkpt>
      <trkpt lat="47.16942" lon="6.406">
        <ele>733</ele>
        <time>2019-06-19T17:25:14Z</time>
      </trkpt>
      <trkpt lat="47.16965" lon="6.40596">
        <ele>732</ele>
        <time>2019-06-19T17:25:16Z</time>
      </trkpt>
      <trkpt lat="47.16989" lon="6.40594">
        <ele>730</ele>
        <time>2019-06-19T17:25:18Z</time>
      </trkpt>
      <trkpt lat="47.17013" lon="6.40591">
        <ele>728</ele>
        <time>2019-06-19T17:25:20Z</time>
      </trkpt>
      <trkpt lat="47.17037" lon="6.40584">
        <ele>729</ele>
        <time>2019-06-19T17:25:22Z</time>
      </trkpt>
      <trkpt lat="47.17059" lon="6.40577">
        <ele>724</ele>
        <time>2019-06-19T17:25:24Z</time>
      </trkpt>
      <trkpt lat="47.17082" lon="6.40573">
        <ele>724</ele>
        <time>2019-06-19T17:25:26Z</time>
      </trkpt>
      <trkpt lat="47.17108" lon="6.40572">
        <ele>721</ele>
        <time>2019-06-19T17:25:28Z</time>
      </trkpt>
      <trkpt lat="47.17132" lon="6.40567">
        <ele>721</ele>
        <time>2019-06-19T17:25:30Z</time>
      </trkpt>
      <trkpt lat="47.17154" lon="6.40561">
        <ele>721</ele>
        <time>2019-06-19T17:25:32Z</time>
      </trkpt>
      <trkpt lat="47.17178" lon="6.40555">
        <ele>717</ele>
        <time>2019-06-19T17:25:34Z</time>
      </trkpt>
      <trkpt lat="47.17201" lon="6.4055">
        <ele>716</ele>
        <time>2019-06-19T17:25:36Z</time>
      </trkpt>
      <trkpt lat="47.17224" lon="6.40545">
        <ele>714</ele>
        <time>2019-06-19T17:25:38Z</time>
      </trkpt>
      <trkpt lat="47.17247" lon="6.40542">
        <ele>714</ele>
        <time>2019-06-19T17:25:40Z</time>
      </trkpt>
      <trkpt lat="47.17269" lon="6.40544">
        <ele>709</ele>
        <time>2019-06-19T17:25:42Z</time>
      </trkpt>
      <trkpt lat="47.17292" lon="6.40547">
        <ele>708</ele>
        <time>2019-06-19T17:25:44Z</time>
      </trkpt>
      <trkpt lat="47.17316" lon="6.40554">
        <ele>708</ele>
        <time>2019-06-19T17:25:46Z</time>
      </trkpt>
      <trkpt lat="47.17341" lon="6.40557">
        <ele>703</ele>
        <time>2019-06-19T17:25:48Z</time>
      </trkpt>
      <trkpt lat="47.17364" lon="6.40563">
        <ele>702</ele>
        <time>2019-06-19T17:25:50Z</time>
      </trkpt>
      <trkpt lat="47.17387" lon="6.40568">
        <ele>700</ele>
        <time>2019-06-19T17:25:52Z</time>
      </trkpt>
      <trkpt lat="47.17412" lon="6.4057">
        <ele>699</ele>
        <time>2019-06-19T17:25:54Z</time>
      </trkpt>
      <trkpt lat="47.17435" lon="6.40576">
        <ele>696</ele>
        <time>2019-06-19T17:25:56Z</time>
      </trkpt>
      <trkpt lat="47.1746" lon="6.40573">
        <ele>694</ele>
        <time>2019-06-19T17:25:58Z</time>
      </trkpt>
      <trkpt lat="47.17481" lon="6.40571">
        <ele>693</ele>
        <time>2019-06-19T17:26:00Z</time>
      </trkpt>
      <trkpt lat="47.17505" lon="6.4057">
        <ele>691</ele>
        <time>2019-06-19T17:26:02Z</time>
      </trkpt>
      <trkpt lat="47.1753" lon="6.40569">
        <ele>690</ele>
        <time>2019-06-19T17:26:04Z</time>
      </trkpt>
      <trkpt lat="47.17552" lon="6.40561">
        <ele>689</ele>
        <time>2019-06-19T17:26:06Z</time>
      </trkpt>
      <trkpt lat="47.17573" lon="6.40553">
        <ele>689</ele>
        <time>2019-06-19T17:26:08Z</time>
      </trkpt>
      <trkpt lat="47.17594" lon="6.40547">
        <ele>687</ele>
        <time>2019-06-19T17:26:10Z</time>
      </trkpt>
      <trkpt lat="47.17616" lon="6.40543">
        <ele>686</ele>
        <time>2019-06-19T17:26:12Z</time>
      </trkpt>
      <trkpt lat="47.17639" lon="6.40539">
        <ele>686</ele>
        <time>2019-06-19T17:26:14Z</time>
      </trkpt>
      <trkpt lat="47.1766" lon="6.40534">
        <ele>685</ele>
        <time>2019-06-19T17:26:16Z</time>
      </trkpt>
      <trkpt lat="47.17683" lon="6.40526">
        <ele>683</ele>
        <time>2019-06-19T17:26:18Z</time>
      </trkpt>
      <trkpt lat="47.17709" lon="6.40519">
        <ele>682</ele>
        <time>2019-06-19T17:26:20Z</time>
      </trkpt>
      <trkpt lat="47.17731" lon="6.4051">
        <ele>681</ele>
        <time>2019-06-19T17:26:22Z</time>
      </trkpt>
      <trkpt lat="47.17752" lon="6.40496">
        <ele>678</ele>
        <time>2019-06-19T17:26:24Z</time>
      </trkpt>
      <trkpt lat="47.17775" lon="6.40488">
        <ele>676</ele>
        <time>2019-06-19T17:26:26Z</time>
      </trkpt>
      <trkpt lat="47.17798" lon="6.40478">
        <ele>675</ele>
        <time>2019-06-19T17:26:28Z</time>
      </trkpt>
      <trkpt lat="47.17819" lon="6.40464">
        <ele>674</ele>
        <time>2019-06-19T17:26:30Z</time>
      </trkpt>
      <trkpt lat="47.17843" lon="6.40456">
        <ele>672</ele>
        <time>2019-06-19T17:26:32Z</time>
      </trkpt>
      <trkpt lat="47.17866" lon="6.40445">
        <ele>671</ele>
        <time>2019-06-19T17:26:34Z</time>
      </trkpt>
      <trkpt lat="47.17891" lon="6.40432">
        <ele>670</ele>
        <time>2019-06-19T17:26:36Z</time>
      </trkpt>
      <trkpt lat="47.17914" lon="6.40425">
        <ele>669</ele>
        <time>2019-06-19T17:26:38Z</time>
      </trkpt>
      <trkpt lat="47.17936" lon="6.40414">
        <ele>667</ele>
        <time>2019-06-19T17:26:40Z</time>
      </trkpt>
      <trkpt lat="47.17956" lon="6.40404">
        <ele>666</ele>
        <time>2019-06-19T17:26:42Z</time>
      </trkpt>
      <trkpt lat="47.17977" lon="6.40394">
        <ele>665</ele>
        <time>2019-06-19T17:26:44Z</time>
      </trkpt>
      <trkpt lat="47.17998" lon="6.40382">
        <ele>665</ele>
        <time>2019-06-19T17:26:46Z</time>
      </trkpt>
      <trkpt lat="47.18016" lon="6.4037">
        <ele>664</ele>
        <time>2019-06-19T17:26:48Z</time>
      </trkpt>
      <trkpt lat="47.18035" lon="6.40361">
        <ele>664</ele>
        <time>2019-06-19T17:26:50Z</time>
      </trkpt>
      <trkpt lat="47.18052" lon="6.4035">
        <ele>664</ele>
        <time>2019-06-19T17:26:52Z</time>
      </trkpt>
      <trkpt lat="47.18067" lon="6.40339">
        <ele>664</ele>
        <time>2019-06-19T17:26:54Z</time>
      </trkpt>
      <trkpt lat="47.1808" lon="6.40322">
        <ele>664</ele>
        <time>2019-06-19T17:26:56Z</time>
      </trkpt>
      <trkpt lat="47.18095" lon="6.40313">
        <ele>663</ele>
        <time>2019-06-19T17:26:58Z</time>
      </trkpt>
      <trkpt lat="47.18107" lon="6.40325">
        <ele>663</ele>
        <time>2019-06-19T17:27:00Z</time>
      </trkpt>
      <trkpt lat="47.18117" lon="6.40339">
        <ele>663</ele>
        <time>2019-06-19T17:27:02Z</time>
      </trkpt>
      <trkpt lat="47.18126" lon="6.40354">
        <ele>663</ele>
        <time>2019-06-19T17:27:04Z</time>
      </trkpt>
      <trkpt lat="47.18135" lon="6.40367">
        <ele>663</ele>
        <time>2019-06-19T17:27:06Z</time>
      </trkpt>
      <trkpt lat="47.18147" lon="6.40375">
        <ele>663</ele>
        <time>2019-06-19T17:27:08Z</time>
      </trkpt>
      <trkpt lat="47.18158" lon="6.40378">
        <ele>663</ele>
        <time>2019-06-19T17:27:10Z</time>
      </trkpt>
      <trkpt lat="47.18157" lon="6.40339">
        <ele>662</ele>
        <time>2019-06-19T17:27:12Z</time>
      </trkpt>
      <trkpt lat="47.18163" lon="6.40321">
        <ele>662</ele>
        <time>2019-06-19T17:27:14Z</time>
      </trkpt>
      <trkpt lat="47.18169" lon="6.40307">
        <ele>662</ele>
        <time>2019-06-19T17:27:16Z</time>
      </trkpt>
      <trkpt lat="47.18184" lon="6.40337">
        <ele>662</ele>
        <time>2019-06-19T17:27:18Z</time>
      </trkpt>
      <trkpt lat="47.18191" lon="6.4035">
        <ele>662</ele>
        <time>2019-06-19T17:27:20Z</time>
      </trkpt>
      <trkpt lat="47.18195" lon="6.40367">
        <ele>662</ele>
        <time>2019-06-19T17:27:22Z</time>
      </trkpt>
      <trkpt lat="47.182" lon="6.40384">
        <ele>662</ele>
        <time>2019-06-19T17:27:24Z</time>
      </trkpt>
      <trkpt lat="47.182" lon="6.40402">
        <ele>662</ele>
        <time>2019-06-19T17:27:26Z</time>
      </trkpt>
      <trkpt lat="47.18203" lon="6.4042">
        <ele>663</ele>
        <time>2019-06-19T17:27:28Z</time>
      </trkpt>
      <trkpt lat="47.18204" lon="6.40443">
        <ele>663</ele>
        <time>2019-06-19T17:27:30Z</time>
      </trkpt>
      <trkpt lat="47.18205" lon="6.40462">
        <ele>664</ele>
        <time>2019-06-19T17:27:32Z</time>
      </trkpt>
      <trkpt lat="47.18206" lon="6.40479">
        <ele>664</ele>
        <time>2019-06-19T17:27:34Z</time>
      </trkpt>
      <trkpt lat="47.18224" lon="6.40477">
        <ele>664</ele>
        <time>2019-06-19T17:27:36Z</time>
      </trkpt>
      <trkpt lat="47.18235" lon="6.4048">
        <ele>664</ele>
        <time>2019-06-19T17:27:38Z</time>
      </trkpt>
      <trkpt lat="47.18247" lon="6.40484">
        <ele>664</ele>
        <time>2019-06-19T17:27:40Z</time>
      </trkpt>
      <trkpt lat="47.18258" lon="6.40491">
        <ele>664</ele>
        <time>2019-06-19T17:27:42Z</time>
      </trkpt>
      <trkpt lat="47.18267" lon="6.40503">
        <ele>664</ele>
        <time>2019-06-19T17:27:44Z</time>
      </trkpt>
      <trkpt lat="47.18276" lon="6.40515">
        <ele>665</ele>
        <time>2019-06-19T17:27:46Z</time>
      </trkpt>
      <trkpt lat="47.18284" lon="6.40528">
        <ele>665</ele>
        <time>2019-06-19T17:27:48Z</time>
      </trkpt>
      <trkpt lat="47.18291" lon="6.40539">
        <ele>665</ele>
        <time>2019-06-19T17:27:50Z</time>
      </trkpt>
      <trkpt lat="47.18298" lon="6.40552">
        <ele>665</ele>
        <time>2019-06-19T17:27:52Z</time>
      </trkpt>
      <trkpt lat="47.18305" lon="6.40565">
        <ele>665</ele>
        <time>2019-06-19T17:27:54Z</time>
      </trkpt>
      <trkpt lat="47.18312" lon="6.40579">
        <ele>665</ele>
        <time>2019-06-19T17:27:56Z</time>
      </trkpt>
      <trkpt lat="47.1832" lon="6.40591">
        <ele>666</ele>
        <time>2019-06-19T17:27:58Z</time>
      </trkpt>
      <trkpt lat="47.18327" lon="6.40608">
        <ele>666</ele>
        <time>2019-06-19T17:28:00Z</time>
      </trkpt>
      <trkpt lat="47.18338" lon="6.40611">
        <ele>666</ele>
        <time>2019-06-19T17:28:02Z</time>
      </trkpt>
      <trkpt lat="47.1835" lon="6.40613">
        <ele>666</ele>
        <time>2019-06-19T17:28:04Z</time>
      </trkpt>
      <trkpt lat="47.18359" lon="6.40597">
        <ele>666</ele>
        <time>2019-06-19T17:28:06Z</time>
      </trkpt>
      <trkpt lat="47.18367" lon="6.40585">
        <ele>666</ele>
        <time>2019-06-19T17:28:08Z</time>
      </trkpt>
      <trkpt lat="47.18376" lon="6.40574">
        <ele>666</ele>
        <time>2019-06-19T17:28:10Z</time>
      </trkpt>
      <trkpt lat="47.18386" lon="6.4056">
        <ele>666</ele>
        <time>2019-06-19T17:28:12Z</time>
      </trkpt>
      <trkpt lat="47.18396" lon="6.40545">
        <ele>666</ele>
        <time>2019-06-19T17:28:14Z</time>
      </trkpt>
      <trkpt lat="47.18404" lon="6.40532">
        <ele>666</ele>
        <time>2019-06-19T17:28:16Z</time>
      </trkpt>
      <trkpt lat="47.18411" lon="6.40517">
        <ele>666</ele>
        <time>2019-06-19T17:28:18Z</time>
      </trkpt>
      <trkpt lat="47.18419" lon="6.40508">
        <ele>666</ele>
        <time>2019-06-19T17:28:20Z</time>
      </trkpt>
      <trkpt lat="47.18427" lon="6.40497">
        <ele>666</ele>
        <time>2019-06-19T17:28:22Z</time>
      </trkpt>
      <trkpt lat="47.18437" lon="6.40502">
        <ele>666</ele>
        <time>2019-06-19T17:28:24Z</time>
      </trkpt>
      <trkpt lat="47.18448" lon="6.40505">
        <ele>665</ele>
        <time>2019-06-19T17:28:26Z</time>
      </trkpt>
      <trkpt lat="47.1846" lon="6.40508">
        <ele>665</ele>
        <time>2019-06-19T17:28:28Z</time>
      </trkpt>
      <trkpt lat="47.18473" lon="6.40511">
        <ele>665</ele>
        <time>2019-06-19T17:28:30Z</time>
      </trkpt>
      <trkpt lat="47.18483" lon="6.40511">
        <ele>665</ele>
        <time>2019-06-19T17:28:32Z</time>
      </trkpt>
      <trkpt lat="47.18493" lon="6.40511">
        <ele>665</ele>
        <time>2019-06-19T17:28:34Z</time>
      </trkpt>
      <trkpt lat="47.18501" lon="6.40479">
        <ele>664</ele>
        <time>2019-06-19T17:28:38Z</time>
      </trkpt>
      <trkpt lat="47.18505" lon="6.40462">
        <ele>664</ele>
        <time>2019-06-19T17:28:40Z</time>
      </trkpt>
      <trkpt lat="47.1851" lon="6.40446">
        <ele>664</ele>
        <time>2019-06-19T17:28:42Z</time>
      </trkpt>
      <trkpt lat="47.18508" lon="6.40426">
        <ele>664</ele>
        <time>2019-06-19T17:28:44Z</time>
      </trkpt>
      <trkpt lat="47.18509" lon="6.40408">
        <ele>663</ele>
        <time>2019-06-19T17:28:46Z</time>
      </trkpt>
      <trkpt lat="47.18505" lon="6.40387">
        <ele>663</ele>
        <time>2019-06-19T17:28:48Z</time>
      </trkpt>
      <trkpt lat="47.18501" lon="6.40366">
        <ele>663</ele>
        <time>2019-06-19T17:28:50Z</time>
      </trkpt>
      <trkpt lat="47.18497" lon="6.40349">
        <ele>663</ele>
        <time>2019-06-19T17:28:52Z</time>
      </trkpt>
      <trkpt lat="47.18486" lon="6.40339">
        <ele>663</ele>
        <time>2019-06-19T17:28:54Z</time>
      </trkpt>
      <trkpt lat="47.18475" lon="6.40328">
        <ele>661</ele>
        <time>2019-06-19T17:28:56Z</time>
      </trkpt>
      <trkpt lat="47.18465" lon="6.40317">
        <ele>661</ele>
        <time>2019-06-19T17:28:58Z</time>
      </trkpt>
      <trkpt lat="47.18453" lon="6.40321">
        <ele>661</ele>
        <time>2019-06-19T17:29:00Z</time>
      </trkpt>
      <trkpt lat="47.18445" lon="6.40343">
        <ele>663</ele>
        <time>2019-06-19T17:29:04Z</time>
      </trkpt>
      <trkpt lat="47.18436" lon="6.4035">
        <ele>663</ele>
        <time>2019-06-19T17:29:06Z</time>
      </trkpt>
      <trkpt lat="47.18426" lon="6.40352">
        <ele>663</ele>
        <time>2019-06-19T17:29:10Z</time>
      </trkpt>
    </trkseg>
  </trk>
</gpx>